<?xml version="1.0" encoding="UTF-8" standalone="no" ?>
<gpx xmlns="http://www.topografix.com/GPX/1/1" xmlns:xsi="http://www.w3.org/2001/XMLSchema-instance" xsi:schemaLocation="http://www.topografix.com/GPX/1/1 http://www.topografix.com/GPX/1/1/gpx.xsd" version="1.1" creator="VisuGPX - https://www.visugpx.com">
  <metadata>
    <name>2024 05 22 Parcours Total 2024</name>
  </metadata>
  <trk>
    <name><![CDATA[VTT5 Normal]]></name>
    <extensions>
      <line xmlns="http://www.topografix.com/GPX/gpx_style/0/2">
        <color>0000FF</color>
        <width>4</width>
      </line>
    </extensions>
    <trkseg>
      <trkpt lat="48.08193" lon="3.29103">
        <ele>70.7</ele>
        <time>2024-03-30T15:26:07.000Z</time>
      </trkpt>
      <trkpt lat="48.08193" lon="3.29103">
        <ele>70.7</ele>
        <time>2024-03-30T15:26:23.000Z</time>
      </trkpt>
      <trkpt lat="48.08193" lon="3.29103">
        <ele>70.7</ele>
        <time>2024-03-30T15:26:38.000Z</time>
      </trkpt>
      <trkpt lat="48.08194" lon="3.29105">
        <ele>70.8</ele>
        <time>2024-03-30T15:26:39.000Z</time>
      </trkpt>
      <trkpt lat="48.08195" lon="3.29107">
        <ele>70.9</ele>
        <time>2024-03-30T15:26:40.000Z</time>
      </trkpt>
      <trkpt lat="48.08196" lon="3.29109">
        <ele>70.9</ele>
        <time>2024-03-30T15:26:41.000Z</time>
      </trkpt>
      <trkpt lat="48.08207" lon="3.29118">
        <ele>70.9</ele>
        <time>2024-03-30T15:26:45.000Z</time>
      </trkpt>
      <trkpt lat="48.08209" lon="3.2912">
        <ele>70.8</ele>
        <time>2024-03-30T15:26:46.000Z</time>
      </trkpt>
      <trkpt lat="48.08212" lon="3.29122">
        <ele>70.9</ele>
        <time>2024-03-30T15:26:47.000Z</time>
      </trkpt>
      <trkpt lat="48.08214" lon="3.29124">
        <ele>70.9</ele>
        <time>2024-03-30T15:26:48.000Z</time>
      </trkpt>
      <trkpt lat="48.08222" lon="3.29131">
        <ele>71</ele>
        <time>2024-03-30T15:26:51.000Z</time>
      </trkpt>
      <trkpt lat="48.08229" lon="3.29136">
        <ele>71.2</ele>
        <time>2024-03-30T15:26:54.000Z</time>
      </trkpt>
      <trkpt lat="48.08232" lon="3.29138">
        <ele>71.3</ele>
        <time>2024-03-30T15:26:55.000Z</time>
      </trkpt>
      <trkpt lat="48.08242" lon="3.29145">
        <ele>71.5</ele>
        <time>2024-03-30T15:26:59.000Z</time>
      </trkpt>
      <trkpt lat="48.08245" lon="3.29146">
        <ele>71.6</ele>
        <time>2024-03-30T15:27:00.000Z</time>
      </trkpt>
      <trkpt lat="48.08247" lon="3.29148">
        <ele>71.6</ele>
        <time>2024-03-30T15:27:01.000Z</time>
      </trkpt>
      <trkpt lat="48.08249" lon="3.29149">
        <ele>71.6</ele>
        <time>2024-03-30T15:27:02.000Z</time>
      </trkpt>
      <trkpt lat="48.08251" lon="3.29151">
        <ele>71.6</ele>
        <time>2024-03-30T15:27:03.000Z</time>
      </trkpt>
      <trkpt lat="48.08252" lon="3.29152">
        <ele>71.6</ele>
        <time>2024-03-30T15:27:04.000Z</time>
      </trkpt>
      <trkpt lat="48.08253" lon="3.29153">
        <ele>71.5</ele>
        <time>2024-03-30T15:27:05.000Z</time>
      </trkpt>
      <trkpt lat="48.08255" lon="3.29155">
        <ele>71.5</ele>
        <time>2024-03-30T15:27:06.000Z</time>
      </trkpt>
      <trkpt lat="48.08255" lon="3.29158">
        <ele>71.4</ele>
        <time>2024-03-30T15:27:07.000Z</time>
      </trkpt>
      <trkpt lat="48.08255" lon="3.29161">
        <ele>71.2</ele>
        <time>2024-03-30T15:27:08.000Z</time>
      </trkpt>
      <trkpt lat="48.08254" lon="3.29164">
        <ele>71.1</ele>
        <time>2024-03-30T15:27:09.000Z</time>
      </trkpt>
      <trkpt lat="48.08253" lon="3.29167">
        <ele>71</ele>
        <time>2024-03-30T15:27:10.000Z</time>
      </trkpt>
      <trkpt lat="48.08252" lon="3.29171">
        <ele>70.8</ele>
        <time>2024-03-30T15:27:11.000Z</time>
      </trkpt>
      <trkpt lat="48.08251" lon="3.29175">
        <ele>70.7</ele>
        <time>2024-03-30T15:27:12.000Z</time>
      </trkpt>
      <trkpt lat="48.0825" lon="3.2918">
        <ele>70.5</ele>
        <time>2024-03-30T15:27:13.000Z</time>
      </trkpt>
      <trkpt lat="48.08249" lon="3.29184">
        <ele>70.4</ele>
        <time>2024-03-30T15:27:14.000Z</time>
      </trkpt>
      <trkpt lat="48.08248" lon="3.29188">
        <ele>70.2</ele>
        <time>2024-03-30T15:27:15.000Z</time>
      </trkpt>
      <trkpt lat="48.08246" lon="3.29193">
        <ele>70</ele>
        <time>2024-03-30T15:27:16.000Z</time>
      </trkpt>
      <trkpt lat="48.08245" lon="3.29197">
        <ele>70</ele>
        <time>2024-03-30T15:27:17.000Z</time>
      </trkpt>
      <trkpt lat="48.08243" lon="3.29201">
        <ele>70</ele>
        <time>2024-03-30T15:27:18.000Z</time>
      </trkpt>
      <trkpt lat="48.08242" lon="3.29205">
        <ele>70</ele>
        <time>2024-03-30T15:27:19.000Z</time>
      </trkpt>
      <trkpt lat="48.0824" lon="3.2921">
        <ele>70</ele>
        <time>2024-03-30T15:27:20.000Z</time>
      </trkpt>
      <trkpt lat="48.08239" lon="3.29215">
        <ele>70</ele>
        <time>2024-03-30T15:27:21.000Z</time>
      </trkpt>
      <trkpt lat="48.08239" lon="3.2922">
        <ele>70</ele>
        <time>2024-03-30T15:27:22.000Z</time>
      </trkpt>
      <trkpt lat="48.08238" lon="3.29225">
        <ele>70</ele>
        <time>2024-03-30T15:27:23.000Z</time>
      </trkpt>
      <trkpt lat="48.08236" lon="3.2923">
        <ele>70</ele>
        <time>2024-03-30T15:27:24.000Z</time>
      </trkpt>
      <trkpt lat="48.08235" lon="3.29235">
        <ele>70</ele>
        <time>2024-03-30T15:27:25.000Z</time>
      </trkpt>
      <trkpt lat="48.08234" lon="3.29241">
        <ele>70</ele>
        <time>2024-03-30T15:27:26.000Z</time>
      </trkpt>
      <trkpt lat="48.08232" lon="3.29247">
        <ele>70</ele>
        <time>2024-03-30T15:27:27.000Z</time>
      </trkpt>
      <trkpt lat="48.08231" lon="3.29254">
        <ele>70.5</ele>
        <time>2024-03-30T15:27:28.000Z</time>
      </trkpt>
      <trkpt lat="48.08229" lon="3.29261">
        <ele>71.5</ele>
        <time>2024-03-30T15:27:29.000Z</time>
      </trkpt>
      <trkpt lat="48.08227" lon="3.29268">
        <ele>72.7</ele>
        <time>2024-03-30T15:27:30.000Z</time>
      </trkpt>
      <trkpt lat="48.08225" lon="3.29275">
        <ele>74</ele>
        <time>2024-03-30T15:27:31.000Z</time>
      </trkpt>
      <trkpt lat="48.08223" lon="3.29282">
        <ele>74.7</ele>
        <time>2024-03-30T15:27:32.000Z</time>
      </trkpt>
      <trkpt lat="48.08222" lon="3.29288">
        <ele>74.6</ele>
        <time>2024-03-30T15:27:33.000Z</time>
      </trkpt>
      <trkpt lat="48.08221" lon="3.29294">
        <ele>74.3</ele>
        <time>2024-03-30T15:27:34.000Z</time>
      </trkpt>
      <trkpt lat="48.0822" lon="3.29299">
        <ele>74.1</ele>
        <time>2024-03-30T15:27:35.000Z</time>
      </trkpt>
      <trkpt lat="48.0822" lon="3.29304">
        <ele>74</ele>
        <time>2024-03-30T15:27:36.000Z</time>
      </trkpt>
      <trkpt lat="48.0822" lon="3.29307">
        <ele>73.9</ele>
        <time>2024-03-30T15:27:37.000Z</time>
      </trkpt>
      <trkpt lat="48.08223" lon="3.29311">
        <ele>73.7</ele>
        <time>2024-03-30T15:27:38.000Z</time>
      </trkpt>
      <trkpt lat="48.08227" lon="3.29313">
        <ele>73.3</ele>
        <time>2024-03-30T15:27:39.000Z</time>
      </trkpt>
      <trkpt lat="48.08237" lon="3.29316">
        <ele>72.2</ele>
        <time>2024-03-30T15:27:41.000Z</time>
      </trkpt>
      <trkpt lat="48.08241" lon="3.29315">
        <ele>71.9</ele>
        <time>2024-03-30T15:27:42.000Z</time>
      </trkpt>
      <trkpt lat="48.08244" lon="3.29311">
        <ele>71.6</ele>
        <time>2024-03-30T15:27:43.000Z</time>
      </trkpt>
      <trkpt lat="48.08246" lon="3.29307">
        <ele>71.4</ele>
        <time>2024-03-30T15:27:44.000Z</time>
      </trkpt>
      <trkpt lat="48.08247" lon="3.29303">
        <ele>71.3</ele>
        <time>2024-03-30T15:27:45.000Z</time>
      </trkpt>
      <trkpt lat="48.08248" lon="3.293">
        <ele>71</ele>
        <time>2024-03-30T15:27:46.000Z</time>
      </trkpt>
      <trkpt lat="48.08251" lon="3.29295">
        <ele>70.6</ele>
        <time>2024-03-30T15:27:47.000Z</time>
      </trkpt>
      <trkpt lat="48.08254" lon="3.29294">
        <ele>70.6</ele>
        <time>2024-03-30T15:27:48.000Z</time>
      </trkpt>
      <trkpt lat="48.08258" lon="3.29293">
        <ele>70.5</ele>
        <time>2024-03-30T15:27:49.000Z</time>
      </trkpt>
      <trkpt lat="48.08265" lon="3.29296">
        <ele>70.7</ele>
        <time>2024-03-30T15:27:51.000Z</time>
      </trkpt>
      <trkpt lat="48.0827" lon="3.29298">
        <ele>70.7</ele>
        <time>2024-03-30T15:27:52.000Z</time>
      </trkpt>
      <trkpt lat="48.08274" lon="3.293">
        <ele>70.8</ele>
        <time>2024-03-30T15:27:53.000Z</time>
      </trkpt>
      <trkpt lat="48.08282" lon="3.29306">
        <ele>70.9</ele>
        <time>2024-03-30T15:27:55.000Z</time>
      </trkpt>
      <trkpt lat="48.08285" lon="3.29311">
        <ele>71</ele>
        <time>2024-03-30T15:27:56.000Z</time>
      </trkpt>
      <trkpt lat="48.08287" lon="3.29316">
        <ele>71.2</ele>
        <time>2024-03-30T15:27:57.000Z</time>
      </trkpt>
      <trkpt lat="48.08288" lon="3.29322">
        <ele>71.4</ele>
        <time>2024-03-30T15:27:58.000Z</time>
      </trkpt>
      <trkpt lat="48.08289" lon="3.29328">
        <ele>71.7</ele>
        <time>2024-03-30T15:27:59.000Z</time>
      </trkpt>
      <trkpt lat="48.08294" lon="3.29337">
        <ele>72.1</ele>
        <time>2024-03-30T15:28:01.000Z</time>
      </trkpt>
      <trkpt lat="48.08296" lon="3.2934">
        <ele>72.1</ele>
        <time>2024-03-30T15:28:02.000Z</time>
      </trkpt>
      <trkpt lat="48.08299" lon="3.29343">
        <ele>72.1</ele>
        <time>2024-03-30T15:28:03.000Z</time>
      </trkpt>
      <trkpt lat="48.08302" lon="3.29344">
        <ele>72</ele>
        <time>2024-03-30T15:28:04.000Z</time>
      </trkpt>
      <trkpt lat="48.08305" lon="3.29345">
        <ele>72</ele>
        <time>2024-03-30T15:28:05.000Z</time>
      </trkpt>
      <trkpt lat="48.08308" lon="3.29346">
        <ele>72</ele>
        <time>2024-03-30T15:28:06.000Z</time>
      </trkpt>
      <trkpt lat="48.08311" lon="3.29346">
        <ele>72</ele>
        <time>2024-03-30T15:28:07.000Z</time>
      </trkpt>
      <trkpt lat="48.08333" lon="3.2935">
        <ele>72</ele>
        <time>2024-03-30T15:28:13.000Z</time>
      </trkpt>
      <trkpt lat="48.08346" lon="3.29348">
        <ele>71.8</ele>
        <time>2024-03-30T15:28:16.000Z</time>
      </trkpt>
      <trkpt lat="48.08355" lon="3.29344">
        <ele>71.5</ele>
        <time>2024-03-30T15:28:18.000Z</time>
      </trkpt>
      <trkpt lat="48.08361" lon="3.29342">
        <ele>71.3</ele>
        <time>2024-03-30T15:28:19.000Z</time>
      </trkpt>
      <trkpt lat="48.08371" lon="3.29342">
        <ele>71.2</ele>
        <time>2024-03-30T15:28:21.000Z</time>
      </trkpt>
      <trkpt lat="48.08382" lon="3.29341">
        <ele>71.1</ele>
        <time>2024-03-30T15:28:23.000Z</time>
      </trkpt>
      <trkpt lat="48.08409" lon="3.29339">
        <ele>71</ele>
        <time>2024-03-30T15:28:28.000Z</time>
      </trkpt>
      <trkpt lat="48.08429" lon="3.29338">
        <ele>71</ele>
        <time>2024-03-30T15:28:32.000Z</time>
      </trkpt>
      <trkpt lat="48.08434" lon="3.29338">
        <ele>71</ele>
        <time>2024-03-30T15:28:33.000Z</time>
      </trkpt>
      <trkpt lat="48.08439" lon="3.29337">
        <ele>71</ele>
        <time>2024-03-30T15:28:34.000Z</time>
      </trkpt>
      <trkpt lat="48.08444" lon="3.29337">
        <ele>71</ele>
        <time>2024-03-30T15:28:35.000Z</time>
      </trkpt>
      <trkpt lat="48.08457" lon="3.29334">
        <ele>71</ele>
        <time>2024-03-30T15:28:38.000Z</time>
      </trkpt>
      <trkpt lat="48.08462" lon="3.29333">
        <ele>71</ele>
        <time>2024-03-30T15:28:39.000Z</time>
      </trkpt>
      <trkpt lat="48.08467" lon="3.29332">
        <ele>71</ele>
        <time>2024-03-30T15:28:40.000Z</time>
      </trkpt>
      <trkpt lat="48.08472" lon="3.29331">
        <ele>70.9</ele>
        <time>2024-03-30T15:28:41.000Z</time>
      </trkpt>
      <trkpt lat="48.08477" lon="3.29331">
        <ele>70.9</ele>
        <time>2024-03-30T15:28:42.000Z</time>
      </trkpt>
      <trkpt lat="48.08496" lon="3.29328">
        <ele>71</ele>
        <time>2024-03-30T15:28:46.000Z</time>
      </trkpt>
      <trkpt lat="48.08519" lon="3.29325">
        <ele>71</ele>
        <time>2024-03-30T15:28:51.000Z</time>
      </trkpt>
      <trkpt lat="48.08524" lon="3.29325">
        <ele>71</ele>
        <time>2024-03-30T15:28:52.000Z</time>
      </trkpt>
      <trkpt lat="48.08528" lon="3.29325">
        <ele>71</ele>
        <time>2024-03-30T15:28:53.000Z</time>
      </trkpt>
      <trkpt lat="48.08532" lon="3.29325">
        <ele>71</ele>
        <time>2024-03-30T15:28:54.000Z</time>
      </trkpt>
      <trkpt lat="48.08537" lon="3.29324">
        <ele>71</ele>
        <time>2024-03-30T15:28:55.000Z</time>
      </trkpt>
      <trkpt lat="48.08541" lon="3.29324">
        <ele>71</ele>
        <time>2024-03-30T15:28:56.000Z</time>
      </trkpt>
      <trkpt lat="48.08546" lon="3.29323">
        <ele>71</ele>
        <time>2024-03-30T15:28:57.000Z</time>
      </trkpt>
      <trkpt lat="48.0855" lon="3.29323">
        <ele>71</ele>
        <time>2024-03-30T15:28:58.000Z</time>
      </trkpt>
      <trkpt lat="48.08554" lon="3.29322">
        <ele>71</ele>
        <time>2024-03-30T15:28:59.000Z</time>
      </trkpt>
      <trkpt lat="48.08558" lon="3.29321">
        <ele>71</ele>
        <time>2024-03-30T15:29:00.000Z</time>
      </trkpt>
      <trkpt lat="48.08567" lon="3.29324">
        <ele>71</ele>
        <time>2024-03-30T15:29:02.000Z</time>
      </trkpt>
      <trkpt lat="48.0857" lon="3.29328">
        <ele>71</ele>
        <time>2024-03-30T15:29:03.000Z</time>
      </trkpt>
      <trkpt lat="48.08573" lon="3.29334">
        <ele>71</ele>
        <time>2024-03-30T15:29:04.000Z</time>
      </trkpt>
      <trkpt lat="48.08574" lon="3.29341">
        <ele>71</ele>
        <time>2024-03-30T15:29:05.000Z</time>
      </trkpt>
      <trkpt lat="48.08574" lon="3.29348">
        <ele>71</ele>
        <time>2024-03-30T15:29:06.000Z</time>
      </trkpt>
      <trkpt lat="48.08573" lon="3.29363">
        <ele>71.1</ele>
        <time>2024-03-30T15:29:08.000Z</time>
      </trkpt>
      <trkpt lat="48.08572" lon="3.2937">
        <ele>71.3</ele>
        <time>2024-03-30T15:29:09.000Z</time>
      </trkpt>
      <trkpt lat="48.08571" lon="3.29377">
        <ele>71.6</ele>
        <time>2024-03-30T15:29:10.000Z</time>
      </trkpt>
      <trkpt lat="48.0857" lon="3.29396">
        <ele>72</ele>
        <time>2024-03-30T15:29:13.000Z</time>
      </trkpt>
      <trkpt lat="48.08568" lon="3.2941">
        <ele>72</ele>
        <time>2024-03-30T15:29:15.000Z</time>
      </trkpt>
      <trkpt lat="48.08567" lon="3.29416">
        <ele>72</ele>
        <time>2024-03-30T15:29:16.000Z</time>
      </trkpt>
      <trkpt lat="48.08566" lon="3.2943">
        <ele>72</ele>
        <time>2024-03-30T15:29:18.000Z</time>
      </trkpt>
      <trkpt lat="48.08565" lon="3.29437">
        <ele>72</ele>
        <time>2024-03-30T15:29:19.000Z</time>
      </trkpt>
      <trkpt lat="48.08564" lon="3.29444">
        <ele>72</ele>
        <time>2024-03-30T15:29:20.000Z</time>
      </trkpt>
      <trkpt lat="48.08564" lon="3.29451">
        <ele>72.2</ele>
        <time>2024-03-30T15:29:21.000Z</time>
      </trkpt>
      <trkpt lat="48.08563" lon="3.29476">
        <ele>73.1</ele>
        <time>2024-03-30T15:29:25.000Z</time>
      </trkpt>
      <trkpt lat="48.08561" lon="3.29488">
        <ele>73.6</ele>
        <time>2024-03-30T15:29:27.000Z</time>
      </trkpt>
      <trkpt lat="48.08561" lon="3.29494">
        <ele>73.8</ele>
        <time>2024-03-30T15:29:28.000Z</time>
      </trkpt>
      <trkpt lat="48.0856" lon="3.29499">
        <ele>74</ele>
        <time>2024-03-30T15:29:29.000Z</time>
      </trkpt>
      <trkpt lat="48.0856" lon="3.29504">
        <ele>74</ele>
        <time>2024-03-30T15:29:30.000Z</time>
      </trkpt>
      <trkpt lat="48.08559" lon="3.29508">
        <ele>74</ele>
        <time>2024-03-30T15:29:31.000Z</time>
      </trkpt>
      <trkpt lat="48.08559" lon="3.29511">
        <ele>74</ele>
        <time>2024-03-30T15:29:32.000Z</time>
      </trkpt>
      <trkpt lat="48.08559" lon="3.29513">
        <ele>74</ele>
        <time>2024-03-30T15:29:33.000Z</time>
      </trkpt>
      <trkpt lat="48.08558" lon="3.29515">
        <ele>74</ele>
        <time>2024-03-30T15:29:34.000Z</time>
      </trkpt>
      <trkpt lat="48.08558" lon="3.29517">
        <ele>74</ele>
        <time>2024-03-30T15:29:35.000Z</time>
      </trkpt>
      <trkpt lat="48.08558" lon="3.29518">
        <ele>74</ele>
        <time>2024-03-30T15:29:36.000Z</time>
      </trkpt>
      <trkpt lat="48.08559" lon="3.2952">
        <ele>74</ele>
        <time>2024-03-30T15:29:37.000Z</time>
      </trkpt>
      <trkpt lat="48.0856" lon="3.29521">
        <ele>74</ele>
        <time>2024-03-30T15:29:38.000Z</time>
      </trkpt>
      <trkpt lat="48.0857" lon="3.29526">
        <ele>74</ele>
        <time>2024-03-30T15:29:41.000Z</time>
      </trkpt>
      <trkpt lat="48.08576" lon="3.29531">
        <ele>74.1</ele>
        <time>2024-03-30T15:29:43.000Z</time>
      </trkpt>
      <trkpt lat="48.08578" lon="3.29536">
        <ele>74.3</ele>
        <time>2024-03-30T15:29:44.000Z</time>
      </trkpt>
      <trkpt lat="48.0858" lon="3.29542">
        <ele>74.5</ele>
        <time>2024-03-30T15:29:45.000Z</time>
      </trkpt>
      <trkpt lat="48.0858" lon="3.29549">
        <ele>74.8</ele>
        <time>2024-03-30T15:29:46.000Z</time>
      </trkpt>
      <trkpt lat="48.08581" lon="3.29555">
        <ele>75</ele>
        <time>2024-03-30T15:29:47.000Z</time>
      </trkpt>
      <trkpt lat="48.08581" lon="3.29562">
        <ele>75</ele>
        <time>2024-03-30T15:29:48.000Z</time>
      </trkpt>
      <trkpt lat="48.08582" lon="3.29568">
        <ele>75</ele>
        <time>2024-03-30T15:29:49.000Z</time>
      </trkpt>
      <trkpt lat="48.08584" lon="3.29599">
        <ele>75.6</ele>
        <time>2024-03-30T15:29:54.000Z</time>
      </trkpt>
      <trkpt lat="48.08585" lon="3.29605">
        <ele>75.8</ele>
        <time>2024-03-30T15:29:55.000Z</time>
      </trkpt>
      <trkpt lat="48.08585" lon="3.29611">
        <ele>76</ele>
        <time>2024-03-30T15:29:56.000Z</time>
      </trkpt>
      <trkpt lat="48.08586" lon="3.29617">
        <ele>76</ele>
        <time>2024-03-30T15:29:57.000Z</time>
      </trkpt>
      <trkpt lat="48.08586" lon="3.29623">
        <ele>76</ele>
        <time>2024-03-30T15:29:58.000Z</time>
      </trkpt>
      <trkpt lat="48.08589" lon="3.29646">
        <ele>76.2</ele>
        <time>2024-03-30T15:30:02.000Z</time>
      </trkpt>
      <trkpt lat="48.08589" lon="3.29652">
        <ele>76.4</ele>
        <time>2024-03-30T15:30:03.000Z</time>
      </trkpt>
      <trkpt lat="48.08591" lon="3.29695">
        <ele>77</ele>
        <time>2024-03-30T15:30:10.000Z</time>
      </trkpt>
      <trkpt lat="48.08593" lon="3.2972">
        <ele>77.3</ele>
        <time>2024-03-30T15:30:14.000Z</time>
      </trkpt>
      <trkpt lat="48.08594" lon="3.29732">
        <ele>76.8</ele>
        <time>2024-03-30T15:30:16.000Z</time>
      </trkpt>
      <trkpt lat="48.08596" lon="3.29744">
        <ele>76.2</ele>
        <time>2024-03-30T15:30:18.000Z</time>
      </trkpt>
      <trkpt lat="48.08597" lon="3.29749">
        <ele>76</ele>
        <time>2024-03-30T15:30:19.000Z</time>
      </trkpt>
      <trkpt lat="48.08601" lon="3.29775">
        <ele>76.9</ele>
        <time>2024-03-30T15:30:23.000Z</time>
      </trkpt>
      <trkpt lat="48.08609" lon="3.29808">
        <ele>78</ele>
        <time>2024-03-30T15:30:28.000Z</time>
      </trkpt>
      <trkpt lat="48.08611" lon="3.29825">
        <ele>78</ele>
        <time>2024-03-30T15:30:31.000Z</time>
      </trkpt>
      <trkpt lat="48.08611" lon="3.29827">
        <ele>78</ele>
        <time>2024-03-30T15:30:32.000Z</time>
      </trkpt>
      <trkpt lat="48.08611" lon="3.29827">
        <ele>78</ele>
        <time>2024-03-30T15:30:33.000Z</time>
      </trkpt>
      <trkpt lat="48.08611" lon="3.29827">
        <ele>78</ele>
        <time>2024-03-30T15:30:36.000Z</time>
      </trkpt>
      <trkpt lat="48.08611" lon="3.29827">
        <ele>78</ele>
        <time>2024-03-30T15:30:55.000Z</time>
      </trkpt>
      <trkpt lat="48.08612" lon="3.29831">
        <ele>78</ele>
        <time>2024-03-30T15:31:03.000Z</time>
      </trkpt>
      <trkpt lat="48.08613" lon="3.29832">
        <ele>77.9</ele>
        <time>2024-03-30T15:31:04.000Z</time>
      </trkpt>
      <trkpt lat="48.08614" lon="3.29834">
        <ele>77.9</ele>
        <time>2024-03-30T15:31:05.000Z</time>
      </trkpt>
      <trkpt lat="48.08617" lon="3.29837">
        <ele>77.8</ele>
        <time>2024-03-30T15:31:07.000Z</time>
      </trkpt>
      <trkpt lat="48.08618" lon="3.29839">
        <ele>77.8</ele>
        <time>2024-03-30T15:31:08.000Z</time>
      </trkpt>
      <trkpt lat="48.08625" lon="3.29848">
        <ele>77.8</ele>
        <time>2024-03-30T15:31:12.000Z</time>
      </trkpt>
      <trkpt lat="48.08638" lon="3.29863">
        <ele>78</ele>
        <time>2024-03-30T15:31:20.000Z</time>
      </trkpt>
      <trkpt lat="48.08656" lon="3.29876">
        <ele>77.7</ele>
        <time>2024-03-30T15:31:27.000Z</time>
      </trkpt>
      <trkpt lat="48.08659" lon="3.29878">
        <ele>77.7</ele>
        <time>2024-03-30T15:31:28.000Z</time>
      </trkpt>
      <trkpt lat="48.0869" lon="3.29901">
        <ele>77.5</ele>
        <time>2024-03-30T15:31:38.000Z</time>
      </trkpt>
      <trkpt lat="48.08711" lon="3.29918">
        <ele>77.5</ele>
        <time>2024-03-30T15:31:43.000Z</time>
      </trkpt>
      <trkpt lat="48.08715" lon="3.29922">
        <ele>77.5</ele>
        <time>2024-03-30T15:31:44.000Z</time>
      </trkpt>
      <trkpt lat="48.08735" lon="3.29941">
        <ele>77.5</ele>
        <time>2024-03-30T15:31:49.000Z</time>
      </trkpt>
      <trkpt lat="48.08746" lon="3.29954">
        <ele>77.2</ele>
        <time>2024-03-30T15:31:52.000Z</time>
      </trkpt>
      <trkpt lat="48.08772" lon="3.2999">
        <ele>77.3</ele>
        <time>2024-03-30T15:31:59.000Z</time>
      </trkpt>
      <trkpt lat="48.08793" lon="3.30022">
        <ele>80.1</ele>
        <time>2024-03-30T15:32:05.000Z</time>
      </trkpt>
      <trkpt lat="48.08806" lon="3.3004">
        <ele>77.4</ele>
        <time>2024-03-30T15:32:08.000Z</time>
      </trkpt>
      <trkpt lat="48.08823" lon="3.30064">
        <ele>77.2</ele>
        <time>2024-03-30T15:32:12.000Z</time>
      </trkpt>
      <trkpt lat="48.08827" lon="3.3007">
        <ele>77.1</ele>
        <time>2024-03-30T15:32:13.000Z</time>
      </trkpt>
      <trkpt lat="48.08832" lon="3.30076">
        <ele>76.9</ele>
        <time>2024-03-30T15:32:14.000Z</time>
      </trkpt>
      <trkpt lat="48.08836" lon="3.30081">
        <ele>76.7</ele>
        <time>2024-03-30T15:32:15.000Z</time>
      </trkpt>
      <trkpt lat="48.08847" lon="3.30098">
        <ele>77.1</ele>
        <time>2024-03-30T15:32:18.000Z</time>
      </trkpt>
      <trkpt lat="48.08858" lon="3.30114">
        <ele>76.7</ele>
        <time>2024-03-30T15:32:21.000Z</time>
      </trkpt>
      <trkpt lat="48.08862" lon="3.3012">
        <ele>76.9</ele>
        <time>2024-03-30T15:32:22.000Z</time>
      </trkpt>
      <trkpt lat="48.08865" lon="3.30125">
        <ele>77.1</ele>
        <time>2024-03-30T15:32:23.000Z</time>
      </trkpt>
      <trkpt lat="48.08869" lon="3.30131">
        <ele>77.3</ele>
        <time>2024-03-30T15:32:24.000Z</time>
      </trkpt>
      <trkpt lat="48.08872" lon="3.30136">
        <ele>77.2</ele>
        <time>2024-03-30T15:32:25.000Z</time>
      </trkpt>
      <trkpt lat="48.08876" lon="3.30142">
        <ele>77.2</ele>
        <time>2024-03-30T15:32:26.000Z</time>
      </trkpt>
      <trkpt lat="48.0888" lon="3.30147">
        <ele>77.1</ele>
        <time>2024-03-30T15:32:27.000Z</time>
      </trkpt>
      <trkpt lat="48.08883" lon="3.30153">
        <ele>77.1</ele>
        <time>2024-03-30T15:32:28.000Z</time>
      </trkpt>
      <trkpt lat="48.08889" lon="3.30163">
        <ele>76.7</ele>
        <time>2024-03-30T15:32:30.000Z</time>
      </trkpt>
      <trkpt lat="48.08892" lon="3.30168">
        <ele>76.8</ele>
        <time>2024-03-30T15:32:31.000Z</time>
      </trkpt>
      <trkpt lat="48.08895" lon="3.30173">
        <ele>76.6</ele>
        <time>2024-03-30T15:32:32.000Z</time>
      </trkpt>
      <trkpt lat="48.08897" lon="3.30178">
        <ele>76.5</ele>
        <time>2024-03-30T15:32:33.000Z</time>
      </trkpt>
      <trkpt lat="48.08899" lon="3.30183">
        <ele>76.5</ele>
        <time>2024-03-30T15:32:34.000Z</time>
      </trkpt>
      <trkpt lat="48.08902" lon="3.30188">
        <ele>76.4</ele>
        <time>2024-03-30T15:32:35.000Z</time>
      </trkpt>
      <trkpt lat="48.08904" lon="3.30192">
        <ele>76.4</ele>
        <time>2024-03-30T15:32:36.000Z</time>
      </trkpt>
      <trkpt lat="48.08908" lon="3.30194">
        <ele>76.3</ele>
        <time>2024-03-30T15:32:37.000Z</time>
      </trkpt>
      <trkpt lat="48.08911" lon="3.30195">
        <ele>76.2</ele>
        <time>2024-03-30T15:32:38.000Z</time>
      </trkpt>
      <trkpt lat="48.08916" lon="3.30195">
        <ele>76</ele>
        <time>2024-03-30T15:32:39.000Z</time>
      </trkpt>
      <trkpt lat="48.0892" lon="3.30194">
        <ele>76</ele>
        <time>2024-03-30T15:32:40.000Z</time>
      </trkpt>
      <trkpt lat="48.08924" lon="3.30194">
        <ele>76</ele>
        <time>2024-03-30T15:32:41.000Z</time>
      </trkpt>
      <trkpt lat="48.08929" lon="3.30194">
        <ele>76</ele>
        <time>2024-03-30T15:32:42.000Z</time>
      </trkpt>
      <trkpt lat="48.08947" lon="3.30193">
        <ele>75.9</ele>
        <time>2024-03-30T15:32:46.000Z</time>
      </trkpt>
      <trkpt lat="48.08952" lon="3.30195">
        <ele>75.7</ele>
        <time>2024-03-30T15:32:47.000Z</time>
      </trkpt>
      <trkpt lat="48.08956" lon="3.30197">
        <ele>75.6</ele>
        <time>2024-03-30T15:32:48.000Z</time>
      </trkpt>
      <trkpt lat="48.0896" lon="3.302">
        <ele>75.6</ele>
        <time>2024-03-30T15:32:49.000Z</time>
      </trkpt>
      <trkpt lat="48.08963" lon="3.30203">
        <ele>75.5</ele>
        <time>2024-03-30T15:32:50.000Z</time>
      </trkpt>
      <trkpt lat="48.08967" lon="3.30208">
        <ele>75.6</ele>
        <time>2024-03-30T15:32:51.000Z</time>
      </trkpt>
      <trkpt lat="48.0897" lon="3.30213">
        <ele>75.7</ele>
        <time>2024-03-30T15:32:52.000Z</time>
      </trkpt>
      <trkpt lat="48.08972" lon="3.30218">
        <ele>75.8</ele>
        <time>2024-03-30T15:32:53.000Z</time>
      </trkpt>
      <trkpt lat="48.08984" lon="3.30249">
        <ele>75.6</ele>
        <time>2024-03-30T15:32:58.000Z</time>
      </trkpt>
      <trkpt lat="48.08995" lon="3.30279">
        <ele>75.2</ele>
        <time>2024-03-30T15:33:03.000Z</time>
      </trkpt>
      <trkpt lat="48.09003" lon="3.30296">
        <ele>75.7</ele>
        <time>2024-03-30T15:33:06.000Z</time>
      </trkpt>
      <trkpt lat="48.09012" lon="3.30311">
        <ele>75.9</ele>
        <time>2024-03-30T15:33:09.000Z</time>
      </trkpt>
      <trkpt lat="48.09015" lon="3.30316">
        <ele>75.8</ele>
        <time>2024-03-30T15:33:10.000Z</time>
      </trkpt>
      <trkpt lat="48.09028" lon="3.30335">
        <ele>75.9</ele>
        <time>2024-03-30T15:33:14.000Z</time>
      </trkpt>
      <trkpt lat="48.09041" lon="3.30362">
        <ele>75.5</ele>
        <time>2024-03-30T15:33:19.000Z</time>
      </trkpt>
      <trkpt lat="48.09043" lon="3.30368">
        <ele>75.7</ele>
        <time>2024-03-30T15:33:20.000Z</time>
      </trkpt>
      <trkpt lat="48.09046" lon="3.30373">
        <ele>75.8</ele>
        <time>2024-03-30T15:33:21.000Z</time>
      </trkpt>
      <trkpt lat="48.09049" lon="3.30379">
        <ele>75.9</ele>
        <time>2024-03-30T15:33:22.000Z</time>
      </trkpt>
      <trkpt lat="48.09051" lon="3.30384">
        <ele>76</ele>
        <time>2024-03-30T15:33:23.000Z</time>
      </trkpt>
      <trkpt lat="48.09065" lon="3.30418">
        <ele>76</ele>
        <time>2024-03-30T15:33:29.000Z</time>
      </trkpt>
      <trkpt lat="48.09067" lon="3.30423">
        <ele>76</ele>
        <time>2024-03-30T15:33:30.000Z</time>
      </trkpt>
      <trkpt lat="48.0907" lon="3.30429">
        <ele>76</ele>
        <time>2024-03-30T15:33:31.000Z</time>
      </trkpt>
      <trkpt lat="48.09072" lon="3.30435">
        <ele>76</ele>
        <time>2024-03-30T15:33:32.000Z</time>
      </trkpt>
      <trkpt lat="48.09078" lon="3.30445">
        <ele>76</ele>
        <time>2024-03-30T15:33:34.000Z</time>
      </trkpt>
      <trkpt lat="48.09084" lon="3.30455">
        <ele>76</ele>
        <time>2024-03-30T15:33:36.000Z</time>
      </trkpt>
      <trkpt lat="48.09087" lon="3.3046">
        <ele>76</ele>
        <time>2024-03-30T15:33:37.000Z</time>
      </trkpt>
      <trkpt lat="48.0909" lon="3.30464">
        <ele>76</ele>
        <time>2024-03-30T15:33:38.000Z</time>
      </trkpt>
      <trkpt lat="48.09103" lon="3.30482">
        <ele>76</ele>
        <time>2024-03-30T15:33:42.000Z</time>
      </trkpt>
      <trkpt lat="48.09106" lon="3.30487">
        <ele>76</ele>
        <time>2024-03-30T15:33:43.000Z</time>
      </trkpt>
      <trkpt lat="48.0911" lon="3.30491">
        <ele>76</ele>
        <time>2024-03-30T15:33:44.000Z</time>
      </trkpt>
      <trkpt lat="48.09119" lon="3.30503">
        <ele>76</ele>
        <time>2024-03-30T15:33:47.000Z</time>
      </trkpt>
      <trkpt lat="48.0914" lon="3.30528">
        <ele>76</ele>
        <time>2024-03-30T15:33:53.000Z</time>
      </trkpt>
      <trkpt lat="48.09146" lon="3.30536">
        <ele>76.1</ele>
        <time>2024-03-30T15:33:55.000Z</time>
      </trkpt>
      <trkpt lat="48.0915" lon="3.30541">
        <ele>76.2</ele>
        <time>2024-03-30T15:33:56.000Z</time>
      </trkpt>
      <trkpt lat="48.09153" lon="3.30546">
        <ele>76.3</ele>
        <time>2024-03-30T15:33:57.000Z</time>
      </trkpt>
      <trkpt lat="48.09156" lon="3.3055">
        <ele>76.5</ele>
        <time>2024-03-30T15:33:58.000Z</time>
      </trkpt>
      <trkpt lat="48.0916" lon="3.30555">
        <ele>76.7</ele>
        <time>2024-03-30T15:33:59.000Z</time>
      </trkpt>
      <trkpt lat="48.09163" lon="3.30559">
        <ele>76.9</ele>
        <time>2024-03-30T15:34:00.000Z</time>
      </trkpt>
      <trkpt lat="48.09166" lon="3.30563">
        <ele>77</ele>
        <time>2024-03-30T15:34:01.000Z</time>
      </trkpt>
      <trkpt lat="48.09169" lon="3.30567">
        <ele>77</ele>
        <time>2024-03-30T15:34:02.000Z</time>
      </trkpt>
      <trkpt lat="48.09172" lon="3.30571">
        <ele>76.9</ele>
        <time>2024-03-30T15:34:03.000Z</time>
      </trkpt>
      <trkpt lat="48.09175" lon="3.30575">
        <ele>76.9</ele>
        <time>2024-03-30T15:34:04.000Z</time>
      </trkpt>
      <trkpt lat="48.09178" lon="3.30579">
        <ele>76.9</ele>
        <time>2024-03-30T15:34:05.000Z</time>
      </trkpt>
      <trkpt lat="48.0918" lon="3.30583">
        <ele>77</ele>
        <time>2024-03-30T15:34:06.000Z</time>
      </trkpt>
      <trkpt lat="48.09183" lon="3.30586">
        <ele>77</ele>
        <time>2024-03-30T15:34:07.000Z</time>
      </trkpt>
      <trkpt lat="48.09186" lon="3.30588">
        <ele>77</ele>
        <time>2024-03-30T15:34:08.000Z</time>
      </trkpt>
      <trkpt lat="48.0919" lon="3.30588">
        <ele>77</ele>
        <time>2024-03-30T15:34:09.000Z</time>
      </trkpt>
      <trkpt lat="48.09194" lon="3.30588">
        <ele>77</ele>
        <time>2024-03-30T15:34:10.000Z</time>
      </trkpt>
      <trkpt lat="48.09198" lon="3.3059">
        <ele>77</ele>
        <time>2024-03-30T15:34:11.000Z</time>
      </trkpt>
      <trkpt lat="48.09203" lon="3.30595">
        <ele>77</ele>
        <time>2024-03-30T15:34:13.000Z</time>
      </trkpt>
      <trkpt lat="48.09207" lon="3.30599">
        <ele>77</ele>
        <time>2024-03-30T15:34:14.000Z</time>
      </trkpt>
      <trkpt lat="48.09231" lon="3.30623">
        <ele>77</ele>
        <time>2024-03-30T15:34:21.000Z</time>
      </trkpt>
      <trkpt lat="48.09235" lon="3.30626">
        <ele>77</ele>
        <time>2024-03-30T15:34:22.000Z</time>
      </trkpt>
      <trkpt lat="48.09239" lon="3.30629">
        <ele>77</ele>
        <time>2024-03-30T15:34:23.000Z</time>
      </trkpt>
      <trkpt lat="48.09242" lon="3.30632">
        <ele>77</ele>
        <time>2024-03-30T15:34:24.000Z</time>
      </trkpt>
      <trkpt lat="48.09249" lon="3.30638">
        <ele>77</ele>
        <time>2024-03-30T15:34:26.000Z</time>
      </trkpt>
      <trkpt lat="48.09256" lon="3.30644">
        <ele>77</ele>
        <time>2024-03-30T15:34:28.000Z</time>
      </trkpt>
      <trkpt lat="48.0926" lon="3.30646">
        <ele>77</ele>
        <time>2024-03-30T15:34:29.000Z</time>
      </trkpt>
      <trkpt lat="48.09281" lon="3.30655">
        <ele>77.1</ele>
        <time>2024-03-30T15:34:34.000Z</time>
      </trkpt>
      <trkpt lat="48.09289" lon="3.30657">
        <ele>77.3</ele>
        <time>2024-03-30T15:34:36.000Z</time>
      </trkpt>
      <trkpt lat="48.09292" lon="3.30658">
        <ele>77.4</ele>
        <time>2024-03-30T15:34:37.000Z</time>
      </trkpt>
      <trkpt lat="48.09295" lon="3.30659">
        <ele>77.4</ele>
        <time>2024-03-30T15:34:38.000Z</time>
      </trkpt>
      <trkpt lat="48.09299" lon="3.3066">
        <ele>77.6</ele>
        <time>2024-03-30T15:34:39.000Z</time>
      </trkpt>
      <trkpt lat="48.09301" lon="3.30663">
        <ele>77.7</ele>
        <time>2024-03-30T15:34:40.000Z</time>
      </trkpt>
      <trkpt lat="48.09304" lon="3.30665">
        <ele>77.9</ele>
        <time>2024-03-30T15:34:41.000Z</time>
      </trkpt>
      <trkpt lat="48.09305" lon="3.30668">
        <ele>78</ele>
        <time>2024-03-30T15:34:42.000Z</time>
      </trkpt>
      <trkpt lat="48.09307" lon="3.30672">
        <ele>78</ele>
        <time>2024-03-30T15:34:43.000Z</time>
      </trkpt>
      <trkpt lat="48.09309" lon="3.30676">
        <ele>78</ele>
        <time>2024-03-30T15:34:44.000Z</time>
      </trkpt>
      <trkpt lat="48.09315" lon="3.3069">
        <ele>78</ele>
        <time>2024-03-30T15:34:47.000Z</time>
      </trkpt>
      <trkpt lat="48.09321" lon="3.30719">
        <ele>78.5</ele>
        <time>2024-03-30T15:34:53.000Z</time>
      </trkpt>
      <trkpt lat="48.09322" lon="3.30728">
        <ele>78.5</ele>
        <time>2024-03-30T15:34:55.000Z</time>
      </trkpt>
      <trkpt lat="48.09322" lon="3.30733">
        <ele>78.4</ele>
        <time>2024-03-30T15:34:56.000Z</time>
      </trkpt>
      <trkpt lat="48.09322" lon="3.30738">
        <ele>78.3</ele>
        <time>2024-03-30T15:34:57.000Z</time>
      </trkpt>
      <trkpt lat="48.09322" lon="3.30742">
        <ele>78.2</ele>
        <time>2024-03-30T15:34:58.000Z</time>
      </trkpt>
      <trkpt lat="48.09323" lon="3.30747">
        <ele>78.1</ele>
        <time>2024-03-30T15:34:59.000Z</time>
      </trkpt>
      <trkpt lat="48.09324" lon="3.30749">
        <ele>78</ele>
        <time>2024-03-30T15:35:00.000Z</time>
      </trkpt>
      <trkpt lat="48.09324" lon="3.30752">
        <ele>78</ele>
        <time>2024-03-30T15:35:01.000Z</time>
      </trkpt>
      <trkpt lat="48.09325" lon="3.30754">
        <ele>78</ele>
        <time>2024-03-30T15:35:02.000Z</time>
      </trkpt>
      <trkpt lat="48.09327" lon="3.30755">
        <ele>78</ele>
        <time>2024-03-30T15:35:03.000Z</time>
      </trkpt>
      <trkpt lat="48.0933" lon="3.30756">
        <ele>78</ele>
        <time>2024-03-30T15:35:04.000Z</time>
      </trkpt>
      <trkpt lat="48.09332" lon="3.30757">
        <ele>78</ele>
        <time>2024-03-30T15:35:05.000Z</time>
      </trkpt>
      <trkpt lat="48.09334" lon="3.3076">
        <ele>78</ele>
        <time>2024-03-30T15:35:06.000Z</time>
      </trkpt>
      <trkpt lat="48.09336" lon="3.30791">
        <ele>78</ele>
        <time>2024-03-30T15:35:11.000Z</time>
      </trkpt>
      <trkpt lat="48.09336" lon="3.30796">
        <ele>78.1</ele>
        <time>2024-03-30T15:35:12.000Z</time>
      </trkpt>
      <trkpt lat="48.09336" lon="3.30801">
        <ele>78.1</ele>
        <time>2024-03-30T15:35:13.000Z</time>
      </trkpt>
      <trkpt lat="48.09335" lon="3.30807">
        <ele>78.1</ele>
        <time>2024-03-30T15:35:14.000Z</time>
      </trkpt>
      <trkpt lat="48.09336" lon="3.30825">
        <ele>78.7</ele>
        <time>2024-03-30T15:35:17.000Z</time>
      </trkpt>
      <trkpt lat="48.09334" lon="3.30868">
        <ele>79</ele>
        <time>2024-03-30T15:35:24.000Z</time>
      </trkpt>
      <trkpt lat="48.09333" lon="3.30906">
        <ele>79</ele>
        <time>2024-03-30T15:35:30.000Z</time>
      </trkpt>
      <trkpt lat="48.09335" lon="3.30917">
        <ele>79.1</ele>
        <time>2024-03-30T15:35:32.000Z</time>
      </trkpt>
      <trkpt lat="48.09336" lon="3.30921">
        <ele>79.1</ele>
        <time>2024-03-30T15:35:33.000Z</time>
      </trkpt>
      <trkpt lat="48.09336" lon="3.30923">
        <ele>79.1</ele>
        <time>2024-03-30T15:35:34.000Z</time>
      </trkpt>
      <trkpt lat="48.09336" lon="3.30923">
        <ele>79.1</ele>
        <time>2024-03-30T15:35:35.000Z</time>
      </trkpt>
      <trkpt lat="48.09336" lon="3.30923">
        <ele>79.1</ele>
        <time>2024-03-30T15:35:36.000Z</time>
      </trkpt>
      <trkpt lat="48.09334" lon="3.30925">
        <ele>79</ele>
        <time>2024-03-30T15:35:46.000Z</time>
      </trkpt>
      <trkpt lat="48.09334" lon="3.30925">
        <ele>79</ele>
        <time>2024-03-30T15:35:47.000Z</time>
      </trkpt>
      <trkpt lat="48.09334" lon="3.30925">
        <ele>79</ele>
        <time>2024-03-30T15:35:53.000Z</time>
      </trkpt>
      <trkpt lat="48.09335" lon="3.30925">
        <ele>79.1</ele>
        <time>2024-03-30T15:36:05.000Z</time>
      </trkpt>
      <trkpt lat="48.09336" lon="3.30926">
        <ele>79.1</ele>
        <time>2024-03-30T15:36:07.000Z</time>
      </trkpt>
      <trkpt lat="48.09337" lon="3.30926">
        <ele>79.1</ele>
        <time>2024-03-30T15:36:08.000Z</time>
      </trkpt>
      <trkpt lat="48.09337" lon="3.30927">
        <ele>79.1</ele>
        <time>2024-03-30T15:36:09.000Z</time>
      </trkpt>
      <trkpt lat="48.09343" lon="3.30936">
        <ele>79.3</ele>
        <time>2024-03-30T15:36:13.000Z</time>
      </trkpt>
      <trkpt lat="48.09356" lon="3.30944">
        <ele>79.8</ele>
        <time>2024-03-30T15:36:17.000Z</time>
      </trkpt>
      <trkpt lat="48.09364" lon="3.30947">
        <ele>80</ele>
        <time>2024-03-30T15:36:19.000Z</time>
      </trkpt>
      <trkpt lat="48.09367" lon="3.30949">
        <ele>80</ele>
        <time>2024-03-30T15:36:20.000Z</time>
      </trkpt>
      <trkpt lat="48.09383" lon="3.30955">
        <ele>80.3</ele>
        <time>2024-03-30T15:36:24.000Z</time>
      </trkpt>
      <trkpt lat="48.09404" lon="3.30962">
        <ele>80.6</ele>
        <time>2024-03-30T15:36:30.000Z</time>
      </trkpt>
      <trkpt lat="48.09407" lon="3.30963">
        <ele>80.7</ele>
        <time>2024-03-30T15:36:31.000Z</time>
      </trkpt>
      <trkpt lat="48.09409" lon="3.30965">
        <ele>80.7</ele>
        <time>2024-03-30T15:36:32.000Z</time>
      </trkpt>
      <trkpt lat="48.09412" lon="3.30966">
        <ele>80.8</ele>
        <time>2024-03-30T15:36:33.000Z</time>
      </trkpt>
      <trkpt lat="48.09414" lon="3.30967">
        <ele>80.8</ele>
        <time>2024-03-30T15:36:34.000Z</time>
      </trkpt>
      <trkpt lat="48.09417" lon="3.30968">
        <ele>80.9</ele>
        <time>2024-03-30T15:36:35.000Z</time>
      </trkpt>
      <trkpt lat="48.09418" lon="3.30967">
        <ele>80.9</ele>
        <time>2024-03-30T15:36:36.000Z</time>
      </trkpt>
      <trkpt lat="48.09419" lon="3.30967">
        <ele>80.9</ele>
        <time>2024-03-30T15:36:37.000Z</time>
      </trkpt>
      <trkpt lat="48.09419" lon="3.30967">
        <ele>80.9</ele>
        <time>2024-03-30T15:36:40.000Z</time>
      </trkpt>
      <trkpt lat="48.09419" lon="3.30967">
        <ele>80.9</ele>
        <time>2024-03-30T15:36:51.000Z</time>
      </trkpt>
      <trkpt lat="48.09419" lon="3.30967">
        <ele>80.9</ele>
        <time>2024-03-30T15:37:17.000Z</time>
      </trkpt>
      <trkpt lat="48.09419" lon="3.30967">
        <ele>80.9</ele>
        <time>2024-03-30T15:38:09.000Z</time>
      </trkpt>
      <trkpt lat="48.0942" lon="3.30964">
        <ele>80.8</ele>
        <time>2024-03-30T15:38:21.000Z</time>
      </trkpt>
      <trkpt lat="48.09421" lon="3.3096">
        <ele>80.7</ele>
        <time>2024-03-30T15:38:23.000Z</time>
      </trkpt>
      <trkpt lat="48.09423" lon="3.30941">
        <ele>80.2</ele>
        <time>2024-03-30T15:38:28.000Z</time>
      </trkpt>
      <trkpt lat="48.09427" lon="3.30906">
        <ele>80.4</ele>
        <time>2024-03-30T15:38:34.000Z</time>
      </trkpt>
      <trkpt lat="48.09429" lon="3.30885">
        <ele>80.4</ele>
        <time>2024-03-30T15:38:37.000Z</time>
      </trkpt>
      <trkpt lat="48.09431" lon="3.30859">
        <ele>80</ele>
        <time>2024-03-30T15:38:41.000Z</time>
      </trkpt>
      <trkpt lat="48.09432" lon="3.30835">
        <ele>79.6</ele>
        <time>2024-03-30T15:38:45.000Z</time>
      </trkpt>
      <trkpt lat="48.09432" lon="3.30824">
        <ele>79.6</ele>
        <time>2024-03-30T15:38:47.000Z</time>
      </trkpt>
      <trkpt lat="48.09433" lon="3.30819">
        <ele>79.6</ele>
        <time>2024-03-30T15:38:48.000Z</time>
      </trkpt>
      <trkpt lat="48.09433" lon="3.30814">
        <ele>79.6</ele>
        <time>2024-03-30T15:38:49.000Z</time>
      </trkpt>
      <trkpt lat="48.09434" lon="3.30808">
        <ele>79.6</ele>
        <time>2024-03-30T15:38:50.000Z</time>
      </trkpt>
      <trkpt lat="48.09434" lon="3.30802">
        <ele>79.6</ele>
        <time>2024-03-30T15:38:51.000Z</time>
      </trkpt>
      <trkpt lat="48.09435" lon="3.30795">
        <ele>79.7</ele>
        <time>2024-03-30T15:38:52.000Z</time>
      </trkpt>
      <trkpt lat="48.09436" lon="3.30771">
        <ele>79.7</ele>
        <time>2024-03-30T15:38:56.000Z</time>
      </trkpt>
      <trkpt lat="48.09437" lon="3.30742">
        <ele>79.7</ele>
        <time>2024-03-30T15:39:01.000Z</time>
      </trkpt>
      <trkpt lat="48.09438" lon="3.3073">
        <ele>79.8</ele>
        <time>2024-03-30T15:39:03.000Z</time>
      </trkpt>
      <trkpt lat="48.09438" lon="3.30725">
        <ele>79.8</ele>
        <time>2024-03-30T15:39:04.000Z</time>
      </trkpt>
      <trkpt lat="48.09438" lon="3.30719">
        <ele>79.8</ele>
        <time>2024-03-30T15:39:05.000Z</time>
      </trkpt>
      <trkpt lat="48.09438" lon="3.30714">
        <ele>79.8</ele>
        <time>2024-03-30T15:39:06.000Z</time>
      </trkpt>
      <trkpt lat="48.09439" lon="3.30708">
        <ele>79.8</ele>
        <time>2024-03-30T15:39:07.000Z</time>
      </trkpt>
      <trkpt lat="48.09439" lon="3.30704">
        <ele>79.8</ele>
        <time>2024-03-30T15:39:08.000Z</time>
      </trkpt>
      <trkpt lat="48.09439" lon="3.30697">
        <ele>79.8</ele>
        <time>2024-03-30T15:39:09.000Z</time>
      </trkpt>
      <trkpt lat="48.09441" lon="3.30649">
        <ele>79.9</ele>
        <time>2024-03-30T15:39:16.000Z</time>
      </trkpt>
      <trkpt lat="48.09441" lon="3.30642">
        <ele>79.9</ele>
        <time>2024-03-30T15:39:17.000Z</time>
      </trkpt>
      <trkpt lat="48.09442" lon="3.30636">
        <ele>79.9</ele>
        <time>2024-03-30T15:39:18.000Z</time>
      </trkpt>
      <trkpt lat="48.09443" lon="3.30617">
        <ele>79.9</ele>
        <time>2024-03-30T15:39:21.000Z</time>
      </trkpt>
      <trkpt lat="48.09443" lon="3.30606">
        <ele>79.9</ele>
        <time>2024-03-30T15:39:23.000Z</time>
      </trkpt>
      <trkpt lat="48.09444" lon="3.306">
        <ele>80</ele>
        <time>2024-03-30T15:39:24.000Z</time>
      </trkpt>
      <trkpt lat="48.09445" lon="3.30595">
        <ele>80</ele>
        <time>2024-03-30T15:39:25.000Z</time>
      </trkpt>
      <trkpt lat="48.09445" lon="3.3059">
        <ele>80</ele>
        <time>2024-03-30T15:39:26.000Z</time>
      </trkpt>
      <trkpt lat="48.09445" lon="3.30586">
        <ele>80</ele>
        <time>2024-03-30T15:39:27.000Z</time>
      </trkpt>
      <trkpt lat="48.09446" lon="3.30582">
        <ele>80.1</ele>
        <time>2024-03-30T15:39:28.000Z</time>
      </trkpt>
      <trkpt lat="48.09446" lon="3.30578">
        <ele>80.1</ele>
        <time>2024-03-30T15:39:29.000Z</time>
      </trkpt>
      <trkpt lat="48.09447" lon="3.30576">
        <ele>80.1</ele>
        <time>2024-03-30T15:39:30.000Z</time>
      </trkpt>
      <trkpt lat="48.09448" lon="3.30574">
        <ele>80.1</ele>
        <time>2024-03-30T15:39:31.000Z</time>
      </trkpt>
      <trkpt lat="48.09448" lon="3.30573">
        <ele>80.1</ele>
        <time>2024-03-30T15:39:32.000Z</time>
      </trkpt>
      <trkpt lat="48.09448" lon="3.30572">
        <ele>80.1</ele>
        <time>2024-03-30T15:39:33.000Z</time>
      </trkpt>
      <trkpt lat="48.09448" lon="3.30572">
        <ele>80.1</ele>
        <time>2024-03-30T15:39:36.000Z</time>
      </trkpt>
      <trkpt lat="48.09451" lon="3.30572">
        <ele>80.2</ele>
        <time>2024-03-30T15:39:46.000Z</time>
      </trkpt>
      <trkpt lat="48.09454" lon="3.30572">
        <ele>80.3</ele>
        <time>2024-03-30T15:39:48.000Z</time>
      </trkpt>
      <trkpt lat="48.09467" lon="3.30572">
        <ele>80.8</ele>
        <time>2024-03-30T15:39:54.000Z</time>
      </trkpt>
      <trkpt lat="48.09469" lon="3.30571">
        <ele>80.9</ele>
        <time>2024-03-30T15:39:55.000Z</time>
      </trkpt>
      <trkpt lat="48.09482" lon="3.3057">
        <ele>81.7</ele>
        <time>2024-03-30T15:40:01.000Z</time>
      </trkpt>
      <trkpt lat="48.09484" lon="3.3057">
        <ele>81.8</ele>
        <time>2024-03-30T15:40:02.000Z</time>
      </trkpt>
      <trkpt lat="48.09486" lon="3.3057">
        <ele>82</ele>
        <time>2024-03-30T15:40:03.000Z</time>
      </trkpt>
      <trkpt lat="48.09488" lon="3.30569">
        <ele>82.1</ele>
        <time>2024-03-30T15:40:04.000Z</time>
      </trkpt>
      <trkpt lat="48.09489" lon="3.30569">
        <ele>82.2</ele>
        <time>2024-03-30T15:40:05.000Z</time>
      </trkpt>
      <trkpt lat="48.09491" lon="3.30569">
        <ele>82.4</ele>
        <time>2024-03-30T15:40:06.000Z</time>
      </trkpt>
      <trkpt lat="48.09493" lon="3.30569">
        <ele>82.5</ele>
        <time>2024-03-30T15:40:07.000Z</time>
      </trkpt>
      <trkpt lat="48.09495" lon="3.30569">
        <ele>82.6</ele>
        <time>2024-03-30T15:40:08.000Z</time>
      </trkpt>
      <trkpt lat="48.09497" lon="3.30568">
        <ele>82.8</ele>
        <time>2024-03-30T15:40:09.000Z</time>
      </trkpt>
      <trkpt lat="48.09499" lon="3.30569">
        <ele>82.9</ele>
        <time>2024-03-30T15:40:10.000Z</time>
      </trkpt>
      <trkpt lat="48.09505" lon="3.30568">
        <ele>83.4</ele>
        <time>2024-03-30T15:40:13.000Z</time>
      </trkpt>
      <trkpt lat="48.09507" lon="3.30568">
        <ele>83.5</ele>
        <time>2024-03-30T15:40:14.000Z</time>
      </trkpt>
      <trkpt lat="48.09509" lon="3.30568">
        <ele>83.6</ele>
        <time>2024-03-30T15:40:15.000Z</time>
      </trkpt>
      <trkpt lat="48.09511" lon="3.30568">
        <ele>83.8</ele>
        <time>2024-03-30T15:40:16.000Z</time>
      </trkpt>
      <trkpt lat="48.09512" lon="3.30568">
        <ele>83.9</ele>
        <time>2024-03-30T15:40:17.000Z</time>
      </trkpt>
      <trkpt lat="48.0952" lon="3.30569">
        <ele>84.4</ele>
        <time>2024-03-30T15:40:20.000Z</time>
      </trkpt>
      <trkpt lat="48.09527" lon="3.30569">
        <ele>84.9</ele>
        <time>2024-03-30T15:40:24.000Z</time>
      </trkpt>
      <trkpt lat="48.09531" lon="3.30569">
        <ele>85.2</ele>
        <time>2024-03-30T15:40:26.000Z</time>
      </trkpt>
      <trkpt lat="48.09534" lon="3.30569">
        <ele>85.4</ele>
        <time>2024-03-30T15:40:28.000Z</time>
      </trkpt>
      <trkpt lat="48.09536" lon="3.30569">
        <ele>85.6</ele>
        <time>2024-03-30T15:40:29.000Z</time>
      </trkpt>
      <trkpt lat="48.09538" lon="3.30569">
        <ele>85.7</ele>
        <time>2024-03-30T15:40:30.000Z</time>
      </trkpt>
      <trkpt lat="48.0954" lon="3.30569">
        <ele>85.9</ele>
        <time>2024-03-30T15:40:31.000Z</time>
      </trkpt>
      <trkpt lat="48.09541" lon="3.30568">
        <ele>86</ele>
        <time>2024-03-30T15:40:32.000Z</time>
      </trkpt>
      <trkpt lat="48.09543" lon="3.30569">
        <ele>86.1</ele>
        <time>2024-03-30T15:40:33.000Z</time>
      </trkpt>
      <trkpt lat="48.09544" lon="3.30569">
        <ele>86.2</ele>
        <time>2024-03-30T15:40:34.000Z</time>
      </trkpt>
      <trkpt lat="48.09546" lon="3.30569">
        <ele>86.3</ele>
        <time>2024-03-30T15:40:35.000Z</time>
      </trkpt>
      <trkpt lat="48.09548" lon="3.30569">
        <ele>86.5</ele>
        <time>2024-03-30T15:40:36.000Z</time>
      </trkpt>
      <trkpt lat="48.09549" lon="3.30569">
        <ele>86.5</ele>
        <time>2024-03-30T15:40:37.000Z</time>
      </trkpt>
      <trkpt lat="48.09551" lon="3.30569">
        <ele>86.7</ele>
        <time>2024-03-30T15:40:38.000Z</time>
      </trkpt>
      <trkpt lat="48.09553" lon="3.30568">
        <ele>86.8</ele>
        <time>2024-03-30T15:40:39.000Z</time>
      </trkpt>
      <trkpt lat="48.09555" lon="3.30569">
        <ele>87</ele>
        <time>2024-03-30T15:40:40.000Z</time>
      </trkpt>
      <trkpt lat="48.09557" lon="3.30569">
        <ele>87.1</ele>
        <time>2024-03-30T15:40:41.000Z</time>
      </trkpt>
      <trkpt lat="48.09558" lon="3.30568">
        <ele>87.2</ele>
        <time>2024-03-30T15:40:42.000Z</time>
      </trkpt>
      <trkpt lat="48.0956" lon="3.30568">
        <ele>87.4</ele>
        <time>2024-03-30T15:40:43.000Z</time>
      </trkpt>
      <trkpt lat="48.09562" lon="3.30568">
        <ele>87.6</ele>
        <time>2024-03-30T15:40:44.000Z</time>
      </trkpt>
      <trkpt lat="48.09563" lon="3.30568">
        <ele>87.7</ele>
        <time>2024-03-30T15:40:45.000Z</time>
      </trkpt>
      <trkpt lat="48.09565" lon="3.30568">
        <ele>87.8</ele>
        <time>2024-03-30T15:40:46.000Z</time>
      </trkpt>
      <trkpt lat="48.09566" lon="3.30568">
        <ele>87.9</ele>
        <time>2024-03-30T15:40:47.000Z</time>
      </trkpt>
      <trkpt lat="48.09568" lon="3.30568">
        <ele>88.1</ele>
        <time>2024-03-30T15:40:48.000Z</time>
      </trkpt>
      <trkpt lat="48.0957" lon="3.30568">
        <ele>88.3</ele>
        <time>2024-03-30T15:40:49.000Z</time>
      </trkpt>
      <trkpt lat="48.09571" lon="3.30568">
        <ele>88.4</ele>
        <time>2024-03-30T15:40:50.000Z</time>
      </trkpt>
      <trkpt lat="48.09573" lon="3.30568">
        <ele>88.5</ele>
        <time>2024-03-30T15:40:51.000Z</time>
      </trkpt>
      <trkpt lat="48.09574" lon="3.30568">
        <ele>88.6</ele>
        <time>2024-03-30T15:40:52.000Z</time>
      </trkpt>
      <trkpt lat="48.09575" lon="3.30568">
        <ele>88.7</ele>
        <time>2024-03-30T15:40:53.000Z</time>
      </trkpt>
      <trkpt lat="48.09577" lon="3.30568">
        <ele>88.9</ele>
        <time>2024-03-30T15:40:54.000Z</time>
      </trkpt>
      <trkpt lat="48.09578" lon="3.30568">
        <ele>89</ele>
        <time>2024-03-30T15:40:55.000Z</time>
      </trkpt>
      <trkpt lat="48.0958" lon="3.30568">
        <ele>89.2</ele>
        <time>2024-03-30T15:40:56.000Z</time>
      </trkpt>
      <trkpt lat="48.09582" lon="3.30568">
        <ele>89.3</ele>
        <time>2024-03-30T15:40:57.000Z</time>
      </trkpt>
      <trkpt lat="48.09583" lon="3.30568">
        <ele>89.4</ele>
        <time>2024-03-30T15:40:58.000Z</time>
      </trkpt>
      <trkpt lat="48.09585" lon="3.30568">
        <ele>89.6</ele>
        <time>2024-03-30T15:40:59.000Z</time>
      </trkpt>
      <trkpt lat="48.09586" lon="3.30568">
        <ele>89.7</ele>
        <time>2024-03-30T15:41:00.000Z</time>
      </trkpt>
      <trkpt lat="48.09588" lon="3.30569">
        <ele>90</ele>
        <time>2024-03-30T15:41:01.000Z</time>
      </trkpt>
      <trkpt lat="48.0959" lon="3.30569">
        <ele>90.2</ele>
        <time>2024-03-30T15:41:02.000Z</time>
      </trkpt>
      <trkpt lat="48.09591" lon="3.30569">
        <ele>90.3</ele>
        <time>2024-03-30T15:41:03.000Z</time>
      </trkpt>
      <trkpt lat="48.09593" lon="3.30569">
        <ele>90.5</ele>
        <time>2024-03-30T15:41:04.000Z</time>
      </trkpt>
      <trkpt lat="48.09594" lon="3.30569">
        <ele>90.6</ele>
        <time>2024-03-30T15:41:05.000Z</time>
      </trkpt>
      <trkpt lat="48.09595" lon="3.30569">
        <ele>90.7</ele>
        <time>2024-03-30T15:41:06.000Z</time>
      </trkpt>
      <trkpt lat="48.09597" lon="3.30569">
        <ele>91</ele>
        <time>2024-03-30T15:41:07.000Z</time>
      </trkpt>
      <trkpt lat="48.09598" lon="3.30569">
        <ele>91.1</ele>
        <time>2024-03-30T15:41:08.000Z</time>
      </trkpt>
      <trkpt lat="48.096" lon="3.30569">
        <ele>91.3</ele>
        <time>2024-03-30T15:41:09.000Z</time>
      </trkpt>
      <trkpt lat="48.09601" lon="3.30569">
        <ele>91.4</ele>
        <time>2024-03-30T15:41:10.000Z</time>
      </trkpt>
      <trkpt lat="48.09603" lon="3.30569">
        <ele>91.6</ele>
        <time>2024-03-30T15:41:11.000Z</time>
      </trkpt>
      <trkpt lat="48.09604" lon="3.30569">
        <ele>91.7</ele>
        <time>2024-03-30T15:41:12.000Z</time>
      </trkpt>
      <trkpt lat="48.09605" lon="3.30569">
        <ele>91.8</ele>
        <time>2024-03-30T15:41:13.000Z</time>
      </trkpt>
      <trkpt lat="48.09607" lon="3.30569">
        <ele>92</ele>
        <time>2024-03-30T15:41:14.000Z</time>
      </trkpt>
      <trkpt lat="48.09608" lon="3.30569">
        <ele>92.1</ele>
        <time>2024-03-30T15:41:15.000Z</time>
      </trkpt>
      <trkpt lat="48.0961" lon="3.30569">
        <ele>92.4</ele>
        <time>2024-03-30T15:41:16.000Z</time>
      </trkpt>
      <trkpt lat="48.09611" lon="3.30569">
        <ele>92.5</ele>
        <time>2024-03-30T15:41:17.000Z</time>
      </trkpt>
      <trkpt lat="48.09613" lon="3.30569">
        <ele>92.7</ele>
        <time>2024-03-30T15:41:18.000Z</time>
      </trkpt>
      <trkpt lat="48.09614" lon="3.30569">
        <ele>92.8</ele>
        <time>2024-03-30T15:41:19.000Z</time>
      </trkpt>
      <trkpt lat="48.09615" lon="3.30569">
        <ele>93</ele>
        <time>2024-03-30T15:41:20.000Z</time>
      </trkpt>
      <trkpt lat="48.09617" lon="3.30569">
        <ele>93.2</ele>
        <time>2024-03-30T15:41:21.000Z</time>
      </trkpt>
      <trkpt lat="48.09618" lon="3.30569">
        <ele>93.3</ele>
        <time>2024-03-30T15:41:22.000Z</time>
      </trkpt>
      <trkpt lat="48.0962" lon="3.30569">
        <ele>93.6</ele>
        <time>2024-03-30T15:41:23.000Z</time>
      </trkpt>
      <trkpt lat="48.09621" lon="3.30569">
        <ele>93.7</ele>
        <time>2024-03-30T15:41:24.000Z</time>
      </trkpt>
      <trkpt lat="48.09622" lon="3.30569">
        <ele>93.8</ele>
        <time>2024-03-30T15:41:25.000Z</time>
      </trkpt>
      <trkpt lat="48.09624" lon="3.30569">
        <ele>94.1</ele>
        <time>2024-03-30T15:41:26.000Z</time>
      </trkpt>
      <trkpt lat="48.09626" lon="3.30569">
        <ele>94.4</ele>
        <time>2024-03-30T15:41:27.000Z</time>
      </trkpt>
      <trkpt lat="48.09627" lon="3.30568">
        <ele>94.4</ele>
        <time>2024-03-30T15:41:28.000Z</time>
      </trkpt>
      <trkpt lat="48.09628" lon="3.30568">
        <ele>94.5</ele>
        <time>2024-03-30T15:41:29.000Z</time>
      </trkpt>
      <trkpt lat="48.0963" lon="3.30568">
        <ele>94.8</ele>
        <time>2024-03-30T15:41:30.000Z</time>
      </trkpt>
      <trkpt lat="48.09631" lon="3.30568">
        <ele>94.9</ele>
        <time>2024-03-30T15:41:31.000Z</time>
      </trkpt>
      <trkpt lat="48.09632" lon="3.30568">
        <ele>95</ele>
        <time>2024-03-30T15:41:32.000Z</time>
      </trkpt>
      <trkpt lat="48.09634" lon="3.30568">
        <ele>95.3</ele>
        <time>2024-03-30T15:41:33.000Z</time>
      </trkpt>
      <trkpt lat="48.09635" lon="3.30568">
        <ele>95.4</ele>
        <time>2024-03-30T15:41:34.000Z</time>
      </trkpt>
      <trkpt lat="48.09636" lon="3.30568">
        <ele>95.5</ele>
        <time>2024-03-30T15:41:35.000Z</time>
      </trkpt>
      <trkpt lat="48.09637" lon="3.30568">
        <ele>95.7</ele>
        <time>2024-03-30T15:41:36.000Z</time>
      </trkpt>
      <trkpt lat="48.09638" lon="3.30568">
        <ele>95.8</ele>
        <time>2024-03-30T15:41:37.000Z</time>
      </trkpt>
      <trkpt lat="48.09639" lon="3.30568">
        <ele>95.9</ele>
        <time>2024-03-30T15:41:38.000Z</time>
      </trkpt>
      <trkpt lat="48.0964" lon="3.30567">
        <ele>95.9</ele>
        <time>2024-03-30T15:41:39.000Z</time>
      </trkpt>
      <trkpt lat="48.09642" lon="3.30567">
        <ele>96.2</ele>
        <time>2024-03-30T15:41:40.000Z</time>
      </trkpt>
      <trkpt lat="48.09643" lon="3.30567">
        <ele>96.3</ele>
        <time>2024-03-30T15:41:41.000Z</time>
      </trkpt>
      <trkpt lat="48.09644" lon="3.30567">
        <ele>96.4</ele>
        <time>2024-03-30T15:41:42.000Z</time>
      </trkpt>
      <trkpt lat="48.09646" lon="3.30566">
        <ele>96.5</ele>
        <time>2024-03-30T15:41:43.000Z</time>
      </trkpt>
      <trkpt lat="48.09647" lon="3.30567">
        <ele>96.7</ele>
        <time>2024-03-30T15:41:44.000Z</time>
      </trkpt>
      <trkpt lat="48.09648" lon="3.30567">
        <ele>96.8</ele>
        <time>2024-03-30T15:41:45.000Z</time>
      </trkpt>
      <trkpt lat="48.0965" lon="3.30567">
        <ele>97</ele>
        <time>2024-03-30T15:41:46.000Z</time>
      </trkpt>
      <trkpt lat="48.09651" lon="3.30567">
        <ele>97.1</ele>
        <time>2024-03-30T15:41:47.000Z</time>
      </trkpt>
      <trkpt lat="48.09652" lon="3.30566">
        <ele>97.2</ele>
        <time>2024-03-30T15:41:48.000Z</time>
      </trkpt>
      <trkpt lat="48.09654" lon="3.30566">
        <ele>97.4</ele>
        <time>2024-03-30T15:41:49.000Z</time>
      </trkpt>
      <trkpt lat="48.09655" lon="3.30566">
        <ele>97.5</ele>
        <time>2024-03-30T15:41:50.000Z</time>
      </trkpt>
      <trkpt lat="48.09657" lon="3.30566">
        <ele>97.7</ele>
        <time>2024-03-30T15:41:51.000Z</time>
      </trkpt>
      <trkpt lat="48.09658" lon="3.30566">
        <ele>97.8</ele>
        <time>2024-03-30T15:41:52.000Z</time>
      </trkpt>
      <trkpt lat="48.0966" lon="3.30566">
        <ele>98</ele>
        <time>2024-03-30T15:41:53.000Z</time>
      </trkpt>
      <trkpt lat="48.09661" lon="3.30566">
        <ele>98.1</ele>
        <time>2024-03-30T15:41:54.000Z</time>
      </trkpt>
      <trkpt lat="48.09663" lon="3.30566">
        <ele>98.4</ele>
        <time>2024-03-30T15:41:55.000Z</time>
      </trkpt>
      <trkpt lat="48.09664" lon="3.30566">
        <ele>98.5</ele>
        <time>2024-03-30T15:41:56.000Z</time>
      </trkpt>
      <trkpt lat="48.09665" lon="3.30566">
        <ele>98.6</ele>
        <time>2024-03-30T15:41:57.000Z</time>
      </trkpt>
      <trkpt lat="48.09667" lon="3.30566">
        <ele>98.8</ele>
        <time>2024-03-30T15:41:58.000Z</time>
      </trkpt>
      <trkpt lat="48.09668" lon="3.30566">
        <ele>98.9</ele>
        <time>2024-03-30T15:41:59.000Z</time>
      </trkpt>
      <trkpt lat="48.09669" lon="3.30566">
        <ele>99.1</ele>
        <time>2024-03-30T15:42:00.000Z</time>
      </trkpt>
      <trkpt lat="48.09671" lon="3.30566">
        <ele>99.3</ele>
        <time>2024-03-30T15:42:01.000Z</time>
      </trkpt>
      <trkpt lat="48.09672" lon="3.30566">
        <ele>99.4</ele>
        <time>2024-03-30T15:42:02.000Z</time>
      </trkpt>
      <trkpt lat="48.09674" lon="3.30566">
        <ele>99.7</ele>
        <time>2024-03-30T15:42:03.000Z</time>
      </trkpt>
      <trkpt lat="48.09675" lon="3.30566">
        <ele>99.8</ele>
        <time>2024-03-30T15:42:04.000Z</time>
      </trkpt>
      <trkpt lat="48.09677" lon="3.30566">
        <ele>100.1</ele>
        <time>2024-03-30T15:42:05.000Z</time>
      </trkpt>
      <trkpt lat="48.09678" lon="3.30565">
        <ele>100.2</ele>
        <time>2024-03-30T15:42:06.000Z</time>
      </trkpt>
      <trkpt lat="48.09679" lon="3.30565">
        <ele>100.3</ele>
        <time>2024-03-30T15:42:07.000Z</time>
      </trkpt>
      <trkpt lat="48.09681" lon="3.30565">
        <ele>100.6</ele>
        <time>2024-03-30T15:42:08.000Z</time>
      </trkpt>
      <trkpt lat="48.09683" lon="3.30566">
        <ele>100.9</ele>
        <time>2024-03-30T15:42:09.000Z</time>
      </trkpt>
      <trkpt lat="48.09684" lon="3.30566">
        <ele>101</ele>
        <time>2024-03-30T15:42:10.000Z</time>
      </trkpt>
      <trkpt lat="48.09685" lon="3.30566">
        <ele>101.1</ele>
        <time>2024-03-30T15:42:11.000Z</time>
      </trkpt>
      <trkpt lat="48.09686" lon="3.30566">
        <ele>101.3</ele>
        <time>2024-03-30T15:42:12.000Z</time>
      </trkpt>
      <trkpt lat="48.09688" lon="3.30566">
        <ele>101.5</ele>
        <time>2024-03-30T15:42:13.000Z</time>
      </trkpt>
      <trkpt lat="48.09689" lon="3.30566">
        <ele>101.7</ele>
        <time>2024-03-30T15:42:14.000Z</time>
      </trkpt>
      <trkpt lat="48.09691" lon="3.30566">
        <ele>101.9</ele>
        <time>2024-03-30T15:42:15.000Z</time>
      </trkpt>
      <trkpt lat="48.09692" lon="3.30566">
        <ele>102.1</ele>
        <time>2024-03-30T15:42:16.000Z</time>
      </trkpt>
      <trkpt lat="48.09693" lon="3.30566">
        <ele>102.2</ele>
        <time>2024-03-30T15:42:17.000Z</time>
      </trkpt>
      <trkpt lat="48.09695" lon="3.30566">
        <ele>102.4</ele>
        <time>2024-03-30T15:42:18.000Z</time>
      </trkpt>
      <trkpt lat="48.09696" lon="3.30566">
        <ele>102.5</ele>
        <time>2024-03-30T15:42:19.000Z</time>
      </trkpt>
      <trkpt lat="48.09698" lon="3.30566">
        <ele>102.8</ele>
        <time>2024-03-30T15:42:20.000Z</time>
      </trkpt>
      <trkpt lat="48.09699" lon="3.30566">
        <ele>102.9</ele>
        <time>2024-03-30T15:42:21.000Z</time>
      </trkpt>
      <trkpt lat="48.097" lon="3.30566">
        <ele>103</ele>
        <time>2024-03-30T15:42:22.000Z</time>
      </trkpt>
      <trkpt lat="48.09702" lon="3.30567">
        <ele>103.2</ele>
        <time>2024-03-30T15:42:23.000Z</time>
      </trkpt>
      <trkpt lat="48.09703" lon="3.30567">
        <ele>103.3</ele>
        <time>2024-03-30T15:42:24.000Z</time>
      </trkpt>
      <trkpt lat="48.09704" lon="3.30567">
        <ele>103.4</ele>
        <time>2024-03-30T15:42:25.000Z</time>
      </trkpt>
      <trkpt lat="48.09706" lon="3.30567">
        <ele>103.7</ele>
        <time>2024-03-30T15:42:26.000Z</time>
      </trkpt>
      <trkpt lat="48.09707" lon="3.30567">
        <ele>103.8</ele>
        <time>2024-03-30T15:42:27.000Z</time>
      </trkpt>
      <trkpt lat="48.09709" lon="3.30567">
        <ele>104</ele>
        <time>2024-03-30T15:42:28.000Z</time>
      </trkpt>
      <trkpt lat="48.0971" lon="3.30567">
        <ele>104.1</ele>
        <time>2024-03-30T15:42:29.000Z</time>
      </trkpt>
      <trkpt lat="48.09711" lon="3.30567">
        <ele>104.2</ele>
        <time>2024-03-30T15:42:30.000Z</time>
      </trkpt>
      <trkpt lat="48.09713" lon="3.30566">
        <ele>104.4</ele>
        <time>2024-03-30T15:42:31.000Z</time>
      </trkpt>
      <trkpt lat="48.09714" lon="3.30567">
        <ele>104.5</ele>
        <time>2024-03-30T15:42:32.000Z</time>
      </trkpt>
      <trkpt lat="48.09715" lon="3.30567">
        <ele>104.6</ele>
        <time>2024-03-30T15:42:33.000Z</time>
      </trkpt>
      <trkpt lat="48.09716" lon="3.30567">
        <ele>104.7</ele>
        <time>2024-03-30T15:42:34.000Z</time>
      </trkpt>
      <trkpt lat="48.09717" lon="3.30567">
        <ele>104.8</ele>
        <time>2024-03-30T15:42:35.000Z</time>
      </trkpt>
      <trkpt lat="48.09717" lon="3.30567">
        <ele>104.8</ele>
        <time>2024-03-30T15:42:38.000Z</time>
      </trkpt>
      <trkpt lat="48.09717" lon="3.30567">
        <ele>104.8</ele>
        <time>2024-03-30T15:42:39.000Z</time>
      </trkpt>
      <trkpt lat="48.09718" lon="3.30567">
        <ele>105</ele>
        <time>2024-03-30T15:42:40.000Z</time>
      </trkpt>
      <trkpt lat="48.09719" lon="3.30567">
        <ele>105.1</ele>
        <time>2024-03-30T15:42:41.000Z</time>
      </trkpt>
      <trkpt lat="48.09721" lon="3.30566">
        <ele>105.2</ele>
        <time>2024-03-30T15:42:42.000Z</time>
      </trkpt>
      <trkpt lat="48.09722" lon="3.30566">
        <ele>105.4</ele>
        <time>2024-03-30T15:42:43.000Z</time>
      </trkpt>
      <trkpt lat="48.09723" lon="3.30566">
        <ele>105.5</ele>
        <time>2024-03-30T15:42:44.000Z</time>
      </trkpt>
      <trkpt lat="48.09725" lon="3.30566">
        <ele>105.7</ele>
        <time>2024-03-30T15:42:45.000Z</time>
      </trkpt>
      <trkpt lat="48.09726" lon="3.30566">
        <ele>105.9</ele>
        <time>2024-03-30T15:42:46.000Z</time>
      </trkpt>
      <trkpt lat="48.09727" lon="3.30567">
        <ele>106</ele>
        <time>2024-03-30T15:42:47.000Z</time>
      </trkpt>
      <trkpt lat="48.09729" lon="3.30567">
        <ele>106.3</ele>
        <time>2024-03-30T15:42:48.000Z</time>
      </trkpt>
      <trkpt lat="48.09729" lon="3.30567">
        <ele>106.3</ele>
        <time>2024-03-30T15:42:49.000Z</time>
      </trkpt>
      <trkpt lat="48.0973" lon="3.30568">
        <ele>106.4</ele>
        <time>2024-03-30T15:42:50.000Z</time>
      </trkpt>
      <trkpt lat="48.09731" lon="3.30568">
        <ele>106.6</ele>
        <time>2024-03-30T15:42:51.000Z</time>
      </trkpt>
      <trkpt lat="48.09733" lon="3.30568">
        <ele>106.8</ele>
        <time>2024-03-30T15:42:52.000Z</time>
      </trkpt>
      <trkpt lat="48.09734" lon="3.30568">
        <ele>107</ele>
        <time>2024-03-30T15:42:53.000Z</time>
      </trkpt>
      <trkpt lat="48.09735" lon="3.30568">
        <ele>107.1</ele>
        <time>2024-03-30T15:42:54.000Z</time>
      </trkpt>
      <trkpt lat="48.09736" lon="3.30568">
        <ele>107.2</ele>
        <time>2024-03-30T15:42:55.000Z</time>
      </trkpt>
      <trkpt lat="48.09738" lon="3.30568">
        <ele>107.5</ele>
        <time>2024-03-30T15:42:56.000Z</time>
      </trkpt>
      <trkpt lat="48.09739" lon="3.30568">
        <ele>107.6</ele>
        <time>2024-03-30T15:42:57.000Z</time>
      </trkpt>
      <trkpt lat="48.0974" lon="3.30568">
        <ele>107.7</ele>
        <time>2024-03-30T15:42:58.000Z</time>
      </trkpt>
      <trkpt lat="48.09741" lon="3.30568">
        <ele>107.8</ele>
        <time>2024-03-30T15:42:59.000Z</time>
      </trkpt>
      <trkpt lat="48.09742" lon="3.30569">
        <ele>108</ele>
        <time>2024-03-30T15:43:00.000Z</time>
      </trkpt>
      <trkpt lat="48.09744" lon="3.30569">
        <ele>108.2</ele>
        <time>2024-03-30T15:43:01.000Z</time>
      </trkpt>
      <trkpt lat="48.09745" lon="3.30569">
        <ele>108.4</ele>
        <time>2024-03-30T15:43:02.000Z</time>
      </trkpt>
      <trkpt lat="48.09746" lon="3.3057">
        <ele>108.5</ele>
        <time>2024-03-30T15:43:03.000Z</time>
      </trkpt>
      <trkpt lat="48.09747" lon="3.3057">
        <ele>108.6</ele>
        <time>2024-03-30T15:43:04.000Z</time>
      </trkpt>
      <trkpt lat="48.09748" lon="3.30571">
        <ele>108.8</ele>
        <time>2024-03-30T15:43:05.000Z</time>
      </trkpt>
      <trkpt lat="48.09749" lon="3.30571">
        <ele>108.9</ele>
        <time>2024-03-30T15:43:06.000Z</time>
      </trkpt>
      <trkpt lat="48.0975" lon="3.30572">
        <ele>109</ele>
        <time>2024-03-30T15:43:07.000Z</time>
      </trkpt>
      <trkpt lat="48.0975" lon="3.30572">
        <ele>109</ele>
        <time>2024-03-30T15:43:08.000Z</time>
      </trkpt>
      <trkpt lat="48.09751" lon="3.30573">
        <ele>109.1</ele>
        <time>2024-03-30T15:43:09.000Z</time>
      </trkpt>
      <trkpt lat="48.09752" lon="3.30574">
        <ele>109.2</ele>
        <time>2024-03-30T15:43:10.000Z</time>
      </trkpt>
      <trkpt lat="48.09753" lon="3.30575">
        <ele>109.3</ele>
        <time>2024-03-30T15:43:11.000Z</time>
      </trkpt>
      <trkpt lat="48.09754" lon="3.30575">
        <ele>109.4</ele>
        <time>2024-03-30T15:43:12.000Z</time>
      </trkpt>
      <trkpt lat="48.09754" lon="3.30576">
        <ele>109.4</ele>
        <time>2024-03-30T15:43:13.000Z</time>
      </trkpt>
      <trkpt lat="48.09755" lon="3.30577">
        <ele>109.5</ele>
        <time>2024-03-30T15:43:14.000Z</time>
      </trkpt>
      <trkpt lat="48.09756" lon="3.30578">
        <ele>109.6</ele>
        <time>2024-03-30T15:43:15.000Z</time>
      </trkpt>
      <trkpt lat="48.09757" lon="3.30578">
        <ele>109.8</ele>
        <time>2024-03-30T15:43:16.000Z</time>
      </trkpt>
      <trkpt lat="48.09758" lon="3.30579">
        <ele>109.9</ele>
        <time>2024-03-30T15:43:17.000Z</time>
      </trkpt>
      <trkpt lat="48.0976" lon="3.30579">
        <ele>110.1</ele>
        <time>2024-03-30T15:43:18.000Z</time>
      </trkpt>
      <trkpt lat="48.09761" lon="3.3058">
        <ele>110.2</ele>
        <time>2024-03-30T15:43:19.000Z</time>
      </trkpt>
      <trkpt lat="48.09762" lon="3.3058">
        <ele>110.3</ele>
        <time>2024-03-30T15:43:20.000Z</time>
      </trkpt>
      <trkpt lat="48.09763" lon="3.30581">
        <ele>110.4</ele>
        <time>2024-03-30T15:43:21.000Z</time>
      </trkpt>
      <trkpt lat="48.09764" lon="3.30582">
        <ele>110.5</ele>
        <time>2024-03-30T15:43:22.000Z</time>
      </trkpt>
      <trkpt lat="48.09765" lon="3.30582">
        <ele>110.6</ele>
        <time>2024-03-30T15:43:23.000Z</time>
      </trkpt>
      <trkpt lat="48.09766" lon="3.30582">
        <ele>110.7</ele>
        <time>2024-03-30T15:43:24.000Z</time>
      </trkpt>
      <trkpt lat="48.09767" lon="3.30582">
        <ele>110.8</ele>
        <time>2024-03-30T15:43:25.000Z</time>
      </trkpt>
      <trkpt lat="48.09767" lon="3.30582">
        <ele>110.8</ele>
        <time>2024-03-30T15:43:26.000Z</time>
      </trkpt>
      <trkpt lat="48.09769" lon="3.30583">
        <ele>111.1</ele>
        <time>2024-03-30T15:43:27.000Z</time>
      </trkpt>
      <trkpt lat="48.0977" lon="3.30583">
        <ele>111.2</ele>
        <time>2024-03-30T15:43:28.000Z</time>
      </trkpt>
      <trkpt lat="48.09772" lon="3.30584">
        <ele>111.4</ele>
        <time>2024-03-30T15:43:29.000Z</time>
      </trkpt>
      <trkpt lat="48.09773" lon="3.30584">
        <ele>111.5</ele>
        <time>2024-03-30T15:43:30.000Z</time>
      </trkpt>
      <trkpt lat="48.09775" lon="3.30584">
        <ele>111.7</ele>
        <time>2024-03-30T15:43:31.000Z</time>
      </trkpt>
      <trkpt lat="48.09776" lon="3.30584">
        <ele>111.8</ele>
        <time>2024-03-30T15:43:32.000Z</time>
      </trkpt>
      <trkpt lat="48.09777" lon="3.30585">
        <ele>111.9</ele>
        <time>2024-03-30T15:43:33.000Z</time>
      </trkpt>
      <trkpt lat="48.09778" lon="3.30586">
        <ele>112</ele>
        <time>2024-03-30T15:43:34.000Z</time>
      </trkpt>
      <trkpt lat="48.09779" lon="3.30587">
        <ele>112.2</ele>
        <time>2024-03-30T15:43:35.000Z</time>
      </trkpt>
      <trkpt lat="48.0978" lon="3.30588">
        <ele>112.3</ele>
        <time>2024-03-30T15:43:36.000Z</time>
      </trkpt>
      <trkpt lat="48.09781" lon="3.30588">
        <ele>112.5</ele>
        <time>2024-03-30T15:43:37.000Z</time>
      </trkpt>
      <trkpt lat="48.09782" lon="3.30588">
        <ele>112.6</ele>
        <time>2024-03-30T15:43:38.000Z</time>
      </trkpt>
      <trkpt lat="48.09783" lon="3.30589">
        <ele>112.8</ele>
        <time>2024-03-30T15:43:39.000Z</time>
      </trkpt>
      <trkpt lat="48.09784" lon="3.30589">
        <ele>112.9</ele>
        <time>2024-03-30T15:43:40.000Z</time>
      </trkpt>
      <trkpt lat="48.09785" lon="3.3059">
        <ele>113.1</ele>
        <time>2024-03-30T15:43:41.000Z</time>
      </trkpt>
      <trkpt lat="48.09786" lon="3.3059">
        <ele>113.3</ele>
        <time>2024-03-30T15:43:42.000Z</time>
      </trkpt>
      <trkpt lat="48.09787" lon="3.3059">
        <ele>113.4</ele>
        <time>2024-03-30T15:43:43.000Z</time>
      </trkpt>
      <trkpt lat="48.09789" lon="3.30592">
        <ele>113.7</ele>
        <time>2024-03-30T15:43:44.000Z</time>
      </trkpt>
      <trkpt lat="48.0979" lon="3.30592">
        <ele>113.9</ele>
        <time>2024-03-30T15:43:45.000Z</time>
      </trkpt>
      <trkpt lat="48.09791" lon="3.30592">
        <ele>114.1</ele>
        <time>2024-03-30T15:43:46.000Z</time>
      </trkpt>
      <trkpt lat="48.09791" lon="3.30593">
        <ele>114.1</ele>
        <time>2024-03-30T15:43:47.000Z</time>
      </trkpt>
      <trkpt lat="48.09793" lon="3.30593">
        <ele>114.4</ele>
        <time>2024-03-30T15:43:48.000Z</time>
      </trkpt>
      <trkpt lat="48.09794" lon="3.30594">
        <ele>114.6</ele>
        <time>2024-03-30T15:43:49.000Z</time>
      </trkpt>
      <trkpt lat="48.09795" lon="3.30595">
        <ele>114.7</ele>
        <time>2024-03-30T15:43:50.000Z</time>
      </trkpt>
      <trkpt lat="48.09796" lon="3.30595">
        <ele>114.9</ele>
        <time>2024-03-30T15:43:51.000Z</time>
      </trkpt>
      <trkpt lat="48.09797" lon="3.30595">
        <ele>115.1</ele>
        <time>2024-03-30T15:43:52.000Z</time>
      </trkpt>
      <trkpt lat="48.09798" lon="3.30595">
        <ele>115.2</ele>
        <time>2024-03-30T15:43:53.000Z</time>
      </trkpt>
      <trkpt lat="48.09799" lon="3.30595">
        <ele>115.4</ele>
        <time>2024-03-30T15:43:54.000Z</time>
      </trkpt>
      <trkpt lat="48.09801" lon="3.30596">
        <ele>115.7</ele>
        <time>2024-03-30T15:43:55.000Z</time>
      </trkpt>
      <trkpt lat="48.09801" lon="3.30596">
        <ele>115.7</ele>
        <time>2024-03-30T15:43:56.000Z</time>
      </trkpt>
      <trkpt lat="48.09801" lon="3.30596">
        <ele>115.7</ele>
        <time>2024-03-30T15:43:57.000Z</time>
      </trkpt>
      <trkpt lat="48.09803" lon="3.30596">
        <ele>116</ele>
        <time>2024-03-30T15:43:58.000Z</time>
      </trkpt>
      <trkpt lat="48.09804" lon="3.30595">
        <ele>116.2</ele>
        <time>2024-03-30T15:43:59.000Z</time>
      </trkpt>
      <trkpt lat="48.09805" lon="3.30595">
        <ele>116.3</ele>
        <time>2024-03-30T15:44:00.000Z</time>
      </trkpt>
      <trkpt lat="48.09806" lon="3.30595">
        <ele>116.5</ele>
        <time>2024-03-30T15:44:01.000Z</time>
      </trkpt>
      <trkpt lat="48.09807" lon="3.30595">
        <ele>116.7</ele>
        <time>2024-03-30T15:44:02.000Z</time>
      </trkpt>
      <trkpt lat="48.09808" lon="3.30595">
        <ele>116.9</ele>
        <time>2024-03-30T15:44:03.000Z</time>
      </trkpt>
      <trkpt lat="48.09809" lon="3.30594">
        <ele>117</ele>
        <time>2024-03-30T15:44:04.000Z</time>
      </trkpt>
      <trkpt lat="48.0981" lon="3.30594">
        <ele>117.2</ele>
        <time>2024-03-30T15:44:05.000Z</time>
      </trkpt>
      <trkpt lat="48.09811" lon="3.30594">
        <ele>117.4</ele>
        <time>2024-03-30T15:44:06.000Z</time>
      </trkpt>
      <trkpt lat="48.09812" lon="3.30594">
        <ele>117.5</ele>
        <time>2024-03-30T15:44:07.000Z</time>
      </trkpt>
      <trkpt lat="48.09813" lon="3.30594">
        <ele>117.7</ele>
        <time>2024-03-30T15:44:08.000Z</time>
      </trkpt>
      <trkpt lat="48.09814" lon="3.30594">
        <ele>117.9</ele>
        <time>2024-03-30T15:44:09.000Z</time>
      </trkpt>
      <trkpt lat="48.09815" lon="3.30593">
        <ele>118</ele>
        <time>2024-03-30T15:44:10.000Z</time>
      </trkpt>
      <trkpt lat="48.09816" lon="3.30594">
        <ele>118.3</ele>
        <time>2024-03-30T15:44:11.000Z</time>
      </trkpt>
      <trkpt lat="48.09818" lon="3.30594">
        <ele>118.6</ele>
        <time>2024-03-30T15:44:12.000Z</time>
      </trkpt>
      <trkpt lat="48.09819" lon="3.30594">
        <ele>118.8</ele>
        <time>2024-03-30T15:44:13.000Z</time>
      </trkpt>
      <trkpt lat="48.0982" lon="3.30594">
        <ele>119</ele>
        <time>2024-03-30T15:44:14.000Z</time>
      </trkpt>
      <trkpt lat="48.09821" lon="3.30594">
        <ele>119.2</ele>
        <time>2024-03-30T15:44:15.000Z</time>
      </trkpt>
      <trkpt lat="48.09822" lon="3.30594">
        <ele>119.3</ele>
        <time>2024-03-30T15:44:16.000Z</time>
      </trkpt>
      <trkpt lat="48.09823" lon="3.30594">
        <ele>119.5</ele>
        <time>2024-03-30T15:44:17.000Z</time>
      </trkpt>
      <trkpt lat="48.09825" lon="3.30594">
        <ele>119.9</ele>
        <time>2024-03-30T15:44:18.000Z</time>
      </trkpt>
      <trkpt lat="48.09826" lon="3.30594">
        <ele>120.1</ele>
        <time>2024-03-30T15:44:19.000Z</time>
      </trkpt>
      <trkpt lat="48.09827" lon="3.30593">
        <ele>120.2</ele>
        <time>2024-03-30T15:44:20.000Z</time>
      </trkpt>
      <trkpt lat="48.09828" lon="3.30593">
        <ele>120.4</ele>
        <time>2024-03-30T15:44:21.000Z</time>
      </trkpt>
      <trkpt lat="48.09829" lon="3.30593">
        <ele>120.6</ele>
        <time>2024-03-30T15:44:22.000Z</time>
      </trkpt>
      <trkpt lat="48.0983" lon="3.30593">
        <ele>120.7</ele>
        <time>2024-03-30T15:44:23.000Z</time>
      </trkpt>
      <trkpt lat="48.09831" lon="3.30593">
        <ele>120.9</ele>
        <time>2024-03-30T15:44:24.000Z</time>
      </trkpt>
      <trkpt lat="48.09832" lon="3.30593">
        <ele>121.1</ele>
        <time>2024-03-30T15:44:25.000Z</time>
      </trkpt>
      <trkpt lat="48.09833" lon="3.30593">
        <ele>121.3</ele>
        <time>2024-03-30T15:44:26.000Z</time>
      </trkpt>
      <trkpt lat="48.09834" lon="3.30593">
        <ele>121.4</ele>
        <time>2024-03-30T15:44:27.000Z</time>
      </trkpt>
      <trkpt lat="48.09835" lon="3.30593">
        <ele>121.6</ele>
        <time>2024-03-30T15:44:28.000Z</time>
      </trkpt>
      <trkpt lat="48.09836" lon="3.30593">
        <ele>121.7</ele>
        <time>2024-03-30T15:44:29.000Z</time>
      </trkpt>
      <trkpt lat="48.09837" lon="3.30593">
        <ele>121.9</ele>
        <time>2024-03-30T15:44:30.000Z</time>
      </trkpt>
      <trkpt lat="48.09837" lon="3.30593">
        <ele>121.9</ele>
        <time>2024-03-30T15:44:31.000Z</time>
      </trkpt>
      <trkpt lat="48.09838" lon="3.30593">
        <ele>122</ele>
        <time>2024-03-30T15:44:32.000Z</time>
      </trkpt>
      <trkpt lat="48.09839" lon="3.30593">
        <ele>122.2</ele>
        <time>2024-03-30T15:44:33.000Z</time>
      </trkpt>
      <trkpt lat="48.0984" lon="3.30593">
        <ele>122.3</ele>
        <time>2024-03-30T15:44:34.000Z</time>
      </trkpt>
      <trkpt lat="48.0984" lon="3.30593">
        <ele>122.3</ele>
        <time>2024-03-30T15:44:35.000Z</time>
      </trkpt>
      <trkpt lat="48.09841" lon="3.30593">
        <ele>122.5</ele>
        <time>2024-03-30T15:44:36.000Z</time>
      </trkpt>
      <trkpt lat="48.09842" lon="3.30593">
        <ele>122.6</ele>
        <time>2024-03-30T15:44:37.000Z</time>
      </trkpt>
      <trkpt lat="48.09844" lon="3.30593">
        <ele>122.9</ele>
        <time>2024-03-30T15:44:38.000Z</time>
      </trkpt>
      <trkpt lat="48.09844" lon="3.30593">
        <ele>122.9</ele>
        <time>2024-03-30T15:44:39.000Z</time>
      </trkpt>
      <trkpt lat="48.09846" lon="3.30593">
        <ele>123.2</ele>
        <time>2024-03-30T15:44:40.000Z</time>
      </trkpt>
      <trkpt lat="48.09846" lon="3.30593">
        <ele>123.2</ele>
        <time>2024-03-30T15:44:41.000Z</time>
      </trkpt>
      <trkpt lat="48.09847" lon="3.30593">
        <ele>123.3</ele>
        <time>2024-03-30T15:44:42.000Z</time>
      </trkpt>
      <trkpt lat="48.09848" lon="3.30594">
        <ele>123.5</ele>
        <time>2024-03-30T15:44:43.000Z</time>
      </trkpt>
      <trkpt lat="48.09849" lon="3.30594">
        <ele>123.6</ele>
        <time>2024-03-30T15:44:44.000Z</time>
      </trkpt>
      <trkpt lat="48.0985" lon="3.30594">
        <ele>123.8</ele>
        <time>2024-03-30T15:44:45.000Z</time>
      </trkpt>
      <trkpt lat="48.09851" lon="3.30595">
        <ele>124</ele>
        <time>2024-03-30T15:44:46.000Z</time>
      </trkpt>
      <trkpt lat="48.09852" lon="3.30595">
        <ele>124.1</ele>
        <time>2024-03-30T15:44:47.000Z</time>
      </trkpt>
      <trkpt lat="48.09853" lon="3.30595">
        <ele>124.3</ele>
        <time>2024-03-30T15:44:48.000Z</time>
      </trkpt>
      <trkpt lat="48.09854" lon="3.30595">
        <ele>124.4</ele>
        <time>2024-03-30T15:44:49.000Z</time>
      </trkpt>
      <trkpt lat="48.09855" lon="3.30595">
        <ele>124.5</ele>
        <time>2024-03-30T15:44:50.000Z</time>
      </trkpt>
      <trkpt lat="48.09856" lon="3.30596">
        <ele>124.7</ele>
        <time>2024-03-30T15:44:51.000Z</time>
      </trkpt>
      <trkpt lat="48.09857" lon="3.30596">
        <ele>124.9</ele>
        <time>2024-03-30T15:44:52.000Z</time>
      </trkpt>
      <trkpt lat="48.09858" lon="3.30596">
        <ele>125</ele>
        <time>2024-03-30T15:44:53.000Z</time>
      </trkpt>
      <trkpt lat="48.09859" lon="3.30596">
        <ele>125.2</ele>
        <time>2024-03-30T15:44:54.000Z</time>
      </trkpt>
      <trkpt lat="48.0986" lon="3.30596">
        <ele>125.3</ele>
        <time>2024-03-30T15:44:55.000Z</time>
      </trkpt>
      <trkpt lat="48.09861" lon="3.30596">
        <ele>125.4</ele>
        <time>2024-03-30T15:44:56.000Z</time>
      </trkpt>
      <trkpt lat="48.09863" lon="3.30596">
        <ele>125.7</ele>
        <time>2024-03-30T15:44:57.000Z</time>
      </trkpt>
      <trkpt lat="48.09864" lon="3.30596">
        <ele>125.8</ele>
        <time>2024-03-30T15:44:58.000Z</time>
      </trkpt>
      <trkpt lat="48.09865" lon="3.30596">
        <ele>125.9</ele>
        <time>2024-03-30T15:44:59.000Z</time>
      </trkpt>
      <trkpt lat="48.09867" lon="3.30596">
        <ele>126.1</ele>
        <time>2024-03-30T15:45:00.000Z</time>
      </trkpt>
      <trkpt lat="48.09868" lon="3.30596">
        <ele>126.2</ele>
        <time>2024-03-30T15:45:01.000Z</time>
      </trkpt>
      <trkpt lat="48.0987" lon="3.30597">
        <ele>126.5</ele>
        <time>2024-03-30T15:45:02.000Z</time>
      </trkpt>
      <trkpt lat="48.09871" lon="3.30597">
        <ele>126.6</ele>
        <time>2024-03-30T15:45:03.000Z</time>
      </trkpt>
      <trkpt lat="48.09872" lon="3.30597">
        <ele>126.7</ele>
        <time>2024-03-30T15:45:04.000Z</time>
      </trkpt>
      <trkpt lat="48.09873" lon="3.30597">
        <ele>126.8</ele>
        <time>2024-03-30T15:45:05.000Z</time>
      </trkpt>
      <trkpt lat="48.09874" lon="3.30597">
        <ele>126.9</ele>
        <time>2024-03-30T15:45:06.000Z</time>
      </trkpt>
      <trkpt lat="48.09876" lon="3.30597">
        <ele>127.1</ele>
        <time>2024-03-30T15:45:07.000Z</time>
      </trkpt>
      <trkpt lat="48.09877" lon="3.30598">
        <ele>127.2</ele>
        <time>2024-03-30T15:45:08.000Z</time>
      </trkpt>
      <trkpt lat="48.09878" lon="3.30598">
        <ele>127.4</ele>
        <time>2024-03-30T15:45:09.000Z</time>
      </trkpt>
      <trkpt lat="48.09879" lon="3.30598">
        <ele>127.5</ele>
        <time>2024-03-30T15:45:10.000Z</time>
      </trkpt>
      <trkpt lat="48.0988" lon="3.30598">
        <ele>127.6</ele>
        <time>2024-03-30T15:45:11.000Z</time>
      </trkpt>
      <trkpt lat="48.09882" lon="3.30598">
        <ele>127.8</ele>
        <time>2024-03-30T15:45:12.000Z</time>
      </trkpt>
      <trkpt lat="48.09883" lon="3.30598">
        <ele>127.9</ele>
        <time>2024-03-30T15:45:13.000Z</time>
      </trkpt>
      <trkpt lat="48.09885" lon="3.30598">
        <ele>128.1</ele>
        <time>2024-03-30T15:45:14.000Z</time>
      </trkpt>
      <trkpt lat="48.09886" lon="3.30599">
        <ele>128.3</ele>
        <time>2024-03-30T15:45:15.000Z</time>
      </trkpt>
      <trkpt lat="48.09887" lon="3.30599">
        <ele>128.4</ele>
        <time>2024-03-30T15:45:16.000Z</time>
      </trkpt>
      <trkpt lat="48.09888" lon="3.30599">
        <ele>128.5</ele>
        <time>2024-03-30T15:45:17.000Z</time>
      </trkpt>
      <trkpt lat="48.09889" lon="3.30599">
        <ele>128.6</ele>
        <time>2024-03-30T15:45:18.000Z</time>
      </trkpt>
      <trkpt lat="48.0989" lon="3.306">
        <ele>128.7</ele>
        <time>2024-03-30T15:45:19.000Z</time>
      </trkpt>
      <trkpt lat="48.09891" lon="3.306">
        <ele>128.8</ele>
        <time>2024-03-30T15:45:20.000Z</time>
      </trkpt>
      <trkpt lat="48.09892" lon="3.306">
        <ele>128.9</ele>
        <time>2024-03-30T15:45:21.000Z</time>
      </trkpt>
      <trkpt lat="48.09893" lon="3.306">
        <ele>129</ele>
        <time>2024-03-30T15:45:22.000Z</time>
      </trkpt>
      <trkpt lat="48.09894" lon="3.306">
        <ele>129.2</ele>
        <time>2024-03-30T15:45:23.000Z</time>
      </trkpt>
      <trkpt lat="48.09896" lon="3.30601">
        <ele>129.4</ele>
        <time>2024-03-30T15:45:24.000Z</time>
      </trkpt>
      <trkpt lat="48.09897" lon="3.30601">
        <ele>129.5</ele>
        <time>2024-03-30T15:45:25.000Z</time>
      </trkpt>
      <trkpt lat="48.09898" lon="3.30601">
        <ele>129.6</ele>
        <time>2024-03-30T15:45:26.000Z</time>
      </trkpt>
      <trkpt lat="48.09899" lon="3.30602">
        <ele>129.8</ele>
        <time>2024-03-30T15:45:27.000Z</time>
      </trkpt>
      <trkpt lat="48.099" lon="3.30602">
        <ele>129.9</ele>
        <time>2024-03-30T15:45:28.000Z</time>
      </trkpt>
      <trkpt lat="48.09902" lon="3.30602">
        <ele>130.1</ele>
        <time>2024-03-30T15:45:29.000Z</time>
      </trkpt>
      <trkpt lat="48.09903" lon="3.30603">
        <ele>130.2</ele>
        <time>2024-03-30T15:45:30.000Z</time>
      </trkpt>
      <trkpt lat="48.09904" lon="3.30603">
        <ele>130.3</ele>
        <time>2024-03-30T15:45:31.000Z</time>
      </trkpt>
      <trkpt lat="48.09905" lon="3.30603">
        <ele>130.4</ele>
        <time>2024-03-30T15:45:32.000Z</time>
      </trkpt>
      <trkpt lat="48.09906" lon="3.30603">
        <ele>130.6</ele>
        <time>2024-03-30T15:45:33.000Z</time>
      </trkpt>
      <trkpt lat="48.09907" lon="3.30604">
        <ele>130.7</ele>
        <time>2024-03-30T15:45:34.000Z</time>
      </trkpt>
      <trkpt lat="48.09908" lon="3.30604">
        <ele>130.8</ele>
        <time>2024-03-30T15:45:35.000Z</time>
      </trkpt>
      <trkpt lat="48.09909" lon="3.30604">
        <ele>130.9</ele>
        <time>2024-03-30T15:45:36.000Z</time>
      </trkpt>
      <trkpt lat="48.0991" lon="3.30604">
        <ele>131</ele>
        <time>2024-03-30T15:45:37.000Z</time>
      </trkpt>
      <trkpt lat="48.09912" lon="3.30605">
        <ele>131.3</ele>
        <time>2024-03-30T15:45:38.000Z</time>
      </trkpt>
      <trkpt lat="48.09913" lon="3.30605">
        <ele>131.4</ele>
        <time>2024-03-30T15:45:39.000Z</time>
      </trkpt>
      <trkpt lat="48.09914" lon="3.30605">
        <ele>131.5</ele>
        <time>2024-03-30T15:45:40.000Z</time>
      </trkpt>
      <trkpt lat="48.09915" lon="3.30605">
        <ele>131.6</ele>
        <time>2024-03-30T15:45:41.000Z</time>
      </trkpt>
      <trkpt lat="48.09916" lon="3.30605">
        <ele>131.7</ele>
        <time>2024-03-30T15:45:42.000Z</time>
      </trkpt>
      <trkpt lat="48.09917" lon="3.30606">
        <ele>131.9</ele>
        <time>2024-03-30T15:45:43.000Z</time>
      </trkpt>
      <trkpt lat="48.09918" lon="3.30606">
        <ele>132</ele>
        <time>2024-03-30T15:45:44.000Z</time>
      </trkpt>
      <trkpt lat="48.0992" lon="3.30606">
        <ele>132.2</ele>
        <time>2024-03-30T15:45:45.000Z</time>
      </trkpt>
      <trkpt lat="48.09921" lon="3.30607">
        <ele>132.3</ele>
        <time>2024-03-30T15:45:46.000Z</time>
      </trkpt>
      <trkpt lat="48.09922" lon="3.30607">
        <ele>132.5</ele>
        <time>2024-03-30T15:45:47.000Z</time>
      </trkpt>
      <trkpt lat="48.09923" lon="3.30607">
        <ele>132.6</ele>
        <time>2024-03-30T15:45:48.000Z</time>
      </trkpt>
      <trkpt lat="48.09924" lon="3.30607">
        <ele>132.7</ele>
        <time>2024-03-30T15:45:49.000Z</time>
      </trkpt>
      <trkpt lat="48.09925" lon="3.30607">
        <ele>132.8</ele>
        <time>2024-03-30T15:45:50.000Z</time>
      </trkpt>
      <trkpt lat="48.09926" lon="3.30607">
        <ele>132.9</ele>
        <time>2024-03-30T15:45:51.000Z</time>
      </trkpt>
      <trkpt lat="48.09927" lon="3.30607">
        <ele>133</ele>
        <time>2024-03-30T15:45:52.000Z</time>
      </trkpt>
      <trkpt lat="48.09929" lon="3.30608">
        <ele>133.3</ele>
        <time>2024-03-30T15:45:53.000Z</time>
      </trkpt>
      <trkpt lat="48.0993" lon="3.30608">
        <ele>133.4</ele>
        <time>2024-03-30T15:45:54.000Z</time>
      </trkpt>
      <trkpt lat="48.09931" lon="3.30609">
        <ele>133.5</ele>
        <time>2024-03-30T15:45:55.000Z</time>
      </trkpt>
      <trkpt lat="48.09932" lon="3.30609">
        <ele>133.6</ele>
        <time>2024-03-30T15:45:56.000Z</time>
      </trkpt>
      <trkpt lat="48.09933" lon="3.30609">
        <ele>133.7</ele>
        <time>2024-03-30T15:45:57.000Z</time>
      </trkpt>
      <trkpt lat="48.09935" lon="3.3061">
        <ele>134</ele>
        <time>2024-03-30T15:45:58.000Z</time>
      </trkpt>
      <trkpt lat="48.09936" lon="3.3061">
        <ele>134.1</ele>
        <time>2024-03-30T15:45:59.000Z</time>
      </trkpt>
      <trkpt lat="48.09937" lon="3.3061">
        <ele>134.2</ele>
        <time>2024-03-30T15:46:00.000Z</time>
      </trkpt>
      <trkpt lat="48.09938" lon="3.3061">
        <ele>134.3</ele>
        <time>2024-03-30T15:46:01.000Z</time>
      </trkpt>
      <trkpt lat="48.0994" lon="3.30611">
        <ele>134.5</ele>
        <time>2024-03-30T15:46:02.000Z</time>
      </trkpt>
      <trkpt lat="48.09941" lon="3.30611">
        <ele>134.6</ele>
        <time>2024-03-30T15:46:03.000Z</time>
      </trkpt>
      <trkpt lat="48.09942" lon="3.30611">
        <ele>134.7</ele>
        <time>2024-03-30T15:46:04.000Z</time>
      </trkpt>
      <trkpt lat="48.09944" lon="3.30611">
        <ele>135</ele>
        <time>2024-03-30T15:46:05.000Z</time>
      </trkpt>
      <trkpt lat="48.09945" lon="3.30611">
        <ele>135.1</ele>
        <time>2024-03-30T15:46:06.000Z</time>
      </trkpt>
      <trkpt lat="48.09947" lon="3.30612">
        <ele>135.3</ele>
        <time>2024-03-30T15:46:07.000Z</time>
      </trkpt>
      <trkpt lat="48.09948" lon="3.30612">
        <ele>135.4</ele>
        <time>2024-03-30T15:46:08.000Z</time>
      </trkpt>
      <trkpt lat="48.09949" lon="3.30612">
        <ele>135.5</ele>
        <time>2024-03-30T15:46:09.000Z</time>
      </trkpt>
      <trkpt lat="48.0995" lon="3.30612">
        <ele>135.6</ele>
        <time>2024-03-30T15:46:10.000Z</time>
      </trkpt>
      <trkpt lat="48.09952" lon="3.30612">
        <ele>135.8</ele>
        <time>2024-03-30T15:46:11.000Z</time>
      </trkpt>
      <trkpt lat="48.09954" lon="3.30612">
        <ele>136.1</ele>
        <time>2024-03-30T15:46:12.000Z</time>
      </trkpt>
      <trkpt lat="48.09955" lon="3.30612">
        <ele>136.2</ele>
        <time>2024-03-30T15:46:13.000Z</time>
      </trkpt>
      <trkpt lat="48.09956" lon="3.30612">
        <ele>136.3</ele>
        <time>2024-03-30T15:46:14.000Z</time>
      </trkpt>
      <trkpt lat="48.09958" lon="3.30612">
        <ele>136.5</ele>
        <time>2024-03-30T15:46:15.000Z</time>
      </trkpt>
      <trkpt lat="48.0996" lon="3.30612">
        <ele>136.7</ele>
        <time>2024-03-30T15:46:16.000Z</time>
      </trkpt>
      <trkpt lat="48.09961" lon="3.30612">
        <ele>136.8</ele>
        <time>2024-03-30T15:46:17.000Z</time>
      </trkpt>
      <trkpt lat="48.09962" lon="3.30612">
        <ele>136.9</ele>
        <time>2024-03-30T15:46:18.000Z</time>
      </trkpt>
      <trkpt lat="48.09963" lon="3.30611">
        <ele>137</ele>
        <time>2024-03-30T15:46:19.000Z</time>
      </trkpt>
      <trkpt lat="48.09965" lon="3.30611">
        <ele>137.2</ele>
        <time>2024-03-30T15:46:20.000Z</time>
      </trkpt>
      <trkpt lat="48.09966" lon="3.30611">
        <ele>137.3</ele>
        <time>2024-03-30T15:46:21.000Z</time>
      </trkpt>
      <trkpt lat="48.09968" lon="3.3061">
        <ele>137.5</ele>
        <time>2024-03-30T15:46:22.000Z</time>
      </trkpt>
      <trkpt lat="48.09969" lon="3.30611">
        <ele>137.7</ele>
        <time>2024-03-30T15:46:23.000Z</time>
      </trkpt>
      <trkpt lat="48.09971" lon="3.3061">
        <ele>137.9</ele>
        <time>2024-03-30T15:46:24.000Z</time>
      </trkpt>
      <trkpt lat="48.09972" lon="3.3061">
        <ele>138</ele>
        <time>2024-03-30T15:46:25.000Z</time>
      </trkpt>
      <trkpt lat="48.09973" lon="3.3061">
        <ele>138.1</ele>
        <time>2024-03-30T15:46:26.000Z</time>
      </trkpt>
      <trkpt lat="48.09974" lon="3.3061">
        <ele>138.2</ele>
        <time>2024-03-30T15:46:27.000Z</time>
      </trkpt>
      <trkpt lat="48.09975" lon="3.30609">
        <ele>138.3</ele>
        <time>2024-03-30T15:46:28.000Z</time>
      </trkpt>
      <trkpt lat="48.09977" lon="3.30609">
        <ele>138.5</ele>
        <time>2024-03-30T15:46:29.000Z</time>
      </trkpt>
      <trkpt lat="48.09978" lon="3.30609">
        <ele>138.6</ele>
        <time>2024-03-30T15:46:30.000Z</time>
      </trkpt>
      <trkpt lat="48.0998" lon="3.30609">
        <ele>138.8</ele>
        <time>2024-03-30T15:46:31.000Z</time>
      </trkpt>
      <trkpt lat="48.09981" lon="3.30609">
        <ele>138.9</ele>
        <time>2024-03-30T15:46:32.000Z</time>
      </trkpt>
      <trkpt lat="48.09983" lon="3.30609">
        <ele>139.2</ele>
        <time>2024-03-30T15:46:33.000Z</time>
      </trkpt>
      <trkpt lat="48.09984" lon="3.30608">
        <ele>139.3</ele>
        <time>2024-03-30T15:46:34.000Z</time>
      </trkpt>
      <trkpt lat="48.09985" lon="3.30608">
        <ele>139.4</ele>
        <time>2024-03-30T15:46:35.000Z</time>
      </trkpt>
      <trkpt lat="48.09986" lon="3.30608">
        <ele>139.5</ele>
        <time>2024-03-30T15:46:36.000Z</time>
      </trkpt>
      <trkpt lat="48.09988" lon="3.30608">
        <ele>139.7</ele>
        <time>2024-03-30T15:46:37.000Z</time>
      </trkpt>
      <trkpt lat="48.09989" lon="3.30608">
        <ele>139.8</ele>
        <time>2024-03-30T15:46:38.000Z</time>
      </trkpt>
      <trkpt lat="48.09991" lon="3.30608">
        <ele>140</ele>
        <time>2024-03-30T15:46:39.000Z</time>
      </trkpt>
      <trkpt lat="48.09992" lon="3.30607">
        <ele>140.1</ele>
        <time>2024-03-30T15:46:40.000Z</time>
      </trkpt>
      <trkpt lat="48.09994" lon="3.30607">
        <ele>140.4</ele>
        <time>2024-03-30T15:46:41.000Z</time>
      </trkpt>
      <trkpt lat="48.09995" lon="3.30607">
        <ele>140.5</ele>
        <time>2024-03-30T15:46:42.000Z</time>
      </trkpt>
      <trkpt lat="48.09997" lon="3.30607">
        <ele>140.7</ele>
        <time>2024-03-30T15:46:43.000Z</time>
      </trkpt>
      <trkpt lat="48.09998" lon="3.30607">
        <ele>140.8</ele>
        <time>2024-03-30T15:46:44.000Z</time>
      </trkpt>
      <trkpt lat="48.09999" lon="3.30607">
        <ele>140.9</ele>
        <time>2024-03-30T15:46:45.000Z</time>
      </trkpt>
      <trkpt lat="48.10001" lon="3.30607">
        <ele>141.1</ele>
        <time>2024-03-30T15:46:46.000Z</time>
      </trkpt>
      <trkpt lat="48.10002" lon="3.30606">
        <ele>141.2</ele>
        <time>2024-03-30T15:46:47.000Z</time>
      </trkpt>
      <trkpt lat="48.10004" lon="3.30606">
        <ele>141.4</ele>
        <time>2024-03-30T15:46:48.000Z</time>
      </trkpt>
      <trkpt lat="48.10005" lon="3.30606">
        <ele>141.5</ele>
        <time>2024-03-30T15:46:49.000Z</time>
      </trkpt>
      <trkpt lat="48.10006" lon="3.30606">
        <ele>141.6</ele>
        <time>2024-03-30T15:46:50.000Z</time>
      </trkpt>
      <trkpt lat="48.10007" lon="3.30606">
        <ele>141.8</ele>
        <time>2024-03-30T15:46:51.000Z</time>
      </trkpt>
      <trkpt lat="48.10009" lon="3.30606">
        <ele>142</ele>
        <time>2024-03-30T15:46:52.000Z</time>
      </trkpt>
      <trkpt lat="48.1001" lon="3.30606">
        <ele>142.1</ele>
        <time>2024-03-30T15:46:53.000Z</time>
      </trkpt>
      <trkpt lat="48.10011" lon="3.30607">
        <ele>142.2</ele>
        <time>2024-03-30T15:46:54.000Z</time>
      </trkpt>
      <trkpt lat="48.10013" lon="3.30607">
        <ele>142.4</ele>
        <time>2024-03-30T15:46:55.000Z</time>
      </trkpt>
      <trkpt lat="48.10013" lon="3.30606">
        <ele>142.4</ele>
        <time>2024-03-30T15:46:56.000Z</time>
      </trkpt>
      <trkpt lat="48.10015" lon="3.30607">
        <ele>142.6</ele>
        <time>2024-03-30T15:46:57.000Z</time>
      </trkpt>
      <trkpt lat="48.10017" lon="3.30607">
        <ele>142.8</ele>
        <time>2024-03-30T15:46:58.000Z</time>
      </trkpt>
      <trkpt lat="48.10018" lon="3.30608">
        <ele>142.9</ele>
        <time>2024-03-30T15:46:59.000Z</time>
      </trkpt>
      <trkpt lat="48.1002" lon="3.30608">
        <ele>143.2</ele>
        <time>2024-03-30T15:47:00.000Z</time>
      </trkpt>
      <trkpt lat="48.10021" lon="3.30609">
        <ele>143.3</ele>
        <time>2024-03-30T15:47:01.000Z</time>
      </trkpt>
      <trkpt lat="48.10023" lon="3.3061">
        <ele>143.5</ele>
        <time>2024-03-30T15:47:02.000Z</time>
      </trkpt>
      <trkpt lat="48.10023" lon="3.30611">
        <ele>143.5</ele>
        <time>2024-03-30T15:47:03.000Z</time>
      </trkpt>
      <trkpt lat="48.10025" lon="3.30613">
        <ele>143.7</ele>
        <time>2024-03-30T15:47:04.000Z</time>
      </trkpt>
      <trkpt lat="48.10027" lon="3.30614">
        <ele>143.9</ele>
        <time>2024-03-30T15:47:05.000Z</time>
      </trkpt>
      <trkpt lat="48.10028" lon="3.30614">
        <ele>144</ele>
        <time>2024-03-30T15:47:06.000Z</time>
      </trkpt>
      <trkpt lat="48.1003" lon="3.30615">
        <ele>144.2</ele>
        <time>2024-03-30T15:47:07.000Z</time>
      </trkpt>
      <trkpt lat="48.10031" lon="3.30617">
        <ele>144.3</ele>
        <time>2024-03-30T15:47:08.000Z</time>
      </trkpt>
      <trkpt lat="48.10033" lon="3.30617">
        <ele>144.5</ele>
        <time>2024-03-30T15:47:09.000Z</time>
      </trkpt>
      <trkpt lat="48.10034" lon="3.30618">
        <ele>144.6</ele>
        <time>2024-03-30T15:47:10.000Z</time>
      </trkpt>
      <trkpt lat="48.10036" lon="3.30619">
        <ele>144.8</ele>
        <time>2024-03-30T15:47:11.000Z</time>
      </trkpt>
      <trkpt lat="48.10037" lon="3.3062">
        <ele>144.9</ele>
        <time>2024-03-30T15:47:12.000Z</time>
      </trkpt>
      <trkpt lat="48.10039" lon="3.30621">
        <ele>145.1</ele>
        <time>2024-03-30T15:47:13.000Z</time>
      </trkpt>
      <trkpt lat="48.1004" lon="3.30622">
        <ele>145.1</ele>
        <time>2024-03-30T15:47:14.000Z</time>
      </trkpt>
      <trkpt lat="48.10042" lon="3.30624">
        <ele>145.3</ele>
        <time>2024-03-30T15:47:15.000Z</time>
      </trkpt>
      <trkpt lat="48.10044" lon="3.30625">
        <ele>145.5</ele>
        <time>2024-03-30T15:47:16.000Z</time>
      </trkpt>
      <trkpt lat="48.10046" lon="3.30626">
        <ele>145.6</ele>
        <time>2024-03-30T15:47:17.000Z</time>
      </trkpt>
      <trkpt lat="48.10047" lon="3.30627">
        <ele>145.7</ele>
        <time>2024-03-30T15:47:18.000Z</time>
      </trkpt>
      <trkpt lat="48.10049" lon="3.30628">
        <ele>145.8</ele>
        <time>2024-03-30T15:47:19.000Z</time>
      </trkpt>
      <trkpt lat="48.10051" lon="3.30629">
        <ele>146</ele>
        <time>2024-03-30T15:47:20.000Z</time>
      </trkpt>
      <trkpt lat="48.10052" lon="3.3063">
        <ele>146</ele>
        <time>2024-03-30T15:47:21.000Z</time>
      </trkpt>
      <trkpt lat="48.10054" lon="3.30631">
        <ele>146.2</ele>
        <time>2024-03-30T15:47:22.000Z</time>
      </trkpt>
      <trkpt lat="48.10056" lon="3.30633">
        <ele>146.3</ele>
        <time>2024-03-30T15:47:23.000Z</time>
      </trkpt>
      <trkpt lat="48.10057" lon="3.30633">
        <ele>146.4</ele>
        <time>2024-03-30T15:47:24.000Z</time>
      </trkpt>
      <trkpt lat="48.10059" lon="3.30635">
        <ele>146.5</ele>
        <time>2024-03-30T15:47:25.000Z</time>
      </trkpt>
      <trkpt lat="48.1006" lon="3.30636">
        <ele>146.6</ele>
        <time>2024-03-30T15:47:26.000Z</time>
      </trkpt>
      <trkpt lat="48.10062" lon="3.30637">
        <ele>146.7</ele>
        <time>2024-03-30T15:47:27.000Z</time>
      </trkpt>
      <trkpt lat="48.10063" lon="3.30638">
        <ele>146.8</ele>
        <time>2024-03-30T15:47:28.000Z</time>
      </trkpt>
      <trkpt lat="48.10065" lon="3.30639">
        <ele>147</ele>
        <time>2024-03-30T15:47:29.000Z</time>
      </trkpt>
      <trkpt lat="48.10066" lon="3.3064">
        <ele>147.1</ele>
        <time>2024-03-30T15:47:30.000Z</time>
      </trkpt>
      <trkpt lat="48.10068" lon="3.30641">
        <ele>147.3</ele>
        <time>2024-03-30T15:47:31.000Z</time>
      </trkpt>
      <trkpt lat="48.10069" lon="3.30642">
        <ele>147.4</ele>
        <time>2024-03-30T15:47:32.000Z</time>
      </trkpt>
      <trkpt lat="48.10071" lon="3.30643">
        <ele>147.6</ele>
        <time>2024-03-30T15:47:33.000Z</time>
      </trkpt>
      <trkpt lat="48.10072" lon="3.30644">
        <ele>147.7</ele>
        <time>2024-03-30T15:47:34.000Z</time>
      </trkpt>
      <trkpt lat="48.10073" lon="3.30645">
        <ele>147.7</ele>
        <time>2024-03-30T15:47:35.000Z</time>
      </trkpt>
      <trkpt lat="48.10075" lon="3.30646">
        <ele>147.9</ele>
        <time>2024-03-30T15:47:36.000Z</time>
      </trkpt>
      <trkpt lat="48.10076" lon="3.30647">
        <ele>148</ele>
        <time>2024-03-30T15:47:37.000Z</time>
      </trkpt>
      <trkpt lat="48.10078" lon="3.30648">
        <ele>148.2</ele>
        <time>2024-03-30T15:47:38.000Z</time>
      </trkpt>
      <trkpt lat="48.10079" lon="3.30648">
        <ele>148.3</ele>
        <time>2024-03-30T15:47:39.000Z</time>
      </trkpt>
      <trkpt lat="48.1008" lon="3.30649">
        <ele>148.3</ele>
        <time>2024-03-30T15:47:40.000Z</time>
      </trkpt>
      <trkpt lat="48.10082" lon="3.3065">
        <ele>148.5</ele>
        <time>2024-03-30T15:47:41.000Z</time>
      </trkpt>
      <trkpt lat="48.10083" lon="3.30652">
        <ele>148.5</ele>
        <time>2024-03-30T15:47:42.000Z</time>
      </trkpt>
      <trkpt lat="48.10084" lon="3.30653">
        <ele>148.6</ele>
        <time>2024-03-30T15:47:43.000Z</time>
      </trkpt>
      <trkpt lat="48.10086" lon="3.30654">
        <ele>148.8</ele>
        <time>2024-03-30T15:47:44.000Z</time>
      </trkpt>
      <trkpt lat="48.10087" lon="3.30655">
        <ele>148.9</ele>
        <time>2024-03-30T15:47:45.000Z</time>
      </trkpt>
      <trkpt lat="48.10089" lon="3.30656">
        <ele>149.1</ele>
        <time>2024-03-30T15:47:46.000Z</time>
      </trkpt>
      <trkpt lat="48.1009" lon="3.30656">
        <ele>149.3</ele>
        <time>2024-03-30T15:47:47.000Z</time>
      </trkpt>
      <trkpt lat="48.10091" lon="3.30657">
        <ele>149.4</ele>
        <time>2024-03-30T15:47:48.000Z</time>
      </trkpt>
      <trkpt lat="48.10093" lon="3.30658">
        <ele>149.6</ele>
        <time>2024-03-30T15:47:49.000Z</time>
      </trkpt>
      <trkpt lat="48.10094" lon="3.30659">
        <ele>149.7</ele>
        <time>2024-03-30T15:47:50.000Z</time>
      </trkpt>
      <trkpt lat="48.10095" lon="3.30659">
        <ele>149.8</ele>
        <time>2024-03-30T15:47:51.000Z</time>
      </trkpt>
      <trkpt lat="48.10096" lon="3.3066">
        <ele>150</ele>
        <time>2024-03-30T15:47:52.000Z</time>
      </trkpt>
      <trkpt lat="48.10097" lon="3.3066">
        <ele>150.1</ele>
        <time>2024-03-30T15:47:53.000Z</time>
      </trkpt>
      <trkpt lat="48.10099" lon="3.30661">
        <ele>150.3</ele>
        <time>2024-03-30T15:47:54.000Z</time>
      </trkpt>
      <trkpt lat="48.101" lon="3.30662">
        <ele>150.5</ele>
        <time>2024-03-30T15:47:55.000Z</time>
      </trkpt>
      <trkpt lat="48.10101" lon="3.30663">
        <ele>150.6</ele>
        <time>2024-03-30T15:47:56.000Z</time>
      </trkpt>
      <trkpt lat="48.10102" lon="3.30664">
        <ele>150.7</ele>
        <time>2024-03-30T15:47:57.000Z</time>
      </trkpt>
      <trkpt lat="48.10103" lon="3.30665">
        <ele>150.8</ele>
        <time>2024-03-30T15:47:58.000Z</time>
      </trkpt>
      <trkpt lat="48.10105" lon="3.30666">
        <ele>151.1</ele>
        <time>2024-03-30T15:47:59.000Z</time>
      </trkpt>
      <trkpt lat="48.10106" lon="3.30667">
        <ele>151.2</ele>
        <time>2024-03-30T15:48:00.000Z</time>
      </trkpt>
      <trkpt lat="48.10107" lon="3.30668">
        <ele>151.3</ele>
        <time>2024-03-30T15:48:01.000Z</time>
      </trkpt>
      <trkpt lat="48.10108" lon="3.30668">
        <ele>151.5</ele>
        <time>2024-03-30T15:48:02.000Z</time>
      </trkpt>
      <trkpt lat="48.10109" lon="3.30669">
        <ele>151.5</ele>
        <time>2024-03-30T15:48:03.000Z</time>
      </trkpt>
      <trkpt lat="48.10111" lon="3.3067">
        <ele>151.7</ele>
        <time>2024-03-30T15:48:04.000Z</time>
      </trkpt>
      <trkpt lat="48.10112" lon="3.30671">
        <ele>151.8</ele>
        <time>2024-03-30T15:48:05.000Z</time>
      </trkpt>
      <trkpt lat="48.10113" lon="3.30672">
        <ele>151.8</ele>
        <time>2024-03-30T15:48:06.000Z</time>
      </trkpt>
      <trkpt lat="48.10114" lon="3.30673">
        <ele>151.8</ele>
        <time>2024-03-30T15:48:07.000Z</time>
      </trkpt>
      <trkpt lat="48.10115" lon="3.30674">
        <ele>151.8</ele>
        <time>2024-03-30T15:48:08.000Z</time>
      </trkpt>
      <trkpt lat="48.10116" lon="3.30675">
        <ele>151.9</ele>
        <time>2024-03-30T15:48:09.000Z</time>
      </trkpt>
      <trkpt lat="48.10118" lon="3.30676">
        <ele>152</ele>
        <time>2024-03-30T15:48:10.000Z</time>
      </trkpt>
      <trkpt lat="48.10119" lon="3.30676">
        <ele>152.1</ele>
        <time>2024-03-30T15:48:11.000Z</time>
      </trkpt>
      <trkpt lat="48.1012" lon="3.30677">
        <ele>152.1</ele>
        <time>2024-03-30T15:48:12.000Z</time>
      </trkpt>
      <trkpt lat="48.10122" lon="3.30678">
        <ele>152.3</ele>
        <time>2024-03-30T15:48:13.000Z</time>
      </trkpt>
      <trkpt lat="48.10123" lon="3.30679">
        <ele>152.3</ele>
        <time>2024-03-30T15:48:14.000Z</time>
      </trkpt>
      <trkpt lat="48.10124" lon="3.30679">
        <ele>152.5</ele>
        <time>2024-03-30T15:48:15.000Z</time>
      </trkpt>
      <trkpt lat="48.10125" lon="3.3068">
        <ele>152.5</ele>
        <time>2024-03-30T15:48:16.000Z</time>
      </trkpt>
      <trkpt lat="48.10127" lon="3.30681">
        <ele>152.7</ele>
        <time>2024-03-30T15:48:17.000Z</time>
      </trkpt>
      <trkpt lat="48.10128" lon="3.30681">
        <ele>152.8</ele>
        <time>2024-03-30T15:48:18.000Z</time>
      </trkpt>
      <trkpt lat="48.10129" lon="3.30682">
        <ele>152.9</ele>
        <time>2024-03-30T15:48:19.000Z</time>
      </trkpt>
      <trkpt lat="48.1013" lon="3.30683">
        <ele>153</ele>
        <time>2024-03-30T15:48:20.000Z</time>
      </trkpt>
      <trkpt lat="48.10131" lon="3.30684">
        <ele>153.1</ele>
        <time>2024-03-30T15:48:21.000Z</time>
      </trkpt>
      <trkpt lat="48.10132" lon="3.30685">
        <ele>153.2</ele>
        <time>2024-03-30T15:48:22.000Z</time>
      </trkpt>
      <trkpt lat="48.10134" lon="3.30686">
        <ele>153.4</ele>
        <time>2024-03-30T15:48:23.000Z</time>
      </trkpt>
      <trkpt lat="48.10135" lon="3.30688">
        <ele>153.5</ele>
        <time>2024-03-30T15:48:24.000Z</time>
      </trkpt>
      <trkpt lat="48.10136" lon="3.30689">
        <ele>153.6</ele>
        <time>2024-03-30T15:48:25.000Z</time>
      </trkpt>
      <trkpt lat="48.10137" lon="3.3069">
        <ele>153.7</ele>
        <time>2024-03-30T15:48:26.000Z</time>
      </trkpt>
      <trkpt lat="48.10139" lon="3.30691">
        <ele>154</ele>
        <time>2024-03-30T15:48:27.000Z</time>
      </trkpt>
      <trkpt lat="48.1014" lon="3.30693">
        <ele>154.1</ele>
        <time>2024-03-30T15:48:28.000Z</time>
      </trkpt>
      <trkpt lat="48.10141" lon="3.30694">
        <ele>154.2</ele>
        <time>2024-03-30T15:48:29.000Z</time>
      </trkpt>
      <trkpt lat="48.10143" lon="3.30695">
        <ele>154.4</ele>
        <time>2024-03-30T15:48:30.000Z</time>
      </trkpt>
      <trkpt lat="48.10144" lon="3.30696">
        <ele>154.5</ele>
        <time>2024-03-30T15:48:31.000Z</time>
      </trkpt>
      <trkpt lat="48.10145" lon="3.30697">
        <ele>154.6</ele>
        <time>2024-03-30T15:48:32.000Z</time>
      </trkpt>
      <trkpt lat="48.10147" lon="3.30697">
        <ele>154.8</ele>
        <time>2024-03-30T15:48:33.000Z</time>
      </trkpt>
      <trkpt lat="48.10148" lon="3.30698">
        <ele>154.9</ele>
        <time>2024-03-30T15:48:34.000Z</time>
      </trkpt>
      <trkpt lat="48.10149" lon="3.30698">
        <ele>155</ele>
        <time>2024-03-30T15:48:35.000Z</time>
      </trkpt>
      <trkpt lat="48.10151" lon="3.30699">
        <ele>155.1</ele>
        <time>2024-03-30T15:48:36.000Z</time>
      </trkpt>
      <trkpt lat="48.10152" lon="3.307">
        <ele>155.2</ele>
        <time>2024-03-30T15:48:37.000Z</time>
      </trkpt>
      <trkpt lat="48.10153" lon="3.30701">
        <ele>155.3</ele>
        <time>2024-03-30T15:48:38.000Z</time>
      </trkpt>
      <trkpt lat="48.10155" lon="3.30702">
        <ele>155.5</ele>
        <time>2024-03-30T15:48:39.000Z</time>
      </trkpt>
      <trkpt lat="48.10156" lon="3.30703">
        <ele>155.5</ele>
        <time>2024-03-30T15:48:40.000Z</time>
      </trkpt>
      <trkpt lat="48.10157" lon="3.30703">
        <ele>155.6</ele>
        <time>2024-03-30T15:48:41.000Z</time>
      </trkpt>
      <trkpt lat="48.10159" lon="3.30704">
        <ele>155.8</ele>
        <time>2024-03-30T15:48:42.000Z</time>
      </trkpt>
      <trkpt lat="48.1016" lon="3.30705">
        <ele>155.9</ele>
        <time>2024-03-30T15:48:43.000Z</time>
      </trkpt>
      <trkpt lat="48.10162" lon="3.30706">
        <ele>156.1</ele>
        <time>2024-03-30T15:48:44.000Z</time>
      </trkpt>
      <trkpt lat="48.10163" lon="3.30707">
        <ele>156.2</ele>
        <time>2024-03-30T15:48:45.000Z</time>
      </trkpt>
      <trkpt lat="48.10165" lon="3.30707">
        <ele>156.4</ele>
        <time>2024-03-30T15:48:46.000Z</time>
      </trkpt>
      <trkpt lat="48.10167" lon="3.30708">
        <ele>156.5</ele>
        <time>2024-03-30T15:48:47.000Z</time>
      </trkpt>
      <trkpt lat="48.10168" lon="3.30709">
        <ele>156.6</ele>
        <time>2024-03-30T15:48:48.000Z</time>
      </trkpt>
      <trkpt lat="48.1017" lon="3.3071">
        <ele>156.7</ele>
        <time>2024-03-30T15:48:49.000Z</time>
      </trkpt>
      <trkpt lat="48.10172" lon="3.30711">
        <ele>156.9</ele>
        <time>2024-03-30T15:48:50.000Z</time>
      </trkpt>
      <trkpt lat="48.10174" lon="3.30711">
        <ele>157.1</ele>
        <time>2024-03-30T15:48:51.000Z</time>
      </trkpt>
      <trkpt lat="48.10176" lon="3.30712">
        <ele>157.3</ele>
        <time>2024-03-30T15:48:52.000Z</time>
      </trkpt>
      <trkpt lat="48.10177" lon="3.30712">
        <ele>157.3</ele>
        <time>2024-03-30T15:48:53.000Z</time>
      </trkpt>
      <trkpt lat="48.10179" lon="3.30712">
        <ele>157.5</ele>
        <time>2024-03-30T15:48:54.000Z</time>
      </trkpt>
      <trkpt lat="48.10181" lon="3.30712">
        <ele>157.7</ele>
        <time>2024-03-30T15:48:55.000Z</time>
      </trkpt>
      <trkpt lat="48.10183" lon="3.30713">
        <ele>157.9</ele>
        <time>2024-03-30T15:48:56.000Z</time>
      </trkpt>
      <trkpt lat="48.10184" lon="3.30713">
        <ele>158</ele>
        <time>2024-03-30T15:48:57.000Z</time>
      </trkpt>
      <trkpt lat="48.10185" lon="3.30714">
        <ele>158.1</ele>
        <time>2024-03-30T15:48:58.000Z</time>
      </trkpt>
      <trkpt lat="48.10187" lon="3.30714">
        <ele>158.3</ele>
        <time>2024-03-30T15:48:59.000Z</time>
      </trkpt>
      <trkpt lat="48.10188" lon="3.30715">
        <ele>158.4</ele>
        <time>2024-03-30T15:49:00.000Z</time>
      </trkpt>
      <trkpt lat="48.1019" lon="3.30715">
        <ele>158.6</ele>
        <time>2024-03-30T15:49:01.000Z</time>
      </trkpt>
      <trkpt lat="48.10192" lon="3.30716">
        <ele>158.8</ele>
        <time>2024-03-30T15:49:02.000Z</time>
      </trkpt>
      <trkpt lat="48.10193" lon="3.30716">
        <ele>158.9</ele>
        <time>2024-03-30T15:49:03.000Z</time>
      </trkpt>
      <trkpt lat="48.10195" lon="3.30717">
        <ele>159</ele>
        <time>2024-03-30T15:49:04.000Z</time>
      </trkpt>
      <trkpt lat="48.10196" lon="3.30718">
        <ele>159.1</ele>
        <time>2024-03-30T15:49:05.000Z</time>
      </trkpt>
      <trkpt lat="48.10198" lon="3.30719">
        <ele>159.2</ele>
        <time>2024-03-30T15:49:06.000Z</time>
      </trkpt>
      <trkpt lat="48.10199" lon="3.30719">
        <ele>159.3</ele>
        <time>2024-03-30T15:49:07.000Z</time>
      </trkpt>
      <trkpt lat="48.102" lon="3.30719">
        <ele>159.4</ele>
        <time>2024-03-30T15:49:08.000Z</time>
      </trkpt>
      <trkpt lat="48.10202" lon="3.3072">
        <ele>159.5</ele>
        <time>2024-03-30T15:49:09.000Z</time>
      </trkpt>
      <trkpt lat="48.10204" lon="3.3072">
        <ele>159.7</ele>
        <time>2024-03-30T15:49:10.000Z</time>
      </trkpt>
      <trkpt lat="48.10205" lon="3.30721">
        <ele>159.7</ele>
        <time>2024-03-30T15:49:11.000Z</time>
      </trkpt>
      <trkpt lat="48.10207" lon="3.30721">
        <ele>159.9</ele>
        <time>2024-03-30T15:49:12.000Z</time>
      </trkpt>
      <trkpt lat="48.10209" lon="3.30722">
        <ele>160</ele>
        <time>2024-03-30T15:49:13.000Z</time>
      </trkpt>
      <trkpt lat="48.10211" lon="3.30722">
        <ele>160.2</ele>
        <time>2024-03-30T15:49:14.000Z</time>
      </trkpt>
      <trkpt lat="48.10212" lon="3.30722">
        <ele>160.3</ele>
        <time>2024-03-30T15:49:15.000Z</time>
      </trkpt>
      <trkpt lat="48.10214" lon="3.30722">
        <ele>160.4</ele>
        <time>2024-03-30T15:49:16.000Z</time>
      </trkpt>
      <trkpt lat="48.10215" lon="3.30723">
        <ele>160.5</ele>
        <time>2024-03-30T15:49:17.000Z</time>
      </trkpt>
      <trkpt lat="48.10217" lon="3.30724">
        <ele>160.6</ele>
        <time>2024-03-30T15:49:18.000Z</time>
      </trkpt>
      <trkpt lat="48.10219" lon="3.30724">
        <ele>160.7</ele>
        <time>2024-03-30T15:49:19.000Z</time>
      </trkpt>
      <trkpt lat="48.1022" lon="3.30725">
        <ele>160.7</ele>
        <time>2024-03-30T15:49:20.000Z</time>
      </trkpt>
      <trkpt lat="48.10219" lon="3.30725">
        <ele>160.7</ele>
        <time>2024-03-30T15:49:21.000Z</time>
      </trkpt>
      <trkpt lat="48.10219" lon="3.30724">
        <ele>160.7</ele>
        <time>2024-03-30T15:49:25.000Z</time>
      </trkpt>
      <trkpt lat="48.10219" lon="3.30724">
        <ele>160.7</ele>
        <time>2024-03-30T15:49:29.000Z</time>
      </trkpt>
      <trkpt lat="48.1022" lon="3.30722">
        <ele>160.8</ele>
        <time>2024-03-30T15:50:02.000Z</time>
      </trkpt>
      <trkpt lat="48.10221" lon="3.3072">
        <ele>160.8</ele>
        <time>2024-03-30T15:50:03.000Z</time>
      </trkpt>
      <trkpt lat="48.10223" lon="3.3071">
        <ele>160.6</ele>
        <time>2024-03-30T15:50:07.000Z</time>
      </trkpt>
      <trkpt lat="48.10223" lon="3.30708">
        <ele>160.5</ele>
        <time>2024-03-30T15:50:08.000Z</time>
      </trkpt>
      <trkpt lat="48.10222" lon="3.30706">
        <ele>160.4</ele>
        <time>2024-03-30T15:50:09.000Z</time>
      </trkpt>
      <trkpt lat="48.10222" lon="3.30703">
        <ele>160.3</ele>
        <time>2024-03-30T15:50:10.000Z</time>
      </trkpt>
      <trkpt lat="48.10223" lon="3.30693">
        <ele>160.1</ele>
        <time>2024-03-30T15:50:13.000Z</time>
      </trkpt>
      <trkpt lat="48.10227" lon="3.30668">
        <ele>160.3</ele>
        <time>2024-03-30T15:50:19.000Z</time>
      </trkpt>
      <trkpt lat="48.10229" lon="3.30634">
        <ele>160.6</ele>
        <time>2024-03-30T15:50:26.000Z</time>
      </trkpt>
      <trkpt lat="48.10231" lon="3.30603">
        <ele>161.3</ele>
        <time>2024-03-30T15:50:33.000Z</time>
      </trkpt>
      <trkpt lat="48.10232" lon="3.30598">
        <ele>161.4</ele>
        <time>2024-03-30T15:50:34.000Z</time>
      </trkpt>
      <trkpt lat="48.10232" lon="3.30594">
        <ele>161.4</ele>
        <time>2024-03-30T15:50:35.000Z</time>
      </trkpt>
      <trkpt lat="48.10233" lon="3.30589">
        <ele>161.4</ele>
        <time>2024-03-30T15:50:36.000Z</time>
      </trkpt>
      <trkpt lat="48.10236" lon="3.30574">
        <ele>161.5</ele>
        <time>2024-03-30T15:50:40.000Z</time>
      </trkpt>
      <trkpt lat="48.10238" lon="3.30572">
        <ele>161.6</ele>
        <time>2024-03-30T15:50:41.000Z</time>
      </trkpt>
      <trkpt lat="48.1024" lon="3.3057">
        <ele>161.6</ele>
        <time>2024-03-30T15:50:42.000Z</time>
      </trkpt>
      <trkpt lat="48.10241" lon="3.30569">
        <ele>161.7</ele>
        <time>2024-03-30T15:50:43.000Z</time>
      </trkpt>
      <trkpt lat="48.10243" lon="3.30567">
        <ele>161.7</ele>
        <time>2024-03-30T15:50:44.000Z</time>
      </trkpt>
      <trkpt lat="48.10244" lon="3.30566">
        <ele>161.8</ele>
        <time>2024-03-30T15:50:45.000Z</time>
      </trkpt>
      <trkpt lat="48.10246" lon="3.30565">
        <ele>161.9</ele>
        <time>2024-03-30T15:50:46.000Z</time>
      </trkpt>
      <trkpt lat="48.10248" lon="3.30564">
        <ele>161.9</ele>
        <time>2024-03-30T15:50:47.000Z</time>
      </trkpt>
      <trkpt lat="48.10249" lon="3.30563">
        <ele>162</ele>
        <time>2024-03-30T15:50:48.000Z</time>
      </trkpt>
      <trkpt lat="48.1025" lon="3.30563">
        <ele>162</ele>
        <time>2024-03-30T15:50:49.000Z</time>
      </trkpt>
      <trkpt lat="48.10252" lon="3.30562">
        <ele>162.1</ele>
        <time>2024-03-30T15:50:50.000Z</time>
      </trkpt>
      <trkpt lat="48.10253" lon="3.30561">
        <ele>162.1</ele>
        <time>2024-03-30T15:50:51.000Z</time>
      </trkpt>
      <trkpt lat="48.10255" lon="3.30562">
        <ele>162.2</ele>
        <time>2024-03-30T15:50:52.000Z</time>
      </trkpt>
      <trkpt lat="48.10256" lon="3.30561">
        <ele>162.2</ele>
        <time>2024-03-30T15:50:53.000Z</time>
      </trkpt>
      <trkpt lat="48.10256" lon="3.30561">
        <ele>162.2</ele>
        <time>2024-03-30T15:50:54.000Z</time>
      </trkpt>
      <trkpt lat="48.10257" lon="3.30561">
        <ele>162.3</ele>
        <time>2024-03-30T15:50:55.000Z</time>
      </trkpt>
      <trkpt lat="48.10257" lon="3.30561">
        <ele>162.3</ele>
        <time>2024-03-30T15:50:58.000Z</time>
      </trkpt>
      <trkpt lat="48.10259" lon="3.3056">
        <ele>162.3</ele>
        <time>2024-03-30T15:51:07.000Z</time>
      </trkpt>
      <trkpt lat="48.1026" lon="3.3056">
        <ele>162.4</ele>
        <time>2024-03-30T15:51:08.000Z</time>
      </trkpt>
      <trkpt lat="48.10261" lon="3.30561">
        <ele>162.4</ele>
        <time>2024-03-30T15:51:09.000Z</time>
      </trkpt>
      <trkpt lat="48.10263" lon="3.30562">
        <ele>162.5</ele>
        <time>2024-03-30T15:51:10.000Z</time>
      </trkpt>
      <trkpt lat="48.10265" lon="3.30561">
        <ele>162.5</ele>
        <time>2024-03-30T15:51:11.000Z</time>
      </trkpt>
      <trkpt lat="48.10271" lon="3.30561">
        <ele>162.8</ele>
        <time>2024-03-30T15:51:14.000Z</time>
      </trkpt>
      <trkpt lat="48.10273" lon="3.3056">
        <ele>162.8</ele>
        <time>2024-03-30T15:51:15.000Z</time>
      </trkpt>
      <trkpt lat="48.10275" lon="3.3056">
        <ele>162.9</ele>
        <time>2024-03-30T15:51:16.000Z</time>
      </trkpt>
      <trkpt lat="48.10282" lon="3.30559">
        <ele>163.2</ele>
        <time>2024-03-30T15:51:20.000Z</time>
      </trkpt>
      <trkpt lat="48.10283" lon="3.30558">
        <ele>163.2</ele>
        <time>2024-03-30T15:51:21.000Z</time>
      </trkpt>
      <trkpt lat="48.10284" lon="3.30557">
        <ele>163.2</ele>
        <time>2024-03-30T15:51:22.000Z</time>
      </trkpt>
      <trkpt lat="48.10285" lon="3.30555">
        <ele>163.3</ele>
        <time>2024-03-30T15:51:23.000Z</time>
      </trkpt>
      <trkpt lat="48.10285" lon="3.30553">
        <ele>163.3</ele>
        <time>2024-03-30T15:51:24.000Z</time>
      </trkpt>
      <trkpt lat="48.10285" lon="3.3055">
        <ele>163.3</ele>
        <time>2024-03-30T15:51:25.000Z</time>
      </trkpt>
      <trkpt lat="48.10285" lon="3.30546">
        <ele>163.3</ele>
        <time>2024-03-30T15:51:26.000Z</time>
      </trkpt>
      <trkpt lat="48.10285" lon="3.30543">
        <ele>163.3</ele>
        <time>2024-03-30T15:51:27.000Z</time>
      </trkpt>
      <trkpt lat="48.10284" lon="3.30536">
        <ele>163.2</ele>
        <time>2024-03-30T15:51:29.000Z</time>
      </trkpt>
      <trkpt lat="48.10284" lon="3.30519">
        <ele>163.5</ele>
        <time>2024-03-30T15:51:33.000Z</time>
      </trkpt>
      <trkpt lat="48.10285" lon="3.30511">
        <ele>163.7</ele>
        <time>2024-03-30T15:51:35.000Z</time>
      </trkpt>
      <trkpt lat="48.10284" lon="3.30507">
        <ele>163.8</ele>
        <time>2024-03-30T15:51:36.000Z</time>
      </trkpt>
      <trkpt lat="48.10284" lon="3.30507">
        <ele>163.8</ele>
        <time>2024-03-30T15:51:37.000Z</time>
      </trkpt>
      <trkpt lat="48.10284" lon="3.30507">
        <ele>163.8</ele>
        <time>2024-03-30T15:51:39.000Z</time>
      </trkpt>
      <trkpt lat="48.10284" lon="3.30507">
        <ele>163.8</ele>
        <time>2024-03-30T15:51:43.000Z</time>
      </trkpt>
      <trkpt lat="48.10284" lon="3.30507">
        <ele>163.8</ele>
        <time>2024-03-30T15:51:47.000Z</time>
      </trkpt>
      <trkpt lat="48.10282" lon="3.305">
        <ele>164</ele>
        <time>2024-03-30T15:51:54.000Z</time>
      </trkpt>
      <trkpt lat="48.10281" lon="3.30495">
        <ele>164</ele>
        <time>2024-03-30T15:51:56.000Z</time>
      </trkpt>
      <trkpt lat="48.1028" lon="3.30492">
        <ele>164</ele>
        <time>2024-03-30T15:51:57.000Z</time>
      </trkpt>
      <trkpt lat="48.10276" lon="3.30485">
        <ele>163.9</ele>
        <time>2024-03-30T15:52:00.000Z</time>
      </trkpt>
      <trkpt lat="48.10274" lon="3.30482">
        <ele>163.7</ele>
        <time>2024-03-30T15:52:01.000Z</time>
      </trkpt>
      <trkpt lat="48.10272" lon="3.30478">
        <ele>163.6</ele>
        <time>2024-03-30T15:52:02.000Z</time>
      </trkpt>
      <trkpt lat="48.10272" lon="3.30475">
        <ele>163.6</ele>
        <time>2024-03-30T15:52:03.000Z</time>
      </trkpt>
      <trkpt lat="48.10273" lon="3.30471">
        <ele>163.7</ele>
        <time>2024-03-30T15:52:04.000Z</time>
      </trkpt>
      <trkpt lat="48.10273" lon="3.30468">
        <ele>163.7</ele>
        <time>2024-03-30T15:52:05.000Z</time>
      </trkpt>
      <trkpt lat="48.10273" lon="3.30464">
        <ele>163.7</ele>
        <time>2024-03-30T15:52:06.000Z</time>
      </trkpt>
      <trkpt lat="48.10272" lon="3.30453">
        <ele>163.6</ele>
        <time>2024-03-30T15:52:09.000Z</time>
      </trkpt>
      <trkpt lat="48.10271" lon="3.30449">
        <ele>163.5</ele>
        <time>2024-03-30T15:52:10.000Z</time>
      </trkpt>
      <trkpt lat="48.1027" lon="3.30445">
        <ele>163.4</ele>
        <time>2024-03-30T15:52:11.000Z</time>
      </trkpt>
      <trkpt lat="48.10269" lon="3.30441">
        <ele>163.3</ele>
        <time>2024-03-30T15:52:12.000Z</time>
      </trkpt>
      <trkpt lat="48.10269" lon="3.30436">
        <ele>163.2</ele>
        <time>2024-03-30T15:52:13.000Z</time>
      </trkpt>
      <trkpt lat="48.10269" lon="3.30433">
        <ele>163.1</ele>
        <time>2024-03-30T15:52:14.000Z</time>
      </trkpt>
      <trkpt lat="48.10267" lon="3.30431">
        <ele>162.9</ele>
        <time>2024-03-30T15:52:15.000Z</time>
      </trkpt>
      <trkpt lat="48.10266" lon="3.30428">
        <ele>162.8</ele>
        <time>2024-03-30T15:52:16.000Z</time>
      </trkpt>
      <trkpt lat="48.10264" lon="3.30424">
        <ele>162.6</ele>
        <time>2024-03-30T15:52:17.000Z</time>
      </trkpt>
      <trkpt lat="48.10264" lon="3.30421">
        <ele>162.6</ele>
        <time>2024-03-30T15:52:18.000Z</time>
      </trkpt>
      <trkpt lat="48.10265" lon="3.30417">
        <ele>162.5</ele>
        <time>2024-03-30T15:52:19.000Z</time>
      </trkpt>
      <trkpt lat="48.10264" lon="3.30411">
        <ele>162.4</ele>
        <time>2024-03-30T15:52:21.000Z</time>
      </trkpt>
      <trkpt lat="48.10265" lon="3.30406">
        <ele>162.4</ele>
        <time>2024-03-30T15:52:22.000Z</time>
      </trkpt>
      <trkpt lat="48.10266" lon="3.30403">
        <ele>162.4</ele>
        <time>2024-03-30T15:52:23.000Z</time>
      </trkpt>
      <trkpt lat="48.10268" lon="3.30397">
        <ele>162.4</ele>
        <time>2024-03-30T15:52:25.000Z</time>
      </trkpt>
      <trkpt lat="48.10269" lon="3.30394">
        <ele>162.4</ele>
        <time>2024-03-30T15:52:26.000Z</time>
      </trkpt>
      <trkpt lat="48.10271" lon="3.30386">
        <ele>162.5</ele>
        <time>2024-03-30T15:52:28.000Z</time>
      </trkpt>
      <trkpt lat="48.10272" lon="3.3037">
        <ele>162.6</ele>
        <time>2024-03-30T15:52:32.000Z</time>
      </trkpt>
      <trkpt lat="48.10272" lon="3.30368">
        <ele>162.6</ele>
        <time>2024-03-30T15:52:33.000Z</time>
      </trkpt>
      <trkpt lat="48.10271" lon="3.30364">
        <ele>162.5</ele>
        <time>2024-03-30T15:52:34.000Z</time>
      </trkpt>
      <trkpt lat="48.1027" lon="3.30361">
        <ele>162.4</ele>
        <time>2024-03-30T15:52:35.000Z</time>
      </trkpt>
      <trkpt lat="48.10267" lon="3.30355">
        <ele>162.2</ele>
        <time>2024-03-30T15:52:37.000Z</time>
      </trkpt>
      <trkpt lat="48.10267" lon="3.30346">
        <ele>162.2</ele>
        <time>2024-03-30T15:52:39.000Z</time>
      </trkpt>
      <trkpt lat="48.10267" lon="3.30343">
        <ele>162.2</ele>
        <time>2024-03-30T15:52:40.000Z</time>
      </trkpt>
      <trkpt lat="48.10268" lon="3.30339">
        <ele>162.3</ele>
        <time>2024-03-30T15:52:41.000Z</time>
      </trkpt>
      <trkpt lat="48.10267" lon="3.30334">
        <ele>162.2</ele>
        <time>2024-03-30T15:52:42.000Z</time>
      </trkpt>
      <trkpt lat="48.10267" lon="3.3033">
        <ele>162.2</ele>
        <time>2024-03-30T15:52:43.000Z</time>
      </trkpt>
      <trkpt lat="48.10268" lon="3.30323">
        <ele>162.3</ele>
        <time>2024-03-30T15:52:45.000Z</time>
      </trkpt>
      <trkpt lat="48.10269" lon="3.3032">
        <ele>162.4</ele>
        <time>2024-03-30T15:52:46.000Z</time>
      </trkpt>
      <trkpt lat="48.10269" lon="3.30317">
        <ele>162.4</ele>
        <time>2024-03-30T15:52:47.000Z</time>
      </trkpt>
      <trkpt lat="48.10268" lon="3.30314">
        <ele>162.3</ele>
        <time>2024-03-30T15:52:48.000Z</time>
      </trkpt>
      <trkpt lat="48.10267" lon="3.30311">
        <ele>162.2</ele>
        <time>2024-03-30T15:52:49.000Z</time>
      </trkpt>
      <trkpt lat="48.10267" lon="3.30308">
        <ele>162.2</ele>
        <time>2024-03-30T15:52:50.000Z</time>
      </trkpt>
      <trkpt lat="48.10267" lon="3.30304">
        <ele>162.2</ele>
        <time>2024-03-30T15:52:51.000Z</time>
      </trkpt>
      <trkpt lat="48.10267" lon="3.303">
        <ele>162.2</ele>
        <time>2024-03-30T15:52:52.000Z</time>
      </trkpt>
      <trkpt lat="48.10266" lon="3.30296">
        <ele>162.2</ele>
        <time>2024-03-30T15:52:53.000Z</time>
      </trkpt>
      <trkpt lat="48.10264" lon="3.30291">
        <ele>162</ele>
        <time>2024-03-30T15:52:54.000Z</time>
      </trkpt>
      <trkpt lat="48.10262" lon="3.30287">
        <ele>161.9</ele>
        <time>2024-03-30T15:52:55.000Z</time>
      </trkpt>
      <trkpt lat="48.10262" lon="3.30283">
        <ele>161.9</ele>
        <time>2024-03-30T15:52:56.000Z</time>
      </trkpt>
      <trkpt lat="48.10261" lon="3.3028">
        <ele>161.8</ele>
        <time>2024-03-30T15:52:57.000Z</time>
      </trkpt>
      <trkpt lat="48.10262" lon="3.30277">
        <ele>161.9</ele>
        <time>2024-03-30T15:52:58.000Z</time>
      </trkpt>
      <trkpt lat="48.10262" lon="3.30274">
        <ele>161.9</ele>
        <time>2024-03-30T15:52:59.000Z</time>
      </trkpt>
      <trkpt lat="48.1026" lon="3.3027">
        <ele>161.7</ele>
        <time>2024-03-30T15:53:00.000Z</time>
      </trkpt>
      <trkpt lat="48.10254" lon="3.30265">
        <ele>161.3</ele>
        <time>2024-03-30T15:53:02.000Z</time>
      </trkpt>
      <trkpt lat="48.10252" lon="3.30263">
        <ele>161.1</ele>
        <time>2024-03-30T15:53:03.000Z</time>
      </trkpt>
      <trkpt lat="48.1025" lon="3.30261">
        <ele>161</ele>
        <time>2024-03-30T15:53:04.000Z</time>
      </trkpt>
      <trkpt lat="48.10248" lon="3.30259">
        <ele>160.9</ele>
        <time>2024-03-30T15:53:05.000Z</time>
      </trkpt>
      <trkpt lat="48.10244" lon="3.30256">
        <ele>160.7</ele>
        <time>2024-03-30T15:53:06.000Z</time>
      </trkpt>
      <trkpt lat="48.10242" lon="3.30254">
        <ele>160.7</ele>
        <time>2024-03-30T15:53:07.000Z</time>
      </trkpt>
      <trkpt lat="48.10241" lon="3.30251">
        <ele>160.7</ele>
        <time>2024-03-30T15:53:08.000Z</time>
      </trkpt>
      <trkpt lat="48.10239" lon="3.30247">
        <ele>160.7</ele>
        <time>2024-03-30T15:53:09.000Z</time>
      </trkpt>
      <trkpt lat="48.10238" lon="3.30243">
        <ele>160.8</ele>
        <time>2024-03-30T15:53:10.000Z</time>
      </trkpt>
      <trkpt lat="48.10237" lon="3.3024">
        <ele>160.9</ele>
        <time>2024-03-30T15:53:11.000Z</time>
      </trkpt>
      <trkpt lat="48.10236" lon="3.30238">
        <ele>160.9</ele>
        <time>2024-03-30T15:53:12.000Z</time>
      </trkpt>
      <trkpt lat="48.10234" lon="3.30236">
        <ele>160.9</ele>
        <time>2024-03-30T15:53:13.000Z</time>
      </trkpt>
      <trkpt lat="48.10234" lon="3.30236">
        <ele>160.9</ele>
        <time>2024-03-30T15:53:14.000Z</time>
      </trkpt>
      <trkpt lat="48.10234" lon="3.30236">
        <ele>160.9</ele>
        <time>2024-03-30T15:53:15.000Z</time>
      </trkpt>
      <trkpt lat="48.10234" lon="3.30236">
        <ele>160.9</ele>
        <time>2024-03-30T15:53:16.000Z</time>
      </trkpt>
      <trkpt lat="48.10233" lon="3.30236">
        <ele>160.9</ele>
        <time>2024-03-30T15:53:17.000Z</time>
      </trkpt>
      <trkpt lat="48.10232" lon="3.30236">
        <ele>160.9</ele>
        <time>2024-03-30T15:53:22.000Z</time>
      </trkpt>
      <trkpt lat="48.10231" lon="3.30236">
        <ele>160.8</ele>
        <time>2024-03-30T15:53:23.000Z</time>
      </trkpt>
      <trkpt lat="48.10229" lon="3.30237">
        <ele>160.7</ele>
        <time>2024-03-30T15:53:25.000Z</time>
      </trkpt>
      <trkpt lat="48.10224" lon="3.30236">
        <ele>160.6</ele>
        <time>2024-03-30T15:53:28.000Z</time>
      </trkpt>
      <trkpt lat="48.10223" lon="3.30235">
        <ele>160.6</ele>
        <time>2024-03-30T15:53:29.000Z</time>
      </trkpt>
      <trkpt lat="48.10222" lon="3.30234">
        <ele>160.6</ele>
        <time>2024-03-30T15:53:30.000Z</time>
      </trkpt>
      <trkpt lat="48.10222" lon="3.30233">
        <ele>160.6</ele>
        <time>2024-03-30T15:53:31.000Z</time>
      </trkpt>
      <trkpt lat="48.10222" lon="3.30233">
        <ele>160.6</ele>
        <time>2024-03-30T15:53:32.000Z</time>
      </trkpt>
      <trkpt lat="48.1022" lon="3.30233">
        <ele>160.4</ele>
        <time>2024-03-30T15:53:33.000Z</time>
      </trkpt>
      <trkpt lat="48.10218" lon="3.30232">
        <ele>160.2</ele>
        <time>2024-03-30T15:53:34.000Z</time>
      </trkpt>
      <trkpt lat="48.10216" lon="3.30231">
        <ele>160</ele>
        <time>2024-03-30T15:53:35.000Z</time>
      </trkpt>
      <trkpt lat="48.10215" lon="3.3023">
        <ele>159.9</ele>
        <time>2024-03-30T15:53:36.000Z</time>
      </trkpt>
      <trkpt lat="48.10214" lon="3.30228">
        <ele>159.9</ele>
        <time>2024-03-30T15:53:37.000Z</time>
      </trkpt>
      <trkpt lat="48.10213" lon="3.30226">
        <ele>159.9</ele>
        <time>2024-03-30T15:53:38.000Z</time>
      </trkpt>
      <trkpt lat="48.10213" lon="3.30224">
        <ele>159.9</ele>
        <time>2024-03-30T15:53:39.000Z</time>
      </trkpt>
      <trkpt lat="48.10212" lon="3.30222">
        <ele>159.9</ele>
        <time>2024-03-30T15:53:40.000Z</time>
      </trkpt>
      <trkpt lat="48.10212" lon="3.3022">
        <ele>159.9</ele>
        <time>2024-03-30T15:53:41.000Z</time>
      </trkpt>
      <trkpt lat="48.10212" lon="3.30219">
        <ele>159.9</ele>
        <time>2024-03-30T15:53:42.000Z</time>
      </trkpt>
      <trkpt lat="48.10212" lon="3.30219">
        <ele>159.9</ele>
        <time>2024-03-30T15:53:45.000Z</time>
      </trkpt>
      <trkpt lat="48.10209" lon="3.30216">
        <ele>159.7</ele>
        <time>2024-03-30T15:53:48.000Z</time>
      </trkpt>
      <trkpt lat="48.10207" lon="3.30212">
        <ele>159.6</ele>
        <time>2024-03-30T15:53:51.000Z</time>
      </trkpt>
      <trkpt lat="48.10203" lon="3.30209">
        <ele>159.3</ele>
        <time>2024-03-30T15:53:53.000Z</time>
      </trkpt>
      <trkpt lat="48.10198" lon="3.30204">
        <ele>159</ele>
        <time>2024-03-30T15:53:58.000Z</time>
      </trkpt>
      <trkpt lat="48.10197" lon="3.30203">
        <ele>158.9</ele>
        <time>2024-03-30T15:53:59.000Z</time>
      </trkpt>
      <trkpt lat="48.10196" lon="3.30201">
        <ele>158.9</ele>
        <time>2024-03-30T15:54:00.000Z</time>
      </trkpt>
      <trkpt lat="48.10195" lon="3.30198">
        <ele>158.9</ele>
        <time>2024-03-30T15:54:02.000Z</time>
      </trkpt>
      <trkpt lat="48.10195" lon="3.30197">
        <ele>158.9</ele>
        <time>2024-03-30T15:54:03.000Z</time>
      </trkpt>
      <trkpt lat="48.10195" lon="3.30197">
        <ele>158.9</ele>
        <time>2024-03-30T15:54:04.000Z</time>
      </trkpt>
      <trkpt lat="48.10194" lon="3.30197">
        <ele>158.9</ele>
        <time>2024-03-30T15:54:05.000Z</time>
      </trkpt>
      <trkpt lat="48.10194" lon="3.30196">
        <ele>158.9</ele>
        <time>2024-03-30T15:54:06.000Z</time>
      </trkpt>
      <trkpt lat="48.10193" lon="3.30197">
        <ele>158.9</ele>
        <time>2024-03-30T15:54:07.000Z</time>
      </trkpt>
      <trkpt lat="48.10193" lon="3.30196">
        <ele>158.9</ele>
        <time>2024-03-30T15:54:08.000Z</time>
      </trkpt>
      <trkpt lat="48.10191" lon="3.30196">
        <ele>158.8</ele>
        <time>2024-03-30T15:54:09.000Z</time>
      </trkpt>
      <trkpt lat="48.10185" lon="3.30191">
        <ele>158.9</ele>
        <time>2024-03-30T15:54:13.000Z</time>
      </trkpt>
      <trkpt lat="48.10182" lon="3.30186">
        <ele>159</ele>
        <time>2024-03-30T15:54:15.000Z</time>
      </trkpt>
      <trkpt lat="48.10182" lon="3.30183">
        <ele>159.2</ele>
        <time>2024-03-30T15:54:16.000Z</time>
      </trkpt>
      <trkpt lat="48.10181" lon="3.30181">
        <ele>159.2</ele>
        <time>2024-03-30T15:54:17.000Z</time>
      </trkpt>
      <trkpt lat="48.1018" lon="3.30179">
        <ele>159.3</ele>
        <time>2024-03-30T15:54:18.000Z</time>
      </trkpt>
      <trkpt lat="48.10176" lon="3.30169">
        <ele>159.6</ele>
        <time>2024-03-30T15:54:22.000Z</time>
      </trkpt>
      <trkpt lat="48.10175" lon="3.30166">
        <ele>159.6</ele>
        <time>2024-03-30T15:54:23.000Z</time>
      </trkpt>
      <trkpt lat="48.10172" lon="3.30163">
        <ele>159.6</ele>
        <time>2024-03-30T15:54:24.000Z</time>
      </trkpt>
      <trkpt lat="48.1017" lon="3.30157">
        <ele>159.9</ele>
        <time>2024-03-30T15:54:26.000Z</time>
      </trkpt>
      <trkpt lat="48.10166" lon="3.30151">
        <ele>160.1</ele>
        <time>2024-03-30T15:54:28.000Z</time>
      </trkpt>
      <trkpt lat="48.10165" lon="3.30147">
        <ele>160.3</ele>
        <time>2024-03-30T15:54:29.000Z</time>
      </trkpt>
      <trkpt lat="48.10164" lon="3.30141">
        <ele>160.7</ele>
        <time>2024-03-30T15:54:31.000Z</time>
      </trkpt>
      <trkpt lat="48.10164" lon="3.30139">
        <ele>160.8</ele>
        <time>2024-03-30T15:54:32.000Z</time>
      </trkpt>
      <trkpt lat="48.10156" lon="3.30123">
        <ele>160.8</ele>
        <time>2024-03-30T15:54:38.000Z</time>
      </trkpt>
      <trkpt lat="48.10154" lon="3.30121">
        <ele>160.7</ele>
        <time>2024-03-30T15:54:39.000Z</time>
      </trkpt>
      <trkpt lat="48.10151" lon="3.3012">
        <ele>160.6</ele>
        <time>2024-03-30T15:54:40.000Z</time>
      </trkpt>
      <trkpt lat="48.10149" lon="3.30118">
        <ele>160.5</ele>
        <time>2024-03-30T15:54:41.000Z</time>
      </trkpt>
      <trkpt lat="48.10144" lon="3.30113">
        <ele>160.3</ele>
        <time>2024-03-30T15:54:44.000Z</time>
      </trkpt>
      <trkpt lat="48.10144" lon="3.3011">
        <ele>160.4</ele>
        <time>2024-03-30T15:54:45.000Z</time>
      </trkpt>
      <trkpt lat="48.10146" lon="3.30107">
        <ele>160.7</ele>
        <time>2024-03-30T15:54:47.000Z</time>
      </trkpt>
      <trkpt lat="48.10148" lon="3.30106">
        <ele>160.8</ele>
        <time>2024-03-30T15:54:48.000Z</time>
      </trkpt>
      <trkpt lat="48.10149" lon="3.30106">
        <ele>160.9</ele>
        <time>2024-03-30T15:54:49.000Z</time>
      </trkpt>
      <trkpt lat="48.10151" lon="3.30105">
        <ele>161.1</ele>
        <time>2024-03-30T15:54:50.000Z</time>
      </trkpt>
      <trkpt lat="48.10152" lon="3.30105">
        <ele>161.2</ele>
        <time>2024-03-30T15:54:51.000Z</time>
      </trkpt>
      <trkpt lat="48.10154" lon="3.30104">
        <ele>161.3</ele>
        <time>2024-03-30T15:54:52.000Z</time>
      </trkpt>
      <trkpt lat="48.10156" lon="3.30104">
        <ele>161.5</ele>
        <time>2024-03-30T15:54:53.000Z</time>
      </trkpt>
      <trkpt lat="48.10161" lon="3.30101">
        <ele>162</ele>
        <time>2024-03-30T15:54:56.000Z</time>
      </trkpt>
      <trkpt lat="48.10166" lon="3.30101">
        <ele>162.3</ele>
        <time>2024-03-30T15:54:59.000Z</time>
      </trkpt>
      <trkpt lat="48.10167" lon="3.301">
        <ele>162.4</ele>
        <time>2024-03-30T15:55:00.000Z</time>
      </trkpt>
      <trkpt lat="48.10169" lon="3.30098">
        <ele>162.6</ele>
        <time>2024-03-30T15:55:01.000Z</time>
      </trkpt>
      <trkpt lat="48.1017" lon="3.30097">
        <ele>162.6</ele>
        <time>2024-03-30T15:55:02.000Z</time>
      </trkpt>
      <trkpt lat="48.10172" lon="3.30095">
        <ele>162.8</ele>
        <time>2024-03-30T15:55:03.000Z</time>
      </trkpt>
      <trkpt lat="48.10176" lon="3.3009">
        <ele>163.1</ele>
        <time>2024-03-30T15:55:06.000Z</time>
      </trkpt>
      <trkpt lat="48.1018" lon="3.30084">
        <ele>163.5</ele>
        <time>2024-03-30T15:55:09.000Z</time>
      </trkpt>
      <trkpt lat="48.10188" lon="3.30077">
        <ele>164</ele>
        <time>2024-03-30T15:55:14.000Z</time>
      </trkpt>
      <trkpt lat="48.10189" lon="3.30076">
        <ele>164.1</ele>
        <time>2024-03-30T15:55:15.000Z</time>
      </trkpt>
      <trkpt lat="48.1019" lon="3.30075">
        <ele>164.1</ele>
        <time>2024-03-30T15:55:16.000Z</time>
      </trkpt>
      <trkpt lat="48.10192" lon="3.30073">
        <ele>164.3</ele>
        <time>2024-03-30T15:55:17.000Z</time>
      </trkpt>
      <trkpt lat="48.10193" lon="3.30072">
        <ele>164.4</ele>
        <time>2024-03-30T15:55:18.000Z</time>
      </trkpt>
      <trkpt lat="48.10195" lon="3.3007">
        <ele>164.5</ele>
        <time>2024-03-30T15:55:19.000Z</time>
      </trkpt>
      <trkpt lat="48.10197" lon="3.30069">
        <ele>164.6</ele>
        <time>2024-03-30T15:55:20.000Z</time>
      </trkpt>
      <trkpt lat="48.10198" lon="3.30067">
        <ele>164.6</ele>
        <time>2024-03-30T15:55:21.000Z</time>
      </trkpt>
      <trkpt lat="48.102" lon="3.30066">
        <ele>164.7</ele>
        <time>2024-03-30T15:55:22.000Z</time>
      </trkpt>
      <trkpt lat="48.10202" lon="3.30066">
        <ele>164.7</ele>
        <time>2024-03-30T15:55:23.000Z</time>
      </trkpt>
      <trkpt lat="48.10204" lon="3.30065">
        <ele>164.8</ele>
        <time>2024-03-30T15:55:24.000Z</time>
      </trkpt>
      <trkpt lat="48.10205" lon="3.30064">
        <ele>164.8</ele>
        <time>2024-03-30T15:55:25.000Z</time>
      </trkpt>
      <trkpt lat="48.10207" lon="3.30062">
        <ele>164.9</ele>
        <time>2024-03-30T15:55:26.000Z</time>
      </trkpt>
      <trkpt lat="48.10209" lon="3.30061">
        <ele>164.9</ele>
        <time>2024-03-30T15:55:27.000Z</time>
      </trkpt>
      <trkpt lat="48.1021" lon="3.3006">
        <ele>164.9</ele>
        <time>2024-03-30T15:55:28.000Z</time>
      </trkpt>
      <trkpt lat="48.10212" lon="3.30061">
        <ele>164.9</ele>
        <time>2024-03-30T15:55:29.000Z</time>
      </trkpt>
      <trkpt lat="48.10213" lon="3.30061">
        <ele>164.9</ele>
        <time>2024-03-30T15:55:30.000Z</time>
      </trkpt>
      <trkpt lat="48.10215" lon="3.3006">
        <ele>165</ele>
        <time>2024-03-30T15:55:31.000Z</time>
      </trkpt>
      <trkpt lat="48.10216" lon="3.30059">
        <ele>165</ele>
        <time>2024-03-30T15:55:32.000Z</time>
      </trkpt>
      <trkpt lat="48.10218" lon="3.30059">
        <ele>165</ele>
        <time>2024-03-30T15:55:33.000Z</time>
      </trkpt>
      <trkpt lat="48.1022" lon="3.30059">
        <ele>165</ele>
        <time>2024-03-30T15:55:34.000Z</time>
      </trkpt>
      <trkpt lat="48.10221" lon="3.30058">
        <ele>165</ele>
        <time>2024-03-30T15:55:35.000Z</time>
      </trkpt>
      <trkpt lat="48.10223" lon="3.30057">
        <ele>165</ele>
        <time>2024-03-30T15:55:36.000Z</time>
      </trkpt>
      <trkpt lat="48.10225" lon="3.30056">
        <ele>165</ele>
        <time>2024-03-30T15:55:37.000Z</time>
      </trkpt>
      <trkpt lat="48.10227" lon="3.30055">
        <ele>165</ele>
        <time>2024-03-30T15:55:38.000Z</time>
      </trkpt>
      <trkpt lat="48.10229" lon="3.30054">
        <ele>165</ele>
        <time>2024-03-30T15:55:39.000Z</time>
      </trkpt>
      <trkpt lat="48.10231" lon="3.30054">
        <ele>165</ele>
        <time>2024-03-30T15:55:40.000Z</time>
      </trkpt>
      <trkpt lat="48.10232" lon="3.30053">
        <ele>165</ele>
        <time>2024-03-30T15:55:41.000Z</time>
      </trkpt>
      <trkpt lat="48.10234" lon="3.30053">
        <ele>165</ele>
        <time>2024-03-30T15:55:42.000Z</time>
      </trkpt>
      <trkpt lat="48.10235" lon="3.30052">
        <ele>165</ele>
        <time>2024-03-30T15:55:43.000Z</time>
      </trkpt>
      <trkpt lat="48.10238" lon="3.30049">
        <ele>165</ele>
        <time>2024-03-30T15:55:45.000Z</time>
      </trkpt>
      <trkpt lat="48.10239" lon="3.30048">
        <ele>165</ele>
        <time>2024-03-30T15:55:46.000Z</time>
      </trkpt>
      <trkpt lat="48.10241" lon="3.30047">
        <ele>165</ele>
        <time>2024-03-30T15:55:47.000Z</time>
      </trkpt>
      <trkpt lat="48.10242" lon="3.30046">
        <ele>165</ele>
        <time>2024-03-30T15:55:48.000Z</time>
      </trkpt>
      <trkpt lat="48.10243" lon="3.30045">
        <ele>165</ele>
        <time>2024-03-30T15:55:49.000Z</time>
      </trkpt>
      <trkpt lat="48.10243" lon="3.30043">
        <ele>165</ele>
        <time>2024-03-30T15:55:50.000Z</time>
      </trkpt>
      <trkpt lat="48.10244" lon="3.30042">
        <ele>165</ele>
        <time>2024-03-30T15:55:51.000Z</time>
      </trkpt>
      <trkpt lat="48.10244" lon="3.30042">
        <ele>165</ele>
        <time>2024-03-30T15:55:54.000Z</time>
      </trkpt>
      <trkpt lat="48.10244" lon="3.30041">
        <ele>165</ele>
        <time>2024-03-30T15:55:57.000Z</time>
      </trkpt>
      <trkpt lat="48.10245" lon="3.30036">
        <ele>165</ele>
        <time>2024-03-30T15:56:00.000Z</time>
      </trkpt>
      <trkpt lat="48.10245" lon="3.30033">
        <ele>165</ele>
        <time>2024-03-30T15:56:01.000Z</time>
      </trkpt>
      <trkpt lat="48.10246" lon="3.30028">
        <ele>165</ele>
        <time>2024-03-30T15:56:03.000Z</time>
      </trkpt>
      <trkpt lat="48.10247" lon="3.30025">
        <ele>165</ele>
        <time>2024-03-30T15:56:04.000Z</time>
      </trkpt>
      <trkpt lat="48.10248" lon="3.3002">
        <ele>165</ele>
        <time>2024-03-30T15:56:06.000Z</time>
      </trkpt>
      <trkpt lat="48.10251" lon="3.29996">
        <ele>165</ele>
        <time>2024-03-30T15:56:12.000Z</time>
      </trkpt>
      <trkpt lat="48.10251" lon="3.29992">
        <ele>165</ele>
        <time>2024-03-30T15:56:13.000Z</time>
      </trkpt>
      <trkpt lat="48.10252" lon="3.29985">
        <ele>165</ele>
        <time>2024-03-30T15:56:15.000Z</time>
      </trkpt>
      <trkpt lat="48.10252" lon="3.29984">
        <ele>165</ele>
        <time>2024-03-30T15:56:16.000Z</time>
      </trkpt>
      <trkpt lat="48.10252" lon="3.29984">
        <ele>165</ele>
        <time>2024-03-30T15:56:17.000Z</time>
      </trkpt>
      <trkpt lat="48.10252" lon="3.29983">
        <ele>165</ele>
        <time>2024-03-30T15:56:18.000Z</time>
      </trkpt>
      <trkpt lat="48.10252" lon="3.29983">
        <ele>165</ele>
        <time>2024-03-30T15:56:19.000Z</time>
      </trkpt>
      <trkpt lat="48.10252" lon="3.29983">
        <ele>165</ele>
        <time>2024-03-30T15:56:25.000Z</time>
      </trkpt>
      <trkpt lat="48.10254" lon="3.29975">
        <ele>165</ele>
        <time>2024-03-30T15:56:32.000Z</time>
      </trkpt>
      <trkpt lat="48.10254" lon="3.29972">
        <ele>165</ele>
        <time>2024-03-30T15:56:33.000Z</time>
      </trkpt>
      <trkpt lat="48.10254" lon="3.29968">
        <ele>165</ele>
        <time>2024-03-30T15:56:34.000Z</time>
      </trkpt>
      <trkpt lat="48.10255" lon="3.29958">
        <ele>165</ele>
        <time>2024-03-30T15:56:37.000Z</time>
      </trkpt>
      <trkpt lat="48.10255" lon="3.29954">
        <ele>165</ele>
        <time>2024-03-30T15:56:38.000Z</time>
      </trkpt>
      <trkpt lat="48.10255" lon="3.29948">
        <ele>165</ele>
        <time>2024-03-30T15:56:39.000Z</time>
      </trkpt>
      <trkpt lat="48.10256" lon="3.2993">
        <ele>165</ele>
        <time>2024-03-30T15:56:43.000Z</time>
      </trkpt>
      <trkpt lat="48.10255" lon="3.29926">
        <ele>165</ele>
        <time>2024-03-30T15:56:44.000Z</time>
      </trkpt>
      <trkpt lat="48.10254" lon="3.29921">
        <ele>165</ele>
        <time>2024-03-30T15:56:45.000Z</time>
      </trkpt>
      <trkpt lat="48.10253" lon="3.29912">
        <ele>165</ele>
        <time>2024-03-30T15:56:47.000Z</time>
      </trkpt>
      <trkpt lat="48.10249" lon="3.29901">
        <ele>165</ele>
        <time>2024-03-30T15:56:50.000Z</time>
      </trkpt>
      <trkpt lat="48.10249" lon="3.29898">
        <ele>165</ele>
        <time>2024-03-30T15:56:51.000Z</time>
      </trkpt>
      <trkpt lat="48.10249" lon="3.29894">
        <ele>165</ele>
        <time>2024-03-30T15:56:52.000Z</time>
      </trkpt>
      <trkpt lat="48.10248" lon="3.29891">
        <ele>165</ele>
        <time>2024-03-30T15:56:53.000Z</time>
      </trkpt>
      <trkpt lat="48.10247" lon="3.29885">
        <ele>165</ele>
        <time>2024-03-30T15:56:54.000Z</time>
      </trkpt>
      <trkpt lat="48.10246" lon="3.2988">
        <ele>165</ele>
        <time>2024-03-30T15:56:55.000Z</time>
      </trkpt>
      <trkpt lat="48.10244" lon="3.29866">
        <ele>165</ele>
        <time>2024-03-30T15:56:58.000Z</time>
      </trkpt>
      <trkpt lat="48.10239" lon="3.2984">
        <ele>165</ele>
        <time>2024-03-30T15:57:03.000Z</time>
      </trkpt>
      <trkpt lat="48.10238" lon="3.29811">
        <ele>164.5</ele>
        <time>2024-03-30T15:57:08.000Z</time>
      </trkpt>
      <trkpt lat="48.10239" lon="3.29806">
        <ele>164.4</ele>
        <time>2024-03-30T15:57:09.000Z</time>
      </trkpt>
      <trkpt lat="48.10241" lon="3.29801">
        <ele>164.3</ele>
        <time>2024-03-30T15:57:10.000Z</time>
      </trkpt>
      <trkpt lat="48.10241" lon="3.29797">
        <ele>164.2</ele>
        <time>2024-03-30T15:57:11.000Z</time>
      </trkpt>
      <trkpt lat="48.10242" lon="3.29794">
        <ele>164.2</ele>
        <time>2024-03-30T15:57:12.000Z</time>
      </trkpt>
      <trkpt lat="48.10242" lon="3.29791">
        <ele>164.1</ele>
        <time>2024-03-30T15:57:13.000Z</time>
      </trkpt>
      <trkpt lat="48.10242" lon="3.29788">
        <ele>164.1</ele>
        <time>2024-03-30T15:57:14.000Z</time>
      </trkpt>
      <trkpt lat="48.10242" lon="3.29786">
        <ele>164.1</ele>
        <time>2024-03-30T15:57:15.000Z</time>
      </trkpt>
      <trkpt lat="48.10243" lon="3.29783">
        <ele>164</ele>
        <time>2024-03-30T15:57:16.000Z</time>
      </trkpt>
      <trkpt lat="48.10243" lon="3.2978">
        <ele>164</ele>
        <time>2024-03-30T15:57:17.000Z</time>
      </trkpt>
      <trkpt lat="48.10243" lon="3.29776">
        <ele>164</ele>
        <time>2024-03-30T15:57:19.000Z</time>
      </trkpt>
      <trkpt lat="48.10243" lon="3.29772">
        <ele>164</ele>
        <time>2024-03-30T15:57:20.000Z</time>
      </trkpt>
      <trkpt lat="48.10243" lon="3.29768">
        <ele>164</ele>
        <time>2024-03-30T15:57:21.000Z</time>
      </trkpt>
      <trkpt lat="48.10243" lon="3.29764">
        <ele>164</ele>
        <time>2024-03-30T15:57:22.000Z</time>
      </trkpt>
      <trkpt lat="48.10242" lon="3.29753">
        <ele>164</ele>
        <time>2024-03-30T15:57:25.000Z</time>
      </trkpt>
      <trkpt lat="48.10241" lon="3.29749">
        <ele>164</ele>
        <time>2024-03-30T15:57:26.000Z</time>
      </trkpt>
      <trkpt lat="48.10241" lon="3.29739">
        <ele>164</ele>
        <time>2024-03-30T15:57:29.000Z</time>
      </trkpt>
      <trkpt lat="48.10241" lon="3.29735">
        <ele>164</ele>
        <time>2024-03-30T15:57:30.000Z</time>
      </trkpt>
      <trkpt lat="48.10241" lon="3.29732">
        <ele>164</ele>
        <time>2024-03-30T15:57:31.000Z</time>
      </trkpt>
      <trkpt lat="48.10241" lon="3.29709">
        <ele>164.2</ele>
        <time>2024-03-30T15:57:36.000Z</time>
      </trkpt>
      <trkpt lat="48.10241" lon="3.29698">
        <ele>164.3</ele>
        <time>2024-03-30T15:57:39.000Z</time>
      </trkpt>
      <trkpt lat="48.10242" lon="3.29694">
        <ele>164.3</ele>
        <time>2024-03-30T15:57:40.000Z</time>
      </trkpt>
      <trkpt lat="48.10242" lon="3.29687">
        <ele>164.3</ele>
        <time>2024-03-30T15:57:42.000Z</time>
      </trkpt>
      <trkpt lat="48.10241" lon="3.29684">
        <ele>164.3</ele>
        <time>2024-03-30T15:57:43.000Z</time>
      </trkpt>
      <trkpt lat="48.10239" lon="3.29681">
        <ele>164.4</ele>
        <time>2024-03-30T15:57:44.000Z</time>
      </trkpt>
      <trkpt lat="48.10237" lon="3.29677">
        <ele>164.5</ele>
        <time>2024-03-30T15:57:45.000Z</time>
      </trkpt>
      <trkpt lat="48.10237" lon="3.29676">
        <ele>164.5</ele>
        <time>2024-03-30T15:57:46.000Z</time>
      </trkpt>
      <trkpt lat="48.10237" lon="3.29676">
        <ele>164.5</ele>
        <time>2024-03-30T15:57:51.000Z</time>
      </trkpt>
      <trkpt lat="48.10234" lon="3.29674">
        <ele>164.6</ele>
        <time>2024-03-30T15:58:00.000Z</time>
      </trkpt>
      <trkpt lat="48.10234" lon="3.29672">
        <ele>164.6</ele>
        <time>2024-03-30T15:58:01.000Z</time>
      </trkpt>
      <trkpt lat="48.10234" lon="3.2966">
        <ele>164.6</ele>
        <time>2024-03-30T15:58:05.000Z</time>
      </trkpt>
      <trkpt lat="48.10234" lon="3.29657">
        <ele>164.6</ele>
        <time>2024-03-30T15:58:06.000Z</time>
      </trkpt>
      <trkpt lat="48.10231" lon="3.29645">
        <ele>164.7</ele>
        <time>2024-03-30T15:58:09.000Z</time>
      </trkpt>
      <trkpt lat="48.10229" lon="3.2964">
        <ele>164.8</ele>
        <time>2024-03-30T15:58:10.000Z</time>
      </trkpt>
      <trkpt lat="48.10225" lon="3.29627">
        <ele>164.5</ele>
        <time>2024-03-30T15:58:13.000Z</time>
      </trkpt>
      <trkpt lat="48.10224" lon="3.29623">
        <ele>164.4</ele>
        <time>2024-03-30T15:58:14.000Z</time>
      </trkpt>
      <trkpt lat="48.10223" lon="3.29619">
        <ele>164.3</ele>
        <time>2024-03-30T15:58:15.000Z</time>
      </trkpt>
      <trkpt lat="48.10222" lon="3.29616">
        <ele>164.2</ele>
        <time>2024-03-30T15:58:16.000Z</time>
      </trkpt>
      <trkpt lat="48.10221" lon="3.29612">
        <ele>164.1</ele>
        <time>2024-03-30T15:58:17.000Z</time>
      </trkpt>
      <trkpt lat="48.10221" lon="3.29608">
        <ele>164</ele>
        <time>2024-03-30T15:58:18.000Z</time>
      </trkpt>
      <trkpt lat="48.10218" lon="3.29599">
        <ele>164.2</ele>
        <time>2024-03-30T15:58:20.000Z</time>
      </trkpt>
      <trkpt lat="48.10217" lon="3.29595">
        <ele>164.2</ele>
        <time>2024-03-30T15:58:21.000Z</time>
      </trkpt>
      <trkpt lat="48.10216" lon="3.29592">
        <ele>164.2</ele>
        <time>2024-03-30T15:58:22.000Z</time>
      </trkpt>
      <trkpt lat="48.10213" lon="3.29588">
        <ele>164.3</ele>
        <time>2024-03-30T15:58:23.000Z</time>
      </trkpt>
      <trkpt lat="48.10211" lon="3.29586">
        <ele>164.4</ele>
        <time>2024-03-30T15:58:24.000Z</time>
      </trkpt>
      <trkpt lat="48.1021" lon="3.29584">
        <ele>164.4</ele>
        <time>2024-03-30T15:58:25.000Z</time>
      </trkpt>
      <trkpt lat="48.10201" lon="3.29578">
        <ele>164.8</ele>
        <time>2024-03-30T15:58:29.000Z</time>
      </trkpt>
      <trkpt lat="48.10199" lon="3.29574">
        <ele>164.8</ele>
        <time>2024-03-30T15:58:30.000Z</time>
      </trkpt>
      <trkpt lat="48.10199" lon="3.29574">
        <ele>164.8</ele>
        <time>2024-03-30T15:58:32.000Z</time>
      </trkpt>
      <trkpt lat="48.10199" lon="3.29574">
        <ele>164.8</ele>
        <time>2024-03-30T15:58:41.000Z</time>
      </trkpt>
      <trkpt lat="48.10199" lon="3.29574">
        <ele>164.8</ele>
        <time>2024-03-30T15:58:42.000Z</time>
      </trkpt>
      <trkpt lat="48.10199" lon="3.29574">
        <ele>164.8</ele>
        <time>2024-03-30T15:58:48.000Z</time>
      </trkpt>
      <trkpt lat="48.10199" lon="3.29574">
        <ele>164.8</ele>
        <time>2024-03-30T15:58:53.000Z</time>
      </trkpt>
      <trkpt lat="48.10198" lon="3.29575">
        <ele>164.9</ele>
        <time>2024-03-30T15:58:55.000Z</time>
      </trkpt>
      <trkpt lat="48.10197" lon="3.29576">
        <ele>164.9</ele>
        <time>2024-03-30T15:58:57.000Z</time>
      </trkpt>
      <trkpt lat="48.10197" lon="3.29576">
        <ele>164.9</ele>
        <time>2024-03-30T15:58:58.000Z</time>
      </trkpt>
      <trkpt lat="48.10197" lon="3.29576">
        <ele>164.9</ele>
        <time>2024-03-30T15:59:05.000Z</time>
      </trkpt>
      <trkpt lat="48.10197" lon="3.29576">
        <ele>164.9</ele>
        <time>2024-03-30T15:59:14.000Z</time>
      </trkpt>
      <trkpt lat="48.10197" lon="3.29576">
        <ele>164.9</ele>
        <time>2024-03-30T15:59:17.000Z</time>
      </trkpt>
      <trkpt lat="48.10197" lon="3.29576">
        <ele>164.9</ele>
        <time>2024-03-30T15:59:23.000Z</time>
      </trkpt>
      <trkpt lat="48.10197" lon="3.29576">
        <ele>164.9</ele>
        <time>2024-03-30T15:59:26.000Z</time>
      </trkpt>
      <trkpt lat="48.10197" lon="3.29576">
        <ele>164.9</ele>
        <time>2024-03-30T15:59:35.000Z</time>
      </trkpt>
      <trkpt lat="48.10197" lon="3.29575">
        <ele>164.9</ele>
        <time>2024-03-30T15:59:43.000Z</time>
      </trkpt>
      <trkpt lat="48.10195" lon="3.29575">
        <ele>165</ele>
        <time>2024-03-30T15:59:46.000Z</time>
      </trkpt>
      <trkpt lat="48.10189" lon="3.29572">
        <ele>165</ele>
        <time>2024-03-30T15:59:49.000Z</time>
      </trkpt>
      <trkpt lat="48.10185" lon="3.2957">
        <ele>165</ele>
        <time>2024-03-30T15:59:51.000Z</time>
      </trkpt>
      <trkpt lat="48.10183" lon="3.29567">
        <ele>165</ele>
        <time>2024-03-30T15:59:52.000Z</time>
      </trkpt>
      <trkpt lat="48.1018" lon="3.29565">
        <ele>165</ele>
        <time>2024-03-30T15:59:53.000Z</time>
      </trkpt>
      <trkpt lat="48.10178" lon="3.29561">
        <ele>165</ele>
        <time>2024-03-30T15:59:55.000Z</time>
      </trkpt>
      <trkpt lat="48.10177" lon="3.29558">
        <ele>165</ele>
        <time>2024-03-30T15:59:56.000Z</time>
      </trkpt>
      <trkpt lat="48.10177" lon="3.29556">
        <ele>165</ele>
        <time>2024-03-30T15:59:57.000Z</time>
      </trkpt>
      <trkpt lat="48.1017" lon="3.29548">
        <ele>165</ele>
        <time>2024-03-30T16:00:00.000Z</time>
      </trkpt>
      <trkpt lat="48.10167" lon="3.29545">
        <ele>165</ele>
        <time>2024-03-30T16:00:01.000Z</time>
      </trkpt>
      <trkpt lat="48.10163" lon="3.29543">
        <ele>165</ele>
        <time>2024-03-30T16:00:02.000Z</time>
      </trkpt>
      <trkpt lat="48.1016" lon="3.29538">
        <ele>165</ele>
        <time>2024-03-30T16:00:04.000Z</time>
      </trkpt>
      <trkpt lat="48.1016" lon="3.29535">
        <ele>165</ele>
        <time>2024-03-30T16:00:05.000Z</time>
      </trkpt>
      <trkpt lat="48.10159" lon="3.29533">
        <ele>165</ele>
        <time>2024-03-30T16:00:06.000Z</time>
      </trkpt>
      <trkpt lat="48.10159" lon="3.29532">
        <ele>165</ele>
        <time>2024-03-30T16:00:07.000Z</time>
      </trkpt>
      <trkpt lat="48.10159" lon="3.29532">
        <ele>165</ele>
        <time>2024-03-30T16:00:08.000Z</time>
      </trkpt>
      <trkpt lat="48.10158" lon="3.29531">
        <ele>165</ele>
        <time>2024-03-30T16:00:09.000Z</time>
      </trkpt>
      <trkpt lat="48.10158" lon="3.2953">
        <ele>165</ele>
        <time>2024-03-30T16:00:10.000Z</time>
      </trkpt>
      <trkpt lat="48.10157" lon="3.29523">
        <ele>165</ele>
        <time>2024-03-30T16:00:13.000Z</time>
      </trkpt>
      <trkpt lat="48.10157" lon="3.29522">
        <ele>165</ele>
        <time>2024-03-30T16:00:14.000Z</time>
      </trkpt>
      <trkpt lat="48.10156" lon="3.29521">
        <ele>165</ele>
        <time>2024-03-30T16:00:15.000Z</time>
      </trkpt>
      <trkpt lat="48.10156" lon="3.29521">
        <ele>165</ele>
        <time>2024-03-30T16:00:16.000Z</time>
      </trkpt>
      <trkpt lat="48.10155" lon="3.29521">
        <ele>165</ele>
        <time>2024-03-30T16:00:17.000Z</time>
      </trkpt>
      <trkpt lat="48.10155" lon="3.29521">
        <ele>165</ele>
        <time>2024-03-30T16:00:18.000Z</time>
      </trkpt>
      <trkpt lat="48.10155" lon="3.29521">
        <ele>165</ele>
        <time>2024-03-30T16:00:24.000Z</time>
      </trkpt>
      <trkpt lat="48.10155" lon="3.29521">
        <ele>165</ele>
        <time>2024-03-30T16:00:33.000Z</time>
      </trkpt>
      <trkpt lat="48.10153" lon="3.2952">
        <ele>165</ele>
        <time>2024-03-30T16:00:41.000Z</time>
      </trkpt>
      <trkpt lat="48.10149" lon="3.2952">
        <ele>165</ele>
        <time>2024-03-30T16:00:43.000Z</time>
      </trkpt>
      <trkpt lat="48.1014" lon="3.2952">
        <ele>165</ele>
        <time>2024-03-30T16:00:46.000Z</time>
      </trkpt>
      <trkpt lat="48.10136" lon="3.2952">
        <ele>164.9</ele>
        <time>2024-03-30T16:00:47.000Z</time>
      </trkpt>
      <trkpt lat="48.10133" lon="3.29519">
        <ele>164.8</ele>
        <time>2024-03-30T16:00:48.000Z</time>
      </trkpt>
      <trkpt lat="48.10131" lon="3.29519">
        <ele>164.7</ele>
        <time>2024-03-30T16:00:49.000Z</time>
      </trkpt>
      <trkpt lat="48.10115" lon="3.29516">
        <ele>164.1</ele>
        <time>2024-03-30T16:00:53.000Z</time>
      </trkpt>
      <trkpt lat="48.10112" lon="3.29514">
        <ele>164</ele>
        <time>2024-03-30T16:00:54.000Z</time>
      </trkpt>
      <trkpt lat="48.10108" lon="3.29513">
        <ele>164</ele>
        <time>2024-03-30T16:00:55.000Z</time>
      </trkpt>
      <trkpt lat="48.10104" lon="3.29512">
        <ele>164</ele>
        <time>2024-03-30T16:00:56.000Z</time>
      </trkpt>
      <trkpt lat="48.10083" lon="3.29506">
        <ele>164</ele>
        <time>2024-03-30T16:01:01.000Z</time>
      </trkpt>
      <trkpt lat="48.10065" lon="3.29505">
        <ele>163.3</ele>
        <time>2024-03-30T16:01:04.000Z</time>
      </trkpt>
      <trkpt lat="48.10062" lon="3.29503">
        <ele>163.2</ele>
        <time>2024-03-30T16:01:05.000Z</time>
      </trkpt>
      <trkpt lat="48.10061" lon="3.29504">
        <ele>163.2</ele>
        <time>2024-03-30T16:01:06.000Z</time>
      </trkpt>
      <trkpt lat="48.10059" lon="3.29504">
        <ele>163.1</ele>
        <time>2024-03-30T16:01:07.000Z</time>
      </trkpt>
      <trkpt lat="48.10058" lon="3.29503">
        <ele>163.1</ele>
        <time>2024-03-30T16:01:08.000Z</time>
      </trkpt>
      <trkpt lat="48.10056" lon="3.29502">
        <ele>163</ele>
        <time>2024-03-30T16:01:09.000Z</time>
      </trkpt>
      <trkpt lat="48.10055" lon="3.29501">
        <ele>163</ele>
        <time>2024-03-30T16:01:11.000Z</time>
      </trkpt>
      <trkpt lat="48.10055" lon="3.29499">
        <ele>163</ele>
        <time>2024-03-30T16:14:51.000Z</time>
      </trkpt>
      <trkpt lat="48.10074" lon="3.29466">
        <ele>163.9</ele>
        <time>2024-03-30T16:14:52.000Z</time>
      </trkpt>
      <trkpt lat="48.10075" lon="3.29466">
        <ele>163.9</ele>
        <time>2024-03-30T16:14:53.000Z</time>
      </trkpt>
      <trkpt lat="48.10077" lon="3.29465">
        <ele>163.9</ele>
        <time>2024-03-30T16:14:54.000Z</time>
      </trkpt>
      <trkpt lat="48.10078" lon="3.29465">
        <ele>164</ele>
        <time>2024-03-30T16:14:55.000Z</time>
      </trkpt>
      <trkpt lat="48.10092" lon="3.2946">
        <ele>164</ele>
        <time>2024-03-30T16:15:01.000Z</time>
      </trkpt>
      <trkpt lat="48.10094" lon="3.29458">
        <ele>164</ele>
        <time>2024-03-30T16:15:02.000Z</time>
      </trkpt>
      <trkpt lat="48.10096" lon="3.29455">
        <ele>164</ele>
        <time>2024-03-30T16:15:03.000Z</time>
      </trkpt>
      <trkpt lat="48.10097" lon="3.29451">
        <ele>164</ele>
        <time>2024-03-30T16:15:04.000Z</time>
      </trkpt>
      <trkpt lat="48.10099" lon="3.29448">
        <ele>164</ele>
        <time>2024-03-30T16:15:05.000Z</time>
      </trkpt>
      <trkpt lat="48.10099" lon="3.29445">
        <ele>164</ele>
        <time>2024-03-30T16:15:06.000Z</time>
      </trkpt>
      <trkpt lat="48.101" lon="3.29442">
        <ele>164</ele>
        <time>2024-03-30T16:15:07.000Z</time>
      </trkpt>
      <trkpt lat="48.10108" lon="3.29417">
        <ele>164</ele>
        <time>2024-03-30T16:15:12.000Z</time>
      </trkpt>
      <trkpt lat="48.10106" lon="3.29407">
        <ele>163.9</ele>
        <time>2024-03-30T16:15:15.000Z</time>
      </trkpt>
      <trkpt lat="48.10107" lon="3.29405">
        <ele>163.9</ele>
        <time>2024-03-30T16:15:16.000Z</time>
      </trkpt>
      <trkpt lat="48.10107" lon="3.29404">
        <ele>163.9</ele>
        <time>2024-03-30T16:15:17.000Z</time>
      </trkpt>
      <trkpt lat="48.10107" lon="3.29403">
        <ele>163.9</ele>
        <time>2024-03-30T16:15:18.000Z</time>
      </trkpt>
      <trkpt lat="48.10107" lon="3.29403">
        <ele>163.9</ele>
        <time>2024-03-30T16:15:19.000Z</time>
      </trkpt>
      <trkpt lat="48.10107" lon="3.29403">
        <ele>163.9</ele>
        <time>2024-03-30T16:15:20.000Z</time>
      </trkpt>
      <trkpt lat="48.10107" lon="3.29401">
        <ele>163.8</ele>
        <time>2024-03-30T16:15:21.000Z</time>
      </trkpt>
      <trkpt lat="48.10107" lon="3.29393">
        <ele>163.7</ele>
        <time>2024-03-30T16:15:24.000Z</time>
      </trkpt>
      <trkpt lat="48.10109" lon="3.29379">
        <ele>163.8</ele>
        <time>2024-03-30T16:15:28.000Z</time>
      </trkpt>
      <trkpt lat="48.10113" lon="3.29367">
        <ele>164</ele>
        <time>2024-03-30T16:15:31.000Z</time>
      </trkpt>
      <trkpt lat="48.10115" lon="3.29363">
        <ele>164</ele>
        <time>2024-03-30T16:15:32.000Z</time>
      </trkpt>
      <trkpt lat="48.10117" lon="3.29359">
        <ele>163.8</ele>
        <time>2024-03-30T16:15:33.000Z</time>
      </trkpt>
      <trkpt lat="48.10121" lon="3.29352">
        <ele>163.2</ele>
        <time>2024-03-30T16:15:35.000Z</time>
      </trkpt>
      <trkpt lat="48.1013" lon="3.29342">
        <ele>162.9</ele>
        <time>2024-03-30T16:15:38.000Z</time>
      </trkpt>
      <trkpt lat="48.10147" lon="3.29333">
        <ele>163</ele>
        <time>2024-03-30T16:15:43.000Z</time>
      </trkpt>
      <trkpt lat="48.10163" lon="3.29329">
        <ele>162.9</ele>
        <time>2024-03-30T16:15:48.000Z</time>
      </trkpt>
      <trkpt lat="48.10181" lon="3.29323">
        <ele>162.1</ele>
        <time>2024-03-30T16:15:53.000Z</time>
      </trkpt>
      <trkpt lat="48.10184" lon="3.29321">
        <ele>161.9</ele>
        <time>2024-03-30T16:15:54.000Z</time>
      </trkpt>
      <trkpt lat="48.10185" lon="3.29318">
        <ele>161.8</ele>
        <time>2024-03-30T16:15:55.000Z</time>
      </trkpt>
      <trkpt lat="48.10185" lon="3.29314">
        <ele>161.6</ele>
        <time>2024-03-30T16:15:56.000Z</time>
      </trkpt>
      <trkpt lat="48.10186" lon="3.2931">
        <ele>161.5</ele>
        <time>2024-03-30T16:15:57.000Z</time>
      </trkpt>
      <trkpt lat="48.10186" lon="3.29304">
        <ele>161.3</ele>
        <time>2024-03-30T16:15:58.000Z</time>
      </trkpt>
      <trkpt lat="48.10186" lon="3.29298">
        <ele>161.3</ele>
        <time>2024-03-30T16:15:59.000Z</time>
      </trkpt>
      <trkpt lat="48.10186" lon="3.29287">
        <ele>161.3</ele>
        <time>2024-03-30T16:16:01.000Z</time>
      </trkpt>
      <trkpt lat="48.10185" lon="3.29267">
        <ele>161.2</ele>
        <time>2024-03-30T16:16:05.000Z</time>
      </trkpt>
      <trkpt lat="48.10188" lon="3.29235">
        <ele>160.5</ele>
        <time>2024-03-30T16:16:10.000Z</time>
      </trkpt>
      <trkpt lat="48.10188" lon="3.29222">
        <ele>160</ele>
        <time>2024-03-30T16:16:12.000Z</time>
      </trkpt>
      <trkpt lat="48.10187" lon="3.2919">
        <ele>160</ele>
        <time>2024-03-30T16:16:17.000Z</time>
      </trkpt>
      <trkpt lat="48.10187" lon="3.29185">
        <ele>159.9</ele>
        <time>2024-03-30T16:16:18.000Z</time>
      </trkpt>
      <trkpt lat="48.10187" lon="3.29178">
        <ele>159.8</ele>
        <time>2024-03-30T16:16:19.000Z</time>
      </trkpt>
      <trkpt lat="48.10186" lon="3.29174">
        <ele>159.8</ele>
        <time>2024-03-30T16:16:20.000Z</time>
      </trkpt>
      <trkpt lat="48.10184" lon="3.2917">
        <ele>159.7</ele>
        <time>2024-03-30T16:16:21.000Z</time>
      </trkpt>
      <trkpt lat="48.10182" lon="3.2916">
        <ele>159.2</ele>
        <time>2024-03-30T16:16:23.000Z</time>
      </trkpt>
      <trkpt lat="48.10181" lon="3.29155">
        <ele>158.9</ele>
        <time>2024-03-30T16:16:24.000Z</time>
      </trkpt>
      <trkpt lat="48.10181" lon="3.29151">
        <ele>158.7</ele>
        <time>2024-03-30T16:16:25.000Z</time>
      </trkpt>
      <trkpt lat="48.1018" lon="3.29148">
        <ele>158.5</ele>
        <time>2024-03-30T16:16:26.000Z</time>
      </trkpt>
      <trkpt lat="48.10179" lon="3.29144">
        <ele>158.2</ele>
        <time>2024-03-30T16:16:27.000Z</time>
      </trkpt>
      <trkpt lat="48.10179" lon="3.29141">
        <ele>158</ele>
        <time>2024-03-30T16:16:28.000Z</time>
      </trkpt>
      <trkpt lat="48.10179" lon="3.29137">
        <ele>157.8</ele>
        <time>2024-03-30T16:16:29.000Z</time>
      </trkpt>
      <trkpt lat="48.1018" lon="3.29133">
        <ele>157.6</ele>
        <time>2024-03-30T16:16:30.000Z</time>
      </trkpt>
      <trkpt lat="48.1018" lon="3.2913">
        <ele>157.5</ele>
        <time>2024-03-30T16:16:31.000Z</time>
      </trkpt>
      <trkpt lat="48.10181" lon="3.29127">
        <ele>157.4</ele>
        <time>2024-03-30T16:16:32.000Z</time>
      </trkpt>
      <trkpt lat="48.10181" lon="3.29112">
        <ele>156.6</ele>
        <time>2024-03-30T16:16:35.000Z</time>
      </trkpt>
      <trkpt lat="48.10181" lon="3.29106">
        <ele>156.1</ele>
        <time>2024-03-30T16:16:36.000Z</time>
      </trkpt>
      <trkpt lat="48.10183" lon="3.29097">
        <ele>155.4</ele>
        <time>2024-03-30T16:16:38.000Z</time>
      </trkpt>
      <trkpt lat="48.10186" lon="3.29085">
        <ele>154.5</ele>
        <time>2024-03-30T16:16:40.000Z</time>
      </trkpt>
      <trkpt lat="48.10187" lon="3.29073">
        <ele>153.7</ele>
        <time>2024-03-30T16:16:42.000Z</time>
      </trkpt>
      <trkpt lat="48.10191" lon="3.29061">
        <ele>153.1</ele>
        <time>2024-03-30T16:16:44.000Z</time>
      </trkpt>
      <trkpt lat="48.10193" lon="3.29054">
        <ele>152.7</ele>
        <time>2024-03-30T16:16:45.000Z</time>
      </trkpt>
      <trkpt lat="48.10195" lon="3.29048">
        <ele>152.2</ele>
        <time>2024-03-30T16:16:46.000Z</time>
      </trkpt>
      <trkpt lat="48.10198" lon="3.29043">
        <ele>151.7</ele>
        <time>2024-03-30T16:16:47.000Z</time>
      </trkpt>
      <trkpt lat="48.10203" lon="3.29038">
        <ele>151.3</ele>
        <time>2024-03-30T16:16:48.000Z</time>
      </trkpt>
      <trkpt lat="48.10205" lon="3.29033">
        <ele>150.9</ele>
        <time>2024-03-30T16:16:49.000Z</time>
      </trkpt>
      <trkpt lat="48.10207" lon="3.29021">
        <ele>149.7</ele>
        <time>2024-03-30T16:16:51.000Z</time>
      </trkpt>
      <trkpt lat="48.10209" lon="3.29017">
        <ele>149.4</ele>
        <time>2024-03-30T16:16:52.000Z</time>
      </trkpt>
      <trkpt lat="48.10209" lon="3.29016">
        <ele>149.3</ele>
        <time>2024-03-30T16:16:53.000Z</time>
      </trkpt>
      <trkpt lat="48.10209" lon="3.29016">
        <ele>149.3</ele>
        <time>2024-03-30T16:16:56.000Z</time>
      </trkpt>
      <trkpt lat="48.10209" lon="3.29016">
        <ele>149.3</ele>
        <time>2024-03-30T16:16:59.000Z</time>
      </trkpt>
      <trkpt lat="48.10209" lon="3.29016">
        <ele>149.3</ele>
        <time>2024-03-30T16:17:00.000Z</time>
      </trkpt>
      <trkpt lat="48.10209" lon="3.29016">
        <ele>149.3</ele>
        <time>2024-03-30T16:17:01.000Z</time>
      </trkpt>
      <trkpt lat="48.10209" lon="3.29016">
        <ele>149.3</ele>
        <time>2024-03-30T16:17:02.000Z</time>
      </trkpt>
      <trkpt lat="48.10209" lon="3.29016">
        <ele>149.3</ele>
        <time>2024-03-30T16:17:10.000Z</time>
      </trkpt>
      <trkpt lat="48.10209" lon="3.29016">
        <ele>149.3</ele>
        <time>2024-03-30T16:17:20.000Z</time>
      </trkpt>
      <trkpt lat="48.10211" lon="3.29011">
        <ele>148.9</ele>
        <time>2024-03-30T16:17:32.000Z</time>
      </trkpt>
      <trkpt lat="48.10212" lon="3.29004">
        <ele>148.3</ele>
        <time>2024-03-30T16:17:35.000Z</time>
      </trkpt>
      <trkpt lat="48.10213" lon="3.29003">
        <ele>148.3</ele>
        <time>2024-03-30T16:17:36.000Z</time>
      </trkpt>
      <trkpt lat="48.10213" lon="3.29002">
        <ele>148.2</ele>
        <time>2024-03-30T16:17:38.000Z</time>
      </trkpt>
      <trkpt lat="48.10214" lon="3.28999">
        <ele>147.9</ele>
        <time>2024-03-30T16:17:42.000Z</time>
      </trkpt>
      <trkpt lat="48.10216" lon="3.28996">
        <ele>147.7</ele>
        <time>2024-03-30T16:17:44.000Z</time>
      </trkpt>
      <trkpt lat="48.10226" lon="3.28976">
        <ele>145.5</ele>
        <time>2024-03-30T16:17:49.000Z</time>
      </trkpt>
      <trkpt lat="48.10228" lon="3.28972">
        <ele>145</ele>
        <time>2024-03-30T16:17:50.000Z</time>
      </trkpt>
      <trkpt lat="48.1024" lon="3.28951">
        <ele>141.7</ele>
        <time>2024-03-30T16:17:56.000Z</time>
      </trkpt>
      <trkpt lat="48.10243" lon="3.28949">
        <ele>141.4</ele>
        <time>2024-03-30T16:17:57.000Z</time>
      </trkpt>
      <trkpt lat="48.10247" lon="3.28945">
        <ele>141</ele>
        <time>2024-03-30T16:17:59.000Z</time>
      </trkpt>
      <trkpt lat="48.10249" lon="3.28943">
        <ele>140.7</ele>
        <time>2024-03-30T16:18:00.000Z</time>
      </trkpt>
      <trkpt lat="48.1025" lon="3.28942">
        <ele>140.6</ele>
        <time>2024-03-30T16:18:01.000Z</time>
      </trkpt>
      <trkpt lat="48.1025" lon="3.28942">
        <ele>140.6</ele>
        <time>2024-03-30T16:18:02.000Z</time>
      </trkpt>
      <trkpt lat="48.1025" lon="3.28942">
        <ele>140.6</ele>
        <time>2024-03-30T16:18:04.000Z</time>
      </trkpt>
      <trkpt lat="48.1025" lon="3.28942">
        <ele>140.6</ele>
        <time>2024-03-30T16:18:07.000Z</time>
      </trkpt>
      <trkpt lat="48.1025" lon="3.28942">
        <ele>140.6</ele>
        <time>2024-03-30T16:18:12.000Z</time>
      </trkpt>
      <trkpt lat="48.1025" lon="3.28942">
        <ele>140.6</ele>
        <time>2024-03-30T16:18:13.000Z</time>
      </trkpt>
      <trkpt lat="48.1025" lon="3.28942">
        <ele>140.6</ele>
        <time>2024-03-30T16:18:48.000Z</time>
      </trkpt>
      <trkpt lat="48.1025" lon="3.28942">
        <ele>140.6</ele>
        <time>2024-03-30T16:19:06.000Z</time>
      </trkpt>
      <trkpt lat="48.10271" lon="3.28952">
        <ele>139.6</ele>
        <time>2024-03-30T16:19:12.000Z</time>
      </trkpt>
      <trkpt lat="48.10273" lon="3.28954">
        <ele>139.6</ele>
      </trkpt>
      <trkpt lat="48.1034" lon="3.29205">
        <ele>139.1</ele>
        <time>2024-03-30T16:36:03.000Z</time>
      </trkpt>
      <trkpt lat="48.1034" lon="3.29205">
        <ele>139.1</ele>
        <time>2024-03-30T16:36:04.000Z</time>
      </trkpt>
      <trkpt lat="48.1034" lon="3.29205">
        <ele>139.1</ele>
        <time>2024-03-30T16:36:13.000Z</time>
      </trkpt>
      <trkpt lat="48.1034" lon="3.29205">
        <ele>139.1</ele>
        <time>2024-03-30T16:36:39.000Z</time>
      </trkpt>
      <trkpt lat="48.1034" lon="3.29205">
        <ele>139.1</ele>
        <time>2024-03-30T16:36:45.000Z</time>
      </trkpt>
      <trkpt lat="48.10341" lon="3.29208">
        <ele>139</ele>
        <time>2024-03-30T16:36:48.000Z</time>
      </trkpt>
      <trkpt lat="48.10342" lon="3.29208">
        <ele>138.8</ele>
        <time>2024-03-30T16:36:49.000Z</time>
      </trkpt>
      <trkpt lat="48.10343" lon="3.2921">
        <ele>138.6</ele>
        <time>2024-03-30T16:36:50.000Z</time>
      </trkpt>
      <trkpt lat="48.10343" lon="3.29211">
        <ele>138.6</ele>
        <time>2024-03-30T16:36:51.000Z</time>
      </trkpt>
      <trkpt lat="48.10343" lon="3.29214">
        <ele>138.7</ele>
        <time>2024-03-30T16:36:52.000Z</time>
      </trkpt>
      <trkpt lat="48.10343" lon="3.29215">
        <ele>138.7</ele>
        <time>2024-03-30T16:36:53.000Z</time>
      </trkpt>
      <trkpt lat="48.10343" lon="3.29218">
        <ele>138.8</ele>
        <time>2024-03-30T16:36:54.000Z</time>
      </trkpt>
      <trkpt lat="48.10343" lon="3.29222">
        <ele>138.9</ele>
        <time>2024-03-30T16:36:56.000Z</time>
      </trkpt>
      <trkpt lat="48.10344" lon="3.29225">
        <ele>138.8</ele>
        <time>2024-03-30T16:36:57.000Z</time>
      </trkpt>
      <trkpt lat="48.10349" lon="3.29244">
        <ele>138.8</ele>
        <time>2024-03-30T16:37:02.000Z</time>
      </trkpt>
      <trkpt lat="48.10352" lon="3.29259">
        <ele>139</ele>
        <time>2024-03-30T16:37:06.000Z</time>
      </trkpt>
      <trkpt lat="48.10351" lon="3.29262">
        <ele>139.3</ele>
        <time>2024-03-30T16:37:07.000Z</time>
      </trkpt>
      <trkpt lat="48.10351" lon="3.29266">
        <ele>139.4</ele>
        <time>2024-03-30T16:37:08.000Z</time>
      </trkpt>
      <trkpt lat="48.10351" lon="3.29269">
        <ele>139.5</ele>
        <time>2024-03-30T16:37:09.000Z</time>
      </trkpt>
      <trkpt lat="48.10352" lon="3.29272">
        <ele>139.4</ele>
        <time>2024-03-30T16:37:10.000Z</time>
      </trkpt>
      <trkpt lat="48.10352" lon="3.29275">
        <ele>139.5</ele>
        <time>2024-03-30T16:37:11.000Z</time>
      </trkpt>
      <trkpt lat="48.10352" lon="3.29278">
        <ele>139.7</ele>
        <time>2024-03-30T16:37:12.000Z</time>
      </trkpt>
      <trkpt lat="48.10352" lon="3.29282">
        <ele>139.9</ele>
        <time>2024-03-30T16:37:13.000Z</time>
      </trkpt>
      <trkpt lat="48.10352" lon="3.29285">
        <ele>140.1</ele>
        <time>2024-03-30T16:37:14.000Z</time>
      </trkpt>
      <trkpt lat="48.10353" lon="3.2929">
        <ele>140.2</ele>
        <time>2024-03-30T16:37:15.000Z</time>
      </trkpt>
      <trkpt lat="48.10355" lon="3.29294">
        <ele>140.1</ele>
        <time>2024-03-30T16:37:16.000Z</time>
      </trkpt>
      <trkpt lat="48.10358" lon="3.29303">
        <ele>140.3</ele>
        <time>2024-03-30T16:37:18.000Z</time>
      </trkpt>
      <trkpt lat="48.10359" lon="3.29307">
        <ele>140.4</ele>
        <time>2024-03-30T16:37:19.000Z</time>
      </trkpt>
      <trkpt lat="48.10362" lon="3.29321">
        <ele>140.3</ele>
        <time>2024-03-30T16:37:22.000Z</time>
      </trkpt>
      <trkpt lat="48.10367" lon="3.29334">
        <ele>139.1</ele>
        <time>2024-03-30T16:37:26.000Z</time>
      </trkpt>
      <trkpt lat="48.10369" lon="3.2934">
        <ele>138.9</ele>
        <time>2024-03-30T16:37:28.000Z</time>
      </trkpt>
      <trkpt lat="48.10369" lon="3.29343">
        <ele>139.1</ele>
        <time>2024-03-30T16:37:29.000Z</time>
      </trkpt>
      <trkpt lat="48.1037" lon="3.29347">
        <ele>139.1</ele>
        <time>2024-03-30T16:37:30.000Z</time>
      </trkpt>
      <trkpt lat="48.1037" lon="3.2935">
        <ele>139.3</ele>
        <time>2024-03-30T16:37:31.000Z</time>
      </trkpt>
      <trkpt lat="48.10371" lon="3.29353">
        <ele>139.2</ele>
        <time>2024-03-30T16:37:32.000Z</time>
      </trkpt>
      <trkpt lat="48.10371" lon="3.29355">
        <ele>139.4</ele>
        <time>2024-03-30T16:37:33.000Z</time>
      </trkpt>
      <trkpt lat="48.10371" lon="3.29357">
        <ele>139.5</ele>
        <time>2024-03-30T16:37:34.000Z</time>
      </trkpt>
      <trkpt lat="48.10371" lon="3.29359">
        <ele>139.6</ele>
        <time>2024-03-30T16:37:35.000Z</time>
      </trkpt>
      <trkpt lat="48.10371" lon="3.29361">
        <ele>139.8</ele>
        <time>2024-03-30T16:37:36.000Z</time>
      </trkpt>
      <trkpt lat="48.10372" lon="3.29364">
        <ele>139.6</ele>
        <time>2024-03-30T16:37:37.000Z</time>
      </trkpt>
      <trkpt lat="48.10373" lon="3.29367">
        <ele>139.5</ele>
        <time>2024-03-30T16:37:38.000Z</time>
      </trkpt>
      <trkpt lat="48.10373" lon="3.2937">
        <ele>139.6</ele>
        <time>2024-03-30T16:37:39.000Z</time>
      </trkpt>
      <trkpt lat="48.10372" lon="3.29372">
        <ele>140</ele>
        <time>2024-03-30T16:37:40.000Z</time>
      </trkpt>
      <trkpt lat="48.10371" lon="3.29375">
        <ele>140.5</ele>
        <time>2024-03-30T16:37:41.000Z</time>
      </trkpt>
      <trkpt lat="48.10371" lon="3.29377">
        <ele>140.6</ele>
        <time>2024-03-30T16:37:42.000Z</time>
      </trkpt>
      <trkpt lat="48.10371" lon="3.29379">
        <ele>140.7</ele>
        <time>2024-03-30T16:37:43.000Z</time>
      </trkpt>
      <trkpt lat="48.10371" lon="3.29381">
        <ele>140.8</ele>
        <time>2024-03-30T16:37:44.000Z</time>
      </trkpt>
      <trkpt lat="48.10372" lon="3.29384">
        <ele>140.6</ele>
        <time>2024-03-30T16:37:45.000Z</time>
      </trkpt>
      <trkpt lat="48.10371" lon="3.29386">
        <ele>141</ele>
        <time>2024-03-30T16:37:46.000Z</time>
      </trkpt>
      <trkpt lat="48.1037" lon="3.29393">
        <ele>141.7</ele>
        <time>2024-03-30T16:37:49.000Z</time>
      </trkpt>
      <trkpt lat="48.1037" lon="3.29396">
        <ele>142</ele>
        <time>2024-03-30T16:37:50.000Z</time>
      </trkpt>
      <trkpt lat="48.10367" lon="3.29401">
        <ele>143.2</ele>
        <time>2024-03-30T16:37:52.000Z</time>
      </trkpt>
      <trkpt lat="48.10366" lon="3.29403">
        <ele>143.6</ele>
        <time>2024-03-30T16:37:53.000Z</time>
      </trkpt>
      <trkpt lat="48.10366" lon="3.29406">
        <ele>143.8</ele>
        <time>2024-03-30T16:37:54.000Z</time>
      </trkpt>
      <trkpt lat="48.10364" lon="3.29409">
        <ele>144.6</ele>
        <time>2024-03-30T16:37:55.000Z</time>
      </trkpt>
      <trkpt lat="48.10364" lon="3.29411">
        <ele>144.8</ele>
        <time>2024-03-30T16:37:56.000Z</time>
      </trkpt>
      <trkpt lat="48.10363" lon="3.29414">
        <ele>145.3</ele>
        <time>2024-03-30T16:37:57.000Z</time>
      </trkpt>
      <trkpt lat="48.10363" lon="3.29416">
        <ele>145.4</ele>
        <time>2024-03-30T16:37:58.000Z</time>
      </trkpt>
      <trkpt lat="48.10363" lon="3.29419">
        <ele>145.6</ele>
        <time>2024-03-30T16:37:59.000Z</time>
      </trkpt>
      <trkpt lat="48.10362" lon="3.29422">
        <ele>145.9</ele>
        <time>2024-03-30T16:38:00.000Z</time>
      </trkpt>
      <trkpt lat="48.10361" lon="3.29425">
        <ele>146.3</ele>
        <time>2024-03-30T16:38:01.000Z</time>
      </trkpt>
      <trkpt lat="48.10362" lon="3.29427">
        <ele>146.1</ele>
        <time>2024-03-30T16:38:02.000Z</time>
      </trkpt>
      <trkpt lat="48.10362" lon="3.29429">
        <ele>146.2</ele>
        <time>2024-03-30T16:38:03.000Z</time>
      </trkpt>
      <trkpt lat="48.10362" lon="3.29432">
        <ele>146.3</ele>
        <time>2024-03-30T16:38:04.000Z</time>
      </trkpt>
      <trkpt lat="48.10362" lon="3.29434">
        <ele>146.4</ele>
        <time>2024-03-30T16:38:05.000Z</time>
      </trkpt>
      <trkpt lat="48.1036" lon="3.29436">
        <ele>146.9</ele>
        <time>2024-03-30T16:38:06.000Z</time>
      </trkpt>
      <trkpt lat="48.1036" lon="3.29438">
        <ele>146.9</ele>
        <time>2024-03-30T16:38:07.000Z</time>
      </trkpt>
      <trkpt lat="48.10359" lon="3.29441">
        <ele>147.2</ele>
        <time>2024-03-30T16:38:08.000Z</time>
      </trkpt>
      <trkpt lat="48.1036" lon="3.29445">
        <ele>147.2</ele>
        <time>2024-03-30T16:38:09.000Z</time>
      </trkpt>
      <trkpt lat="48.1036" lon="3.29448">
        <ele>147.3</ele>
        <time>2024-03-30T16:38:10.000Z</time>
      </trkpt>
      <trkpt lat="48.10361" lon="3.29451">
        <ele>147.3</ele>
        <time>2024-03-30T16:38:11.000Z</time>
      </trkpt>
      <trkpt lat="48.10363" lon="3.29453">
        <ele>146.9</ele>
        <time>2024-03-30T16:38:12.000Z</time>
      </trkpt>
      <trkpt lat="48.10365" lon="3.29454">
        <ele>146.6</ele>
        <time>2024-03-30T16:38:13.000Z</time>
      </trkpt>
      <trkpt lat="48.10366" lon="3.29457">
        <ele>146.5</ele>
        <time>2024-03-30T16:38:14.000Z</time>
      </trkpt>
      <trkpt lat="48.10367" lon="3.29461">
        <ele>146.5</ele>
        <time>2024-03-30T16:38:15.000Z</time>
      </trkpt>
      <trkpt lat="48.10368" lon="3.29464">
        <ele>146.4</ele>
        <time>2024-03-30T16:38:16.000Z</time>
      </trkpt>
      <trkpt lat="48.10369" lon="3.29467">
        <ele>146.3</ele>
        <time>2024-03-30T16:38:17.000Z</time>
      </trkpt>
      <trkpt lat="48.1037" lon="3.29471">
        <ele>146.3</ele>
        <time>2024-03-30T16:38:18.000Z</time>
      </trkpt>
      <trkpt lat="48.10372" lon="3.29475">
        <ele>146.2</ele>
        <time>2024-03-30T16:38:19.000Z</time>
      </trkpt>
      <trkpt lat="48.10371" lon="3.29479">
        <ele>146.6</ele>
        <time>2024-03-30T16:38:20.000Z</time>
      </trkpt>
      <trkpt lat="48.10371" lon="3.29482">
        <ele>146.7</ele>
        <time>2024-03-30T16:38:21.000Z</time>
      </trkpt>
      <trkpt lat="48.10371" lon="3.29485">
        <ele>146.8</ele>
        <time>2024-03-30T16:38:22.000Z</time>
      </trkpt>
      <trkpt lat="48.1037" lon="3.29488">
        <ele>147.1</ele>
        <time>2024-03-30T16:38:23.000Z</time>
      </trkpt>
      <trkpt lat="48.1037" lon="3.29489">
        <ele>147.2</ele>
        <time>2024-03-30T16:38:24.000Z</time>
      </trkpt>
      <trkpt lat="48.10371" lon="3.2949">
        <ele>147.1</ele>
        <time>2024-03-30T16:38:25.000Z</time>
      </trkpt>
      <trkpt lat="48.1037" lon="3.29493">
        <ele>147.4</ele>
        <time>2024-03-30T16:38:26.000Z</time>
      </trkpt>
      <trkpt lat="48.10371" lon="3.29498">
        <ele>147.5</ele>
        <time>2024-03-30T16:38:27.000Z</time>
      </trkpt>
      <trkpt lat="48.10372" lon="3.29502">
        <ele>147.5</ele>
        <time>2024-03-30T16:38:28.000Z</time>
      </trkpt>
      <trkpt lat="48.10374" lon="3.29506">
        <ele>147.4</ele>
        <time>2024-03-30T16:38:29.000Z</time>
      </trkpt>
      <trkpt lat="48.10375" lon="3.29509">
        <ele>147.3</ele>
        <time>2024-03-30T16:38:30.000Z</time>
      </trkpt>
      <trkpt lat="48.10377" lon="3.29512">
        <ele>147.1</ele>
        <time>2024-03-30T16:38:31.000Z</time>
      </trkpt>
      <trkpt lat="48.10387" lon="3.29527">
        <ele>146.2</ele>
        <time>2024-03-30T16:38:35.000Z</time>
      </trkpt>
      <trkpt lat="48.10406" lon="3.29549">
        <ele>143.5</ele>
        <time>2024-03-30T16:38:40.000Z</time>
      </trkpt>
      <trkpt lat="48.10412" lon="3.29557">
        <ele>142.9</ele>
        <time>2024-03-30T16:38:41.000Z</time>
      </trkpt>
      <trkpt lat="48.10424" lon="3.29576">
        <ele>141.4</ele>
        <time>2024-03-30T16:38:43.000Z</time>
      </trkpt>
      <trkpt lat="48.10429" lon="3.29586">
        <ele>140.6</ele>
        <time>2024-03-30T16:38:44.000Z</time>
      </trkpt>
      <trkpt lat="48.10433" lon="3.29595">
        <ele>140.2</ele>
        <time>2024-03-30T16:38:45.000Z</time>
      </trkpt>
      <trkpt lat="48.10435" lon="3.29603">
        <ele>140.4</ele>
        <time>2024-03-30T16:38:46.000Z</time>
      </trkpt>
      <trkpt lat="48.10436" lon="3.29611">
        <ele>140.8</ele>
        <time>2024-03-30T16:38:47.000Z</time>
      </trkpt>
      <trkpt lat="48.10437" lon="3.2962">
        <ele>141.2</ele>
        <time>2024-03-30T16:38:48.000Z</time>
      </trkpt>
      <trkpt lat="48.10438" lon="3.29628">
        <ele>141.5</ele>
        <time>2024-03-30T16:38:49.000Z</time>
      </trkpt>
      <trkpt lat="48.1044" lon="3.29635">
        <ele>141.5</ele>
        <time>2024-03-30T16:38:50.000Z</time>
      </trkpt>
      <trkpt lat="48.10443" lon="3.29642">
        <ele>141.4</ele>
        <time>2024-03-30T16:38:51.000Z</time>
      </trkpt>
      <trkpt lat="48.10446" lon="3.29649">
        <ele>140.9</ele>
        <time>2024-03-30T16:38:52.000Z</time>
      </trkpt>
      <trkpt lat="48.10448" lon="3.29657">
        <ele>140.7</ele>
        <time>2024-03-30T16:38:53.000Z</time>
      </trkpt>
      <trkpt lat="48.1045" lon="3.29664">
        <ele>140.5</ele>
        <time>2024-03-30T16:38:54.000Z</time>
      </trkpt>
      <trkpt lat="48.1045" lon="3.29669">
        <ele>140.6</ele>
        <time>2024-03-30T16:38:55.000Z</time>
      </trkpt>
      <trkpt lat="48.1045" lon="3.29676">
        <ele>140.7</ele>
        <time>2024-03-30T16:38:56.000Z</time>
      </trkpt>
      <trkpt lat="48.10448" lon="3.29685">
        <ele>141.2</ele>
        <time>2024-03-30T16:38:57.000Z</time>
      </trkpt>
      <trkpt lat="48.10448" lon="3.29693">
        <ele>141.2</ele>
        <time>2024-03-30T16:38:58.000Z</time>
      </trkpt>
      <trkpt lat="48.1045" lon="3.2971">
        <ele>141.5</ele>
        <time>2024-03-30T16:39:00.000Z</time>
      </trkpt>
      <trkpt lat="48.10452" lon="3.2972">
        <ele>141.5</ele>
        <time>2024-03-30T16:39:01.000Z</time>
      </trkpt>
      <trkpt lat="48.10453" lon="3.29727">
        <ele>141.6</ele>
        <time>2024-03-30T16:39:02.000Z</time>
      </trkpt>
      <trkpt lat="48.10455" lon="3.2974">
        <ele>141.7</ele>
        <time>2024-03-30T16:39:04.000Z</time>
      </trkpt>
      <trkpt lat="48.10456" lon="3.29747">
        <ele>141.8</ele>
        <time>2024-03-30T16:39:05.000Z</time>
      </trkpt>
      <trkpt lat="48.10457" lon="3.29753">
        <ele>141.8</ele>
        <time>2024-03-30T16:39:06.000Z</time>
      </trkpt>
      <trkpt lat="48.10458" lon="3.2976">
        <ele>141.9</ele>
        <time>2024-03-30T16:39:07.000Z</time>
      </trkpt>
      <trkpt lat="48.10461" lon="3.29767">
        <ele>141.6</ele>
        <time>2024-03-30T16:39:08.000Z</time>
      </trkpt>
      <trkpt lat="48.10466" lon="3.29782">
        <ele>141.4</ele>
        <time>2024-03-30T16:39:10.000Z</time>
      </trkpt>
      <trkpt lat="48.10467" lon="3.29788">
        <ele>141.6</ele>
        <time>2024-03-30T16:39:11.000Z</time>
      </trkpt>
      <trkpt lat="48.10471" lon="3.29801">
        <ele>141.9</ele>
        <time>2024-03-30T16:39:13.000Z</time>
      </trkpt>
      <trkpt lat="48.10474" lon="3.29808">
        <ele>141.7</ele>
        <time>2024-03-30T16:39:14.000Z</time>
      </trkpt>
      <trkpt lat="48.10481" lon="3.29844">
        <ele>141.6</ele>
        <time>2024-03-30T16:39:20.000Z</time>
      </trkpt>
      <trkpt lat="48.10482" lon="3.29848">
        <ele>141.6</ele>
        <time>2024-03-30T16:39:21.000Z</time>
      </trkpt>
      <trkpt lat="48.10482" lon="3.29853">
        <ele>141.8</ele>
        <time>2024-03-30T16:39:22.000Z</time>
      </trkpt>
      <trkpt lat="48.10483" lon="3.29857">
        <ele>141.9</ele>
        <time>2024-03-30T16:39:23.000Z</time>
      </trkpt>
      <trkpt lat="48.10484" lon="3.29861">
        <ele>141.9</ele>
        <time>2024-03-30T16:39:24.000Z</time>
      </trkpt>
      <trkpt lat="48.10485" lon="3.29865">
        <ele>141.8</ele>
        <time>2024-03-30T16:39:25.000Z</time>
      </trkpt>
      <trkpt lat="48.10486" lon="3.29869">
        <ele>141.7</ele>
        <time>2024-03-30T16:39:26.000Z</time>
      </trkpt>
      <trkpt lat="48.10488" lon="3.29877">
        <ele>141.5</ele>
        <time>2024-03-30T16:39:28.000Z</time>
      </trkpt>
      <trkpt lat="48.1049" lon="3.29889">
        <ele>141.4</ele>
        <time>2024-03-30T16:39:31.000Z</time>
      </trkpt>
      <trkpt lat="48.10492" lon="3.29892">
        <ele>141.3</ele>
        <time>2024-03-30T16:39:32.000Z</time>
      </trkpt>
      <trkpt lat="48.10494" lon="3.29895">
        <ele>141.1</ele>
        <time>2024-03-30T16:39:33.000Z</time>
      </trkpt>
      <trkpt lat="48.10503" lon="3.29898">
        <ele>139.8</ele>
        <time>2024-03-30T16:39:35.000Z</time>
      </trkpt>
      <trkpt lat="48.10508" lon="3.29898">
        <ele>139</ele>
        <time>2024-03-30T16:39:36.000Z</time>
      </trkpt>
      <trkpt lat="48.10512" lon="3.29897">
        <ele>138.3</ele>
        <time>2024-03-30T16:39:37.000Z</time>
      </trkpt>
      <trkpt lat="48.10518" lon="3.29896">
        <ele>137.2</ele>
        <time>2024-03-30T16:39:38.000Z</time>
      </trkpt>
      <trkpt lat="48.10523" lon="3.29895">
        <ele>136.3</ele>
        <time>2024-03-30T16:39:39.000Z</time>
      </trkpt>
      <trkpt lat="48.10527" lon="3.29894">
        <ele>135.5</ele>
        <time>2024-03-30T16:39:40.000Z</time>
      </trkpt>
      <trkpt lat="48.10531" lon="3.29895">
        <ele>134.5</ele>
        <time>2024-03-30T16:39:41.000Z</time>
      </trkpt>
      <trkpt lat="48.10535" lon="3.29896">
        <ele>133.4</ele>
        <time>2024-03-30T16:39:42.000Z</time>
      </trkpt>
      <trkpt lat="48.10537" lon="3.29898">
        <ele>133</ele>
        <time>2024-03-30T16:39:43.000Z</time>
      </trkpt>
      <trkpt lat="48.1054" lon="3.29899">
        <ele>132.2</ele>
        <time>2024-03-30T16:39:44.000Z</time>
      </trkpt>
      <trkpt lat="48.10542" lon="3.29901">
        <ele>131.8</ele>
        <time>2024-03-30T16:39:45.000Z</time>
      </trkpt>
      <trkpt lat="48.10547" lon="3.29904">
        <ele>130.6</ele>
        <time>2024-03-30T16:39:47.000Z</time>
      </trkpt>
      <trkpt lat="48.10549" lon="3.29905">
        <ele>130</ele>
        <time>2024-03-30T16:39:48.000Z</time>
      </trkpt>
      <trkpt lat="48.1055" lon="3.29906">
        <ele>129.8</ele>
        <time>2024-03-30T16:39:49.000Z</time>
      </trkpt>
      <trkpt lat="48.10551" lon="3.29907">
        <ele>129.6</ele>
        <time>2024-03-30T16:39:50.000Z</time>
      </trkpt>
      <trkpt lat="48.10551" lon="3.29907">
        <ele>129.6</ele>
        <time>2024-03-30T16:39:51.000Z</time>
      </trkpt>
      <trkpt lat="48.10551" lon="3.29907">
        <ele>129.6</ele>
        <time>2024-03-30T16:39:52.000Z</time>
      </trkpt>
      <trkpt lat="48.10551" lon="3.29907">
        <ele>129.6</ele>
        <time>2024-03-30T16:39:54.000Z</time>
      </trkpt>
      <trkpt lat="48.10551" lon="3.29907">
        <ele>129.6</ele>
        <time>2024-03-30T16:39:55.000Z</time>
      </trkpt>
      <trkpt lat="48.10551" lon="3.29907">
        <ele>129.6</ele>
        <time>2024-03-30T16:39:58.000Z</time>
      </trkpt>
      <trkpt lat="48.10551" lon="3.29907">
        <ele>129.6</ele>
        <time>2024-03-30T16:40:05.000Z</time>
      </trkpt>
      <trkpt lat="48.10551" lon="3.29907">
        <ele>129.6</ele>
        <time>2024-03-30T16:40:21.000Z</time>
      </trkpt>
      <trkpt lat="48.10551" lon="3.29907">
        <ele>129.6</ele>
        <time>2024-03-30T16:40:31.000Z</time>
      </trkpt>
      <trkpt lat="48.10551" lon="3.29907">
        <ele>129.6</ele>
        <time>2024-03-30T16:40:50.000Z</time>
      </trkpt>
      <trkpt lat="48.10551" lon="3.29907">
        <ele>129.6</ele>
        <time>2024-03-30T16:41:08.000Z</time>
      </trkpt>
      <trkpt lat="48.10552" lon="3.29908">
        <ele>129.4</ele>
        <time>2024-03-30T16:41:23.000Z</time>
      </trkpt>
      <trkpt lat="48.10552" lon="3.29908">
        <ele>129.4</ele>
        <time>2024-03-30T16:41:30.000Z</time>
      </trkpt>
      <trkpt lat="48.10553" lon="3.2991">
        <ele>129.3</ele>
        <time>2024-03-30T16:41:31.000Z</time>
      </trkpt>
      <trkpt lat="48.10555" lon="3.29911">
        <ele>128.8</ele>
        <time>2024-03-30T16:41:32.000Z</time>
      </trkpt>
      <trkpt lat="48.10565" lon="3.29921">
        <ele>126.9</ele>
        <time>2024-03-30T16:41:37.000Z</time>
      </trkpt>
      <trkpt lat="48.10574" lon="3.29931">
        <ele>125.4</ele>
        <time>2024-03-30T16:41:40.000Z</time>
      </trkpt>
      <trkpt lat="48.10576" lon="3.29934">
        <ele>125.1</ele>
        <time>2024-03-30T16:41:41.000Z</time>
      </trkpt>
      <trkpt lat="48.10579" lon="3.29938">
        <ele>124.6</ele>
        <time>2024-03-30T16:41:42.000Z</time>
      </trkpt>
      <trkpt lat="48.10586" lon="3.29947">
        <ele>123.5</ele>
        <time>2024-03-30T16:41:44.000Z</time>
      </trkpt>
      <trkpt lat="48.1059" lon="3.29953">
        <ele>122.9</ele>
        <time>2024-03-30T16:41:45.000Z</time>
      </trkpt>
      <trkpt lat="48.10596" lon="3.29964">
        <ele>121.9</ele>
        <time>2024-03-30T16:41:47.000Z</time>
      </trkpt>
      <trkpt lat="48.10598" lon="3.29968">
        <ele>121.6</ele>
        <time>2024-03-30T16:41:48.000Z</time>
      </trkpt>
      <trkpt lat="48.106" lon="3.29971">
        <ele>121.1</ele>
        <time>2024-03-30T16:41:49.000Z</time>
      </trkpt>
      <trkpt lat="48.10601" lon="3.29974">
        <ele>121</ele>
        <time>2024-03-30T16:41:50.000Z</time>
      </trkpt>
      <trkpt lat="48.10602" lon="3.29975">
        <ele>120.7</ele>
        <time>2024-03-30T16:41:51.000Z</time>
      </trkpt>
      <trkpt lat="48.10604" lon="3.29977">
        <ele>120.2</ele>
        <time>2024-03-30T16:41:52.000Z</time>
      </trkpt>
      <trkpt lat="48.10606" lon="3.29979">
        <ele>119.7</ele>
        <time>2024-03-30T16:41:53.000Z</time>
      </trkpt>
      <trkpt lat="48.10607" lon="3.29981">
        <ele>119.5</ele>
        <time>2024-03-30T16:41:54.000Z</time>
      </trkpt>
      <trkpt lat="48.10607" lon="3.29981">
        <ele>119.5</ele>
        <time>2024-03-30T16:41:55.000Z</time>
      </trkpt>
      <trkpt lat="48.10607" lon="3.29981">
        <ele>119.5</ele>
        <time>2024-03-30T16:41:56.000Z</time>
      </trkpt>
      <trkpt lat="48.10607" lon="3.29981">
        <ele>119.5</ele>
        <time>2024-03-30T16:41:59.000Z</time>
      </trkpt>
      <trkpt lat="48.10607" lon="3.29981">
        <ele>119.5</ele>
        <time>2024-03-30T16:42:02.000Z</time>
      </trkpt>
      <trkpt lat="48.10608" lon="3.29982">
        <ele>119.2</ele>
        <time>2024-03-30T16:42:06.000Z</time>
      </trkpt>
      <trkpt lat="48.1061" lon="3.29985">
        <ele>118.8</ele>
        <time>2024-03-30T16:42:07.000Z</time>
      </trkpt>
      <trkpt lat="48.10613" lon="3.29989">
        <ele>118.3</ele>
        <time>2024-03-30T16:42:08.000Z</time>
      </trkpt>
      <trkpt lat="48.10616" lon="3.29994">
        <ele>117.9</ele>
        <time>2024-03-30T16:42:09.000Z</time>
      </trkpt>
      <trkpt lat="48.10631" lon="3.30019">
        <ele>115.8</ele>
        <time>2024-03-30T16:42:13.000Z</time>
      </trkpt>
      <trkpt lat="48.10632" lon="3.30022">
        <ele>115.6</ele>
        <time>2024-03-30T16:42:14.000Z</time>
      </trkpt>
      <trkpt lat="48.10632" lon="3.30022">
        <ele>115.6</ele>
        <time>2024-03-30T16:42:15.000Z</time>
      </trkpt>
      <trkpt lat="48.10632" lon="3.30022">
        <ele>115.6</ele>
        <time>2024-03-30T16:42:16.000Z</time>
      </trkpt>
      <trkpt lat="48.10632" lon="3.30022">
        <ele>115.6</ele>
        <time>2024-03-30T16:42:17.000Z</time>
      </trkpt>
      <trkpt lat="48.10632" lon="3.30022">
        <ele>115.6</ele>
        <time>2024-03-30T16:42:20.000Z</time>
      </trkpt>
      <trkpt lat="48.10631" lon="3.30022">
        <ele>115.9</ele>
        <time>2024-03-30T16:42:22.000Z</time>
      </trkpt>
      <trkpt lat="48.10631" lon="3.30023">
        <ele>115.9</ele>
        <time>2024-03-30T16:42:24.000Z</time>
      </trkpt>
      <trkpt lat="48.10631" lon="3.30023">
        <ele>115.9</ele>
        <time>2024-03-30T16:42:26.000Z</time>
      </trkpt>
      <trkpt lat="48.10631" lon="3.30023">
        <ele>115.9</ele>
        <time>2024-03-30T16:42:35.000Z</time>
      </trkpt>
      <trkpt lat="48.10632" lon="3.30024">
        <ele>115.7</ele>
        <time>2024-03-30T16:42:38.000Z</time>
      </trkpt>
      <trkpt lat="48.10633" lon="3.30026">
        <ele>115.5</ele>
        <time>2024-03-30T16:42:39.000Z</time>
      </trkpt>
      <trkpt lat="48.10633" lon="3.30028">
        <ele>115.5</ele>
        <time>2024-03-30T16:42:40.000Z</time>
      </trkpt>
      <trkpt lat="48.10633" lon="3.30029">
        <ele>115.5</ele>
        <time>2024-03-30T16:42:41.000Z</time>
      </trkpt>
      <trkpt lat="48.10633" lon="3.3003">
        <ele>115.6</ele>
        <time>2024-03-30T16:42:42.000Z</time>
      </trkpt>
      <trkpt lat="48.10633" lon="3.3003">
        <ele>115.6</ele>
        <time>2024-03-30T16:42:43.000Z</time>
      </trkpt>
      <trkpt lat="48.10633" lon="3.30031">
        <ele>115.6</ele>
        <time>2024-03-30T16:42:44.000Z</time>
      </trkpt>
      <trkpt lat="48.10633" lon="3.30031">
        <ele>115.6</ele>
        <time>2024-03-30T16:42:45.000Z</time>
      </trkpt>
      <trkpt lat="48.10633" lon="3.30031">
        <ele>115.6</ele>
        <time>2024-03-30T16:42:46.000Z</time>
      </trkpt>
      <trkpt lat="48.10633" lon="3.30031">
        <ele>115.6</ele>
        <time>2024-03-30T16:42:48.000Z</time>
      </trkpt>
      <trkpt lat="48.10633" lon="3.30031">
        <ele>115.6</ele>
        <time>2024-03-30T16:42:50.000Z</time>
      </trkpt>
      <trkpt lat="48.10633" lon="3.30031">
        <ele>115.6</ele>
        <time>2024-03-30T16:42:54.000Z</time>
      </trkpt>
      <trkpt lat="48.10635" lon="3.30032">
        <ele>115.1</ele>
        <time>2024-03-30T16:42:56.000Z</time>
      </trkpt>
      <trkpt lat="48.1064" lon="3.3003">
        <ele>113.9</ele>
        <time>2024-03-30T16:42:58.000Z</time>
      </trkpt>
      <trkpt lat="48.10642" lon="3.3003">
        <ele>113.6</ele>
        <time>2024-03-30T16:42:59.000Z</time>
      </trkpt>
      <trkpt lat="48.10645" lon="3.30029">
        <ele>113.2</ele>
        <time>2024-03-30T16:43:00.000Z</time>
      </trkpt>
      <trkpt lat="48.10649" lon="3.30026">
        <ele>112.5</ele>
        <time>2024-03-30T16:43:02.000Z</time>
      </trkpt>
      <trkpt lat="48.10655" lon="3.30024">
        <ele>111.6</ele>
        <time>2024-03-30T16:43:04.000Z</time>
      </trkpt>
      <trkpt lat="48.10658" lon="3.30023">
        <ele>111.1</ele>
        <time>2024-03-30T16:43:05.000Z</time>
      </trkpt>
      <trkpt lat="48.10661" lon="3.3002">
        <ele>110.6</ele>
        <time>2024-03-30T16:43:07.000Z</time>
      </trkpt>
      <trkpt lat="48.10664" lon="3.3002">
        <ele>110.1</ele>
        <time>2024-03-30T16:43:08.000Z</time>
      </trkpt>
      <trkpt lat="48.10668" lon="3.30021">
        <ele>109.7</ele>
        <time>2024-03-30T16:43:10.000Z</time>
      </trkpt>
      <trkpt lat="48.10671" lon="3.30026">
        <ele>109.6</ele>
        <time>2024-03-30T16:43:12.000Z</time>
      </trkpt>
      <trkpt lat="48.10673" lon="3.30029">
        <ele>109.6</ele>
        <time>2024-03-30T16:43:13.000Z</time>
      </trkpt>
      <trkpt lat="48.10674" lon="3.30034">
        <ele>109.7</ele>
        <time>2024-03-30T16:43:14.000Z</time>
      </trkpt>
      <trkpt lat="48.10676" lon="3.30037">
        <ele>109.7</ele>
        <time>2024-03-30T16:43:15.000Z</time>
      </trkpt>
      <trkpt lat="48.10679" lon="3.30041">
        <ele>109.6</ele>
        <time>2024-03-30T16:43:16.000Z</time>
      </trkpt>
      <trkpt lat="48.10682" lon="3.30047">
        <ele>109.6</ele>
        <time>2024-03-30T16:43:19.000Z</time>
      </trkpt>
      <trkpt lat="48.10685" lon="3.30052">
        <ele>109.6</ele>
        <time>2024-03-30T16:43:20.000Z</time>
      </trkpt>
      <trkpt lat="48.10686" lon="3.30058">
        <ele>109.7</ele>
        <time>2024-03-30T16:43:21.000Z</time>
      </trkpt>
      <trkpt lat="48.10688" lon="3.30064">
        <ele>109.8</ele>
        <time>2024-03-30T16:43:22.000Z</time>
      </trkpt>
      <trkpt lat="48.10689" lon="3.30068">
        <ele>109.8</ele>
        <time>2024-03-30T16:43:24.000Z</time>
      </trkpt>
      <trkpt lat="48.10687" lon="3.30071">
        <ele>110.1</ele>
        <time>2024-03-30T16:43:25.000Z</time>
      </trkpt>
      <trkpt lat="48.10686" lon="3.30072">
        <ele>110.2</ele>
        <time>2024-03-30T16:43:26.000Z</time>
      </trkpt>
      <trkpt lat="48.10686" lon="3.30074">
        <ele>110.3</ele>
        <time>2024-03-30T16:43:27.000Z</time>
      </trkpt>
      <trkpt lat="48.10685" lon="3.30076">
        <ele>110.4</ele>
        <time>2024-03-30T16:43:28.000Z</time>
      </trkpt>
      <trkpt lat="48.10684" lon="3.30078">
        <ele>110.6</ele>
        <time>2024-03-30T16:43:29.000Z</time>
      </trkpt>
      <trkpt lat="48.10683" lon="3.3008">
        <ele>110.7</ele>
        <time>2024-03-30T16:43:30.000Z</time>
      </trkpt>
      <trkpt lat="48.10683" lon="3.30082">
        <ele>110.8</ele>
        <time>2024-03-30T16:43:31.000Z</time>
      </trkpt>
      <trkpt lat="48.10683" lon="3.30084">
        <ele>110.8</ele>
        <time>2024-03-30T16:43:32.000Z</time>
      </trkpt>
      <trkpt lat="48.10683" lon="3.30085">
        <ele>110.9</ele>
        <time>2024-03-30T16:43:33.000Z</time>
      </trkpt>
      <trkpt lat="48.10682" lon="3.30087">
        <ele>111</ele>
        <time>2024-03-30T16:43:34.000Z</time>
      </trkpt>
      <trkpt lat="48.10681" lon="3.30089">
        <ele>111.2</ele>
        <time>2024-03-30T16:43:35.000Z</time>
      </trkpt>
      <trkpt lat="48.10681" lon="3.3009">
        <ele>111.2</ele>
        <time>2024-03-30T16:43:36.000Z</time>
      </trkpt>
      <trkpt lat="48.10681" lon="3.30091">
        <ele>111.2</ele>
        <time>2024-03-30T16:43:37.000Z</time>
      </trkpt>
      <trkpt lat="48.1068" lon="3.30093">
        <ele>111.4</ele>
        <time>2024-03-30T16:43:38.000Z</time>
      </trkpt>
      <trkpt lat="48.1068" lon="3.30095">
        <ele>111.5</ele>
        <time>2024-03-30T16:43:39.000Z</time>
      </trkpt>
      <trkpt lat="48.1068" lon="3.30097">
        <ele>111.5</ele>
        <time>2024-03-30T16:43:40.000Z</time>
      </trkpt>
      <trkpt lat="48.1068" lon="3.30099">
        <ele>111.6</ele>
        <time>2024-03-30T16:43:41.000Z</time>
      </trkpt>
      <trkpt lat="48.10679" lon="3.301">
        <ele>111.7</ele>
        <time>2024-03-30T16:43:42.000Z</time>
      </trkpt>
      <trkpt lat="48.10678" lon="3.30102">
        <ele>111.9</ele>
        <time>2024-03-30T16:43:43.000Z</time>
      </trkpt>
      <trkpt lat="48.10679" lon="3.30104">
        <ele>111.9</ele>
        <time>2024-03-30T16:43:44.000Z</time>
      </trkpt>
      <trkpt lat="48.10679" lon="3.30107">
        <ele>112</ele>
        <time>2024-03-30T16:43:45.000Z</time>
      </trkpt>
      <trkpt lat="48.10679" lon="3.30109">
        <ele>112</ele>
        <time>2024-03-30T16:43:46.000Z</time>
      </trkpt>
      <trkpt lat="48.10679" lon="3.30112">
        <ele>112.1</ele>
        <time>2024-03-30T16:43:48.000Z</time>
      </trkpt>
      <trkpt lat="48.1068" lon="3.30115">
        <ele>112.2</ele>
        <time>2024-03-30T16:43:49.000Z</time>
      </trkpt>
      <trkpt lat="48.1068" lon="3.30116">
        <ele>112.2</ele>
        <time>2024-03-30T16:43:50.000Z</time>
      </trkpt>
      <trkpt lat="48.10681" lon="3.30118">
        <ele>112.2</ele>
        <time>2024-03-30T16:43:51.000Z</time>
      </trkpt>
      <trkpt lat="48.10682" lon="3.30121">
        <ele>112.3</ele>
        <time>2024-03-30T16:43:52.000Z</time>
      </trkpt>
      <trkpt lat="48.10682" lon="3.30126">
        <ele>112.4</ele>
        <time>2024-03-30T16:43:54.000Z</time>
      </trkpt>
      <trkpt lat="48.10682" lon="3.30128">
        <ele>112.5</ele>
        <time>2024-03-30T16:43:55.000Z</time>
      </trkpt>
      <trkpt lat="48.10682" lon="3.30129">
        <ele>112.5</ele>
        <time>2024-03-30T16:43:56.000Z</time>
      </trkpt>
      <trkpt lat="48.10682" lon="3.3013">
        <ele>112.6</ele>
        <time>2024-03-30T16:43:57.000Z</time>
      </trkpt>
      <trkpt lat="48.10682" lon="3.3013">
        <ele>112.6</ele>
        <time>2024-03-30T16:43:58.000Z</time>
      </trkpt>
      <trkpt lat="48.10682" lon="3.3013">
        <ele>112.6</ele>
        <time>2024-03-30T16:43:59.000Z</time>
      </trkpt>
      <trkpt lat="48.10684" lon="3.30132">
        <ele>112.5</ele>
        <time>2024-03-30T16:44:00.000Z</time>
      </trkpt>
      <trkpt lat="48.10686" lon="3.30133">
        <ele>112.4</ele>
        <time>2024-03-30T16:44:01.000Z</time>
      </trkpt>
      <trkpt lat="48.10689" lon="3.30135">
        <ele>112.3</ele>
        <time>2024-03-30T16:44:02.000Z</time>
      </trkpt>
      <trkpt lat="48.1069" lon="3.30137">
        <ele>112.3</ele>
        <time>2024-03-30T16:44:03.000Z</time>
      </trkpt>
      <trkpt lat="48.10692" lon="3.30139">
        <ele>112.2</ele>
        <time>2024-03-30T16:44:04.000Z</time>
      </trkpt>
      <trkpt lat="48.10694" lon="3.30142">
        <ele>112</ele>
        <time>2024-03-30T16:44:05.000Z</time>
      </trkpt>
      <trkpt lat="48.10695" lon="3.30144">
        <ele>112</ele>
        <time>2024-03-30T16:44:06.000Z</time>
      </trkpt>
      <trkpt lat="48.10696" lon="3.30146">
        <ele>111.9</ele>
        <time>2024-03-30T16:44:07.000Z</time>
      </trkpt>
      <trkpt lat="48.10697" lon="3.30148">
        <ele>111.8</ele>
        <time>2024-03-30T16:44:08.000Z</time>
      </trkpt>
      <trkpt lat="48.10699" lon="3.30151">
        <ele>111.7</ele>
        <time>2024-03-30T16:44:09.000Z</time>
      </trkpt>
      <trkpt lat="48.10701" lon="3.30154">
        <ele>111.5</ele>
        <time>2024-03-30T16:44:10.000Z</time>
      </trkpt>
      <trkpt lat="48.10702" lon="3.30161">
        <ele>111.5</ele>
        <time>2024-03-30T16:44:12.000Z</time>
      </trkpt>
      <trkpt lat="48.10703" lon="3.30165">
        <ele>111.4</ele>
        <time>2024-03-30T16:44:13.000Z</time>
      </trkpt>
      <trkpt lat="48.10705" lon="3.30169">
        <ele>111.3</ele>
        <time>2024-03-30T16:44:14.000Z</time>
      </trkpt>
      <trkpt lat="48.10706" lon="3.30171">
        <ele>111.3</ele>
        <time>2024-03-30T16:44:15.000Z</time>
      </trkpt>
      <trkpt lat="48.10707" lon="3.30173">
        <ele>111.3</ele>
        <time>2024-03-30T16:44:16.000Z</time>
      </trkpt>
      <trkpt lat="48.10707" lon="3.30175">
        <ele>111.4</ele>
        <time>2024-03-30T16:44:17.000Z</time>
      </trkpt>
      <trkpt lat="48.10708" lon="3.30178">
        <ele>111.4</ele>
        <time>2024-03-30T16:44:18.000Z</time>
      </trkpt>
      <trkpt lat="48.1071" lon="3.30184">
        <ele>111.5</ele>
        <time>2024-03-30T16:44:20.000Z</time>
      </trkpt>
      <trkpt lat="48.1071" lon="3.30187">
        <ele>111.6</ele>
        <time>2024-03-30T16:44:21.000Z</time>
      </trkpt>
      <trkpt lat="48.10711" lon="3.30192">
        <ele>111.7</ele>
        <time>2024-03-30T16:44:23.000Z</time>
      </trkpt>
      <trkpt lat="48.10712" lon="3.30195">
        <ele>111.7</ele>
        <time>2024-03-30T16:44:24.000Z</time>
      </trkpt>
      <trkpt lat="48.10713" lon="3.30197">
        <ele>111.7</ele>
        <time>2024-03-30T16:44:25.000Z</time>
      </trkpt>
      <trkpt lat="48.10713" lon="3.30199">
        <ele>111.7</ele>
        <time>2024-03-30T16:44:26.000Z</time>
      </trkpt>
      <trkpt lat="48.10713" lon="3.30203">
        <ele>111.8</ele>
        <time>2024-03-30T16:44:28.000Z</time>
      </trkpt>
      <trkpt lat="48.10714" lon="3.30206">
        <ele>111.7</ele>
        <time>2024-03-30T16:44:29.000Z</time>
      </trkpt>
      <trkpt lat="48.10714" lon="3.30208">
        <ele>111.7</ele>
        <time>2024-03-30T16:44:30.000Z</time>
      </trkpt>
      <trkpt lat="48.10714" lon="3.30211">
        <ele>111.8</ele>
        <time>2024-03-30T16:44:31.000Z</time>
      </trkpt>
      <trkpt lat="48.10714" lon="3.30212">
        <ele>111.8</ele>
        <time>2024-03-30T16:44:32.000Z</time>
      </trkpt>
      <trkpt lat="48.10714" lon="3.30214">
        <ele>111.8</ele>
        <time>2024-03-30T16:44:33.000Z</time>
      </trkpt>
      <trkpt lat="48.10714" lon="3.30215">
        <ele>111.8</ele>
        <time>2024-03-30T16:44:34.000Z</time>
      </trkpt>
      <trkpt lat="48.10714" lon="3.30218">
        <ele>111.8</ele>
        <time>2024-03-30T16:44:36.000Z</time>
      </trkpt>
      <trkpt lat="48.10713" lon="3.3022">
        <ele>112</ele>
        <time>2024-03-30T16:44:37.000Z</time>
      </trkpt>
      <trkpt lat="48.10713" lon="3.30223">
        <ele>112</ele>
        <time>2024-03-30T16:44:38.000Z</time>
      </trkpt>
      <trkpt lat="48.10714" lon="3.30226">
        <ele>112</ele>
        <time>2024-03-30T16:44:39.000Z</time>
      </trkpt>
      <trkpt lat="48.10715" lon="3.30228">
        <ele>112</ele>
        <time>2024-03-30T16:44:40.000Z</time>
      </trkpt>
      <trkpt lat="48.10715" lon="3.3023">
        <ele>112.1</ele>
        <time>2024-03-30T16:44:41.000Z</time>
      </trkpt>
      <trkpt lat="48.10717" lon="3.30231">
        <ele>111.9</ele>
        <time>2024-03-30T16:44:42.000Z</time>
      </trkpt>
      <trkpt lat="48.10718" lon="3.30233">
        <ele>111.8</ele>
        <time>2024-03-30T16:44:43.000Z</time>
      </trkpt>
      <trkpt lat="48.10718" lon="3.30235">
        <ele>111.9</ele>
        <time>2024-03-30T16:44:44.000Z</time>
      </trkpt>
      <trkpt lat="48.10718" lon="3.30236">
        <ele>112</ele>
        <time>2024-03-30T16:44:45.000Z</time>
      </trkpt>
      <trkpt lat="48.10717" lon="3.30238">
        <ele>112.1</ele>
        <time>2024-03-30T16:44:46.000Z</time>
      </trkpt>
      <trkpt lat="48.10717" lon="3.3024">
        <ele>112.2</ele>
        <time>2024-03-30T16:44:47.000Z</time>
      </trkpt>
      <trkpt lat="48.10718" lon="3.30243">
        <ele>112.2</ele>
        <time>2024-03-30T16:44:48.000Z</time>
      </trkpt>
      <trkpt lat="48.1072" lon="3.30246">
        <ele>112.1</ele>
        <time>2024-03-30T16:44:49.000Z</time>
      </trkpt>
      <trkpt lat="48.1072" lon="3.30249">
        <ele>112.2</ele>
        <time>2024-03-30T16:44:50.000Z</time>
      </trkpt>
      <trkpt lat="48.1072" lon="3.30251">
        <ele>112.3</ele>
        <time>2024-03-30T16:44:51.000Z</time>
      </trkpt>
      <trkpt lat="48.10723" lon="3.30259">
        <ele>112.2</ele>
        <time>2024-03-30T16:44:54.000Z</time>
      </trkpt>
      <trkpt lat="48.10722" lon="3.30261">
        <ele>112.4</ele>
        <time>2024-03-30T16:44:55.000Z</time>
      </trkpt>
      <trkpt lat="48.10722" lon="3.30263">
        <ele>112.5</ele>
        <time>2024-03-30T16:44:56.000Z</time>
      </trkpt>
      <trkpt lat="48.10723" lon="3.30265">
        <ele>112.5</ele>
        <time>2024-03-30T16:44:57.000Z</time>
      </trkpt>
      <trkpt lat="48.10725" lon="3.30269">
        <ele>112.4</ele>
        <time>2024-03-30T16:44:58.000Z</time>
      </trkpt>
      <trkpt lat="48.10726" lon="3.30272">
        <ele>112.4</ele>
        <time>2024-03-30T16:44:59.000Z</time>
      </trkpt>
      <trkpt lat="48.10726" lon="3.30273">
        <ele>112.4</ele>
        <time>2024-03-30T16:45:00.000Z</time>
      </trkpt>
      <trkpt lat="48.10726" lon="3.30273">
        <ele>112.4</ele>
        <time>2024-03-30T16:45:01.000Z</time>
      </trkpt>
      <trkpt lat="48.10726" lon="3.30273">
        <ele>112.4</ele>
        <time>2024-03-30T16:45:05.000Z</time>
      </trkpt>
      <trkpt lat="48.10726" lon="3.30273">
        <ele>112.4</ele>
        <time>2024-03-30T16:45:06.000Z</time>
      </trkpt>
      <trkpt lat="48.10726" lon="3.30275">
        <ele>112.5</ele>
        <time>2024-03-30T16:45:13.000Z</time>
      </trkpt>
      <trkpt lat="48.10728" lon="3.30278">
        <ele>112.4</ele>
        <time>2024-03-30T16:45:14.000Z</time>
      </trkpt>
      <trkpt lat="48.10728" lon="3.3028">
        <ele>112.5</ele>
        <time>2024-03-30T16:45:15.000Z</time>
      </trkpt>
      <trkpt lat="48.1073" lon="3.30286">
        <ele>112.5</ele>
        <time>2024-03-30T16:45:17.000Z</time>
      </trkpt>
      <trkpt lat="48.1073" lon="3.30288">
        <ele>112.5</ele>
        <time>2024-03-30T16:45:18.000Z</time>
      </trkpt>
      <trkpt lat="48.10731" lon="3.30291">
        <ele>112.5</ele>
        <time>2024-03-30T16:45:19.000Z</time>
      </trkpt>
      <trkpt lat="48.10732" lon="3.30294">
        <ele>112.5</ele>
        <time>2024-03-30T16:45:20.000Z</time>
      </trkpt>
      <trkpt lat="48.10734" lon="3.30302">
        <ele>112.6</ele>
        <time>2024-03-30T16:45:23.000Z</time>
      </trkpt>
      <trkpt lat="48.10734" lon="3.30305">
        <ele>112.7</ele>
        <time>2024-03-30T16:45:24.000Z</time>
      </trkpt>
      <trkpt lat="48.10734" lon="3.30306">
        <ele>112.8</ele>
        <time>2024-03-30T16:45:25.000Z</time>
      </trkpt>
      <trkpt lat="48.10735" lon="3.30309">
        <ele>112.9</ele>
        <time>2024-03-30T16:45:26.000Z</time>
      </trkpt>
      <trkpt lat="48.10736" lon="3.30312">
        <ele>113</ele>
        <time>2024-03-30T16:45:27.000Z</time>
      </trkpt>
      <trkpt lat="48.10737" lon="3.30315">
        <ele>113.1</ele>
        <time>2024-03-30T16:45:28.000Z</time>
      </trkpt>
      <trkpt lat="48.1074" lon="3.30319">
        <ele>113</ele>
        <time>2024-03-30T16:45:29.000Z</time>
      </trkpt>
      <trkpt lat="48.1075" lon="3.30333">
        <ele>113</ele>
        <time>2024-03-30T16:45:32.000Z</time>
      </trkpt>
      <trkpt lat="48.10757" lon="3.30342">
        <ele>112.6</ele>
        <time>2024-03-30T16:45:34.000Z</time>
      </trkpt>
      <trkpt lat="48.10759" lon="3.30345">
        <ele>112.4</ele>
        <time>2024-03-30T16:45:35.000Z</time>
      </trkpt>
      <trkpt lat="48.1076" lon="3.30348">
        <ele>112.4</ele>
        <time>2024-03-30T16:45:36.000Z</time>
      </trkpt>
      <trkpt lat="48.10761" lon="3.30351">
        <ele>112.4</ele>
        <time>2024-03-30T16:45:37.000Z</time>
      </trkpt>
      <trkpt lat="48.10772" lon="3.30376">
        <ele>112.2</ele>
        <time>2024-03-30T16:45:42.000Z</time>
      </trkpt>
      <trkpt lat="48.10772" lon="3.30378">
        <ele>112.2</ele>
        <time>2024-03-30T16:45:43.000Z</time>
      </trkpt>
      <trkpt lat="48.10774" lon="3.30382">
        <ele>112.2</ele>
        <time>2024-03-30T16:45:44.000Z</time>
      </trkpt>
      <trkpt lat="48.10776" lon="3.30386">
        <ele>112.1</ele>
        <time>2024-03-30T16:45:45.000Z</time>
      </trkpt>
      <trkpt lat="48.10775" lon="3.3039">
        <ele>112.3</ele>
        <time>2024-03-30T16:45:46.000Z</time>
      </trkpt>
      <trkpt lat="48.10775" lon="3.30396">
        <ele>112.6</ele>
        <time>2024-03-30T16:45:47.000Z</time>
      </trkpt>
      <trkpt lat="48.10779" lon="3.30403">
        <ele>112.4</ele>
        <time>2024-03-30T16:45:49.000Z</time>
      </trkpt>
      <trkpt lat="48.10783" lon="3.30409">
        <ele>112.2</ele>
        <time>2024-03-30T16:45:51.000Z</time>
      </trkpt>
      <trkpt lat="48.10785" lon="3.30412">
        <ele>112.1</ele>
        <time>2024-03-30T16:45:52.000Z</time>
      </trkpt>
      <trkpt lat="48.10789" lon="3.30423">
        <ele>112</ele>
        <time>2024-03-30T16:45:56.000Z</time>
      </trkpt>
      <trkpt lat="48.1079" lon="3.30424">
        <ele>111.9</ele>
        <time>2024-03-30T16:45:57.000Z</time>
      </trkpt>
      <trkpt lat="48.1079" lon="3.30424">
        <ele>111.9</ele>
        <time>2024-03-30T16:45:58.000Z</time>
      </trkpt>
      <trkpt lat="48.1079" lon="3.30424">
        <ele>111.9</ele>
        <time>2024-03-30T16:46:02.000Z</time>
      </trkpt>
      <trkpt lat="48.1079" lon="3.30424">
        <ele>111.9</ele>
        <time>2024-03-30T16:46:09.000Z</time>
      </trkpt>
      <trkpt lat="48.1079" lon="3.30427">
        <ele>112.1</ele>
        <time>2024-03-30T16:46:18.000Z</time>
      </trkpt>
      <trkpt lat="48.10791" lon="3.30429">
        <ele>112</ele>
        <time>2024-03-30T16:46:20.000Z</time>
      </trkpt>
      <trkpt lat="48.10791" lon="3.30431">
        <ele>112.1</ele>
        <time>2024-03-30T16:46:21.000Z</time>
      </trkpt>
      <trkpt lat="48.10791" lon="3.30432">
        <ele>112.1</ele>
        <time>2024-03-30T16:46:22.000Z</time>
      </trkpt>
      <trkpt lat="48.10792" lon="3.30437">
        <ele>112.2</ele>
        <time>2024-03-30T16:46:25.000Z</time>
      </trkpt>
      <trkpt lat="48.10793" lon="3.30439">
        <ele>112.2</ele>
        <time>2024-03-30T16:46:26.000Z</time>
      </trkpt>
      <trkpt lat="48.10794" lon="3.30442">
        <ele>112.2</ele>
        <time>2024-03-30T16:46:27.000Z</time>
      </trkpt>
      <trkpt lat="48.10795" lon="3.30444">
        <ele>112.1</ele>
        <time>2024-03-30T16:46:28.000Z</time>
      </trkpt>
      <trkpt lat="48.10797" lon="3.30448">
        <ele>112.1</ele>
        <time>2024-03-30T16:46:30.000Z</time>
      </trkpt>
      <trkpt lat="48.10797" lon="3.30449">
        <ele>112.1</ele>
        <time>2024-03-30T16:46:31.000Z</time>
      </trkpt>
      <trkpt lat="48.10797" lon="3.3045">
        <ele>112.2</ele>
        <time>2024-03-30T16:46:32.000Z</time>
      </trkpt>
      <trkpt lat="48.10797" lon="3.30451">
        <ele>112.2</ele>
        <time>2024-03-30T16:46:34.000Z</time>
      </trkpt>
      <trkpt lat="48.10798" lon="3.30454">
        <ele>112.3</ele>
        <time>2024-03-30T16:46:35.000Z</time>
      </trkpt>
      <trkpt lat="48.10798" lon="3.30454">
        <ele>112.3</ele>
        <time>2024-03-30T16:46:36.000Z</time>
      </trkpt>
      <trkpt lat="48.10798" lon="3.30454">
        <ele>112.3</ele>
        <time>2024-03-30T16:46:37.000Z</time>
      </trkpt>
      <trkpt lat="48.108" lon="3.30462">
        <ele>112.4</ele>
        <time>2024-03-30T16:46:43.000Z</time>
      </trkpt>
      <trkpt lat="48.10803" lon="3.30466">
        <ele>112.1</ele>
        <time>2024-03-30T16:46:44.000Z</time>
      </trkpt>
      <trkpt lat="48.10805" lon="3.30469">
        <ele>112</ele>
        <time>2024-03-30T16:46:45.000Z</time>
      </trkpt>
      <trkpt lat="48.10807" lon="3.30472">
        <ele>111.9</ele>
        <time>2024-03-30T16:46:46.000Z</time>
      </trkpt>
      <trkpt lat="48.10812" lon="3.3048">
        <ele>111.8</ele>
        <time>2024-03-30T16:46:50.000Z</time>
      </trkpt>
      <trkpt lat="48.10812" lon="3.3048">
        <ele>111.8</ele>
        <time>2024-03-30T16:46:51.000Z</time>
      </trkpt>
      <trkpt lat="48.10812" lon="3.3048">
        <ele>111.8</ele>
        <time>2024-03-30T16:46:52.000Z</time>
      </trkpt>
      <trkpt lat="48.10812" lon="3.3048">
        <ele>111.8</ele>
        <time>2024-03-30T16:47:02.000Z</time>
      </trkpt>
      <trkpt lat="48.10813" lon="3.30482">
        <ele>111.8</ele>
        <time>2024-03-30T16:47:06.000Z</time>
      </trkpt>
      <trkpt lat="48.10813" lon="3.30483">
        <ele>111.9</ele>
        <time>2024-03-30T16:47:07.000Z</time>
      </trkpt>
      <trkpt lat="48.10813" lon="3.30483">
        <ele>111.9</ele>
        <time>2024-03-30T16:47:08.000Z</time>
      </trkpt>
      <trkpt lat="48.10813" lon="3.30483">
        <ele>111.9</ele>
        <time>2024-03-30T16:47:09.000Z</time>
      </trkpt>
      <trkpt lat="48.10814" lon="3.30483">
        <ele>111.8</ele>
        <time>2024-03-30T16:47:10.000Z</time>
      </trkpt>
      <trkpt lat="48.10814" lon="3.30483">
        <ele>111.8</ele>
        <time>2024-03-30T16:47:11.000Z</time>
      </trkpt>
      <trkpt lat="48.10814" lon="3.30483">
        <ele>111.8</ele>
        <time>2024-03-30T16:47:19.000Z</time>
      </trkpt>
      <trkpt lat="48.10814" lon="3.30483">
        <ele>111.8</ele>
        <time>2024-03-30T16:47:33.000Z</time>
      </trkpt>
      <trkpt lat="48.10813" lon="3.30483">
        <ele>111.9</ele>
        <time>2024-03-30T16:47:43.000Z</time>
      </trkpt>
      <trkpt lat="48.10814" lon="3.30485">
        <ele>111.9</ele>
        <time>2024-03-30T16:47:51.000Z</time>
      </trkpt>
      <trkpt lat="48.10814" lon="3.30487">
        <ele>111.9</ele>
        <time>2024-03-30T16:48:02.000Z</time>
      </trkpt>
      <trkpt lat="48.10815" lon="3.30487">
        <ele>111.9</ele>
        <time>2024-03-30T16:48:03.000Z</time>
      </trkpt>
      <trkpt lat="48.10815" lon="3.30488">
        <ele>111.9</ele>
        <time>2024-03-30T16:48:04.000Z</time>
      </trkpt>
      <trkpt lat="48.10816" lon="3.30489">
        <ele>111.9</ele>
        <time>2024-03-30T16:48:05.000Z</time>
      </trkpt>
      <trkpt lat="48.10817" lon="3.30492">
        <ele>111.9</ele>
        <time>2024-03-30T16:48:06.000Z</time>
      </trkpt>
      <trkpt lat="48.10817" lon="3.30493">
        <ele>111.9</ele>
        <time>2024-03-30T16:48:07.000Z</time>
      </trkpt>
      <trkpt lat="48.10817" lon="3.30494">
        <ele>112</ele>
        <time>2024-03-30T16:48:08.000Z</time>
      </trkpt>
      <trkpt lat="48.1082" lon="3.30497">
        <ele>111.9</ele>
        <time>2024-03-30T16:48:10.000Z</time>
      </trkpt>
      <trkpt lat="48.10823" lon="3.30499">
        <ele>111.7</ele>
        <time>2024-03-30T16:48:11.000Z</time>
      </trkpt>
      <trkpt lat="48.10825" lon="3.30503">
        <ele>111.7</ele>
        <time>2024-03-30T16:48:12.000Z</time>
      </trkpt>
      <trkpt lat="48.10827" lon="3.30507">
        <ele>111.8</ele>
        <time>2024-03-30T16:48:13.000Z</time>
      </trkpt>
      <trkpt lat="48.10828" lon="3.30511">
        <ele>111.9</ele>
        <time>2024-03-30T16:48:14.000Z</time>
      </trkpt>
      <trkpt lat="48.10828" lon="3.30513">
        <ele>111.9</ele>
        <time>2024-03-30T16:48:15.000Z</time>
      </trkpt>
      <trkpt lat="48.10828" lon="3.30513">
        <ele>111.9</ele>
        <time>2024-03-30T16:48:16.000Z</time>
      </trkpt>
      <trkpt lat="48.10828" lon="3.30514">
        <ele>112</ele>
        <time>2024-03-30T16:48:17.000Z</time>
      </trkpt>
      <trkpt lat="48.10829" lon="3.30514">
        <ele>111.9</ele>
        <time>2024-03-30T16:48:19.000Z</time>
      </trkpt>
      <trkpt lat="48.10829" lon="3.30514">
        <ele>111.9</ele>
        <time>2024-03-30T16:48:28.000Z</time>
      </trkpt>
      <trkpt lat="48.10829" lon="3.30514">
        <ele>111.9</ele>
        <time>2024-03-30T16:48:40.000Z</time>
      </trkpt>
      <trkpt lat="48.10829" lon="3.30514">
        <ele>111.9</ele>
        <time>2024-03-30T16:49:08.000Z</time>
      </trkpt>
      <trkpt lat="48.1083" lon="3.30518">
        <ele>112</ele>
        <time>2024-03-30T16:49:22.000Z</time>
      </trkpt>
      <trkpt lat="48.10831" lon="3.3052">
        <ele>111.9</ele>
        <time>2024-03-30T16:49:23.000Z</time>
      </trkpt>
      <trkpt lat="48.10831" lon="3.30523">
        <ele>112.1</ele>
        <time>2024-03-30T16:49:24.000Z</time>
      </trkpt>
      <trkpt lat="48.10832" lon="3.30531">
        <ele>112.3</ele>
        <time>2024-03-30T16:49:27.000Z</time>
      </trkpt>
      <trkpt lat="48.10833" lon="3.30535">
        <ele>112.3</ele>
        <time>2024-03-30T16:49:28.000Z</time>
      </trkpt>
      <trkpt lat="48.10834" lon="3.30541">
        <ele>112.4</ele>
        <time>2024-03-30T16:49:30.000Z</time>
      </trkpt>
      <trkpt lat="48.10837" lon="3.30563">
        <ele>113</ele>
        <time>2024-03-30T16:49:37.000Z</time>
      </trkpt>
      <trkpt lat="48.10835" lon="3.30576">
        <ele>113.6</ele>
        <time>2024-03-30T16:49:41.000Z</time>
      </trkpt>
      <trkpt lat="48.10835" lon="3.30578">
        <ele>113.7</ele>
        <time>2024-03-30T16:49:42.000Z</time>
      </trkpt>
      <trkpt lat="48.10834" lon="3.30581">
        <ele>113.9</ele>
        <time>2024-03-30T16:49:43.000Z</time>
      </trkpt>
      <trkpt lat="48.10834" lon="3.30584">
        <ele>114</ele>
        <time>2024-03-30T16:49:44.000Z</time>
      </trkpt>
      <trkpt lat="48.10834" lon="3.30587">
        <ele>114.1</ele>
        <time>2024-03-30T16:49:45.000Z</time>
      </trkpt>
      <trkpt lat="48.10833" lon="3.30589">
        <ele>114.2</ele>
        <time>2024-03-30T16:49:46.000Z</time>
      </trkpt>
      <trkpt lat="48.10834" lon="3.30596">
        <ele>114.4</ele>
        <time>2024-03-30T16:49:48.000Z</time>
      </trkpt>
      <trkpt lat="48.10834" lon="3.30599">
        <ele>114.5</ele>
        <time>2024-03-30T16:49:49.000Z</time>
      </trkpt>
      <trkpt lat="48.10835" lon="3.30602">
        <ele>114.6</ele>
        <time>2024-03-30T16:49:50.000Z</time>
      </trkpt>
      <trkpt lat="48.10836" lon="3.30605">
        <ele>114.6</ele>
        <time>2024-03-30T16:49:51.000Z</time>
      </trkpt>
      <trkpt lat="48.10836" lon="3.30608">
        <ele>114.7</ele>
        <time>2024-03-30T16:49:52.000Z</time>
      </trkpt>
      <trkpt lat="48.10837" lon="3.30611">
        <ele>114.7</ele>
        <time>2024-03-30T16:49:53.000Z</time>
      </trkpt>
      <trkpt lat="48.10839" lon="3.30617">
        <ele>114.8</ele>
        <time>2024-03-30T16:49:55.000Z</time>
      </trkpt>
      <trkpt lat="48.10841" lon="3.30622">
        <ele>114.9</ele>
        <time>2024-03-30T16:49:57.000Z</time>
      </trkpt>
      <trkpt lat="48.10844" lon="3.30637">
        <ele>115.5</ele>
        <time>2024-03-30T16:50:02.000Z</time>
      </trkpt>
      <trkpt lat="48.10844" lon="3.3064">
        <ele>115.7</ele>
        <time>2024-03-30T16:50:03.000Z</time>
      </trkpt>
      <trkpt lat="48.10844" lon="3.30642">
        <ele>115.9</ele>
        <time>2024-03-30T16:50:04.000Z</time>
      </trkpt>
      <trkpt lat="48.10843" lon="3.30644">
        <ele>116.1</ele>
        <time>2024-03-30T16:50:05.000Z</time>
      </trkpt>
      <trkpt lat="48.10842" lon="3.30647">
        <ele>116.4</ele>
        <time>2024-03-30T16:50:06.000Z</time>
      </trkpt>
      <trkpt lat="48.10842" lon="3.30649">
        <ele>116.6</ele>
        <time>2024-03-30T16:50:07.000Z</time>
      </trkpt>
      <trkpt lat="48.10841" lon="3.3065">
        <ele>116.7</ele>
        <time>2024-03-30T16:50:08.000Z</time>
      </trkpt>
      <trkpt lat="48.10841" lon="3.30652">
        <ele>116.9</ele>
        <time>2024-03-30T16:50:09.000Z</time>
      </trkpt>
      <trkpt lat="48.1084" lon="3.30654">
        <ele>117.1</ele>
        <time>2024-03-30T16:50:10.000Z</time>
      </trkpt>
      <trkpt lat="48.10839" lon="3.30655">
        <ele>117.3</ele>
        <time>2024-03-30T16:50:11.000Z</time>
      </trkpt>
      <trkpt lat="48.10839" lon="3.30656">
        <ele>117.4</ele>
        <time>2024-03-30T16:50:12.000Z</time>
      </trkpt>
      <trkpt lat="48.10839" lon="3.30657">
        <ele>117.5</ele>
        <time>2024-03-30T16:50:13.000Z</time>
      </trkpt>
      <trkpt lat="48.10838" lon="3.30659">
        <ele>117.8</ele>
        <time>2024-03-30T16:50:14.000Z</time>
      </trkpt>
      <trkpt lat="48.10838" lon="3.30661">
        <ele>118</ele>
        <time>2024-03-30T16:50:15.000Z</time>
      </trkpt>
      <trkpt lat="48.10837" lon="3.30662">
        <ele>118.1</ele>
        <time>2024-03-30T16:50:16.000Z</time>
      </trkpt>
      <trkpt lat="48.10837" lon="3.30664">
        <ele>118.3</ele>
        <time>2024-03-30T16:50:17.000Z</time>
      </trkpt>
      <trkpt lat="48.10836" lon="3.30667">
        <ele>118.7</ele>
        <time>2024-03-30T16:50:19.000Z</time>
      </trkpt>
      <trkpt lat="48.10836" lon="3.30669">
        <ele>118.9</ele>
        <time>2024-03-30T16:50:20.000Z</time>
      </trkpt>
      <trkpt lat="48.10834" lon="3.30671">
        <ele>119.2</ele>
        <time>2024-03-30T16:50:22.000Z</time>
      </trkpt>
      <trkpt lat="48.10833" lon="3.30673">
        <ele>119.5</ele>
        <time>2024-03-30T16:50:23.000Z</time>
      </trkpt>
      <trkpt lat="48.10833" lon="3.30675">
        <ele>119.6</ele>
        <time>2024-03-30T16:50:24.000Z</time>
      </trkpt>
      <trkpt lat="48.10832" lon="3.30677">
        <ele>119.9</ele>
        <time>2024-03-30T16:50:25.000Z</time>
      </trkpt>
      <trkpt lat="48.10831" lon="3.30678">
        <ele>120.1</ele>
        <time>2024-03-30T16:50:26.000Z</time>
      </trkpt>
      <trkpt lat="48.10831" lon="3.3068">
        <ele>120.2</ele>
        <time>2024-03-30T16:50:27.000Z</time>
      </trkpt>
      <trkpt lat="48.1083" lon="3.30681">
        <ele>120.4</ele>
        <time>2024-03-30T16:50:28.000Z</time>
      </trkpt>
      <trkpt lat="48.10829" lon="3.30682">
        <ele>120.6</ele>
        <time>2024-03-30T16:50:29.000Z</time>
      </trkpt>
      <trkpt lat="48.10829" lon="3.30684">
        <ele>120.7</ele>
        <time>2024-03-30T16:50:30.000Z</time>
      </trkpt>
      <trkpt lat="48.10829" lon="3.30684">
        <ele>120.7</ele>
        <time>2024-03-30T16:50:31.000Z</time>
      </trkpt>
      <trkpt lat="48.10829" lon="3.30685">
        <ele>120.8</ele>
        <time>2024-03-30T16:50:32.000Z</time>
      </trkpt>
      <trkpt lat="48.10828" lon="3.30686">
        <ele>121</ele>
        <time>2024-03-30T16:50:33.000Z</time>
      </trkpt>
      <trkpt lat="48.10828" lon="3.30688">
        <ele>121.1</ele>
        <time>2024-03-30T16:50:34.000Z</time>
      </trkpt>
      <trkpt lat="48.10827" lon="3.3069">
        <ele>121.4</ele>
        <time>2024-03-30T16:50:35.000Z</time>
      </trkpt>
      <trkpt lat="48.10826" lon="3.30691">
        <ele>121.5</ele>
        <time>2024-03-30T16:50:36.000Z</time>
      </trkpt>
      <trkpt lat="48.10826" lon="3.30693">
        <ele>121.7</ele>
        <time>2024-03-30T16:50:37.000Z</time>
      </trkpt>
      <trkpt lat="48.10826" lon="3.30695">
        <ele>121.8</ele>
        <time>2024-03-30T16:50:38.000Z</time>
      </trkpt>
      <trkpt lat="48.10826" lon="3.30696">
        <ele>121.9</ele>
        <time>2024-03-30T16:50:39.000Z</time>
      </trkpt>
      <trkpt lat="48.10826" lon="3.30698">
        <ele>122</ele>
        <time>2024-03-30T16:50:40.000Z</time>
      </trkpt>
      <trkpt lat="48.10826" lon="3.307">
        <ele>122.2</ele>
        <time>2024-03-30T16:50:41.000Z</time>
      </trkpt>
      <trkpt lat="48.10826" lon="3.30702">
        <ele>122.3</ele>
        <time>2024-03-30T16:50:42.000Z</time>
      </trkpt>
      <trkpt lat="48.10826" lon="3.30703">
        <ele>122.4</ele>
        <time>2024-03-30T16:50:43.000Z</time>
      </trkpt>
      <trkpt lat="48.10827" lon="3.30705">
        <ele>122.4</ele>
        <time>2024-03-30T16:50:44.000Z</time>
      </trkpt>
      <trkpt lat="48.10827" lon="3.30707">
        <ele>122.6</ele>
        <time>2024-03-30T16:50:45.000Z</time>
      </trkpt>
      <trkpt lat="48.10827" lon="3.30709">
        <ele>122.7</ele>
        <time>2024-03-30T16:50:46.000Z</time>
      </trkpt>
      <trkpt lat="48.10827" lon="3.30711">
        <ele>122.9</ele>
        <time>2024-03-30T16:50:47.000Z</time>
      </trkpt>
      <trkpt lat="48.10827" lon="3.30713">
        <ele>123</ele>
        <time>2024-03-30T16:50:48.000Z</time>
      </trkpt>
      <trkpt lat="48.10828" lon="3.30715">
        <ele>123.1</ele>
        <time>2024-03-30T16:50:49.000Z</time>
      </trkpt>
      <trkpt lat="48.10828" lon="3.30716">
        <ele>123.1</ele>
        <time>2024-03-30T16:50:50.000Z</time>
      </trkpt>
      <trkpt lat="48.10827" lon="3.30718">
        <ele>123.4</ele>
        <time>2024-03-30T16:50:51.000Z</time>
      </trkpt>
      <trkpt lat="48.10827" lon="3.30719">
        <ele>123.5</ele>
        <time>2024-03-30T16:50:52.000Z</time>
      </trkpt>
      <trkpt lat="48.10827" lon="3.30721">
        <ele>123.6</ele>
        <time>2024-03-30T16:50:53.000Z</time>
      </trkpt>
      <trkpt lat="48.10827" lon="3.30723">
        <ele>123.8</ele>
        <time>2024-03-30T16:50:54.000Z</time>
      </trkpt>
      <trkpt lat="48.10827" lon="3.30725">
        <ele>124</ele>
        <time>2024-03-30T16:50:55.000Z</time>
      </trkpt>
      <trkpt lat="48.10828" lon="3.30727">
        <ele>124.1</ele>
        <time>2024-03-30T16:50:56.000Z</time>
      </trkpt>
      <trkpt lat="48.10828" lon="3.30728">
        <ele>124.2</ele>
        <time>2024-03-30T16:50:57.000Z</time>
      </trkpt>
      <trkpt lat="48.10828" lon="3.30729">
        <ele>124.3</ele>
        <time>2024-03-30T16:50:58.000Z</time>
      </trkpt>
      <trkpt lat="48.10829" lon="3.3073">
        <ele>124.3</ele>
        <time>2024-03-30T16:50:59.000Z</time>
      </trkpt>
      <trkpt lat="48.10829" lon="3.30732">
        <ele>124.5</ele>
        <time>2024-03-30T16:51:00.000Z</time>
      </trkpt>
      <trkpt lat="48.10829" lon="3.30735">
        <ele>124.8</ele>
        <time>2024-03-30T16:51:01.000Z</time>
      </trkpt>
      <trkpt lat="48.1083" lon="3.30737">
        <ele>124.9</ele>
        <time>2024-03-30T16:51:02.000Z</time>
      </trkpt>
      <trkpt lat="48.1083" lon="3.30739">
        <ele>125.1</ele>
        <time>2024-03-30T16:51:03.000Z</time>
      </trkpt>
      <trkpt lat="48.1083" lon="3.3074">
        <ele>125.2</ele>
        <time>2024-03-30T16:51:04.000Z</time>
      </trkpt>
      <trkpt lat="48.1083" lon="3.30741">
        <ele>125.3</ele>
        <time>2024-03-30T16:51:05.000Z</time>
      </trkpt>
      <trkpt lat="48.1083" lon="3.30743">
        <ele>125.5</ele>
        <time>2024-03-30T16:51:06.000Z</time>
      </trkpt>
      <trkpt lat="48.10831" lon="3.30746">
        <ele>125.7</ele>
        <time>2024-03-30T16:51:07.000Z</time>
      </trkpt>
      <trkpt lat="48.10831" lon="3.30748">
        <ele>126</ele>
        <time>2024-03-30T16:51:08.000Z</time>
      </trkpt>
      <trkpt lat="48.10832" lon="3.3075">
        <ele>126.1</ele>
        <time>2024-03-30T16:51:09.000Z</time>
      </trkpt>
      <trkpt lat="48.10832" lon="3.30752">
        <ele>126.2</ele>
        <time>2024-03-30T16:51:10.000Z</time>
      </trkpt>
      <trkpt lat="48.10833" lon="3.30754">
        <ele>126.3</ele>
        <time>2024-03-30T16:51:11.000Z</time>
      </trkpt>
      <trkpt lat="48.10834" lon="3.30755">
        <ele>126.3</ele>
        <time>2024-03-30T16:51:12.000Z</time>
      </trkpt>
      <trkpt lat="48.10834" lon="3.30757">
        <ele>126.4</ele>
        <time>2024-03-30T16:51:13.000Z</time>
      </trkpt>
      <trkpt lat="48.10834" lon="3.30758">
        <ele>126.5</ele>
        <time>2024-03-30T16:51:14.000Z</time>
      </trkpt>
      <trkpt lat="48.10835" lon="3.3076">
        <ele>126.5</ele>
        <time>2024-03-30T16:51:15.000Z</time>
      </trkpt>
      <trkpt lat="48.10835" lon="3.30761">
        <ele>126.6</ele>
        <time>2024-03-30T16:51:16.000Z</time>
      </trkpt>
      <trkpt lat="48.10836" lon="3.30764">
        <ele>126.7</ele>
        <time>2024-03-30T16:51:17.000Z</time>
      </trkpt>
      <trkpt lat="48.10836" lon="3.30766">
        <ele>126.9</ele>
        <time>2024-03-30T16:51:18.000Z</time>
      </trkpt>
      <trkpt lat="48.10836" lon="3.30768">
        <ele>127</ele>
        <time>2024-03-30T16:51:19.000Z</time>
      </trkpt>
      <trkpt lat="48.10837" lon="3.30769">
        <ele>127</ele>
        <time>2024-03-30T16:51:20.000Z</time>
      </trkpt>
      <trkpt lat="48.10837" lon="3.30771">
        <ele>127.1</ele>
        <time>2024-03-30T16:51:21.000Z</time>
      </trkpt>
      <trkpt lat="48.10838" lon="3.30773">
        <ele>127.2</ele>
        <time>2024-03-30T16:51:22.000Z</time>
      </trkpt>
      <trkpt lat="48.10839" lon="3.30775">
        <ele>127.2</ele>
        <time>2024-03-30T16:51:23.000Z</time>
      </trkpt>
      <trkpt lat="48.10839" lon="3.30776">
        <ele>127.3</ele>
        <time>2024-03-30T16:51:24.000Z</time>
      </trkpt>
      <trkpt lat="48.1084" lon="3.30778">
        <ele>127.3</ele>
        <time>2024-03-30T16:51:25.000Z</time>
      </trkpt>
      <trkpt lat="48.1084" lon="3.3078">
        <ele>127.5</ele>
        <time>2024-03-30T16:51:26.000Z</time>
      </trkpt>
      <trkpt lat="48.1084" lon="3.30782">
        <ele>127.6</ele>
        <time>2024-03-30T16:51:27.000Z</time>
      </trkpt>
      <trkpt lat="48.1084" lon="3.30784">
        <ele>127.8</ele>
        <time>2024-03-30T16:51:28.000Z</time>
      </trkpt>
      <trkpt lat="48.10841" lon="3.30786">
        <ele>127.8</ele>
        <time>2024-03-30T16:51:29.000Z</time>
      </trkpt>
      <trkpt lat="48.10841" lon="3.30788">
        <ele>128</ele>
        <time>2024-03-30T16:51:30.000Z</time>
      </trkpt>
      <trkpt lat="48.10842" lon="3.3079">
        <ele>128.1</ele>
        <time>2024-03-30T16:51:31.000Z</time>
      </trkpt>
      <trkpt lat="48.10843" lon="3.30791">
        <ele>128.1</ele>
        <time>2024-03-30T16:51:32.000Z</time>
      </trkpt>
      <trkpt lat="48.10843" lon="3.30793">
        <ele>128.2</ele>
        <time>2024-03-30T16:51:33.000Z</time>
      </trkpt>
      <trkpt lat="48.10844" lon="3.30795">
        <ele>128.3</ele>
        <time>2024-03-30T16:51:34.000Z</time>
      </trkpt>
      <trkpt lat="48.10845" lon="3.30797">
        <ele>128.4</ele>
        <time>2024-03-30T16:51:35.000Z</time>
      </trkpt>
      <trkpt lat="48.10846" lon="3.30799">
        <ele>128.5</ele>
        <time>2024-03-30T16:51:36.000Z</time>
      </trkpt>
      <trkpt lat="48.10846" lon="3.30802">
        <ele>128.8</ele>
        <time>2024-03-30T16:51:37.000Z</time>
      </trkpt>
      <trkpt lat="48.10847" lon="3.30804">
        <ele>128.9</ele>
        <time>2024-03-30T16:51:38.000Z</time>
      </trkpt>
      <trkpt lat="48.10848" lon="3.30806">
        <ele>129</ele>
        <time>2024-03-30T16:51:39.000Z</time>
      </trkpt>
      <trkpt lat="48.10849" lon="3.30808">
        <ele>129.1</ele>
        <time>2024-03-30T16:51:40.000Z</time>
      </trkpt>
      <trkpt lat="48.10849" lon="3.30809">
        <ele>129.2</ele>
        <time>2024-03-30T16:51:41.000Z</time>
      </trkpt>
      <trkpt lat="48.1085" lon="3.30812">
        <ele>129.4</ele>
        <time>2024-03-30T16:51:42.000Z</time>
      </trkpt>
      <trkpt lat="48.10851" lon="3.30815">
        <ele>129.5</ele>
        <time>2024-03-30T16:51:43.000Z</time>
      </trkpt>
      <trkpt lat="48.10851" lon="3.30818">
        <ele>129.8</ele>
        <time>2024-03-30T16:51:44.000Z</time>
      </trkpt>
      <trkpt lat="48.10852" lon="3.3082">
        <ele>129.9</ele>
        <time>2024-03-30T16:51:45.000Z</time>
      </trkpt>
      <trkpt lat="48.10852" lon="3.30822">
        <ele>130</ele>
        <time>2024-03-30T16:51:46.000Z</time>
      </trkpt>
      <trkpt lat="48.10853" lon="3.30824">
        <ele>130.1</ele>
        <time>2024-03-30T16:51:47.000Z</time>
      </trkpt>
      <trkpt lat="48.10854" lon="3.30827">
        <ele>130.3</ele>
        <time>2024-03-30T16:51:48.000Z</time>
      </trkpt>
      <trkpt lat="48.10855" lon="3.30828">
        <ele>130.2</ele>
        <time>2024-03-30T16:51:49.000Z</time>
      </trkpt>
      <trkpt lat="48.10856" lon="3.30831">
        <ele>130.4</ele>
        <time>2024-03-30T16:51:50.000Z</time>
      </trkpt>
      <trkpt lat="48.10857" lon="3.30833">
        <ele>130.4</ele>
        <time>2024-03-30T16:51:51.000Z</time>
      </trkpt>
      <trkpt lat="48.10858" lon="3.30836">
        <ele>130.6</ele>
        <time>2024-03-30T16:51:52.000Z</time>
      </trkpt>
      <trkpt lat="48.10859" lon="3.30839">
        <ele>130.8</ele>
        <time>2024-03-30T16:51:53.000Z</time>
      </trkpt>
      <trkpt lat="48.10859" lon="3.30842">
        <ele>131.1</ele>
        <time>2024-03-30T16:51:54.000Z</time>
      </trkpt>
      <trkpt lat="48.1086" lon="3.30843">
        <ele>131.2</ele>
        <time>2024-03-30T16:51:55.000Z</time>
      </trkpt>
      <trkpt lat="48.1086" lon="3.30846">
        <ele>131.5</ele>
        <time>2024-03-30T16:51:56.000Z</time>
      </trkpt>
      <trkpt lat="48.10861" lon="3.30849">
        <ele>131.7</ele>
        <time>2024-03-30T16:51:57.000Z</time>
      </trkpt>
      <trkpt lat="48.10862" lon="3.30851">
        <ele>131.8</ele>
        <time>2024-03-30T16:51:58.000Z</time>
      </trkpt>
      <trkpt lat="48.10863" lon="3.30854">
        <ele>132</ele>
        <time>2024-03-30T16:51:59.000Z</time>
      </trkpt>
      <trkpt lat="48.10864" lon="3.30856">
        <ele>132.1</ele>
        <time>2024-03-30T16:52:00.000Z</time>
      </trkpt>
      <trkpt lat="48.10865" lon="3.30858">
        <ele>132.2</ele>
        <time>2024-03-30T16:52:01.000Z</time>
      </trkpt>
      <trkpt lat="48.10865" lon="3.30861">
        <ele>132.6</ele>
        <time>2024-03-30T16:52:02.000Z</time>
      </trkpt>
      <trkpt lat="48.10866" lon="3.30863">
        <ele>132.6</ele>
        <time>2024-03-30T16:52:03.000Z</time>
      </trkpt>
      <trkpt lat="48.10867" lon="3.30865">
        <ele>132.6</ele>
        <time>2024-03-30T16:52:04.000Z</time>
      </trkpt>
      <trkpt lat="48.10868" lon="3.30868">
        <ele>132.7</ele>
        <time>2024-03-30T16:52:05.000Z</time>
      </trkpt>
      <trkpt lat="48.10869" lon="3.3087">
        <ele>132.7</ele>
        <time>2024-03-30T16:52:06.000Z</time>
      </trkpt>
      <trkpt lat="48.1087" lon="3.30872">
        <ele>132.7</ele>
        <time>2024-03-30T16:52:07.000Z</time>
      </trkpt>
      <trkpt lat="48.10871" lon="3.30874">
        <ele>132.7</ele>
        <time>2024-03-30T16:52:08.000Z</time>
      </trkpt>
      <trkpt lat="48.10871" lon="3.30876">
        <ele>132.8</ele>
        <time>2024-03-30T16:52:09.000Z</time>
      </trkpt>
      <trkpt lat="48.10872" lon="3.30878">
        <ele>132.8</ele>
        <time>2024-03-30T16:52:10.000Z</time>
      </trkpt>
      <trkpt lat="48.10873" lon="3.30881">
        <ele>132.8</ele>
        <time>2024-03-30T16:52:11.000Z</time>
      </trkpt>
      <trkpt lat="48.10873" lon="3.30883">
        <ele>133</ele>
        <time>2024-03-30T16:52:12.000Z</time>
      </trkpt>
      <trkpt lat="48.10874" lon="3.30885">
        <ele>132.9</ele>
        <time>2024-03-30T16:52:13.000Z</time>
      </trkpt>
      <trkpt lat="48.10875" lon="3.30888">
        <ele>133</ele>
        <time>2024-03-30T16:52:14.000Z</time>
      </trkpt>
      <trkpt lat="48.10875" lon="3.3089">
        <ele>133.1</ele>
        <time>2024-03-30T16:52:15.000Z</time>
      </trkpt>
      <trkpt lat="48.10876" lon="3.30892">
        <ele>133.1</ele>
        <time>2024-03-30T16:52:16.000Z</time>
      </trkpt>
      <trkpt lat="48.10877" lon="3.30895">
        <ele>133.3</ele>
        <time>2024-03-30T16:52:17.000Z</time>
      </trkpt>
      <trkpt lat="48.10878" lon="3.30897">
        <ele>133.3</ele>
        <time>2024-03-30T16:52:18.000Z</time>
      </trkpt>
      <trkpt lat="48.10878" lon="3.30898">
        <ele>133.4</ele>
        <time>2024-03-30T16:52:19.000Z</time>
      </trkpt>
      <trkpt lat="48.10879" lon="3.309">
        <ele>133.5</ele>
        <time>2024-03-30T16:52:20.000Z</time>
      </trkpt>
      <trkpt lat="48.10881" lon="3.30902">
        <ele>133.4</ele>
        <time>2024-03-30T16:52:21.000Z</time>
      </trkpt>
      <trkpt lat="48.10882" lon="3.30905">
        <ele>133.6</ele>
        <time>2024-03-30T16:52:22.000Z</time>
      </trkpt>
      <trkpt lat="48.10883" lon="3.30908">
        <ele>133.8</ele>
        <time>2024-03-30T16:52:23.000Z</time>
      </trkpt>
      <trkpt lat="48.10884" lon="3.30909">
        <ele>133.7</ele>
        <time>2024-03-30T16:52:24.000Z</time>
      </trkpt>
      <trkpt lat="48.10885" lon="3.30912">
        <ele>133.9</ele>
        <time>2024-03-30T16:52:25.000Z</time>
      </trkpt>
      <trkpt lat="48.10886" lon="3.30914">
        <ele>134</ele>
        <time>2024-03-30T16:52:26.000Z</time>
      </trkpt>
      <trkpt lat="48.10887" lon="3.30917">
        <ele>134.2</ele>
        <time>2024-03-30T16:52:27.000Z</time>
      </trkpt>
      <trkpt lat="48.10888" lon="3.30919">
        <ele>134.3</ele>
        <time>2024-03-30T16:52:28.000Z</time>
      </trkpt>
      <trkpt lat="48.1089" lon="3.30923">
        <ele>134.3</ele>
        <time>2024-03-30T16:52:29.000Z</time>
      </trkpt>
      <trkpt lat="48.10891" lon="3.30926">
        <ele>134.3</ele>
        <time>2024-03-30T16:52:30.000Z</time>
      </trkpt>
      <trkpt lat="48.10892" lon="3.30928">
        <ele>134.3</ele>
        <time>2024-03-30T16:52:31.000Z</time>
      </trkpt>
      <trkpt lat="48.10894" lon="3.30931">
        <ele>134.1</ele>
        <time>2024-03-30T16:52:32.000Z</time>
      </trkpt>
      <trkpt lat="48.10902" lon="3.30949">
        <ele>133.9</ele>
        <time>2024-03-30T16:52:38.000Z</time>
      </trkpt>
      <trkpt lat="48.10914" lon="3.30975">
        <ele>133.5</ele>
        <time>2024-03-30T16:52:45.000Z</time>
      </trkpt>
      <trkpt lat="48.10927" lon="3.31001">
        <ele>131.5</ele>
        <time>2024-03-30T16:52:51.000Z</time>
      </trkpt>
      <trkpt lat="48.10939" lon="3.31023">
        <ele>130</ele>
        <time>2024-03-30T16:52:54.000Z</time>
      </trkpt>
      <trkpt lat="48.10944" lon="3.3103">
        <ele>129.2</ele>
        <time>2024-03-30T16:52:55.000Z</time>
      </trkpt>
      <trkpt lat="48.10959" lon="3.31055">
        <ele>127.3</ele>
        <time>2024-03-30T16:52:58.000Z</time>
      </trkpt>
      <trkpt lat="48.10964" lon="3.31062">
        <ele>126.5</ele>
        <time>2024-03-30T16:52:59.000Z</time>
      </trkpt>
      <trkpt lat="48.10969" lon="3.31069">
        <ele>125.6</ele>
        <time>2024-03-30T16:53:00.000Z</time>
      </trkpt>
      <trkpt lat="48.10974" lon="3.31075">
        <ele>124.7</ele>
        <time>2024-03-30T16:53:01.000Z</time>
      </trkpt>
      <trkpt lat="48.10977" lon="3.31079">
        <ele>124.2</ele>
        <time>2024-03-30T16:53:02.000Z</time>
      </trkpt>
      <trkpt lat="48.10979" lon="3.31081">
        <ele>123.8</ele>
        <time>2024-03-30T16:53:03.000Z</time>
      </trkpt>
      <trkpt lat="48.10981" lon="3.31082">
        <ele>123.4</ele>
        <time>2024-03-30T16:53:04.000Z</time>
      </trkpt>
      <trkpt lat="48.10983" lon="3.31084">
        <ele>123.1</ele>
        <time>2024-03-30T16:53:05.000Z</time>
      </trkpt>
      <trkpt lat="48.10983" lon="3.31085">
        <ele>123</ele>
        <time>2024-03-30T16:53:06.000Z</time>
      </trkpt>
      <trkpt lat="48.10984" lon="3.31086">
        <ele>122.9</ele>
        <time>2024-03-30T16:53:07.000Z</time>
      </trkpt>
      <trkpt lat="48.10986" lon="3.31087">
        <ele>122.5</ele>
        <time>2024-03-30T16:53:08.000Z</time>
      </trkpt>
      <trkpt lat="48.10986" lon="3.31088">
        <ele>122.5</ele>
        <time>2024-03-30T16:53:09.000Z</time>
      </trkpt>
      <trkpt lat="48.10986" lon="3.31089">
        <ele>122.5</ele>
        <time>2024-03-30T16:53:10.000Z</time>
      </trkpt>
      <trkpt lat="48.10987" lon="3.31091">
        <ele>122.4</ele>
        <time>2024-03-30T16:53:11.000Z</time>
      </trkpt>
      <trkpt lat="48.10989" lon="3.31094">
        <ele>122.1</ele>
        <time>2024-03-30T16:53:13.000Z</time>
      </trkpt>
      <trkpt lat="48.10989" lon="3.31095">
        <ele>122.1</ele>
        <time>2024-03-30T16:53:14.000Z</time>
      </trkpt>
      <trkpt lat="48.10989" lon="3.31095">
        <ele>122.1</ele>
        <time>2024-03-30T16:53:15.000Z</time>
      </trkpt>
      <trkpt lat="48.1099" lon="3.31097">
        <ele>121.9</ele>
        <time>2024-03-30T16:53:16.000Z</time>
      </trkpt>
      <trkpt lat="48.10991" lon="3.31098">
        <ele>121.8</ele>
        <time>2024-03-30T16:53:17.000Z</time>
      </trkpt>
      <trkpt lat="48.10997" lon="3.31108">
        <ele>121.2</ele>
        <time>2024-03-30T16:53:20.000Z</time>
      </trkpt>
      <trkpt lat="48.10999" lon="3.31114">
        <ele>121.3</ele>
        <time>2024-03-30T16:53:22.000Z</time>
      </trkpt>
      <trkpt lat="48.10999" lon="3.31116">
        <ele>121.5</ele>
        <time>2024-03-30T16:53:23.000Z</time>
      </trkpt>
      <trkpt lat="48.11" lon="3.31118">
        <ele>121.5</ele>
        <time>2024-03-30T16:53:24.000Z</time>
      </trkpt>
      <trkpt lat="48.11" lon="3.3112">
        <ele>121.6</ele>
        <time>2024-03-30T16:53:25.000Z</time>
      </trkpt>
      <trkpt lat="48.11001" lon="3.31121">
        <ele>121.7</ele>
        <time>2024-03-30T16:53:26.000Z</time>
      </trkpt>
      <trkpt lat="48.11001" lon="3.31123">
        <ele>121.8</ele>
        <time>2024-03-30T16:53:27.000Z</time>
      </trkpt>
      <trkpt lat="48.11002" lon="3.31125">
        <ele>121.9</ele>
        <time>2024-03-30T16:53:28.000Z</time>
      </trkpt>
      <trkpt lat="48.11002" lon="3.31125">
        <ele>121.9</ele>
        <time>2024-03-30T16:53:29.000Z</time>
      </trkpt>
      <trkpt lat="48.11002" lon="3.31125">
        <ele>121.9</ele>
        <time>2024-03-30T16:53:30.000Z</time>
      </trkpt>
      <trkpt lat="48.11002" lon="3.31125">
        <ele>121.9</ele>
        <time>2024-03-30T16:53:39.000Z</time>
      </trkpt>
      <trkpt lat="48.11002" lon="3.31125">
        <ele>121.9</ele>
        <time>2024-03-30T16:53:48.000Z</time>
      </trkpt>
      <trkpt lat="48.11002" lon="3.31125">
        <ele>121.9</ele>
        <time>2024-03-30T16:54:03.000Z</time>
      </trkpt>
      <trkpt lat="48.11004" lon="3.31132">
        <ele>122.3</ele>
        <time>2024-03-30T16:54:12.000Z</time>
      </trkpt>
      <trkpt lat="48.11004" lon="3.31139">
        <ele>122.9</ele>
        <time>2024-03-30T16:54:15.000Z</time>
      </trkpt>
      <trkpt lat="48.11005" lon="3.31141">
        <ele>123.1</ele>
        <time>2024-03-30T16:54:16.000Z</time>
      </trkpt>
      <trkpt lat="48.11006" lon="3.31145">
        <ele>123.5</ele>
        <time>2024-03-30T16:54:18.000Z</time>
      </trkpt>
      <trkpt lat="48.11007" lon="3.31147">
        <ele>123.7</ele>
        <time>2024-03-30T16:54:19.000Z</time>
      </trkpt>
      <trkpt lat="48.11007" lon="3.31149">
        <ele>123.9</ele>
        <time>2024-03-30T16:54:20.000Z</time>
      </trkpt>
      <trkpt lat="48.11007" lon="3.31149">
        <ele>123.9</ele>
        <time>2024-03-30T16:54:23.000Z</time>
      </trkpt>
      <trkpt lat="48.11007" lon="3.3115">
        <ele>124</ele>
        <time>2024-03-30T16:54:24.000Z</time>
      </trkpt>
      <trkpt lat="48.11009" lon="3.31151">
        <ele>124.1</ele>
        <time>2024-03-30T16:54:25.000Z</time>
      </trkpt>
      <trkpt lat="48.1101" lon="3.31151">
        <ele>124.1</ele>
        <time>2024-03-30T16:54:26.000Z</time>
      </trkpt>
      <trkpt lat="48.11011" lon="3.31151">
        <ele>124.1</ele>
        <time>2024-03-30T16:54:28.000Z</time>
      </trkpt>
      <trkpt lat="48.11011" lon="3.31151">
        <ele>124.1</ele>
        <time>2024-03-30T16:54:29.000Z</time>
      </trkpt>
      <trkpt lat="48.11012" lon="3.31152">
        <ele>124.2</ele>
        <time>2024-03-30T16:54:30.000Z</time>
      </trkpt>
      <trkpt lat="48.11013" lon="3.31152">
        <ele>124.2</ele>
        <time>2024-03-30T16:54:31.000Z</time>
      </trkpt>
      <trkpt lat="48.11013" lon="3.31154">
        <ele>124.4</ele>
        <time>2024-03-30T16:54:33.000Z</time>
      </trkpt>
      <trkpt lat="48.11014" lon="3.31154">
        <ele>124.4</ele>
        <time>2024-03-30T16:54:34.000Z</time>
      </trkpt>
      <trkpt lat="48.11014" lon="3.31154">
        <ele>124.4</ele>
        <time>2024-03-30T16:54:35.000Z</time>
      </trkpt>
      <trkpt lat="48.11014" lon="3.31154">
        <ele>124.4</ele>
        <time>2024-03-30T16:54:36.000Z</time>
      </trkpt>
      <trkpt lat="48.11014" lon="3.31154">
        <ele>124.4</ele>
        <time>2024-03-30T16:54:38.000Z</time>
      </trkpt>
      <trkpt lat="48.11014" lon="3.31154">
        <ele>124.4</ele>
        <time>2024-03-30T16:54:43.000Z</time>
      </trkpt>
      <trkpt lat="48.11015" lon="3.31154">
        <ele>124.4</ele>
        <time>2024-03-30T16:54:44.000Z</time>
      </trkpt>
      <trkpt lat="48.11015" lon="3.31153">
        <ele>124.3</ele>
        <time>2024-03-30T16:54:45.000Z</time>
      </trkpt>
      <trkpt lat="48.11016" lon="3.31148">
        <ele>123.6</ele>
        <time>2024-03-30T16:54:47.000Z</time>
      </trkpt>
      <trkpt lat="48.11017" lon="3.31146">
        <ele>123.3</ele>
        <time>2024-03-30T16:54:48.000Z</time>
      </trkpt>
      <trkpt lat="48.11018" lon="3.31145">
        <ele>123.2</ele>
        <time>2024-03-30T16:54:49.000Z</time>
      </trkpt>
      <trkpt lat="48.11018" lon="3.31144">
        <ele>123</ele>
        <time>2024-03-30T16:54:50.000Z</time>
      </trkpt>
      <trkpt lat="48.11019" lon="3.31144">
        <ele>123</ele>
        <time>2024-03-30T16:54:51.000Z</time>
      </trkpt>
      <trkpt lat="48.1102" lon="3.31144">
        <ele>123</ele>
        <time>2024-03-30T16:54:53.000Z</time>
      </trkpt>
      <trkpt lat="48.11022" lon="3.31144">
        <ele>122.9</ele>
        <time>2024-03-30T16:54:54.000Z</time>
      </trkpt>
      <trkpt lat="48.11024" lon="3.31143">
        <ele>122.7</ele>
        <time>2024-03-30T16:54:55.000Z</time>
      </trkpt>
      <trkpt lat="48.11025" lon="3.31143">
        <ele>122.7</ele>
        <time>2024-03-30T16:54:56.000Z</time>
      </trkpt>
      <trkpt lat="48.11026" lon="3.31143">
        <ele>122.6</ele>
        <time>2024-03-30T16:54:57.000Z</time>
      </trkpt>
      <trkpt lat="48.11027" lon="3.31143">
        <ele>122.6</ele>
        <time>2024-03-30T16:54:58.000Z</time>
      </trkpt>
      <trkpt lat="48.11029" lon="3.31143">
        <ele>122.6</ele>
        <time>2024-03-30T16:54:59.000Z</time>
      </trkpt>
      <trkpt lat="48.11032" lon="3.31143">
        <ele>122.6</ele>
        <time>2024-03-30T16:55:01.000Z</time>
      </trkpt>
      <trkpt lat="48.11034" lon="3.31141">
        <ele>122.3</ele>
        <time>2024-03-30T16:55:03.000Z</time>
      </trkpt>
      <trkpt lat="48.11036" lon="3.3114">
        <ele>122.1</ele>
        <time>2024-03-30T16:55:04.000Z</time>
      </trkpt>
      <trkpt lat="48.11037" lon="3.31139">
        <ele>122</ele>
        <time>2024-03-30T16:55:05.000Z</time>
      </trkpt>
      <trkpt lat="48.11039" lon="3.3114">
        <ele>122.1</ele>
        <time>2024-03-30T16:55:06.000Z</time>
      </trkpt>
      <trkpt lat="48.11045" lon="3.31138">
        <ele>121.9</ele>
        <time>2024-03-30T16:55:08.000Z</time>
      </trkpt>
      <trkpt lat="48.11049" lon="3.31135">
        <ele>121.6</ele>
        <time>2024-03-30T16:55:10.000Z</time>
      </trkpt>
      <trkpt lat="48.1105" lon="3.31132">
        <ele>121.3</ele>
        <time>2024-03-30T16:55:11.000Z</time>
      </trkpt>
      <trkpt lat="48.11051" lon="3.3113">
        <ele>121</ele>
        <time>2024-03-30T16:55:12.000Z</time>
      </trkpt>
      <trkpt lat="48.11051" lon="3.31128">
        <ele>120.8</ele>
        <time>2024-03-30T16:55:13.000Z</time>
      </trkpt>
      <trkpt lat="48.11049" lon="3.3112">
        <ele>120</ele>
        <time>2024-03-30T16:55:17.000Z</time>
      </trkpt>
      <trkpt lat="48.11049" lon="3.3112">
        <ele>120</ele>
        <time>2024-03-30T16:55:18.000Z</time>
      </trkpt>
      <trkpt lat="48.11049" lon="3.3112">
        <ele>120</ele>
        <time>2024-03-30T16:55:19.000Z</time>
      </trkpt>
      <trkpt lat="48.11049" lon="3.3112">
        <ele>120</ele>
        <time>2024-03-30T16:55:20.000Z</time>
      </trkpt>
      <trkpt lat="48.11048" lon="3.31119">
        <ele>119.9</ele>
        <time>2024-03-30T16:55:21.000Z</time>
      </trkpt>
      <trkpt lat="48.11045" lon="3.31109">
        <ele>118.8</ele>
        <time>2024-03-30T16:55:25.000Z</time>
      </trkpt>
      <trkpt lat="48.11046" lon="3.31108">
        <ele>118.7</ele>
        <time>2024-03-30T16:55:26.000Z</time>
      </trkpt>
      <trkpt lat="48.11046" lon="3.31108">
        <ele>118.7</ele>
        <time>2024-03-30T16:55:27.000Z</time>
      </trkpt>
      <trkpt lat="48.11046" lon="3.31108">
        <ele>118.7</ele>
        <time>2024-03-30T16:55:28.000Z</time>
      </trkpt>
      <trkpt lat="48.11046" lon="3.31107">
        <ele>118.7</ele>
        <time>2024-03-30T16:55:29.000Z</time>
      </trkpt>
      <trkpt lat="48.11047" lon="3.31104">
        <ele>118.4</ele>
        <time>2024-03-30T16:55:30.000Z</time>
      </trkpt>
      <trkpt lat="48.11051" lon="3.31091">
        <ele>117.1</ele>
        <time>2024-03-30T16:55:33.000Z</time>
      </trkpt>
      <trkpt lat="48.11054" lon="3.31086">
        <ele>116.4</ele>
        <time>2024-03-30T16:55:34.000Z</time>
      </trkpt>
      <trkpt lat="48.11056" lon="3.31083">
        <ele>116</ele>
        <time>2024-03-30T16:55:35.000Z</time>
      </trkpt>
      <trkpt lat="48.11058" lon="3.31081">
        <ele>115.7</ele>
        <time>2024-03-30T16:55:36.000Z</time>
      </trkpt>
      <trkpt lat="48.1106" lon="3.31078">
        <ele>115.5</ele>
        <time>2024-03-30T16:55:37.000Z</time>
      </trkpt>
      <trkpt lat="48.1106" lon="3.31077">
        <ele>115.4</ele>
        <time>2024-03-30T16:55:38.000Z</time>
      </trkpt>
      <trkpt lat="48.11062" lon="3.31075">
        <ele>115.2</ele>
        <time>2024-03-30T16:55:39.000Z</time>
      </trkpt>
      <trkpt lat="48.11063" lon="3.31073">
        <ele>115</ele>
        <time>2024-03-30T16:55:40.000Z</time>
      </trkpt>
      <trkpt lat="48.11065" lon="3.31072">
        <ele>114.8</ele>
        <time>2024-03-30T16:55:41.000Z</time>
      </trkpt>
      <trkpt lat="48.11067" lon="3.3107">
        <ele>114.6</ele>
        <time>2024-03-30T16:55:42.000Z</time>
      </trkpt>
      <trkpt lat="48.11067" lon="3.3107">
        <ele>114.6</ele>
        <time>2024-03-30T16:55:43.000Z</time>
      </trkpt>
      <trkpt lat="48.11067" lon="3.3107">
        <ele>114.6</ele>
        <time>2024-03-30T16:55:44.000Z</time>
      </trkpt>
      <trkpt lat="48.11067" lon="3.3107">
        <ele>114.6</ele>
        <time>2024-03-30T16:55:47.000Z</time>
      </trkpt>
      <trkpt lat="48.11067" lon="3.3107">
        <ele>114.6</ele>
        <time>2024-03-30T16:55:48.000Z</time>
      </trkpt>
      <trkpt lat="48.11067" lon="3.3107">
        <ele>114.6</ele>
        <time>2024-03-30T16:55:56.000Z</time>
      </trkpt>
      <trkpt lat="48.11067" lon="3.3107">
        <ele>114.6</ele>
        <time>2024-03-30T16:56:09.000Z</time>
      </trkpt>
      <trkpt lat="48.11069" lon="3.31067">
        <ele>114.3</ele>
        <time>2024-03-30T16:56:17.000Z</time>
      </trkpt>
      <trkpt lat="48.11069" lon="3.31067">
        <ele>114.3</ele>
        <time>2024-03-30T16:56:18.000Z</time>
      </trkpt>
      <trkpt lat="48.11069" lon="3.31067">
        <ele>114.3</ele>
        <time>2024-03-30T16:56:19.000Z</time>
      </trkpt>
      <trkpt lat="48.11072" lon="3.31066">
        <ele>114.2</ele>
        <time>2024-03-30T16:56:28.000Z</time>
      </trkpt>
      <trkpt lat="48.11077" lon="3.3106">
        <ele>113.5</ele>
        <time>2024-03-30T16:56:36.000Z</time>
      </trkpt>
      <trkpt lat="48.11078" lon="3.31059">
        <ele>113.4</ele>
        <time>2024-03-30T16:56:37.000Z</time>
      </trkpt>
      <trkpt lat="48.11079" lon="3.31057">
        <ele>113.3</ele>
        <time>2024-03-30T16:56:38.000Z</time>
      </trkpt>
      <trkpt lat="48.1108" lon="3.31057">
        <ele>113.2</ele>
        <time>2024-03-30T16:56:39.000Z</time>
      </trkpt>
      <trkpt lat="48.1108" lon="3.31057">
        <ele>113.2</ele>
        <time>2024-03-30T16:56:40.000Z</time>
      </trkpt>
      <trkpt lat="48.11088" lon="3.31061">
        <ele>113.1</ele>
        <time>2024-03-30T17:01:22.000Z</time>
      </trkpt>
      <trkpt lat="48.11089" lon="3.31062">
        <ele>113.1</ele>
        <time>2024-03-30T17:01:24.000Z</time>
      </trkpt>
      <trkpt lat="48.11091" lon="3.31065">
        <ele>113.1</ele>
      </trkpt>
      <trkpt lat="48.11095" lon="3.31072">
        <ele>113.3</ele>
        <time>2024-03-30T17:01:32.000Z</time>
      </trkpt>
      <trkpt lat="48.11096" lon="3.31073">
        <ele>113.3</ele>
        <time>2024-03-30T17:01:34.000Z</time>
      </trkpt>
      <trkpt lat="48.11097" lon="3.31075">
        <ele>113.4</ele>
        <time>2024-03-30T17:01:35.000Z</time>
      </trkpt>
      <trkpt lat="48.11098" lon="3.31076">
        <ele>113.4</ele>
        <time>2024-03-30T17:01:37.000Z</time>
      </trkpt>
      <trkpt lat="48.11103" lon="3.31084">
        <ele>113.6</ele>
        <time>2024-03-30T17:01:43.000Z</time>
      </trkpt>
      <trkpt lat="48.11105" lon="3.31086">
        <ele>113.6</ele>
        <time>2024-03-30T17:01:44.000Z</time>
      </trkpt>
      <trkpt lat="48.11107" lon="3.31089">
        <ele>113.7</ele>
        <time>2024-03-30T17:01:45.000Z</time>
      </trkpt>
      <trkpt lat="48.11111" lon="3.31094">
        <ele>113.8</ele>
        <time>2024-03-30T17:01:47.000Z</time>
      </trkpt>
      <trkpt lat="48.11122" lon="3.3111">
        <ele>113.7</ele>
        <time>2024-03-30T17:01:52.000Z</time>
      </trkpt>
      <trkpt lat="48.11146" lon="3.31137">
        <ele>113.1</ele>
        <time>2024-03-30T17:02:00.000Z</time>
      </trkpt>
      <trkpt lat="48.11149" lon="3.31139">
        <ele>112.9</ele>
        <time>2024-03-30T17:02:01.000Z</time>
      </trkpt>
      <trkpt lat="48.11152" lon="3.31141">
        <ele>112.7</ele>
        <time>2024-03-30T17:02:02.000Z</time>
      </trkpt>
      <trkpt lat="48.11153" lon="3.31143">
        <ele>112.7</ele>
        <time>2024-03-30T17:02:03.000Z</time>
      </trkpt>
      <trkpt lat="48.11155" lon="3.31145">
        <ele>112.6</ele>
        <time>2024-03-30T17:02:04.000Z</time>
      </trkpt>
      <trkpt lat="48.11164" lon="3.31158">
        <ele>112.6</ele>
        <time>2024-03-30T17:02:08.000Z</time>
      </trkpt>
      <trkpt lat="48.11167" lon="3.31162">
        <ele>112.6</ele>
        <time>2024-03-30T17:02:09.000Z</time>
      </trkpt>
      <trkpt lat="48.1117" lon="3.31165">
        <ele>112.5</ele>
        <time>2024-03-30T17:02:10.000Z</time>
      </trkpt>
      <trkpt lat="48.11173" lon="3.31169">
        <ele>112.4</ele>
        <time>2024-03-30T17:02:11.000Z</time>
      </trkpt>
      <trkpt lat="48.11177" lon="3.31174">
        <ele>112.1</ele>
        <time>2024-03-30T17:02:12.000Z</time>
      </trkpt>
      <trkpt lat="48.11183" lon="3.31184">
        <ele>111.9</ele>
        <time>2024-03-30T17:02:14.000Z</time>
      </trkpt>
      <trkpt lat="48.11184" lon="3.31185">
        <ele>111.8</ele>
        <time>2024-03-30T17:02:15.000Z</time>
      </trkpt>
      <trkpt lat="48.11184" lon="3.31185">
        <ele>111.8</ele>
        <time>2024-03-30T17:02:16.000Z</time>
      </trkpt>
      <trkpt lat="48.11185" lon="3.31186">
        <ele>111.7</ele>
        <time>2024-03-30T17:02:17.000Z</time>
      </trkpt>
      <trkpt lat="48.11191" lon="3.31193">
        <ele>111.3</ele>
        <time>2024-03-30T17:02:20.000Z</time>
      </trkpt>
      <trkpt lat="48.11197" lon="3.31202">
        <ele>111.3</ele>
        <time>2024-03-30T17:02:24.000Z</time>
      </trkpt>
      <trkpt lat="48.11198" lon="3.31203">
        <ele>111.2</ele>
        <time>2024-03-30T17:02:25.000Z</time>
      </trkpt>
      <trkpt lat="48.11204" lon="3.31208">
        <ele>110.9</ele>
        <time>2024-03-30T17:02:27.000Z</time>
      </trkpt>
      <trkpt lat="48.11212" lon="3.31218">
        <ele>110.8</ele>
        <time>2024-03-30T17:02:32.000Z</time>
      </trkpt>
      <trkpt lat="48.11214" lon="3.31219">
        <ele>110.7</ele>
        <time>2024-03-30T17:02:33.000Z</time>
      </trkpt>
      <trkpt lat="48.11216" lon="3.31218">
        <ele>110.4</ele>
        <time>2024-03-30T17:02:34.000Z</time>
      </trkpt>
      <trkpt lat="48.11217" lon="3.31216">
        <ele>110.1</ele>
        <time>2024-03-30T17:02:35.000Z</time>
      </trkpt>
      <trkpt lat="48.11218" lon="3.31214">
        <ele>109.9</ele>
        <time>2024-03-30T17:02:36.000Z</time>
      </trkpt>
      <trkpt lat="48.11219" lon="3.31212">
        <ele>109.6</ele>
        <time>2024-03-30T17:02:37.000Z</time>
      </trkpt>
      <trkpt lat="48.11219" lon="3.31212">
        <ele>109.6</ele>
        <time>2024-03-30T17:02:38.000Z</time>
      </trkpt>
      <trkpt lat="48.11219" lon="3.31211">
        <ele>109.5</ele>
        <time>2024-03-30T17:02:39.000Z</time>
      </trkpt>
      <trkpt lat="48.1122" lon="3.31211">
        <ele>109.4</ele>
        <time>2024-03-30T17:02:40.000Z</time>
      </trkpt>
      <trkpt lat="48.1122" lon="3.3121">
        <ele>109.4</ele>
        <time>2024-03-30T17:02:41.000Z</time>
      </trkpt>
      <trkpt lat="48.1122" lon="3.3121">
        <ele>109.4</ele>
        <time>2024-03-30T17:02:44.000Z</time>
      </trkpt>
      <trkpt lat="48.1122" lon="3.3121">
        <ele>109.4</ele>
        <time>2024-03-30T17:02:48.000Z</time>
      </trkpt>
      <trkpt lat="48.1122" lon="3.3121">
        <ele>109.4</ele>
        <time>2024-03-30T17:02:49.000Z</time>
      </trkpt>
      <trkpt lat="48.11221" lon="3.31201">
        <ele>108.6</ele>
        <time>2024-03-30T17:02:55.000Z</time>
      </trkpt>
      <trkpt lat="48.11225" lon="3.31175">
        <ele>107.1</ele>
        <time>2024-03-30T17:03:00.000Z</time>
      </trkpt>
      <trkpt lat="48.11226" lon="3.3117">
        <ele>106.8</ele>
        <time>2024-03-30T17:03:01.000Z</time>
      </trkpt>
      <trkpt lat="48.11228" lon="3.31165">
        <ele>106.5</ele>
        <time>2024-03-30T17:03:02.000Z</time>
      </trkpt>
      <trkpt lat="48.11229" lon="3.31159">
        <ele>106.2</ele>
        <time>2024-03-30T17:03:03.000Z</time>
      </trkpt>
      <trkpt lat="48.11231" lon="3.31149">
        <ele>105.7</ele>
        <time>2024-03-30T17:03:05.000Z</time>
      </trkpt>
      <trkpt lat="48.1123" lon="3.31137">
        <ele>105.4</ele>
        <time>2024-03-30T17:03:07.000Z</time>
      </trkpt>
      <trkpt lat="48.11229" lon="3.31132">
        <ele>105.3</ele>
        <time>2024-03-30T17:03:08.000Z</time>
      </trkpt>
      <trkpt lat="48.1123" lon="3.31126">
        <ele>105</ele>
        <time>2024-03-30T17:03:09.000Z</time>
      </trkpt>
      <trkpt lat="48.1123" lon="3.3112">
        <ele>104.8</ele>
        <time>2024-03-30T17:03:10.000Z</time>
      </trkpt>
      <trkpt lat="48.11231" lon="3.31114">
        <ele>104.5</ele>
        <time>2024-03-30T17:03:11.000Z</time>
      </trkpt>
      <trkpt lat="48.11231" lon="3.3111">
        <ele>104.3</ele>
        <time>2024-03-30T17:03:12.000Z</time>
      </trkpt>
      <trkpt lat="48.11231" lon="3.31105">
        <ele>104.1</ele>
        <time>2024-03-30T17:03:13.000Z</time>
      </trkpt>
      <trkpt lat="48.11231" lon="3.31101">
        <ele>104</ele>
        <time>2024-03-30T17:03:14.000Z</time>
      </trkpt>
      <trkpt lat="48.11232" lon="3.31097">
        <ele>103.8</ele>
        <time>2024-03-30T17:03:15.000Z</time>
      </trkpt>
      <trkpt lat="48.11233" lon="3.31095">
        <ele>103.6</ele>
        <time>2024-03-30T17:03:16.000Z</time>
      </trkpt>
      <trkpt lat="48.11234" lon="3.31093">
        <ele>103.5</ele>
        <time>2024-03-30T17:03:17.000Z</time>
      </trkpt>
      <trkpt lat="48.11235" lon="3.31092">
        <ele>103.4</ele>
        <time>2024-03-30T17:03:18.000Z</time>
      </trkpt>
      <trkpt lat="48.11236" lon="3.31091">
        <ele>103.3</ele>
        <time>2024-03-30T17:03:19.000Z</time>
      </trkpt>
      <trkpt lat="48.11237" lon="3.3109">
        <ele>103.2</ele>
        <time>2024-03-30T17:03:20.000Z</time>
      </trkpt>
      <trkpt lat="48.1124" lon="3.31087">
        <ele>102.9</ele>
        <time>2024-03-30T17:03:22.000Z</time>
      </trkpt>
      <trkpt lat="48.1124" lon="3.31086">
        <ele>102.8</ele>
        <time>2024-03-30T17:03:23.000Z</time>
      </trkpt>
      <trkpt lat="48.1124" lon="3.31083">
        <ele>102.7</ele>
        <time>2024-03-30T17:03:24.000Z</time>
      </trkpt>
      <trkpt lat="48.11244" lon="3.31077">
        <ele>102.4</ele>
        <time>2024-03-30T17:03:26.000Z</time>
      </trkpt>
      <trkpt lat="48.11248" lon="3.31073">
        <ele>102.1</ele>
        <time>2024-03-30T17:03:27.000Z</time>
      </trkpt>
      <trkpt lat="48.11252" lon="3.31074">
        <ele>101.9</ele>
        <time>2024-03-30T17:03:29.000Z</time>
      </trkpt>
      <trkpt lat="48.11254" lon="3.31073">
        <ele>101.8</ele>
        <time>2024-03-30T17:03:30.000Z</time>
      </trkpt>
      <trkpt lat="48.11256" lon="3.31072">
        <ele>101.7</ele>
        <time>2024-03-30T17:03:31.000Z</time>
      </trkpt>
      <trkpt lat="48.11258" lon="3.3107">
        <ele>101.6</ele>
        <time>2024-03-30T17:03:32.000Z</time>
      </trkpt>
      <trkpt lat="48.11262" lon="3.31065">
        <ele>101.3</ele>
        <time>2024-03-30T17:03:34.000Z</time>
      </trkpt>
      <trkpt lat="48.11269" lon="3.31059">
        <ele>100.7</ele>
        <time>2024-03-30T17:03:37.000Z</time>
      </trkpt>
      <trkpt lat="48.11272" lon="3.31057">
        <ele>100.5</ele>
        <time>2024-03-30T17:03:38.000Z</time>
      </trkpt>
      <trkpt lat="48.11276" lon="3.31056">
        <ele>100.1</ele>
        <time>2024-03-30T17:03:39.000Z</time>
      </trkpt>
      <trkpt lat="48.1128" lon="3.3106">
        <ele>100.1</ele>
        <time>2024-03-30T17:03:40.000Z</time>
      </trkpt>
      <trkpt lat="48.1128" lon="3.31059">
        <ele>100</ele>
        <time>2024-03-30T17:03:41.000Z</time>
      </trkpt>
      <trkpt lat="48.1128" lon="3.31057">
        <ele>100</ele>
        <time>2024-03-30T17:03:42.000Z</time>
      </trkpt>
      <trkpt lat="48.1128" lon="3.31055">
        <ele>99.9</ele>
        <time>2024-03-30T17:03:43.000Z</time>
      </trkpt>
      <trkpt lat="48.11282" lon="3.31049">
        <ele>99.8</ele>
        <time>2024-03-30T17:03:45.000Z</time>
      </trkpt>
      <trkpt lat="48.11284" lon="3.31047">
        <ele>99.8</ele>
        <time>2024-03-30T17:03:46.000Z</time>
      </trkpt>
      <trkpt lat="48.11287" lon="3.31044">
        <ele>99.7</ele>
        <time>2024-03-30T17:03:48.000Z</time>
      </trkpt>
      <trkpt lat="48.11289" lon="3.31042">
        <ele>99.6</ele>
        <time>2024-03-30T17:03:49.000Z</time>
      </trkpt>
      <trkpt lat="48.11291" lon="3.31038">
        <ele>99.5</ele>
        <time>2024-03-30T17:03:50.000Z</time>
      </trkpt>
      <trkpt lat="48.11292" lon="3.31034">
        <ele>99.5</ele>
        <time>2024-03-30T17:03:51.000Z</time>
      </trkpt>
      <trkpt lat="48.11293" lon="3.3103">
        <ele>99.5</ele>
        <time>2024-03-30T17:03:52.000Z</time>
      </trkpt>
      <trkpt lat="48.11295" lon="3.31026">
        <ele>99.3</ele>
        <time>2024-03-30T17:03:53.000Z</time>
      </trkpt>
      <trkpt lat="48.11296" lon="3.31023">
        <ele>99.2</ele>
        <time>2024-03-30T17:03:54.000Z</time>
      </trkpt>
      <trkpt lat="48.11297" lon="3.31021">
        <ele>99.1</ele>
        <time>2024-03-30T17:03:55.000Z</time>
      </trkpt>
      <trkpt lat="48.11297" lon="3.31017">
        <ele>98.9</ele>
        <time>2024-03-30T17:03:56.000Z</time>
      </trkpt>
      <trkpt lat="48.11298" lon="3.31013">
        <ele>98.7</ele>
        <time>2024-03-30T17:03:57.000Z</time>
      </trkpt>
      <trkpt lat="48.113" lon="3.31002">
        <ele>98.3</ele>
        <time>2024-03-30T17:04:00.000Z</time>
      </trkpt>
      <trkpt lat="48.11302" lon="3.31">
        <ele>98.1</ele>
        <time>2024-03-30T17:04:01.000Z</time>
      </trkpt>
      <trkpt lat="48.11304" lon="3.30996">
        <ele>97.9</ele>
        <time>2024-03-30T17:04:02.000Z</time>
      </trkpt>
      <trkpt lat="48.11305" lon="3.30994">
        <ele>97.8</ele>
        <time>2024-03-30T17:04:03.000Z</time>
      </trkpt>
      <trkpt lat="48.11307" lon="3.30992">
        <ele>97.7</ele>
        <time>2024-03-30T17:04:04.000Z</time>
      </trkpt>
      <trkpt lat="48.11308" lon="3.30988">
        <ele>97.5</ele>
        <time>2024-03-30T17:04:05.000Z</time>
      </trkpt>
      <trkpt lat="48.11309" lon="3.30982">
        <ele>97.2</ele>
        <time>2024-03-30T17:04:06.000Z</time>
      </trkpt>
      <trkpt lat="48.1131" lon="3.30978">
        <ele>97</ele>
        <time>2024-03-30T17:04:07.000Z</time>
      </trkpt>
      <trkpt lat="48.11311" lon="3.30975">
        <ele>96.9</ele>
        <time>2024-03-30T17:04:08.000Z</time>
      </trkpt>
      <trkpt lat="48.11314" lon="3.30968">
        <ele>96.7</ele>
        <time>2024-03-30T17:04:10.000Z</time>
      </trkpt>
      <trkpt lat="48.11315" lon="3.30966">
        <ele>96.7</ele>
        <time>2024-03-30T17:04:11.000Z</time>
      </trkpt>
      <trkpt lat="48.11317" lon="3.30962">
        <ele>96.6</ele>
        <time>2024-03-30T17:04:13.000Z</time>
      </trkpt>
      <trkpt lat="48.11318" lon="3.3096">
        <ele>96.6</ele>
        <time>2024-03-30T17:04:14.000Z</time>
      </trkpt>
      <trkpt lat="48.11319" lon="3.3096">
        <ele>96.5</ele>
        <time>2024-03-30T17:04:15.000Z</time>
      </trkpt>
      <trkpt lat="48.1132" lon="3.30959">
        <ele>96.5</ele>
        <time>2024-03-30T17:04:16.000Z</time>
      </trkpt>
      <trkpt lat="48.11327" lon="3.30956">
        <ele>96.2</ele>
        <time>2024-03-30T17:04:19.000Z</time>
      </trkpt>
      <trkpt lat="48.1133" lon="3.30956">
        <ele>96.1</ele>
        <time>2024-03-30T17:04:20.000Z</time>
      </trkpt>
      <trkpt lat="48.11332" lon="3.30956">
        <ele>96</ele>
        <time>2024-03-30T17:04:21.000Z</time>
      </trkpt>
      <trkpt lat="48.11333" lon="3.30957">
        <ele>96</ele>
        <time>2024-03-30T17:04:22.000Z</time>
      </trkpt>
      <trkpt lat="48.11335" lon="3.30958">
        <ele>96</ele>
        <time>2024-03-30T17:04:23.000Z</time>
      </trkpt>
      <trkpt lat="48.11336" lon="3.30959">
        <ele>96</ele>
        <time>2024-03-30T17:04:24.000Z</time>
      </trkpt>
      <trkpt lat="48.11337" lon="3.3096">
        <ele>95.9</ele>
        <time>2024-03-30T17:04:25.000Z</time>
      </trkpt>
      <trkpt lat="48.11338" lon="3.30961">
        <ele>95.9</ele>
        <time>2024-03-30T17:04:26.000Z</time>
      </trkpt>
      <trkpt lat="48.11339" lon="3.30961">
        <ele>95.9</ele>
        <time>2024-03-30T17:04:27.000Z</time>
      </trkpt>
      <trkpt lat="48.11339" lon="3.30961">
        <ele>95.9</ele>
        <time>2024-03-30T17:04:28.000Z</time>
      </trkpt>
      <trkpt lat="48.11341" lon="3.30962">
        <ele>95.9</ele>
        <time>2024-03-30T17:04:29.000Z</time>
      </trkpt>
      <trkpt lat="48.11343" lon="3.30962">
        <ele>95.9</ele>
        <time>2024-03-30T17:04:30.000Z</time>
      </trkpt>
      <trkpt lat="48.11345" lon="3.30963">
        <ele>95.9</ele>
        <time>2024-03-30T17:04:31.000Z</time>
      </trkpt>
      <trkpt lat="48.11348" lon="3.30963">
        <ele>95.8</ele>
        <time>2024-03-30T17:04:33.000Z</time>
      </trkpt>
      <trkpt lat="48.11351" lon="3.30964">
        <ele>95.8</ele>
        <time>2024-03-30T17:04:34.000Z</time>
      </trkpt>
      <trkpt lat="48.11357" lon="3.30966">
        <ele>95.8</ele>
        <time>2024-03-30T17:04:37.000Z</time>
      </trkpt>
      <trkpt lat="48.11364" lon="3.30969">
        <ele>95.8</ele>
        <time>2024-03-30T17:04:40.000Z</time>
      </trkpt>
      <trkpt lat="48.11369" lon="3.30971">
        <ele>95.7</ele>
        <time>2024-03-30T17:04:42.000Z</time>
      </trkpt>
      <trkpt lat="48.11371" lon="3.30972">
        <ele>95.6</ele>
        <time>2024-03-30T17:04:43.000Z</time>
      </trkpt>
      <trkpt lat="48.11372" lon="3.30973">
        <ele>95.6</ele>
        <time>2024-03-30T17:04:44.000Z</time>
      </trkpt>
      <trkpt lat="48.11373" lon="3.30975">
        <ele>95.6</ele>
        <time>2024-03-30T17:04:45.000Z</time>
      </trkpt>
      <trkpt lat="48.11374" lon="3.30977">
        <ele>95.5</ele>
        <time>2024-03-30T17:04:46.000Z</time>
      </trkpt>
      <trkpt lat="48.11374" lon="3.30977">
        <ele>95.5</ele>
        <time>2024-03-30T17:04:47.000Z</time>
      </trkpt>
      <trkpt lat="48.11374" lon="3.30977">
        <ele>95.5</ele>
        <time>2024-03-30T17:04:49.000Z</time>
      </trkpt>
      <trkpt lat="48.11377" lon="3.30983">
        <ele>95.4</ele>
        <time>2024-03-30T17:04:53.000Z</time>
      </trkpt>
      <trkpt lat="48.11378" lon="3.30985">
        <ele>95.4</ele>
        <time>2024-03-30T17:04:54.000Z</time>
      </trkpt>
      <trkpt lat="48.11378" lon="3.30986">
        <ele>95.4</ele>
        <time>2024-03-30T17:04:55.000Z</time>
      </trkpt>
      <trkpt lat="48.11378" lon="3.30988">
        <ele>95.4</ele>
        <time>2024-03-30T17:04:56.000Z</time>
      </trkpt>
      <trkpt lat="48.11378" lon="3.3099">
        <ele>95.4</ele>
        <time>2024-03-30T17:04:57.000Z</time>
      </trkpt>
      <trkpt lat="48.11377" lon="3.30991">
        <ele>95.4</ele>
        <time>2024-03-30T17:04:58.000Z</time>
      </trkpt>
      <trkpt lat="48.11377" lon="3.30992">
        <ele>95.4</ele>
        <time>2024-03-30T17:04:59.000Z</time>
      </trkpt>
      <trkpt lat="48.11377" lon="3.30992">
        <ele>95.4</ele>
        <time>2024-03-30T17:05:00.000Z</time>
      </trkpt>
      <trkpt lat="48.11377" lon="3.30993">
        <ele>95.4</ele>
        <time>2024-03-30T17:05:01.000Z</time>
      </trkpt>
      <trkpt lat="48.11378" lon="3.30994">
        <ele>95.4</ele>
        <time>2024-03-30T17:05:02.000Z</time>
      </trkpt>
      <trkpt lat="48.11378" lon="3.30994">
        <ele>95.4</ele>
        <time>2024-03-30T17:05:03.000Z</time>
      </trkpt>
      <trkpt lat="48.11379" lon="3.30996">
        <ele>95.4</ele>
        <time>2024-03-30T17:05:05.000Z</time>
      </trkpt>
      <trkpt lat="48.11381" lon="3.31003">
        <ele>95.4</ele>
        <time>2024-03-30T17:05:07.000Z</time>
      </trkpt>
      <trkpt lat="48.11382" lon="3.31005">
        <ele>95.4</ele>
        <time>2024-03-30T17:05:08.000Z</time>
      </trkpt>
      <trkpt lat="48.11382" lon="3.31008">
        <ele>95.5</ele>
        <time>2024-03-30T17:05:09.000Z</time>
      </trkpt>
      <trkpt lat="48.11383" lon="3.31011">
        <ele>95.6</ele>
        <time>2024-03-30T17:05:10.000Z</time>
      </trkpt>
      <trkpt lat="48.11383" lon="3.31014">
        <ele>95.7</ele>
        <time>2024-03-30T17:05:11.000Z</time>
      </trkpt>
      <trkpt lat="48.11383" lon="3.31016">
        <ele>95.8</ele>
        <time>2024-03-30T17:05:12.000Z</time>
      </trkpt>
      <trkpt lat="48.11383" lon="3.31019">
        <ele>95.9</ele>
        <time>2024-03-30T17:05:13.000Z</time>
      </trkpt>
      <trkpt lat="48.11384" lon="3.31022">
        <ele>96</ele>
        <time>2024-03-30T17:05:14.000Z</time>
      </trkpt>
      <trkpt lat="48.11384" lon="3.31027">
        <ele>96.1</ele>
        <time>2024-03-30T17:05:16.000Z</time>
      </trkpt>
      <trkpt lat="48.11384" lon="3.31029">
        <ele>96.2</ele>
        <time>2024-03-30T17:05:17.000Z</time>
      </trkpt>
      <trkpt lat="48.11384" lon="3.31031">
        <ele>96.3</ele>
        <time>2024-03-30T17:05:18.000Z</time>
      </trkpt>
      <trkpt lat="48.11384" lon="3.31033">
        <ele>96.4</ele>
        <time>2024-03-30T17:05:19.000Z</time>
      </trkpt>
      <trkpt lat="48.11385" lon="3.31037">
        <ele>96.5</ele>
        <time>2024-03-30T17:05:20.000Z</time>
      </trkpt>
      <trkpt lat="48.11385" lon="3.31041">
        <ele>96.6</ele>
        <time>2024-03-30T17:05:22.000Z</time>
      </trkpt>
      <trkpt lat="48.11384" lon="3.31042">
        <ele>96.7</ele>
        <time>2024-03-30T17:05:23.000Z</time>
      </trkpt>
      <trkpt lat="48.11385" lon="3.31043">
        <ele>96.7</ele>
        <time>2024-03-30T17:05:24.000Z</time>
      </trkpt>
      <trkpt lat="48.11385" lon="3.31046">
        <ele>96.8</ele>
        <time>2024-03-30T17:05:25.000Z</time>
      </trkpt>
      <trkpt lat="48.11385" lon="3.31048">
        <ele>96.9</ele>
        <time>2024-03-30T17:05:26.000Z</time>
      </trkpt>
      <trkpt lat="48.11386" lon="3.3105">
        <ele>96.9</ele>
        <time>2024-03-30T17:05:27.000Z</time>
      </trkpt>
      <trkpt lat="48.11386" lon="3.31051">
        <ele>96.9</ele>
        <time>2024-03-30T17:05:28.000Z</time>
      </trkpt>
      <trkpt lat="48.11387" lon="3.31052">
        <ele>96.9</ele>
        <time>2024-03-30T17:05:29.000Z</time>
      </trkpt>
      <trkpt lat="48.11389" lon="3.31059">
        <ele>97.1</ele>
        <time>2024-03-30T17:05:31.000Z</time>
      </trkpt>
      <trkpt lat="48.11389" lon="3.3106">
        <ele>97.2</ele>
        <time>2024-03-30T17:05:32.000Z</time>
      </trkpt>
      <trkpt lat="48.1139" lon="3.31063">
        <ele>97.3</ele>
        <time>2024-03-30T17:05:33.000Z</time>
      </trkpt>
      <trkpt lat="48.1139" lon="3.31065">
        <ele>97.3</ele>
        <time>2024-03-30T17:05:34.000Z</time>
      </trkpt>
      <trkpt lat="48.1139" lon="3.31069">
        <ele>97.5</ele>
        <time>2024-03-30T17:05:35.000Z</time>
      </trkpt>
      <trkpt lat="48.1139" lon="3.31071">
        <ele>97.5</ele>
        <time>2024-03-30T17:05:36.000Z</time>
      </trkpt>
      <trkpt lat="48.1139" lon="3.31073">
        <ele>97.6</ele>
        <time>2024-03-30T17:05:37.000Z</time>
      </trkpt>
      <trkpt lat="48.1139" lon="3.31076">
        <ele>97.7</ele>
        <time>2024-03-30T17:05:38.000Z</time>
      </trkpt>
      <trkpt lat="48.11389" lon="3.31081">
        <ele>97.9</ele>
        <time>2024-03-30T17:05:40.000Z</time>
      </trkpt>
      <trkpt lat="48.11388" lon="3.31086">
        <ele>98.1</ele>
        <time>2024-03-30T17:05:42.000Z</time>
      </trkpt>
      <trkpt lat="48.11388" lon="3.3109">
        <ele>98.2</ele>
        <time>2024-03-30T17:05:43.000Z</time>
      </trkpt>
      <trkpt lat="48.11387" lon="3.31091">
        <ele>98.3</ele>
        <time>2024-03-30T17:05:44.000Z</time>
      </trkpt>
      <trkpt lat="48.11386" lon="3.31093">
        <ele>98.3</ele>
        <time>2024-03-30T17:05:45.000Z</time>
      </trkpt>
      <trkpt lat="48.11386" lon="3.31095">
        <ele>98.4</ele>
        <time>2024-03-30T17:05:46.000Z</time>
      </trkpt>
      <trkpt lat="48.11386" lon="3.31098">
        <ele>98.5</ele>
        <time>2024-03-30T17:05:47.000Z</time>
      </trkpt>
      <trkpt lat="48.11388" lon="3.31102">
        <ele>98.7</ele>
        <time>2024-03-30T17:05:48.000Z</time>
      </trkpt>
      <trkpt lat="48.11389" lon="3.31106">
        <ele>98.8</ele>
        <time>2024-03-30T17:05:49.000Z</time>
      </trkpt>
      <trkpt lat="48.1139" lon="3.3111">
        <ele>98.9</ele>
        <time>2024-03-30T17:05:50.000Z</time>
      </trkpt>
      <trkpt lat="48.11389" lon="3.31115">
        <ele>99</ele>
        <time>2024-03-30T17:05:52.000Z</time>
      </trkpt>
      <trkpt lat="48.11388" lon="3.31115">
        <ele>99</ele>
        <time>2024-03-30T17:05:53.000Z</time>
      </trkpt>
      <trkpt lat="48.11388" lon="3.31115">
        <ele>99</ele>
        <time>2024-03-30T17:05:54.000Z</time>
      </trkpt>
      <trkpt lat="48.11388" lon="3.31116">
        <ele>99</ele>
        <time>2024-03-30T17:05:55.000Z</time>
      </trkpt>
      <trkpt lat="48.11389" lon="3.31118">
        <ele>99</ele>
        <time>2024-03-30T17:05:56.000Z</time>
      </trkpt>
      <trkpt lat="48.11391" lon="3.3112">
        <ele>98.9</ele>
        <time>2024-03-30T17:05:58.000Z</time>
      </trkpt>
      <trkpt lat="48.11392" lon="3.31123">
        <ele>98.9</ele>
        <time>2024-03-30T17:06:00.000Z</time>
      </trkpt>
      <trkpt lat="48.11392" lon="3.31127">
        <ele>99</ele>
        <time>2024-03-30T17:06:02.000Z</time>
      </trkpt>
      <trkpt lat="48.11392" lon="3.31129">
        <ele>99</ele>
        <time>2024-03-30T17:06:03.000Z</time>
      </trkpt>
      <trkpt lat="48.11392" lon="3.31129">
        <ele>99</ele>
        <time>2024-03-30T17:06:04.000Z</time>
      </trkpt>
      <trkpt lat="48.11392" lon="3.31129">
        <ele>99</ele>
        <time>2024-03-30T17:06:05.000Z</time>
      </trkpt>
      <trkpt lat="48.11393" lon="3.3113">
        <ele>99</ele>
        <time>2024-03-30T17:06:06.000Z</time>
      </trkpt>
      <trkpt lat="48.11393" lon="3.31131">
        <ele>99</ele>
        <time>2024-03-30T17:06:07.000Z</time>
      </trkpt>
      <trkpt lat="48.11394" lon="3.31134">
        <ele>99</ele>
        <time>2024-03-30T17:06:08.000Z</time>
      </trkpt>
      <trkpt lat="48.11393" lon="3.31137">
        <ele>99</ele>
        <time>2024-03-30T17:06:09.000Z</time>
      </trkpt>
      <trkpt lat="48.11392" lon="3.3114">
        <ele>99</ele>
        <time>2024-03-30T17:06:10.000Z</time>
      </trkpt>
      <trkpt lat="48.11392" lon="3.31142">
        <ele>99.1</ele>
        <time>2024-03-30T17:06:11.000Z</time>
      </trkpt>
      <trkpt lat="48.11392" lon="3.31144">
        <ele>99.2</ele>
        <time>2024-03-30T17:06:12.000Z</time>
      </trkpt>
      <trkpt lat="48.11391" lon="3.31147">
        <ele>99.3</ele>
        <time>2024-03-30T17:06:13.000Z</time>
      </trkpt>
      <trkpt lat="48.11391" lon="3.31149">
        <ele>99.4</ele>
        <time>2024-03-30T17:06:14.000Z</time>
      </trkpt>
      <trkpt lat="48.11391" lon="3.31152">
        <ele>99.5</ele>
        <time>2024-03-30T17:06:15.000Z</time>
      </trkpt>
      <trkpt lat="48.1139" lon="3.31155">
        <ele>99.6</ele>
        <time>2024-03-30T17:06:16.000Z</time>
      </trkpt>
      <trkpt lat="48.11389" lon="3.31158">
        <ele>99.7</ele>
        <time>2024-03-30T17:06:17.000Z</time>
      </trkpt>
      <trkpt lat="48.11388" lon="3.31161">
        <ele>99.8</ele>
        <time>2024-03-30T17:06:18.000Z</time>
      </trkpt>
      <trkpt lat="48.11388" lon="3.31161">
        <ele>99.8</ele>
        <time>2024-03-30T17:06:19.000Z</time>
      </trkpt>
      <trkpt lat="48.11388" lon="3.31162">
        <ele>99.8</ele>
        <time>2024-03-30T17:06:20.000Z</time>
      </trkpt>
      <trkpt lat="48.11386" lon="3.31164">
        <ele>99.9</ele>
        <time>2024-03-30T17:06:21.000Z</time>
      </trkpt>
      <trkpt lat="48.11385" lon="3.31165">
        <ele>99.9</ele>
        <time>2024-03-30T17:06:22.000Z</time>
      </trkpt>
      <trkpt lat="48.11383" lon="3.31166">
        <ele>100</ele>
        <time>2024-03-30T17:06:23.000Z</time>
      </trkpt>
      <trkpt lat="48.11382" lon="3.31167">
        <ele>100</ele>
        <time>2024-03-30T17:06:24.000Z</time>
      </trkpt>
      <trkpt lat="48.11381" lon="3.31168">
        <ele>100</ele>
        <time>2024-03-30T17:06:25.000Z</time>
      </trkpt>
      <trkpt lat="48.1138" lon="3.31168">
        <ele>100</ele>
        <time>2024-03-30T17:06:26.000Z</time>
      </trkpt>
      <trkpt lat="48.11378" lon="3.31168">
        <ele>100</ele>
        <time>2024-03-30T17:06:27.000Z</time>
      </trkpt>
      <trkpt lat="48.11376" lon="3.31167">
        <ele>100</ele>
        <time>2024-03-30T17:06:28.000Z</time>
      </trkpt>
      <trkpt lat="48.11369" lon="3.31164">
        <ele>100</ele>
        <time>2024-03-30T17:06:31.000Z</time>
      </trkpt>
      <trkpt lat="48.11367" lon="3.31163">
        <ele>100</ele>
        <time>2024-03-30T17:06:32.000Z</time>
      </trkpt>
      <trkpt lat="48.11365" lon="3.31161">
        <ele>100</ele>
        <time>2024-03-30T17:06:33.000Z</time>
      </trkpt>
      <trkpt lat="48.11363" lon="3.31161">
        <ele>100</ele>
        <time>2024-03-30T17:06:34.000Z</time>
      </trkpt>
      <trkpt lat="48.11361" lon="3.3116">
        <ele>100</ele>
        <time>2024-03-30T17:06:35.000Z</time>
      </trkpt>
      <trkpt lat="48.11359" lon="3.31159">
        <ele>100.1</ele>
        <time>2024-03-30T17:06:36.000Z</time>
      </trkpt>
      <trkpt lat="48.11351" lon="3.31158">
        <ele>100.3</ele>
        <time>2024-03-30T17:06:39.000Z</time>
      </trkpt>
      <trkpt lat="48.11345" lon="3.31161">
        <ele>100.5</ele>
        <time>2024-03-30T17:06:41.000Z</time>
      </trkpt>
      <trkpt lat="48.11342" lon="3.31164">
        <ele>100.6</ele>
        <time>2024-03-30T17:06:42.000Z</time>
      </trkpt>
      <trkpt lat="48.1134" lon="3.31166">
        <ele>100.7</ele>
        <time>2024-03-30T17:06:43.000Z</time>
      </trkpt>
      <trkpt lat="48.11339" lon="3.31168">
        <ele>100.8</ele>
        <time>2024-03-30T17:06:44.000Z</time>
      </trkpt>
      <trkpt lat="48.11337" lon="3.31171">
        <ele>101</ele>
        <time>2024-03-30T17:06:45.000Z</time>
      </trkpt>
      <trkpt lat="48.11336" lon="3.31175">
        <ele>101.2</ele>
        <time>2024-03-30T17:06:46.000Z</time>
      </trkpt>
      <trkpt lat="48.11333" lon="3.31177">
        <ele>101.4</ele>
        <time>2024-03-30T17:06:47.000Z</time>
      </trkpt>
      <trkpt lat="48.11331" lon="3.31179">
        <ele>101.5</ele>
        <time>2024-03-30T17:06:48.000Z</time>
      </trkpt>
      <trkpt lat="48.11332" lon="3.31181">
        <ele>101.6</ele>
        <time>2024-03-30T17:06:49.000Z</time>
      </trkpt>
      <trkpt lat="48.11331" lon="3.31183">
        <ele>101.7</ele>
        <time>2024-03-30T17:06:50.000Z</time>
      </trkpt>
      <trkpt lat="48.1133" lon="3.31186">
        <ele>101.8</ele>
        <time>2024-03-30T17:06:51.000Z</time>
      </trkpt>
      <trkpt lat="48.1133" lon="3.31189">
        <ele>101.9</ele>
        <time>2024-03-30T17:06:52.000Z</time>
      </trkpt>
      <trkpt lat="48.1133" lon="3.31191">
        <ele>102</ele>
        <time>2024-03-30T17:06:53.000Z</time>
      </trkpt>
      <trkpt lat="48.11331" lon="3.31193">
        <ele>102</ele>
        <time>2024-03-30T17:06:54.000Z</time>
      </trkpt>
      <trkpt lat="48.11332" lon="3.31196">
        <ele>102.1</ele>
        <time>2024-03-30T17:06:55.000Z</time>
      </trkpt>
      <trkpt lat="48.11331" lon="3.31198">
        <ele>102.2</ele>
        <time>2024-03-30T17:06:56.000Z</time>
      </trkpt>
      <trkpt lat="48.11331" lon="3.312">
        <ele>102.3</ele>
        <time>2024-03-30T17:06:57.000Z</time>
      </trkpt>
      <trkpt lat="48.1133" lon="3.31201">
        <ele>102.3</ele>
        <time>2024-03-30T17:06:58.000Z</time>
      </trkpt>
      <trkpt lat="48.11331" lon="3.31203">
        <ele>102.4</ele>
        <time>2024-03-30T17:06:59.000Z</time>
      </trkpt>
      <trkpt lat="48.11333" lon="3.31206">
        <ele>102.4</ele>
        <time>2024-03-30T17:07:00.000Z</time>
      </trkpt>
      <trkpt lat="48.11334" lon="3.31208">
        <ele>102.5</ele>
        <time>2024-03-30T17:07:01.000Z</time>
      </trkpt>
      <trkpt lat="48.11335" lon="3.3121">
        <ele>102.5</ele>
        <time>2024-03-30T17:07:02.000Z</time>
      </trkpt>
      <trkpt lat="48.11335" lon="3.31212">
        <ele>102.6</ele>
        <time>2024-03-30T17:07:03.000Z</time>
      </trkpt>
      <trkpt lat="48.11335" lon="3.31213">
        <ele>102.6</ele>
        <time>2024-03-30T17:07:04.000Z</time>
      </trkpt>
      <trkpt lat="48.11335" lon="3.31215">
        <ele>102.7</ele>
        <time>2024-03-30T17:07:05.000Z</time>
      </trkpt>
      <trkpt lat="48.11335" lon="3.31217">
        <ele>102.8</ele>
        <time>2024-03-30T17:07:06.000Z</time>
      </trkpt>
      <trkpt lat="48.11336" lon="3.31219">
        <ele>102.8</ele>
        <time>2024-03-30T17:07:07.000Z</time>
      </trkpt>
      <trkpt lat="48.11341" lon="3.31219">
        <ele>102.6</ele>
        <time>2024-03-30T17:07:09.000Z</time>
      </trkpt>
      <trkpt lat="48.11345" lon="3.3122">
        <ele>102.5</ele>
        <time>2024-03-30T17:07:11.000Z</time>
      </trkpt>
      <trkpt lat="48.11346" lon="3.31219">
        <ele>102.4</ele>
        <time>2024-03-30T17:07:12.000Z</time>
      </trkpt>
      <trkpt lat="48.11348" lon="3.31219">
        <ele>102.4</ele>
        <time>2024-03-30T17:07:13.000Z</time>
      </trkpt>
      <trkpt lat="48.11353" lon="3.31219">
        <ele>102.2</ele>
        <time>2024-03-30T17:07:15.000Z</time>
      </trkpt>
      <trkpt lat="48.11355" lon="3.3122">
        <ele>102.1</ele>
        <time>2024-03-30T17:07:16.000Z</time>
      </trkpt>
      <trkpt lat="48.11355" lon="3.31221">
        <ele>102.2</ele>
        <time>2024-03-30T17:07:17.000Z</time>
      </trkpt>
      <trkpt lat="48.11357" lon="3.31221">
        <ele>102.1</ele>
        <time>2024-03-30T17:07:18.000Z</time>
      </trkpt>
      <trkpt lat="48.11356" lon="3.31221">
        <ele>102.1</ele>
        <time>2024-03-30T17:07:19.000Z</time>
      </trkpt>
      <trkpt lat="48.11358" lon="3.31224">
        <ele>102.2</ele>
        <time>2024-03-30T17:07:20.000Z</time>
      </trkpt>
      <trkpt lat="48.1136" lon="3.31227">
        <ele>102.2</ele>
        <time>2024-03-30T17:07:21.000Z</time>
      </trkpt>
      <trkpt lat="48.11359" lon="3.3123">
        <ele>102.4</ele>
        <time>2024-03-30T17:07:22.000Z</time>
      </trkpt>
      <trkpt lat="48.11359" lon="3.31234">
        <ele>102.5</ele>
        <time>2024-03-30T17:07:23.000Z</time>
      </trkpt>
      <trkpt lat="48.11359" lon="3.31237">
        <ele>102.6</ele>
        <time>2024-03-30T17:07:24.000Z</time>
      </trkpt>
      <trkpt lat="48.1136" lon="3.31239">
        <ele>102.6</ele>
        <time>2024-03-30T17:07:25.000Z</time>
      </trkpt>
      <trkpt lat="48.1136" lon="3.31241">
        <ele>102.7</ele>
        <time>2024-03-30T17:07:26.000Z</time>
      </trkpt>
      <trkpt lat="48.1136" lon="3.31242">
        <ele>102.8</ele>
        <time>2024-03-30T17:07:27.000Z</time>
      </trkpt>
      <trkpt lat="48.1136" lon="3.31245">
        <ele>102.9</ele>
        <time>2024-03-30T17:07:28.000Z</time>
      </trkpt>
      <trkpt lat="48.1136" lon="3.31248">
        <ele>103</ele>
        <time>2024-03-30T17:07:29.000Z</time>
      </trkpt>
      <trkpt lat="48.1136" lon="3.3126">
        <ele>103.4</ele>
        <time>2024-03-30T17:07:33.000Z</time>
      </trkpt>
      <trkpt lat="48.11361" lon="3.31264">
        <ele>103.5</ele>
        <time>2024-03-30T17:07:34.000Z</time>
      </trkpt>
      <trkpt lat="48.11361" lon="3.31266">
        <ele>103.6</ele>
        <time>2024-03-30T17:07:35.000Z</time>
      </trkpt>
      <trkpt lat="48.1136" lon="3.31268">
        <ele>103.7</ele>
        <time>2024-03-30T17:07:36.000Z</time>
      </trkpt>
      <trkpt lat="48.1136" lon="3.31269">
        <ele>103.7</ele>
        <time>2024-03-30T17:07:37.000Z</time>
      </trkpt>
      <trkpt lat="48.11359" lon="3.31274">
        <ele>103.9</ele>
        <time>2024-03-30T17:07:38.000Z</time>
      </trkpt>
      <trkpt lat="48.1136" lon="3.31277">
        <ele>104</ele>
        <time>2024-03-30T17:07:39.000Z</time>
      </trkpt>
      <trkpt lat="48.1136" lon="3.3128">
        <ele>104.1</ele>
        <time>2024-03-30T17:07:40.000Z</time>
      </trkpt>
      <trkpt lat="48.11361" lon="3.31283">
        <ele>104.2</ele>
        <time>2024-03-30T17:07:41.000Z</time>
      </trkpt>
      <trkpt lat="48.11361" lon="3.31286">
        <ele>104.3</ele>
        <time>2024-03-30T17:07:42.000Z</time>
      </trkpt>
      <trkpt lat="48.11361" lon="3.31289">
        <ele>104.4</ele>
        <time>2024-03-30T17:07:43.000Z</time>
      </trkpt>
      <trkpt lat="48.11361" lon="3.3129">
        <ele>104.4</ele>
        <time>2024-03-30T17:07:44.000Z</time>
      </trkpt>
      <trkpt lat="48.11361" lon="3.31292">
        <ele>104.5</ele>
        <time>2024-03-30T17:07:45.000Z</time>
      </trkpt>
      <trkpt lat="48.11361" lon="3.31293">
        <ele>104.6</ele>
        <time>2024-03-30T17:07:46.000Z</time>
      </trkpt>
      <trkpt lat="48.11361" lon="3.31296">
        <ele>104.7</ele>
        <time>2024-03-30T17:07:47.000Z</time>
      </trkpt>
      <trkpt lat="48.11361" lon="3.31298">
        <ele>104.7</ele>
        <time>2024-03-30T17:07:48.000Z</time>
      </trkpt>
      <trkpt lat="48.11361" lon="3.313">
        <ele>104.8</ele>
        <time>2024-03-30T17:07:49.000Z</time>
      </trkpt>
      <trkpt lat="48.1136" lon="3.31302">
        <ele>104.9</ele>
        <time>2024-03-30T17:07:50.000Z</time>
      </trkpt>
      <trkpt lat="48.11361" lon="3.31308">
        <ele>105.1</ele>
        <time>2024-03-30T17:07:51.000Z</time>
      </trkpt>
      <trkpt lat="48.11362" lon="3.31309">
        <ele>105.1</ele>
        <time>2024-03-30T17:07:52.000Z</time>
      </trkpt>
      <trkpt lat="48.11363" lon="3.31312">
        <ele>105.2</ele>
        <time>2024-03-30T17:07:53.000Z</time>
      </trkpt>
      <trkpt lat="48.11364" lon="3.31313">
        <ele>105.2</ele>
        <time>2024-03-30T17:07:54.000Z</time>
      </trkpt>
      <trkpt lat="48.11364" lon="3.31314">
        <ele>105.2</ele>
        <time>2024-03-30T17:07:55.000Z</time>
      </trkpt>
      <trkpt lat="48.11364" lon="3.31314">
        <ele>105.2</ele>
        <time>2024-03-30T17:07:56.000Z</time>
      </trkpt>
      <trkpt lat="48.11364" lon="3.31315">
        <ele>105.3</ele>
        <time>2024-03-30T17:07:57.000Z</time>
      </trkpt>
      <trkpt lat="48.11364" lon="3.31316">
        <ele>105.3</ele>
        <time>2024-03-30T17:07:58.000Z</time>
      </trkpt>
      <trkpt lat="48.11364" lon="3.31317">
        <ele>105.4</ele>
        <time>2024-03-30T17:07:59.000Z</time>
      </trkpt>
      <trkpt lat="48.11364" lon="3.31318">
        <ele>105.4</ele>
        <time>2024-03-30T17:08:00.000Z</time>
      </trkpt>
      <trkpt lat="48.11364" lon="3.31319">
        <ele>105.4</ele>
        <time>2024-03-30T17:08:01.000Z</time>
      </trkpt>
      <trkpt lat="48.11363" lon="3.3132">
        <ele>105.5</ele>
        <time>2024-03-30T17:08:02.000Z</time>
      </trkpt>
      <trkpt lat="48.11363" lon="3.31323">
        <ele>105.6</ele>
        <time>2024-03-30T17:08:03.000Z</time>
      </trkpt>
      <trkpt lat="48.11362" lon="3.31325">
        <ele>105.7</ele>
        <time>2024-03-30T17:08:04.000Z</time>
      </trkpt>
      <trkpt lat="48.11362" lon="3.31326">
        <ele>105.7</ele>
        <time>2024-03-30T17:08:05.000Z</time>
      </trkpt>
      <trkpt lat="48.11362" lon="3.31329">
        <ele>105.8</ele>
        <time>2024-03-30T17:08:06.000Z</time>
      </trkpt>
      <trkpt lat="48.11363" lon="3.31332">
        <ele>105.9</ele>
        <time>2024-03-30T17:08:07.000Z</time>
      </trkpt>
      <trkpt lat="48.11363" lon="3.31333">
        <ele>106</ele>
        <time>2024-03-30T17:08:08.000Z</time>
      </trkpt>
      <trkpt lat="48.11363" lon="3.31334">
        <ele>106</ele>
        <time>2024-03-30T17:08:09.000Z</time>
      </trkpt>
      <trkpt lat="48.11363" lon="3.31335">
        <ele>106.1</ele>
        <time>2024-03-30T17:08:10.000Z</time>
      </trkpt>
      <trkpt lat="48.11364" lon="3.31335">
        <ele>106.1</ele>
        <time>2024-03-30T17:08:11.000Z</time>
      </trkpt>
      <trkpt lat="48.11364" lon="3.31336">
        <ele>106.2</ele>
        <time>2024-03-30T17:08:12.000Z</time>
      </trkpt>
      <trkpt lat="48.11364" lon="3.31337">
        <ele>106.3</ele>
        <time>2024-03-30T17:08:13.000Z</time>
      </trkpt>
      <trkpt lat="48.11364" lon="3.31339">
        <ele>106.4</ele>
        <time>2024-03-30T17:08:14.000Z</time>
      </trkpt>
      <trkpt lat="48.11364" lon="3.3134">
        <ele>106.5</ele>
        <time>2024-03-30T17:08:15.000Z</time>
      </trkpt>
      <trkpt lat="48.11363" lon="3.31342">
        <ele>106.6</ele>
        <time>2024-03-30T17:08:16.000Z</time>
      </trkpt>
      <trkpt lat="48.11362" lon="3.31345">
        <ele>106.8</ele>
        <time>2024-03-30T17:08:17.000Z</time>
      </trkpt>
      <trkpt lat="48.11362" lon="3.31346">
        <ele>106.9</ele>
        <time>2024-03-30T17:08:18.000Z</time>
      </trkpt>
      <trkpt lat="48.11362" lon="3.31349">
        <ele>107.1</ele>
        <time>2024-03-30T17:08:19.000Z</time>
      </trkpt>
      <trkpt lat="48.11362" lon="3.31351">
        <ele>107.3</ele>
        <time>2024-03-30T17:08:20.000Z</time>
      </trkpt>
      <trkpt lat="48.11361" lon="3.31352">
        <ele>107.3</ele>
        <time>2024-03-30T17:08:21.000Z</time>
      </trkpt>
      <trkpt lat="48.11361" lon="3.31354">
        <ele>107.5</ele>
        <time>2024-03-30T17:08:22.000Z</time>
      </trkpt>
      <trkpt lat="48.11361" lon="3.31355">
        <ele>107.6</ele>
        <time>2024-03-30T17:08:23.000Z</time>
      </trkpt>
      <trkpt lat="48.1136" lon="3.31356">
        <ele>107.7</ele>
        <time>2024-03-30T17:08:24.000Z</time>
      </trkpt>
      <trkpt lat="48.11359" lon="3.31359">
        <ele>107.9</ele>
        <time>2024-03-30T17:08:26.000Z</time>
      </trkpt>
      <trkpt lat="48.11358" lon="3.31359">
        <ele>108</ele>
        <time>2024-03-30T17:08:27.000Z</time>
      </trkpt>
      <trkpt lat="48.11359" lon="3.31361">
        <ele>108.1</ele>
        <time>2024-03-30T17:08:28.000Z</time>
      </trkpt>
      <trkpt lat="48.11358" lon="3.31362">
        <ele>108.1</ele>
        <time>2024-03-30T17:08:29.000Z</time>
      </trkpt>
      <trkpt lat="48.11359" lon="3.31363">
        <ele>108.1</ele>
        <time>2024-03-30T17:08:30.000Z</time>
      </trkpt>
      <trkpt lat="48.11359" lon="3.31363">
        <ele>108.1</ele>
        <time>2024-03-30T17:08:31.000Z</time>
      </trkpt>
      <trkpt lat="48.11359" lon="3.31364">
        <ele>108.2</ele>
        <time>2024-03-30T17:08:32.000Z</time>
      </trkpt>
      <trkpt lat="48.11358" lon="3.31367">
        <ele>108.3</ele>
        <time>2024-03-30T17:08:33.000Z</time>
      </trkpt>
      <trkpt lat="48.11358" lon="3.31368">
        <ele>108.4</ele>
        <time>2024-03-30T17:08:34.000Z</time>
      </trkpt>
      <trkpt lat="48.11355" lon="3.31372">
        <ele>108.7</ele>
        <time>2024-03-30T17:08:36.000Z</time>
      </trkpt>
      <trkpt lat="48.11355" lon="3.31374">
        <ele>108.8</ele>
        <time>2024-03-30T17:08:37.000Z</time>
      </trkpt>
      <trkpt lat="48.11355" lon="3.31376">
        <ele>108.9</ele>
        <time>2024-03-30T17:08:38.000Z</time>
      </trkpt>
      <trkpt lat="48.11355" lon="3.31377">
        <ele>108.9</ele>
        <time>2024-03-30T17:08:39.000Z</time>
      </trkpt>
      <trkpt lat="48.11355" lon="3.31377">
        <ele>108.9</ele>
        <time>2024-03-30T17:08:40.000Z</time>
      </trkpt>
      <trkpt lat="48.11356" lon="3.31379">
        <ele>108.9</ele>
        <time>2024-03-30T17:08:42.000Z</time>
      </trkpt>
      <trkpt lat="48.11356" lon="3.31379">
        <ele>108.9</ele>
        <time>2024-03-30T17:08:43.000Z</time>
      </trkpt>
      <trkpt lat="48.11356" lon="3.3138">
        <ele>109</ele>
        <time>2024-03-30T17:08:44.000Z</time>
      </trkpt>
      <trkpt lat="48.11357" lon="3.31382">
        <ele>109</ele>
        <time>2024-03-30T17:08:45.000Z</time>
      </trkpt>
      <trkpt lat="48.11357" lon="3.31384">
        <ele>109.1</ele>
        <time>2024-03-30T17:08:46.000Z</time>
      </trkpt>
      <trkpt lat="48.11357" lon="3.31386">
        <ele>109.2</ele>
        <time>2024-03-30T17:08:47.000Z</time>
      </trkpt>
      <trkpt lat="48.11358" lon="3.31387">
        <ele>109.1</ele>
        <time>2024-03-30T17:08:48.000Z</time>
      </trkpt>
      <trkpt lat="48.11358" lon="3.31389">
        <ele>109.2</ele>
        <time>2024-03-30T17:08:49.000Z</time>
      </trkpt>
      <trkpt lat="48.11359" lon="3.31392">
        <ele>109.4</ele>
        <time>2024-03-30T17:08:50.000Z</time>
      </trkpt>
      <trkpt lat="48.11359" lon="3.31392">
        <ele>109.4</ele>
        <time>2024-03-30T17:08:51.000Z</time>
      </trkpt>
      <trkpt lat="48.11359" lon="3.31392">
        <ele>109.4</ele>
        <time>2024-03-30T17:08:52.000Z</time>
      </trkpt>
      <trkpt lat="48.11359" lon="3.31392">
        <ele>109.4</ele>
        <time>2024-03-30T17:09:00.000Z</time>
      </trkpt>
      <trkpt lat="48.11359" lon="3.31392">
        <ele>109.4</ele>
        <time>2024-03-30T17:09:21.000Z</time>
      </trkpt>
      <trkpt lat="48.11361" lon="3.31394">
        <ele>109.4</ele>
        <time>2024-03-30T17:09:45.000Z</time>
      </trkpt>
      <trkpt lat="48.11362" lon="3.31395">
        <ele>109.4</ele>
        <time>2024-03-30T17:09:46.000Z</time>
      </trkpt>
      <trkpt lat="48.11363" lon="3.31397">
        <ele>109.5</ele>
        <time>2024-03-30T17:09:47.000Z</time>
      </trkpt>
      <trkpt lat="48.11364" lon="3.31398">
        <ele>109.6</ele>
        <time>2024-03-30T17:09:48.000Z</time>
      </trkpt>
      <trkpt lat="48.11366" lon="3.31401">
        <ele>109.7</ele>
        <time>2024-03-30T17:09:50.000Z</time>
      </trkpt>
      <trkpt lat="48.11367" lon="3.31402">
        <ele>109.7</ele>
        <time>2024-03-30T17:09:51.000Z</time>
      </trkpt>
      <trkpt lat="48.11375" lon="3.31415">
        <ele>110.4</ele>
        <time>2024-03-30T17:09:56.000Z</time>
      </trkpt>
      <trkpt lat="48.11377" lon="3.31418">
        <ele>110.5</ele>
        <time>2024-03-30T17:09:57.000Z</time>
      </trkpt>
      <trkpt lat="48.11378" lon="3.3142">
        <ele>110.6</ele>
        <time>2024-03-30T17:09:58.000Z</time>
      </trkpt>
      <trkpt lat="48.1138" lon="3.31422">
        <ele>110.6</ele>
        <time>2024-03-30T17:09:59.000Z</time>
      </trkpt>
      <trkpt lat="48.11381" lon="3.31424">
        <ele>110.6</ele>
        <time>2024-03-30T17:10:00.000Z</time>
      </trkpt>
      <trkpt lat="48.11388" lon="3.31434">
        <ele>110.7</ele>
        <time>2024-03-30T17:10:03.000Z</time>
      </trkpt>
      <trkpt lat="48.11389" lon="3.31436">
        <ele>110.7</ele>
        <time>2024-03-30T17:10:04.000Z</time>
      </trkpt>
      <trkpt lat="48.11392" lon="3.31441">
        <ele>110.8</ele>
        <time>2024-03-30T17:10:05.000Z</time>
      </trkpt>
      <trkpt lat="48.11394" lon="3.31444">
        <ele>110.8</ele>
        <time>2024-03-30T17:10:06.000Z</time>
      </trkpt>
      <trkpt lat="48.11398" lon="3.3145">
        <ele>111.1</ele>
        <time>2024-03-30T17:10:07.000Z</time>
      </trkpt>
      <trkpt lat="48.11404" lon="3.31456">
        <ele>111.3</ele>
        <time>2024-03-30T17:10:09.000Z</time>
      </trkpt>
      <trkpt lat="48.1141" lon="3.31466">
        <ele>111.8</ele>
        <time>2024-03-30T17:10:11.000Z</time>
      </trkpt>
      <trkpt lat="48.11412" lon="3.31469">
        <ele>111.9</ele>
        <time>2024-03-30T17:10:12.000Z</time>
      </trkpt>
      <trkpt lat="48.11415" lon="3.3147">
        <ele>111.9</ele>
        <time>2024-03-30T17:10:13.000Z</time>
      </trkpt>
      <trkpt lat="48.11418" lon="3.31474">
        <ele>112.1</ele>
        <time>2024-03-30T17:10:14.000Z</time>
      </trkpt>
      <trkpt lat="48.11419" lon="3.31476">
        <ele>112.3</ele>
        <time>2024-03-30T17:10:15.000Z</time>
      </trkpt>
      <trkpt lat="48.11421" lon="3.31478">
        <ele>112.4</ele>
        <time>2024-03-30T17:10:16.000Z</time>
      </trkpt>
      <trkpt lat="48.11422" lon="3.31478">
        <ele>112.4</ele>
        <time>2024-03-30T17:10:17.000Z</time>
      </trkpt>
      <trkpt lat="48.11424" lon="3.31479">
        <ele>112.5</ele>
        <time>2024-03-30T17:10:18.000Z</time>
      </trkpt>
      <trkpt lat="48.11425" lon="3.31481">
        <ele>112.6</ele>
        <time>2024-03-30T17:10:19.000Z</time>
      </trkpt>
      <trkpt lat="48.11427" lon="3.31483">
        <ele>112.8</ele>
        <time>2024-03-30T17:10:20.000Z</time>
      </trkpt>
      <trkpt lat="48.11427" lon="3.31485">
        <ele>112.9</ele>
        <time>2024-03-30T17:10:21.000Z</time>
      </trkpt>
      <trkpt lat="48.11427" lon="3.31486">
        <ele>113</ele>
        <time>2024-03-30T17:10:22.000Z</time>
      </trkpt>
      <trkpt lat="48.11428" lon="3.31487">
        <ele>113.1</ele>
        <time>2024-03-30T17:10:23.000Z</time>
      </trkpt>
      <trkpt lat="48.1143" lon="3.31488">
        <ele>113.1</ele>
        <time>2024-03-30T17:10:24.000Z</time>
      </trkpt>
      <trkpt lat="48.11431" lon="3.31489">
        <ele>113.2</ele>
        <time>2024-03-30T17:10:25.000Z</time>
      </trkpt>
      <trkpt lat="48.11432" lon="3.31491">
        <ele>113.4</ele>
        <time>2024-03-30T17:10:26.000Z</time>
      </trkpt>
      <trkpt lat="48.11434" lon="3.31492">
        <ele>113.4</ele>
        <time>2024-03-30T17:10:27.000Z</time>
      </trkpt>
      <trkpt lat="48.11435" lon="3.31494">
        <ele>113.6</ele>
        <time>2024-03-30T17:10:28.000Z</time>
      </trkpt>
      <trkpt lat="48.11436" lon="3.31495">
        <ele>113.6</ele>
        <time>2024-03-30T17:10:29.000Z</time>
      </trkpt>
      <trkpt lat="48.11437" lon="3.31496">
        <ele>113.7</ele>
        <time>2024-03-30T17:10:30.000Z</time>
      </trkpt>
      <trkpt lat="48.11438" lon="3.31497">
        <ele>113.8</ele>
        <time>2024-03-30T17:10:31.000Z</time>
      </trkpt>
      <trkpt lat="48.11439" lon="3.31498">
        <ele>113.9</ele>
        <time>2024-03-30T17:10:32.000Z</time>
      </trkpt>
      <trkpt lat="48.1144" lon="3.315">
        <ele>114</ele>
        <time>2024-03-30T17:10:33.000Z</time>
      </trkpt>
      <trkpt lat="48.11441" lon="3.31501">
        <ele>114.1</ele>
        <time>2024-03-30T17:10:34.000Z</time>
      </trkpt>
      <trkpt lat="48.11445" lon="3.31504">
        <ele>114.3</ele>
        <time>2024-03-30T17:10:37.000Z</time>
      </trkpt>
      <trkpt lat="48.11446" lon="3.31506">
        <ele>114.4</ele>
        <time>2024-03-30T17:10:38.000Z</time>
      </trkpt>
      <trkpt lat="48.11447" lon="3.31506">
        <ele>114.4</ele>
        <time>2024-03-30T17:10:39.000Z</time>
      </trkpt>
      <trkpt lat="48.11447" lon="3.31506">
        <ele>114.4</ele>
        <time>2024-03-30T17:10:40.000Z</time>
      </trkpt>
      <trkpt lat="48.11447" lon="3.31506">
        <ele>114.4</ele>
        <time>2024-03-30T17:10:43.000Z</time>
      </trkpt>
      <trkpt lat="48.11447" lon="3.31506">
        <ele>114.4</ele>
        <time>2024-03-30T17:10:45.000Z</time>
      </trkpt>
      <trkpt lat="48.11447" lon="3.31506">
        <ele>114.4</ele>
        <time>2024-03-30T17:10:53.000Z</time>
      </trkpt>
      <trkpt lat="48.11448" lon="3.31506">
        <ele>114.4</ele>
        <time>2024-03-30T17:11:10.000Z</time>
      </trkpt>
      <trkpt lat="48.1145" lon="3.31504">
        <ele>114.3</ele>
        <time>2024-03-30T17:11:12.000Z</time>
      </trkpt>
      <trkpt lat="48.11453" lon="3.31494">
        <ele>113.6</ele>
        <time>2024-03-30T17:11:15.000Z</time>
      </trkpt>
      <trkpt lat="48.11454" lon="3.3149">
        <ele>113.3</ele>
        <time>2024-03-30T17:11:16.000Z</time>
      </trkpt>
      <trkpt lat="48.11459" lon="3.31476">
        <ele>112.3</ele>
        <time>2024-03-30T17:11:19.000Z</time>
      </trkpt>
      <trkpt lat="48.11471" lon="3.31454">
        <ele>111.3</ele>
        <time>2024-03-30T17:11:24.000Z</time>
      </trkpt>
      <trkpt lat="48.11477" lon="3.31442">
        <ele>110.8</ele>
        <time>2024-03-30T17:11:26.000Z</time>
      </trkpt>
      <trkpt lat="48.11482" lon="3.31425">
        <ele>109.8</ele>
        <time>2024-03-30T17:11:29.000Z</time>
      </trkpt>
      <trkpt lat="48.11487" lon="3.31415">
        <ele>109.4</ele>
        <time>2024-03-30T17:11:31.000Z</time>
      </trkpt>
      <trkpt lat="48.11491" lon="3.31411">
        <ele>109.3</ele>
        <time>2024-03-30T17:11:32.000Z</time>
      </trkpt>
      <trkpt lat="48.11495" lon="3.31409">
        <ele>109.3</ele>
        <time>2024-03-30T17:11:33.000Z</time>
      </trkpt>
      <trkpt lat="48.11498" lon="3.31408">
        <ele>109.3</ele>
        <time>2024-03-30T17:11:34.000Z</time>
      </trkpt>
      <trkpt lat="48.11499" lon="3.31407">
        <ele>109.3</ele>
        <time>2024-03-30T17:11:35.000Z</time>
      </trkpt>
      <trkpt lat="48.115" lon="3.31406">
        <ele>109.2</ele>
        <time>2024-03-30T17:11:36.000Z</time>
      </trkpt>
      <trkpt lat="48.11502" lon="3.31408">
        <ele>109.3</ele>
        <time>2024-03-30T17:11:37.000Z</time>
      </trkpt>
      <trkpt lat="48.11504" lon="3.31408">
        <ele>109.1</ele>
        <time>2024-03-30T17:11:38.000Z</time>
      </trkpt>
      <trkpt lat="48.11507" lon="3.3141">
        <ele>109.1</ele>
        <time>2024-03-30T17:11:39.000Z</time>
      </trkpt>
      <trkpt lat="48.11515" lon="3.31415">
        <ele>108.8</ele>
        <time>2024-03-30T17:11:42.000Z</time>
      </trkpt>
      <trkpt lat="48.11531" lon="3.31424">
        <ele>108.3</ele>
        <time>2024-03-30T17:11:48.000Z</time>
      </trkpt>
      <trkpt lat="48.11537" lon="3.31426">
        <ele>108</ele>
        <time>2024-03-30T17:11:50.000Z</time>
      </trkpt>
      <trkpt lat="48.11558" lon="3.31439">
        <ele>107.5</ele>
        <time>2024-03-30T17:11:57.000Z</time>
      </trkpt>
      <trkpt lat="48.11562" lon="3.31442">
        <ele>107.6</ele>
        <time>2024-03-30T17:11:59.000Z</time>
      </trkpt>
      <trkpt lat="48.11564" lon="3.31444">
        <ele>107.7</ele>
        <time>2024-03-30T17:12:00.000Z</time>
      </trkpt>
      <trkpt lat="48.11566" lon="3.31446">
        <ele>107.7</ele>
        <time>2024-03-30T17:12:01.000Z</time>
      </trkpt>
      <trkpt lat="48.11569" lon="3.31448">
        <ele>107.8</ele>
        <time>2024-03-30T17:12:02.000Z</time>
      </trkpt>
      <trkpt lat="48.11573" lon="3.3145">
        <ele>107.8</ele>
        <time>2024-03-30T17:12:04.000Z</time>
      </trkpt>
      <trkpt lat="48.11575" lon="3.31451">
        <ele>107.8</ele>
        <time>2024-03-30T17:12:05.000Z</time>
      </trkpt>
      <trkpt lat="48.11577" lon="3.31452">
        <ele>107.8</ele>
        <time>2024-03-30T17:12:06.000Z</time>
      </trkpt>
      <trkpt lat="48.1158" lon="3.31454">
        <ele>107.8</ele>
        <time>2024-03-30T17:12:07.000Z</time>
      </trkpt>
      <trkpt lat="48.11583" lon="3.31456">
        <ele>107.8</ele>
        <time>2024-03-30T17:12:08.000Z</time>
      </trkpt>
      <trkpt lat="48.11598" lon="3.31466">
        <ele>108</ele>
        <time>2024-03-30T17:12:14.000Z</time>
      </trkpt>
      <trkpt lat="48.11608" lon="3.31471">
        <ele>108</ele>
        <time>2024-03-30T17:12:18.000Z</time>
      </trkpt>
      <trkpt lat="48.1161" lon="3.31473">
        <ele>108.1</ele>
        <time>2024-03-30T17:12:19.000Z</time>
      </trkpt>
      <trkpt lat="48.11613" lon="3.31476">
        <ele>108.1</ele>
        <time>2024-03-30T17:12:20.000Z</time>
      </trkpt>
      <trkpt lat="48.11615" lon="3.31478">
        <ele>108.1</ele>
        <time>2024-03-30T17:12:21.000Z</time>
      </trkpt>
      <trkpt lat="48.11617" lon="3.3148">
        <ele>108.1</ele>
        <time>2024-03-30T17:12:22.000Z</time>
      </trkpt>
      <trkpt lat="48.11619" lon="3.31482">
        <ele>108.1</ele>
        <time>2024-03-30T17:12:23.000Z</time>
      </trkpt>
      <trkpt lat="48.1162" lon="3.31483">
        <ele>108.1</ele>
        <time>2024-03-30T17:12:24.000Z</time>
      </trkpt>
      <trkpt lat="48.11622" lon="3.31486">
        <ele>108.2</ele>
        <time>2024-03-30T17:12:25.000Z</time>
      </trkpt>
      <trkpt lat="48.11624" lon="3.31488">
        <ele>108.2</ele>
        <time>2024-03-30T17:12:26.000Z</time>
      </trkpt>
      <trkpt lat="48.11626" lon="3.3149">
        <ele>108.2</ele>
        <time>2024-03-30T17:12:27.000Z</time>
      </trkpt>
      <trkpt lat="48.11628" lon="3.31492">
        <ele>108.2</ele>
        <time>2024-03-30T17:12:28.000Z</time>
      </trkpt>
      <trkpt lat="48.1163" lon="3.31494">
        <ele>108.2</ele>
        <time>2024-03-30T17:12:29.000Z</time>
      </trkpt>
      <trkpt lat="48.11632" lon="3.31496">
        <ele>108.2</ele>
        <time>2024-03-30T17:12:30.000Z</time>
      </trkpt>
      <trkpt lat="48.11633" lon="3.31497">
        <ele>108.2</ele>
        <time>2024-03-30T17:12:31.000Z</time>
      </trkpt>
      <trkpt lat="48.11636" lon="3.315">
        <ele>108.2</ele>
        <time>2024-03-30T17:12:32.000Z</time>
      </trkpt>
      <trkpt lat="48.11649" lon="3.31512">
        <ele>108.7</ele>
        <time>2024-03-30T17:12:39.000Z</time>
      </trkpt>
      <trkpt lat="48.11669" lon="3.31519">
        <ele>109</ele>
        <time>2024-03-30T17:12:47.000Z</time>
      </trkpt>
      <trkpt lat="48.11708" lon="3.31527">
        <ele>108.4</ele>
        <time>2024-03-30T17:13:00.000Z</time>
      </trkpt>
      <trkpt lat="48.11729" lon="3.3153">
        <ele>107.9</ele>
        <time>2024-03-30T17:13:06.000Z</time>
      </trkpt>
      <trkpt lat="48.11752" lon="3.31535">
        <ele>107.4</ele>
        <time>2024-03-30T17:13:13.000Z</time>
      </trkpt>
      <trkpt lat="48.11786" lon="3.31542">
        <ele>106.7</ele>
        <time>2024-03-30T17:13:22.000Z</time>
      </trkpt>
      <trkpt lat="48.11794" lon="3.31543">
        <ele>106.5</ele>
        <time>2024-03-30T17:13:24.000Z</time>
      </trkpt>
      <trkpt lat="48.11831" lon="3.31556">
        <ele>106.1</ele>
        <time>2024-03-30T17:13:33.000Z</time>
      </trkpt>
      <trkpt lat="48.11842" lon="3.31561">
        <ele>105.6</ele>
        <time>2024-03-30T17:13:36.000Z</time>
      </trkpt>
      <trkpt lat="48.11846" lon="3.31563">
        <ele>105.5</ele>
        <time>2024-03-30T17:13:37.000Z</time>
      </trkpt>
      <trkpt lat="48.11849" lon="3.31564">
        <ele>105.3</ele>
        <time>2024-03-30T17:13:38.000Z</time>
      </trkpt>
      <trkpt lat="48.11853" lon="3.31566">
        <ele>105.2</ele>
        <time>2024-03-30T17:13:39.000Z</time>
      </trkpt>
      <trkpt lat="48.11856" lon="3.31567">
        <ele>105.1</ele>
        <time>2024-03-30T17:13:40.000Z</time>
      </trkpt>
      <trkpt lat="48.1186" lon="3.31569">
        <ele>105</ele>
        <time>2024-03-30T17:13:41.000Z</time>
      </trkpt>
      <trkpt lat="48.11863" lon="3.3157">
        <ele>105</ele>
        <time>2024-03-30T17:13:42.000Z</time>
      </trkpt>
      <trkpt lat="48.11867" lon="3.31572">
        <ele>105.2</ele>
        <time>2024-03-30T17:13:43.000Z</time>
      </trkpt>
      <trkpt lat="48.1187" lon="3.31573">
        <ele>105.3</ele>
        <time>2024-03-30T17:13:44.000Z</time>
      </trkpt>
      <trkpt lat="48.11873" lon="3.31574">
        <ele>105.3</ele>
        <time>2024-03-30T17:13:45.000Z</time>
      </trkpt>
      <trkpt lat="48.11876" lon="3.31576">
        <ele>105.5</ele>
        <time>2024-03-30T17:13:46.000Z</time>
      </trkpt>
      <trkpt lat="48.11879" lon="3.31577">
        <ele>105.5</ele>
        <time>2024-03-30T17:13:47.000Z</time>
      </trkpt>
      <trkpt lat="48.11882" lon="3.31578">
        <ele>105.6</ele>
        <time>2024-03-30T17:13:48.000Z</time>
      </trkpt>
      <trkpt lat="48.11885" lon="3.31579">
        <ele>105.7</ele>
        <time>2024-03-30T17:13:49.000Z</time>
      </trkpt>
      <trkpt lat="48.11888" lon="3.3158">
        <ele>105.8</ele>
        <time>2024-03-30T17:13:50.000Z</time>
      </trkpt>
      <trkpt lat="48.11891" lon="3.31581">
        <ele>105.8</ele>
        <time>2024-03-30T17:13:51.000Z</time>
      </trkpt>
      <trkpt lat="48.11894" lon="3.31582">
        <ele>105.7</ele>
        <time>2024-03-30T17:13:52.000Z</time>
      </trkpt>
      <trkpt lat="48.11897" lon="3.31583">
        <ele>105.7</ele>
        <time>2024-03-30T17:13:53.000Z</time>
      </trkpt>
      <trkpt lat="48.119" lon="3.31584">
        <ele>105.6</ele>
        <time>2024-03-30T17:13:54.000Z</time>
      </trkpt>
      <trkpt lat="48.11909" lon="3.31587">
        <ele>105.4</ele>
        <time>2024-03-30T17:13:57.000Z</time>
      </trkpt>
      <trkpt lat="48.11912" lon="3.31588">
        <ele>105.3</ele>
        <time>2024-03-30T17:13:58.000Z</time>
      </trkpt>
      <trkpt lat="48.11914" lon="3.31588">
        <ele>105.3</ele>
        <time>2024-03-30T17:13:59.000Z</time>
      </trkpt>
      <trkpt lat="48.11917" lon="3.31589">
        <ele>105.2</ele>
        <time>2024-03-30T17:14:00.000Z</time>
      </trkpt>
      <trkpt lat="48.1192" lon="3.3159">
        <ele>105.1</ele>
        <time>2024-03-30T17:14:01.000Z</time>
      </trkpt>
      <trkpt lat="48.11947" lon="3.31601">
        <ele>105.2</ele>
        <time>2024-03-30T17:14:10.000Z</time>
      </trkpt>
      <trkpt lat="48.11953" lon="3.31603">
        <ele>105.2</ele>
        <time>2024-03-30T17:14:12.000Z</time>
      </trkpt>
      <trkpt lat="48.11962" lon="3.31602">
        <ele>104.9</ele>
        <time>2024-03-30T17:14:15.000Z</time>
      </trkpt>
      <trkpt lat="48.11964" lon="3.31601">
        <ele>104.8</ele>
        <time>2024-03-30T17:14:16.000Z</time>
      </trkpt>
      <trkpt lat="48.11967" lon="3.31599">
        <ele>104.7</ele>
        <time>2024-03-30T17:14:17.000Z</time>
      </trkpt>
      <trkpt lat="48.1197" lon="3.31598">
        <ele>104.6</ele>
        <time>2024-03-30T17:14:18.000Z</time>
      </trkpt>
      <trkpt lat="48.11975" lon="3.31595">
        <ele>104.4</ele>
        <time>2024-03-30T17:14:20.000Z</time>
      </trkpt>
      <trkpt lat="48.11976" lon="3.31593">
        <ele>104.3</ele>
        <time>2024-03-30T17:14:21.000Z</time>
      </trkpt>
      <trkpt lat="48.11979" lon="3.31591">
        <ele>104.3</ele>
        <time>2024-03-30T17:14:22.000Z</time>
      </trkpt>
      <trkpt lat="48.11982" lon="3.31589">
        <ele>104.2</ele>
        <time>2024-03-30T17:14:23.000Z</time>
      </trkpt>
      <trkpt lat="48.11985" lon="3.31586">
        <ele>104.1</ele>
        <time>2024-03-30T17:14:24.000Z</time>
      </trkpt>
      <trkpt lat="48.11991" lon="3.31581">
        <ele>103.9</ele>
        <time>2024-03-30T17:14:26.000Z</time>
      </trkpt>
      <trkpt lat="48.12009" lon="3.31564">
        <ele>103.3</ele>
        <time>2024-03-30T17:14:32.000Z</time>
      </trkpt>
      <trkpt lat="48.12016" lon="3.31558">
        <ele>103.1</ele>
        <time>2024-03-30T17:14:34.000Z</time>
      </trkpt>
      <trkpt lat="48.12045" lon="3.31529">
        <ele>102</ele>
        <time>2024-03-30T17:14:43.000Z</time>
      </trkpt>
      <trkpt lat="48.12066" lon="3.31515">
        <ele>102</ele>
        <time>2024-03-30T17:14:49.000Z</time>
      </trkpt>
      <trkpt lat="48.12094" lon="3.31507">
        <ele>102</ele>
        <time>2024-03-30T17:14:57.000Z</time>
      </trkpt>
      <trkpt lat="48.12098" lon="3.31506">
        <ele>102</ele>
        <time>2024-03-30T17:14:58.000Z</time>
      </trkpt>
      <trkpt lat="48.12111" lon="3.31504">
        <ele>102</ele>
        <time>2024-03-30T17:15:02.000Z</time>
      </trkpt>
      <trkpt lat="48.12114" lon="3.31503">
        <ele>101.9</ele>
        <time>2024-03-30T17:15:03.000Z</time>
      </trkpt>
      <trkpt lat="48.12118" lon="3.31502">
        <ele>101.8</ele>
        <time>2024-03-30T17:15:04.000Z</time>
      </trkpt>
      <trkpt lat="48.12137" lon="3.31497">
        <ele>101</ele>
        <time>2024-03-30T17:15:09.000Z</time>
      </trkpt>
      <trkpt lat="48.12157" lon="3.31492">
        <ele>100.7</ele>
        <time>2024-03-30T17:15:14.000Z</time>
      </trkpt>
      <trkpt lat="48.12169" lon="3.3149">
        <ele>100.6</ele>
        <time>2024-03-30T17:15:17.000Z</time>
      </trkpt>
      <trkpt lat="48.12201" lon="3.31481">
        <ele>99.8</ele>
        <time>2024-03-30T17:15:25.000Z</time>
      </trkpt>
      <trkpt lat="48.12205" lon="3.3148">
        <ele>99.6</ele>
        <time>2024-03-30T17:15:26.000Z</time>
      </trkpt>
      <trkpt lat="48.12232" lon="3.31475">
        <ele>98.6</ele>
        <time>2024-03-30T17:15:33.000Z</time>
      </trkpt>
      <trkpt lat="48.12236" lon="3.31474">
        <ele>98.5</ele>
        <time>2024-03-30T17:15:34.000Z</time>
      </trkpt>
      <trkpt lat="48.1224" lon="3.31473">
        <ele>98.4</ele>
        <time>2024-03-30T17:15:35.000Z</time>
      </trkpt>
      <trkpt lat="48.12244" lon="3.31472">
        <ele>98.2</ele>
        <time>2024-03-30T17:15:36.000Z</time>
      </trkpt>
      <trkpt lat="48.12273" lon="3.31465">
        <ele>96.3</ele>
        <time>2024-03-30T17:15:43.000Z</time>
      </trkpt>
      <trkpt lat="48.12276" lon="3.31464">
        <ele>96.1</ele>
        <time>2024-03-30T17:15:44.000Z</time>
      </trkpt>
      <trkpt lat="48.12279" lon="3.31464">
        <ele>95.9</ele>
        <time>2024-03-30T17:15:45.000Z</time>
      </trkpt>
      <trkpt lat="48.12281" lon="3.31464">
        <ele>95.8</ele>
        <time>2024-03-30T17:15:46.000Z</time>
      </trkpt>
      <trkpt lat="48.12283" lon="3.31464">
        <ele>95.6</ele>
        <time>2024-03-30T17:15:47.000Z</time>
      </trkpt>
      <trkpt lat="48.12286" lon="3.31464">
        <ele>95.4</ele>
        <time>2024-03-30T17:15:48.000Z</time>
      </trkpt>
      <trkpt lat="48.12292" lon="3.31462">
        <ele>95</ele>
        <time>2024-03-30T17:15:50.000Z</time>
      </trkpt>
      <trkpt lat="48.12302" lon="3.31456">
        <ele>94.3</ele>
        <time>2024-03-30T17:15:53.000Z</time>
      </trkpt>
      <trkpt lat="48.12316" lon="3.31441">
        <ele>93.6</ele>
        <time>2024-03-30T17:15:57.000Z</time>
      </trkpt>
      <trkpt lat="48.12325" lon="3.31433">
        <ele>93</ele>
        <time>2024-03-30T17:15:59.000Z</time>
      </trkpt>
      <trkpt lat="48.12341" lon="3.31423">
        <ele>91.9</ele>
        <time>2024-03-30T17:16:02.000Z</time>
      </trkpt>
      <trkpt lat="48.12354" lon="3.31417">
        <ele>91.3</ele>
        <time>2024-03-30T17:16:04.000Z</time>
      </trkpt>
      <trkpt lat="48.1236" lon="3.31415">
        <ele>91</ele>
        <time>2024-03-30T17:16:05.000Z</time>
      </trkpt>
      <trkpt lat="48.12366" lon="3.31413">
        <ele>90.8</ele>
        <time>2024-03-30T17:16:06.000Z</time>
      </trkpt>
      <trkpt lat="48.12373" lon="3.31411">
        <ele>90.5</ele>
        <time>2024-03-30T17:16:07.000Z</time>
      </trkpt>
      <trkpt lat="48.12392" lon="3.31402">
        <ele>89.2</ele>
        <time>2024-03-30T17:16:10.000Z</time>
      </trkpt>
      <trkpt lat="48.12404" lon="3.31391">
        <ele>88</ele>
        <time>2024-03-30T17:16:12.000Z</time>
      </trkpt>
      <trkpt lat="48.12414" lon="3.31375">
        <ele>87.2</ele>
        <time>2024-03-30T17:16:14.000Z</time>
      </trkpt>
      <trkpt lat="48.1242" lon="3.31361">
        <ele>86.9</ele>
        <time>2024-03-30T17:16:16.000Z</time>
      </trkpt>
      <trkpt lat="48.12422" lon="3.31358">
        <ele>86.8</ele>
        <time>2024-03-30T17:16:17.000Z</time>
      </trkpt>
      <trkpt lat="48.12423" lon="3.31355">
        <ele>86.8</ele>
        <time>2024-03-30T17:16:18.000Z</time>
      </trkpt>
      <trkpt lat="48.12425" lon="3.31353">
        <ele>86.7</ele>
        <time>2024-03-30T17:16:19.000Z</time>
      </trkpt>
      <trkpt lat="48.12426" lon="3.3135">
        <ele>86.7</ele>
        <time>2024-03-30T17:16:20.000Z</time>
      </trkpt>
      <trkpt lat="48.12428" lon="3.31347">
        <ele>86.6</ele>
        <time>2024-03-30T17:16:21.000Z</time>
      </trkpt>
      <trkpt lat="48.1243" lon="3.31344">
        <ele>86.5</ele>
        <time>2024-03-30T17:16:22.000Z</time>
      </trkpt>
      <trkpt lat="48.12432" lon="3.31341">
        <ele>86.4</ele>
        <time>2024-03-30T17:16:23.000Z</time>
      </trkpt>
      <trkpt lat="48.12436" lon="3.31335">
        <ele>86.3</ele>
        <time>2024-03-30T17:16:25.000Z</time>
      </trkpt>
      <trkpt lat="48.12437" lon="3.31332">
        <ele>86.3</ele>
        <time>2024-03-30T17:16:26.000Z</time>
      </trkpt>
      <trkpt lat="48.12439" lon="3.3133">
        <ele>86.2</ele>
        <time>2024-03-30T17:16:27.000Z</time>
      </trkpt>
      <trkpt lat="48.12441" lon="3.31329">
        <ele>86.1</ele>
        <time>2024-03-30T17:16:28.000Z</time>
      </trkpt>
      <trkpt lat="48.12442" lon="3.31328">
        <ele>86.1</ele>
        <time>2024-03-30T17:16:29.000Z</time>
      </trkpt>
      <trkpt lat="48.12444" lon="3.31327">
        <ele>86</ele>
        <time>2024-03-30T17:16:30.000Z</time>
      </trkpt>
      <trkpt lat="48.12445" lon="3.31326">
        <ele>86</ele>
        <time>2024-03-30T17:16:31.000Z</time>
      </trkpt>
      <trkpt lat="48.12459" lon="3.31323">
        <ele>85.5</ele>
        <time>2024-03-30T17:16:36.000Z</time>
      </trkpt>
      <trkpt lat="48.12469" lon="3.31324">
        <ele>85.1</ele>
        <time>2024-03-30T17:16:39.000Z</time>
      </trkpt>
      <trkpt lat="48.12472" lon="3.31323">
        <ele>85</ele>
        <time>2024-03-30T17:16:40.000Z</time>
      </trkpt>
      <trkpt lat="48.12478" lon="3.31323">
        <ele>85</ele>
        <time>2024-03-30T17:16:42.000Z</time>
      </trkpt>
      <trkpt lat="48.125" lon="3.31318">
        <ele>85</ele>
        <time>2024-03-30T17:16:49.000Z</time>
      </trkpt>
      <trkpt lat="48.12503" lon="3.31315">
        <ele>85</ele>
        <time>2024-03-30T17:16:50.000Z</time>
      </trkpt>
      <trkpt lat="48.12505" lon="3.3131">
        <ele>85</ele>
        <time>2024-03-30T17:16:51.000Z</time>
      </trkpt>
      <trkpt lat="48.12506" lon="3.31305">
        <ele>85</ele>
        <time>2024-03-30T17:16:52.000Z</time>
      </trkpt>
      <trkpt lat="48.12508" lon="3.31299">
        <ele>84.9</ele>
        <time>2024-03-30T17:16:53.000Z</time>
      </trkpt>
      <trkpt lat="48.12509" lon="3.31294">
        <ele>84.9</ele>
        <time>2024-03-30T17:16:54.000Z</time>
      </trkpt>
      <trkpt lat="48.12517" lon="3.31263">
        <ele>84.9</ele>
        <time>2024-03-30T17:16:59.000Z</time>
      </trkpt>
      <trkpt lat="48.12518" lon="3.31257">
        <ele>84.8</ele>
        <time>2024-03-30T17:17:00.000Z</time>
      </trkpt>
      <trkpt lat="48.12532" lon="3.3121">
        <ele>84.3</ele>
        <time>2024-03-30T17:17:08.000Z</time>
      </trkpt>
      <trkpt lat="48.12538" lon="3.3119">
        <ele>84.4</ele>
        <time>2024-03-30T17:17:11.000Z</time>
      </trkpt>
      <trkpt lat="48.12545" lon="3.31154">
        <ele>84.6</ele>
        <time>2024-03-30T17:17:16.000Z</time>
      </trkpt>
      <trkpt lat="48.12546" lon="3.31147">
        <ele>84.5</ele>
        <time>2024-03-30T17:17:17.000Z</time>
      </trkpt>
      <trkpt lat="48.12551" lon="3.31079">
        <ele>83.7</ele>
        <time>2024-03-30T17:17:26.000Z</time>
      </trkpt>
      <trkpt lat="48.12553" lon="3.31058">
        <ele>83</ele>
        <time>2024-03-30T17:17:29.000Z</time>
      </trkpt>
      <trkpt lat="48.12554" lon="3.31051">
        <ele>82.9</ele>
        <time>2024-03-30T17:17:30.000Z</time>
      </trkpt>
      <trkpt lat="48.12556" lon="3.31022">
        <ele>83.1</ele>
        <time>2024-03-30T17:17:34.000Z</time>
      </trkpt>
      <trkpt lat="48.1256" lon="3.30953">
        <ele>82.6</ele>
        <time>2024-03-30T17:17:43.000Z</time>
      </trkpt>
      <trkpt lat="48.12565" lon="3.30917">
        <ele>82.7</ele>
        <time>2024-03-30T17:17:48.000Z</time>
      </trkpt>
      <trkpt lat="48.12569" lon="3.30905">
        <ele>82.6</ele>
        <time>2024-03-30T17:17:50.000Z</time>
      </trkpt>
      <trkpt lat="48.12571" lon="3.309">
        <ele>82.4</ele>
        <time>2024-03-30T17:17:51.000Z</time>
      </trkpt>
      <trkpt lat="48.12573" lon="3.30895">
        <ele>82.3</ele>
        <time>2024-03-30T17:17:52.000Z</time>
      </trkpt>
      <trkpt lat="48.12575" lon="3.30891">
        <ele>82.1</ele>
        <time>2024-03-30T17:17:53.000Z</time>
      </trkpt>
      <trkpt lat="48.12578" lon="3.30886">
        <ele>82</ele>
        <time>2024-03-30T17:17:54.000Z</time>
      </trkpt>
      <trkpt lat="48.1258" lon="3.30882">
        <ele>82</ele>
        <time>2024-03-30T17:17:55.000Z</time>
      </trkpt>
      <trkpt lat="48.12592" lon="3.3087">
        <ele>81.9</ele>
        <time>2024-03-30T17:17:59.000Z</time>
      </trkpt>
      <trkpt lat="48.126" lon="3.30856">
        <ele>81.2</ele>
        <time>2024-03-30T17:18:02.000Z</time>
      </trkpt>
      <trkpt lat="48.12602" lon="3.30852">
        <ele>81</ele>
        <time>2024-03-30T17:18:03.000Z</time>
      </trkpt>
      <trkpt lat="48.12602" lon="3.30847">
        <ele>80.8</ele>
        <time>2024-03-30T17:18:04.000Z</time>
      </trkpt>
      <trkpt lat="48.12601" lon="3.30843">
        <ele>80.7</ele>
        <time>2024-03-30T17:18:05.000Z</time>
      </trkpt>
      <trkpt lat="48.126" lon="3.3084">
        <ele>80.6</ele>
        <time>2024-03-30T17:18:06.000Z</time>
      </trkpt>
      <trkpt lat="48.12598" lon="3.30838">
        <ele>80.6</ele>
        <time>2024-03-30T17:18:07.000Z</time>
      </trkpt>
      <trkpt lat="48.12596" lon="3.30837">
        <ele>80.7</ele>
        <time>2024-03-30T17:18:08.000Z</time>
      </trkpt>
      <trkpt lat="48.12595" lon="3.30836">
        <ele>80.7</ele>
        <time>2024-03-30T17:18:10.000Z</time>
      </trkpt>
      <trkpt lat="48.12595" lon="3.30836">
        <ele>80.7</ele>
        <time>2024-03-30T17:18:13.000Z</time>
      </trkpt>
    </trkseg>
  </trk>
</gpx>